GFSMA_sfc_wetblb_000.txt.gz
Wetbulb
61.47 61.67 61.58 61.70 61.59 62.40 60.32 55.81 52.80 52.58 51.87 52.47 52.20 52.17 52.79 54.30 54.56 56.76 57.52 60.70 62.91 63.99 65.38 65.63 66.57 67.29 68.23 68.51 68.04 68.05 67.82 67.49 67.39 68.16 67.98 67.66 67.57 67.61 67.70 67.82 67.87 68.16 68.02
61.72 60.49 54.78 54.54 55.24 52.20 51.18 49.90 49.07 48.62 47.84 48.48 48.81 49.47 49.49 50.06 50.21 50.85 52.32 54.18 60.89 62.10 61.54 61.89 62.61 64.61 66.51 66.52 66.57 67.64 67.41 67.29 67.19 66.78 66.61 66.60 66.69 66.86 67.24 67.50 67.39 67.46 67.80
55.68 53.33 51.84 49.53 49.82 49.63 48.43 47.34 46.43 45.82 45.82 46.84 45.10 46.72 46.45 45.99 47.43 47.69 50.15 50.51 51.83 56.86 59.00 59.40 61.68 59.26 60.21 60.72 61.57 62.62 64.80 64.67 64.39 64.46 64.65 65.29 65.47 65.62 66.16 66.12 66.37 66.90 67.12
51.54 49.63 47.69 46.69 47.56 46.69 45.51 44.84 44.07 43.04 43.29 42.58 42.03 43.04 43.87 44.20 45.30 47.19 47.71 46.45 48.00 49.80 52.53 56.90 55.37 55.65 56.12 57.76 59.53 59.29 59.65 59.88 62.01 62.63 62.69 63.90 63.99 64.51 64.73 65.12 65.53 65.65 65.87
48.16 46.65 45.44 45.08 45.52 44.12 42.87 43.03 41.43 40.89 40.91 40.73 42.38 43.06 41.74 42.02 44.37 44.85 42.36 44.31 46.89 46.50 46.76 52.50 53.39 53.24 53.86 55.19 55.81 57.04 57.32 57.25 57.88 58.48 58.41 58.63 60.47 60.92 61.70 62.27 63.91 64.27 63.95
45.29 44.47 43.20 43.31 43.75 42.08 40.99 40.53 39.38 40.14 40.26 39.66 43.32 42.25 39.94 42.30 41.39 40.17 41.09 44.13 43.00 42.35 43.95 43.21 42.49 44.60 51.67 52.08 53.78 54.35 55.18 56.52 57.38 57.17 56.77 57.88 58.26 58.49 59.19 59.80 60.54 61.30 62.02
43.28 42.43 41.80 41.50 41.87 40.16 38.79 39.61 39.08 38.87 38.99 39.51 37.96 38.00 39.71 40.37 38.82 40.42 40.65 39.87 41.18 40.94 41.94 42.11 43.40 42.97 42.95 49.32 49.25 51.34 52.73 53.71 54.51 55.06 55.45 55.75 56.30 56.52 56.76 57.22 57.91 58.81 59.58
42.28 42.17 40.42 39.93 39.62 39.12 37.83 37.76 37.54 37.19 38.14 38.34 35.83 35.38 34.02 36.31 38.45 39.87 39.22 40.04 38.72 40.22 41.01 41.87 41.39 41.63 41.12 40.23 42.67 48.16 49.33 52.05 52.90 53.25 53.95 54.38 54.62 55.25 55.22 55.89 56.72 56.97 57.70
40.99 40.56 39.57 38.80 38.29 37.61 36.41 36.17 35.81 35.44 34.51 36.40 36.55 35.72 32.12 30.53 34.88 36.45 37.53 37.10 38.76 37.27 39.18 39.34 41.00 40.47 39.25 39.05 40.72 42.36 47.41 48.77 50.46 52.17 52.99 53.31 53.35 53.71 54.21 54.44 54.75 55.10 55.56
39.41 39.49 38.89 37.82 36.92 36.64 35.04 35.32 36.82 34.99 34.40 32.94 35.19 38.58 35.56 34.72 30.32 29.67 34.23 36.76 35.31 37.30 36.77 37.36 38.74 38.37 38.44 38.83 41.21 43.69 45.40 46.66 48.84 50.67 51.71 52.04 52.24 52.74 53.36 53.27 53.59 53.82 53.60
38.03 38.08 37.47 36.33 35.66 35.48 34.41 34.00 33.66 32.95 33.83 33.05 33.21 33.53 32.77 33.07 32.74 30.41 28.37 30.88 35.00 36.35 37.76 37.10 35.87 37.24 37.34 37.61 37.45 40.22 44.64 46.03 48.25 48.84 50.05 50.54 50.76 51.43 51.98 51.98 52.01 51.86 51.87
36.32 36.19 36.49 35.02 34.41 34.10 33.77 33.66 33.16 32.54 32.10 32.31 32.34 31.99 32.24 30.96 30.64 29.90 29.34 30.03 30.08 33.18 34.32 35.66 34.89 35.92 35.80 36.38 39.55 42.59 43.39 44.37 45.60 46.77 48.06 48.78 49.10 49.02 49.27 49.58 49.74 49.73 50.09
34.30 33.99 34.32 33.40 33.01 32.99 33.48 32.98 32.16 31.62 31.57 30.81 30.18 30.86 31.83 31.67 31.96 32.07 30.60 28.72 28.49 31.63 32.65 33.52 33.19 33.99 36.84 34.54 35.56 40.66 41.34 42.18 42.71 44.53 46.18 47.02 46.15 46.12 46.41 47.33 48.15 48.51 48.85
33.63 33.49 33.10 32.69 32.37 32.47 32.22 31.67 31.28 31.07 31.36 30.20 29.25 29.42 30.25 31.00 31.90 31.71 29.82 28.49 26.49 28.14 30.37 29.65 32.49 32.36 32.99 33.94 37.37 39.80 35.75 39.85 40.63 41.93 43.56 44.04 43.58 43.30 44.07 44.86 45.65 46.55 46.66
35.57 32.76 32.21 31.76 31.50 31.45 31.34 30.58 30.29 29.84 29.76 29.54 29.02 28.78 28.61 29.94 30.18 30.72 30.83 30.58 28.17 24.19 25.63 29.48 30.01 32.36 32.32 33.44 35.51 34.95 34.62 38.18 39.79 40.62 40.99 41.06 41.22 41.94 42.59 43.28 43.81 44.22 44.30
32.31 31.96 31.53 31.16 30.89 30.73 30.54 29.86 29.51 30.09 29.22 29.17 30.63 27.78 27.71 29.30 29.90 30.72 30.37 30.46 30.07 27.82 24.39 29.94 30.67 31.60 32.38 33.67 34.92 34.89 34.22 37.51 38.66 39.57 39.77 39.62 39.69 40.30 41.40 41.50 42.07 42.62 42.64
31.29 31.22 31.14 30.75 30.35 30.25 30.12 29.13 28.87 29.42 29.02 28.30 27.72 28.24 28.32 29.10 29.69 29.79 30.23 30.13 29.32 29.05 26.02 28.90 30.95 31.78 30.84 30.88 32.61 33.18 34.02 33.66 34.12 37.67 38.46 38.76 39.14 39.46 39.94 39.98 39.94 40.40 40.93
31.06 30.78 30.64 30.57 30.50 30.27 29.76 28.67 28.21 28.54 27.91 27.16 27.36 27.79 28.34 31.03 28.50 28.98 29.23 28.64 28.94 29.19 27.47 25.62 29.21 30.04 30.33 31.42 32.20 31.66 32.40 33.01 31.55 34.91 36.71 37.72 37.81 37.96 38.04 38.34 38.74 39.40 40.11
30.50 30.42 30.70 30.32 30.23 30.25 29.32 29.12 28.46 28.13 27.73 27.43 27.28 27.19 27.68 28.09 27.19 28.05 28.41 28.52 29.45 30.88 30.34 28.84 27.45 29.74 29.99 31.63 28.83 28.78 28.38 28.63 30.24 33.56 35.58 36.18 36.68 37.01 37.53 38.20 38.99 38.08 37.51
30.32 30.11 30.11 29.67 29.53 29.12 29.42 29.21 29.07 28.08 27.63 28.35 28.37 28.35 27.82 27.71 27.59 28.15 29.24 29.98 29.85 27.90 27.94 27.37 27.83 28.25 30.61 28.41 26.82 24.88 24.28 26.56 26.29 30.02 32.55 33.93 35.35 35.78 36.48 36.15 36.05 35.96 36.15
29.92 29.32 28.85 28.39 28.16 29.09 31.85 31.99 31.38 29.24 27.67 26.89 27.23 27.71 28.59 30.74 33.83 33.06 31.16 29.18 29.09 28.39 29.49 28.58 26.40 27.67 25.65 24.39 23.23 24.54 23.54 24.83 26.53 29.34 27.36 27.70 29.10 29.07 29.44 32.66 33.12 34.33 35.23
28.20 28.11 27.26 26.97 26.51 30.22 34.82 36.24 34.62 30.24 27.56 26.00 25.59 26.86 27.81 31.38 30.84 34.25 34.16 34.35 33.42 29.93 27.60 27.65 27.51 24.57 23.60 23.71 24.20 23.73 24.54 25.03 20.25 27.19 25.75 25.51 28.00 26.72 27.93 28.97 33.22 34.47 35.16
26.50 26.42 26.28 25.92 25.40 25.53 34.65 35.18 35.36 30.28 26.91 26.00 26.55 26.97 27.84 30.19 30.74 28.36 31.55 33.83 33.26 34.08 33.68 28.49 24.35 23.70 23.59 24.69 26.74 25.55 23.54 23.13 22.79 25.46 25.11 22.96 26.15 24.62 27.07 28.69 32.46 33.35 34.31
26.01 25.99 25.51 25.25 24.51 27.04 33.42 34.12 34.57 27.91 25.78 25.57 26.58 26.54 26.29 26.73 28.28 30.17 29.49 28.86 30.43 27.99 26.96 27.08 26.30 27.38 28.54 27.63 26.21 25.76 25.63 25.33 25.41 25.12 25.62 20.56 24.05 22.78 25.37 26.41 31.61 32.92 33.76
25.02 24.55 25.35 24.46 23.27 23.72 31.91 33.09 32.04 27.29 26.65 25.84 26.47 26.69 27.65 28.07 31.75 33.92 30.78 29.35 25.16 24.58 28.86 31.38 31.84 30.89 30.43 30.59 29.60 26.57 23.35 21.52 19.51 20.84 23.97 21.86 22.13 22.34 23.81 24.55 26.75 31.89 33.37
24.54 25.29 24.84 24.02 26.90 22.91 29.32 32.41 31.61 27.96 25.18 25.66 26.09 27.51 31.50 30.82 33.56 34.79 28.70 25.02 21.69 22.63 26.28 25.33 23.29 24.61 26.39 25.98 29.49 26.21 24.67 20.20 19.51 18.61 22.96 21.44 21.84 22.87 21.41 25.32 25.61 26.91 27.69

GFSMA_sfc_wetblb_003.txt.gz
Wetbulb
60.28 60.69 60.82 58.13 54.86 54.11 51.69 48.92 48.15 46.91 46.34 46.84 46.36 46.74 46.94 47.69 47.71 50.15 51.71 57.47 60.74 60.41 60.90 62.24 63.92 64.30 63.57 64.27 65.15 66.33 66.99 66.41 66.58 66.73 66.08 65.85 66.06 65.67 66.23 66.73 66.90 67.04 67.42
58.46 51.15 51.71 53.39 52.02 48.77 47.66 45.77 44.53 43.86 43.68 43.72 43.79 44.01 43.82 43.27 44.69 46.50 49.21 48.59 56.59 56.56 58.74 61.22 59.56 59.51 59.59 61.06 62.57 62.60 62.23 62.02 61.67 61.54 61.71 62.12 63.16 64.95 64.38 64.75 65.53 65.44 66.09
52.89 52.09 51.08 49.39 47.09 45.48 44.63 42.92 42.38 42.60 41.93 42.33 40.22 41.94 42.93 41.11 43.79 44.26 44.91 45.21 48.07 52.67 55.63 55.75 56.13 56.59 57.57 59.25 58.91 59.54 59.66 59.55 59.51 59.94 59.80 59.98 60.28 60.78 61.81 62.98 64.28 65.41 64.79
51.15 48.25 46.34 45.44 43.89 42.76 42.43 41.32 40.61 40.58 40.14 39.10 38.84 40.65 40.77 40.50 42.84 40.40 41.81 42.88 45.26 44.95 48.60 51.77 53.04 53.27 55.69 55.91 56.88 57.18 57.17 57.05 57.79 58.50 58.85 58.69 59.13 59.55 60.82 61.33 61.77 62.35 62.89
47.50 44.63 44.03 43.30 42.15 41.36 40.64 40.24 39.11 38.49 38.43 38.86 40.36 41.35 39.05 39.31 40.81 39.96 39.09 40.80 42.55 40.86 43.03 46.82 49.33 49.65 51.82 52.83 53.74 54.60 55.11 55.82 56.60 57.18 57.02 56.75 57.26 57.72 58.10 58.41 58.89 59.60 60.52
43.48 42.38 41.97 41.71 41.01 40.07 39.17 38.25 37.26 37.62 38.21 37.26 40.62 40.80 37.80 40.34 38.43 37.25 38.07 39.67 39.17 38.55 41.20 39.53 40.36 41.73 48.73 49.87 50.45 52.26 52.74 52.79 53.61 54.56 54.52 54.85 55.52 55.73 56.29 56.68 56.78 57.16 57.80
42.04 41.03 40.63 40.27 39.67 38.08 36.82 37.14 36.98 36.36 36.54 37.29 35.91 36.47 37.70 38.20 37.28 37.56 37.78 36.99 37.49 38.61 38.96 39.40 40.75 40.42 40.30 45.92 46.67 49.28 49.94 51.18 52.87 52.75 53.33 53.94 54.42 54.83 55.10 55.65 55.87 55.66 56.32
41.18 40.86 39.51 38.52 37.64 36.83 35.69 35.15 35.27 34.79 34.94 36.34 34.09 33.83 32.17 34.53 36.58 38.50 36.35 37.72 35.94 37.56 38.08 39.28 39.32 39.13 38.67 36.49 40.41 46.39 47.25 50.36 51.20 51.58 52.06 52.71 53.07 53.46 54.10 54.36 54.54 54.91 55.01
39.95 39.23 38.22 37.34 36.31 35.60 34.45 33.89 33.56 32.97 32.15 33.48 34.72 32.82 28.61 28.30 32.18 34.28 35.68 34.77 36.19 34.66 36.36 37.01 38.31 38.44 38.03 35.87 39.24 40.37 45.48 47.04 49.10 50.84 51.82 51.82 51.85 52.12 52.77 53.19 53.64 53.94 54.31
38.29 38.31 37.39 36.22 35.25 34.81 33.34 33.29 34.71 32.49 32.30 30.72 32.94 35.87 33.37 32.46 28.83 27.75 32.19 34.37 33.31 35.41 33.39 34.25 37.06 36.74 36.47 36.00 39.46 41.81 44.15 45.82 48.01 49.69 50.33 50.52 50.78 51.17 51.75 51.90 52.37 52.86 53.12
36.81 36.80 36.06 34.88 34.20 33.85 32.67 32.15 31.61 30.90 31.73 30.84 30.92 30.95 30.38 30.81 30.67 28.33 26.05 28.72 32.93 33.87 34.12 34.72 34.19 36.10 35.24 35.72 35.06 39.04 43.84 45.07 46.67 47.86 49.11 49.51 49.71 50.45 51.11 51.31 51.31 51.24 51.20
35.11 34.91 35.09 33.79 33.09 32.62 32.04 31.71 31.14 30.72 30.28 30.20 29.97 29.67 29.78 28.68 27.92 26.76 26.24 27.39 27.44 30.09 31.34 33.86 34.34 33.70 34.16 34.43 38.36 41.65 42.43 43.22 44.84 45.97 47.15 48.07 48.44 48.78 49.05 49.31 49.68 49.89 50.09
33.55 33.13 33.21 32.31 31.83 31.62 31.90 31.21 30.53 29.92 29.77 28.85 28.12 28.63 29.88 29.47 29.73 29.17 27.85 26.37 25.74 28.61 29.33 31.14 32.19 32.64 35.34 33.60 34.08 40.30 41.22 41.99 42.42 43.91 45.79 46.95 46.10 46.05 46.31 46.96 47.93 48.20 48.61
33.09 32.76 32.18 31.67 31.30 31.27 30.85 30.19 29.96 29.63 29.81 28.62 27.67 27.63 28.39 28.73 29.38 29.13 27.64 25.87 23.49 25.34 27.74 26.59 30.73 31.36 31.61 32.31 35.53 39.95 35.85 39.66 40.54 41.95 43.56 44.15 43.89 43.54 43.77 44.57 45.48 46.15 46.76
34.47 31.94 31.35 30.89 30.42 30.39 30.20 29.48 29.22 28.72 28.43 28.19 27.75 27.38 26.91 28.22 28.64 28.44 28.49 28.21 25.42 21.80 23.13 26.96 27.12 31.16 31.07 31.98 34.42 34.63 34.06 37.79 39.54 40.46 41.11 41.08 41.00 41.49 42.00 42.50 42.95 43.38 44.10
31.61 31.17 30.59 30.18 30.03 29.87 29.52 28.82 28.46 28.92 28.04 28.25 29.41 26.89 26.47 27.67 27.89 28.59 28.56 28.57 28.24 26.04 23.00 28.38 29.48 30.98 30.69 32.98 34.33 34.37 33.83 37.46 38.41 39.17 39.25 39.18 39.11 39.28 39.98 40.68 41.43 42.56 43.08
30.80 30.52 30.25 29.91 29.48 29.17 28.97 28.10 27.86 28.78 27.95 27.42 27.16 26.87 27.28 27.95 27.48 28.21 28.23 28.37 27.80 27.65 24.77 27.62 30.12 31.17 30.72 30.75 31.86 32.73 33.99 34.10 33.50 37.15 37.41 37.54 37.56 37.96 39.06 39.81 40.07 40.80 41.14
30.36 29.99 29.77 29.52 29.23 29.14 28.51 27.53 27.20 27.53 27.14 26.56 26.72 26.64 27.24 30.34 26.91 26.93 27.30 27.06 27.59 28.16 27.12 25.89 28.77 28.72 28.76 30.04 30.57 31.14 31.68 32.12 30.29 33.36 35.43 36.09 37.05 37.52 38.08 38.52 38.90 39.24 39.78
29.63 29.41 29.13 28.50 28.56 28.76 27.97 27.69 27.57 27.55 27.13 26.79 26.55 25.97 26.57 26.67 25.65 26.26 26.76 27.12 28.11 30.58 28.77 26.33 25.64 28.68 29.38 30.03 29.81 28.87 27.72 27.81 29.33 32.56 34.33 34.80 35.87 36.79 37.10 37.39 37.73 38.27 38.51
28.83 28.25 28.18 28.30 28.16 27.84 28.08 28.36 28.70 27.62 26.93 27.72 27.47 27.16 26.88 26.71 26.17 26.59 27.97 28.17 29.77 27.57 27.59 26.92 27.73 28.31 27.48 29.85 28.39 24.94 24.16 26.17 25.71 28.66 31.23 33.13 33.99 34.32 35.04 35.61 35.85 35.56 35.37
28.08 27.87 28.28 27.48 26.81 27.77 30.77 30.70 29.87 28.07 26.44 25.56 25.71 26.02 27.57 29.73 33.36 32.66 30.66 29.48 28.35 27.50 27.75 28.58 25.91 27.12 25.17 24.31 22.99 24.49 23.66 24.76 25.81 28.16 25.46 26.19 26.90 27.74 28.52 31.86 32.37 33.50 33.97
27.47 27.39 26.44 25.96 25.48 29.13 33.76 35.56 33.90 28.37 25.66 24.67 24.39 25.79 26.35 30.11 29.84 33.51 33.46 33.80 32.83 29.44 27.68 27.60 25.49 23.69 22.60 23.05 24.05 24.23 25.05 22.50 19.78 26.85 24.56 24.72 26.56 25.35 26.66 27.76 32.19 33.55 34.54
25.52 25.56 25.24 25.02 24.58 24.28 33.71 34.67 34.79 27.33 25.11 24.49 26.07 25.94 26.55 29.09 30.12 27.66 30.94 33.32 33.34 34.85 32.19 28.21 23.52 22.72 22.47 24.66 26.81 24.49 23.57 23.61 22.83 25.20 25.12 22.67 24.89 23.37 26.01 27.63 31.81 32.77 33.80
24.81 24.38 24.93 24.54 23.33 25.64 32.91 33.66 34.07 26.27 24.90 24.65 25.70 25.32 25.15 25.77 27.25 29.74 30.46 30.03 27.33 26.28 26.24 26.44 25.75 26.84 27.67 27.17 26.28 25.76 25.01 25.22 25.38 25.06 25.17 19.69 23.15 21.99 24.53 25.52 30.87 32.27 33.22
23.78 24.17 23.95 23.07 22.01 22.88 31.47 32.65 31.91 25.68 25.18 24.68 25.48 25.80 26.08 27.90 31.63 34.33 29.53 25.59 24.35 24.28 28.20 30.92 31.73 30.83 30.47 30.61 29.55 26.46 23.01 21.10 19.21 21.09 24.10 21.70 21.97 21.90 23.49 24.07 26.32 31.61 32.82
24.34 23.87 23.48 22.86 25.93 22.28 29.18 32.19 31.53 27.42 24.58 25.59 25.92 26.30 31.56 30.35 33.22 33.25 27.67 24.76 20.69 22.20 26.09 25.63 23.15 24.23 26.36 25.95 29.51 26.10 24.27 20.19 19.65 18.47 22.84 21.26 21.87 23.27 20.99 24.87 25.05 26.23 26.53

GFSMA_sfc_wetblb_006.txt.gz
Wetbulb
59.64 59.47 57.22 54.34 52.60 49.32 47.22 45.25 43.91 43.71 42.11 42.56 42.13 42.67 42.99 41.14 42.68 45.76 46.89 55.33 56.71 59.01 61.78 60.26 60.70 60.45 60.96 62.49 62.77 62.32 62.45 62.45 62.23 62.07 62.10 62.75 62.87 63.80 64.17 64.94 66.21 66.61 66.70
56.31 53.26 52.50 50.50 48.74 46.40 43.96 42.21 41.37 41.39 39.99 39.92 39.91 40.34 41.07 39.86 42.53 41.54 43.82 44.95 52.77 55.48 56.42 57.16 57.39 57.59 59.61 59.63 59.78 59.88 59.67 59.59 59.83 60.24 60.06 60.22 60.80 60.73 61.40 62.90 63.67 63.92 64.19
52.88 51.90 49.75 46.74 43.64 42.59 41.45 40.39 39.97 40.34 39.03 39.41 37.28 39.43 40.37 38.71 39.45 39.68 40.60 42.90 44.27 49.33 52.05 53.80 54.36 55.40 56.22 56.91 58.00 57.80 57.73 57.63 58.09 58.79 59.26 59.20 59.31 59.49 60.34 61.53 61.91 62.25 62.72
50.46 48.57 45.19 42.58 41.03 40.65 40.07 39.16 38.44 38.51 37.86 36.69 36.06 37.87 38.43 39.02 38.12 37.25 39.12 40.71 40.48 41.09 45.28 50.12 50.79 51.73 52.99 53.93 54.90 55.66 55.69 55.85 56.64 57.63 57.98 57.53 57.31 58.15 58.52 58.79 59.14 59.54 60.10
47.11 45.29 42.09 40.49 40.25 39.63 38.54 38.27 37.48 36.58 36.65 36.34 37.95 38.24 37.24 37.28 37.13 38.59 37.35 38.72 37.89 38.69 39.70 44.68 46.79 47.60 49.14 50.98 51.80 52.87 53.76 53.43 53.61 54.16 55.17 55.41 55.70 56.29 56.45 56.76 57.23 57.39 57.58
42.63 41.59 40.28 39.37 39.23 38.39 36.98 36.27 35.46 35.47 36.68 35.48 38.18 38.74 36.53 38.74 36.90 35.50 36.83 38.47 36.68 37.80 38.04 37.48 37.79 39.60 46.60 48.30 49.04 50.50 51.30 51.37 52.01 53.18 53.69 54.07 54.32 54.97 55.48 55.85 56.00 56.54 56.74
41.12 40.34 39.50 38.47 37.58 36.41 34.61 35.10 34.77 34.21 34.30 35.90 34.00 35.00 36.04 36.77 36.86 36.49 35.40 35.77 35.51 36.44 36.58 36.43 37.82 37.81 38.31 45.48 45.68 47.70 48.87 49.91 51.54 52.44 52.51 53.04 53.44 54.02 54.28 54.83 55.35 55.44 55.65
40.32 39.89 38.15 36.88 36.03 35.09 33.93 33.28 33.12 32.77 32.76 33.75 31.42 31.81 29.85 32.41 34.42 36.22 34.31 35.56 33.30 35.46 36.19 37.17 36.79 37.40 36.66 36.60 38.94 45.59 46.28 47.97 50.49 51.15 51.63 52.48 52.96 53.11 53.49 53.79 54.12 54.42 54.62
38.81 37.98 36.89 35.89 34.84 34.32 32.95 32.29 31.99 31.52 30.92 31.64 33.05 30.69 26.72 25.71 29.68 32.78 33.50 33.13 33.41 32.57 33.98 34.32 35.43 36.02 36.43 35.72 38.40 39.15 44.03 46.06 48.02 49.92 51.07 51.78 51.85 52.15 52.40 52.78 53.18 53.48 53.41
37.29 37.01 36.12 35.05 34.14 33.55 32.07 32.43 32.85 30.88 30.96 29.27 31.11 34.04 31.10 30.50 26.49 25.99 30.34 32.63 31.06 33.15 31.40 31.24 32.89 34.26 35.35 35.11 38.39 41.21 43.58 44.90 46.98 48.73 49.76 50.38 50.88 51.38 51.82 52.03 52.50 52.81 52.83
35.76 35.69 34.91 33.89 33.16 32.86 31.46 30.93 30.24 29.56 30.25 29.45 29.20 29.07 28.68 28.88 28.53 26.05 24.10 26.43 30.55 31.47 31.93 30.39 31.34 32.93 33.74 34.59 33.71 37.00 42.94 44.41 46.17 47.19 48.59 49.37 49.79 50.37 51.09 51.43 51.46 51.61 51.30
34.13 34.00 34.08 32.72 32.04 31.65 30.91 30.49 29.97 29.53 29.07 28.76 28.48 28.23 28.26 27.09 26.57 25.15 23.76 25.64 25.89 27.87 30.44 31.51 30.66 31.21 32.60 32.66 37.16 40.80 41.93 43.08 44.32 46.00 47.36 48.08 48.43 48.86 49.41 49.79 49.68 49.95 49.99
32.68 32.18 32.10 31.45 30.91 30.76 30.94 30.43 29.71 28.92 28.64 27.70 26.92 27.42 28.45 28.19 28.40 27.62 26.01 25.17 24.30 27.04 26.77 28.50 29.95 30.63 33.65 33.08 33.41 39.35 40.46 41.73 42.48 44.04 45.85 46.90 46.12 45.97 46.41 47.20 48.15 48.32 48.45
32.23 31.53 31.14 30.77 30.45 30.52 30.09 29.39 29.20 28.81 28.49 27.55 26.68 26.59 27.37 27.77 28.12 27.92 25.95 24.81 22.50 23.00 26.40 24.24 29.63 29.59 30.07 32.47 34.74 39.14 35.25 39.38 40.32 41.81 43.22 43.63 43.34 43.26 43.51 44.16 44.88 45.50 45.86
33.22 30.70 30.44 30.09 29.85 29.79 29.41 28.65 28.29 27.86 27.28 27.26 26.98 26.64 26.28 27.26 27.82 27.73 27.32 26.60 24.12 20.59 21.94 24.56 25.23 30.69 30.52 31.73 33.33 33.97 33.48 37.26 39.22 39.84 40.67 40.85 40.65 40.76 41.07 41.72 41.77 42.09 42.69
30.58 30.23 29.84 29.61 29.44 29.13 28.59 27.81 27.38 27.80 27.23 27.40 28.66 26.42 25.79 26.71 27.10 27.54 27.11 27.25 26.53 24.60 22.11 26.83 27.89 29.66 30.67 32.38 33.79 33.34 33.03 36.86 37.72 38.75 39.41 39.09 38.87 38.80 39.00 39.43 39.88 40.65 41.37
29.87 29.72 29.68 29.32 28.77 28.20 27.68 26.94 26.67 27.92 27.11 26.83 26.81 26.68 26.47 26.84 26.69 26.96 26.80 26.69 26.26 26.26 23.63 26.10 28.65 30.27 29.65 29.07 30.04 30.89 32.04 31.48 33.27 37.65 37.47 37.37 37.29 37.27 37.80 38.41 39.11 40.04 40.76
29.43 29.31 29.10 28.79 28.29 28.01 27.14 26.27 26.77 27.18 26.54 26.11 26.31 25.99 26.08 29.36 26.32 26.32 26.13 25.42 26.03 26.78 25.35 23.70 27.53 27.86 27.72 29.16 29.73 29.66 30.51 33.07 31.70 33.59 35.37 35.86 36.31 36.39 36.75 37.44 38.00 38.48 38.75
28.68 28.58 28.44 27.85 27.49 27.58 27.11 26.94 26.90 26.99 26.62 26.16 25.68 25.00 25.35 25.34 24.85 25.57 25.34 25.46 26.59 28.26 28.16 27.02 25.33 27.90 28.41 29.68 28.68 29.35 29.07 28.45 29.11 32.40 34.05 34.33 34.92 35.43 36.05 36.50 36.60 37.00 37.11
28.01 27.64 27.56 27.27 27.22 26.82 27.14 27.38 28.20 27.11 26.06 26.10 25.84 25.36 25.13 25.18 25.08 25.48 26.06 26.57 28.16 26.52 26.35 25.64 25.84 27.34 28.04 28.63 27.31 24.31 23.56 25.83 25.71 28.53 30.93 32.23 33.52 33.90 34.36 34.64 34.72 34.58 34.52
27.44 27.37 26.95 26.24 25.75 26.84 29.71 29.52 29.44 27.63 25.18 24.40 24.55 25.03 26.01 28.35 32.45 31.72 29.70 27.57 27.27 26.59 26.91 27.64 27.46 26.46 24.38 23.37 22.16 23.75 23.34 24.85 25.94 26.88 25.63 26.11 26.50 26.82 27.59 31.01 31.37 32.44 32.88
26.58 26.24 25.30 24.94 24.36 28.16 32.88 35.20 33.76 27.42 25.46 24.70 23.43 24.67 25.08 29.25 28.51 33.34 33.36 33.79 32.99 31.19 27.12 24.76 23.84 22.35 21.78 22.30 23.33 23.83 24.81 22.49 20.14 27.26 25.03 24.83 26.80 25.47 26.22 26.47 30.70 32.34 33.51
24.62 24.01 23.79 23.62 23.00 23.15 32.84 34.47 34.69 27.77 25.51 24.15 25.56 25.81 26.20 28.45 29.32 26.57 30.56 33.35 32.88 32.44 31.24 26.25 22.31 21.55 22.09 24.40 26.62 24.32 23.57 23.31 22.46 25.16 25.38 22.73 25.01 23.28 25.73 26.65 30.92 31.89 32.93
23.21 23.02 22.77 22.63 22.04 24.63 32.47 33.28 33.80 26.93 24.93 24.54 25.67 24.81 24.36 25.08 26.44 29.57 30.06 29.82 25.96 25.03 25.74 26.15 24.91 26.16 27.86 27.13 26.01 25.57 25.01 25.13 25.08 24.80 25.20 19.75 23.23 22.00 24.53 25.66 30.45 31.62 32.47
22.10 21.67 22.51 21.77 21.03 22.08 31.08 32.32 31.73 25.95 25.68 25.07 25.75 25.31 25.30 26.68 31.40 33.70 29.85 25.80 24.67 23.95 28.02 30.60 31.74 30.68 30.37 30.58 29.59 26.49 22.92 20.92 19.25 20.91 23.83 21.39 21.64 21.45 22.91 23.91 26.04 31.13 32.21
22.92 23.21 23.14 22.16 25.09 21.47 28.93 31.75 31.37 27.20 24.74 25.73 26.25 26.59 30.84 30.20 32.81 33.49 28.02 25.07 21.28 22.33 25.54 26.01 22.97 23.98 25.74 25.15 29.24 25.45 23.76 19.97 19.55 18.38 22.70 20.99 21.46 22.55 20.06 24.24 24.07 25.48 25.68

GFSMA_sfc_wetblb_009.txt.gz
Wetbulb
64.54 63.02 55.41 53.63 52.99 52.83 51.05 50.08 49.63 48.11 47.20 47.12 46.98 48.28 47.82 49.88 49.35 51.44 52.64 55.56 57.76 58.51 59.14 59.40 59.06 60.01 61.09 60.66 60.83 60.94 60.61 60.88 61.12 61.71 62.12 63.06 63.18 63.04 63.31 64.25 64.69 65.76 66.69
59.33 55.13 52.33 51.21 51.43 49.60 48.44 48.08 47.64 46.98 45.60 45.57 45.16 46.83 46.89 47.71 47.80 47.83 50.00 49.94 53.28 54.35 55.67 56.09 56.46 57.64 57.44 58.32 59.15 58.55 58.56 58.68 59.15 59.53 59.73 60.12 60.40 60.54 60.78 61.88 62.77 63.25 63.65
54.89 52.36 50.63 48.95 48.16 47.78 46.82 46.50 46.06 46.61 44.79 44.31 44.22 45.53 46.25 46.89 45.96 46.68 47.61 47.46 48.26 49.42 51.85 52.65 52.78 53.49 54.34 55.56 56.13 56.26 56.78 56.51 57.21 58.59 59.56 59.36 58.79 59.53 60.30 60.84 60.72 60.90 61.31
52.57 49.53 47.07 46.78 46.61 46.26 45.92 45.21 44.20 44.97 44.14 43.41 43.64 44.57 45.38 47.40 44.86 45.39 46.38 45.72 46.49 46.24 46.49 48.78 48.93 49.71 51.04 52.36 54.03 54.27 54.47 54.67 54.57 55.09 55.61 56.66 57.57 57.73 57.97 58.39 58.70 58.84 59.06
50.18 47.53 46.48 45.69 45.47 44.72 44.10 43.93 43.10 43.39 42.61 42.65 43.06 44.23 44.46 46.23 44.15 44.62 44.69 44.84 44.60 44.75 44.56 44.81 45.23 45.44 46.82 49.10 51.32 52.07 52.53 52.73 52.81 53.18 54.53 56.00 55.94 55.89 56.34 56.98 57.14 57.36 57.87
47.07 45.97 44.93 44.35 44.39 43.46 42.73 42.68 42.00 41.88 41.65 41.15 41.38 42.11 45.03 46.90 45.18 44.80 43.00 44.34 43.18 43.25 43.40 42.89 42.85 42.58 44.13 46.63 48.54 49.51 50.59 51.05 51.44 51.99 53.87 54.25 54.47 55.15 55.66 55.97 56.17 56.54 56.80
45.76 45.15 43.78 43.15 42.92 41.60 40.80 40.81 41.58 40.33 39.80 40.97 40.40 41.58 43.03 43.75 45.13 45.44 42.83 43.82 41.52 41.77 42.05 41.85 41.49 41.27 41.81 44.18 45.82 46.86 48.54 49.47 50.34 51.20 52.90 53.13 53.70 54.29 54.82 55.25 55.28 55.48 55.83
44.68 43.92 43.21 41.90 41.57 40.76 40.06 39.71 39.79 39.85 39.03 39.63 37.40 38.41 36.81 40.30 42.08 41.27 41.98 41.59 40.34 41.01 40.54 40.07 40.14 40.01 40.71 41.35 42.25 44.53 45.72 47.26 48.99 50.62 51.44 52.01 52.81 53.71 54.33 54.51 54.70 54.72 54.77
43.11 42.59 41.98 41.29 40.49 40.62 39.05 38.65 38.84 38.42 37.23 38.15 38.35 37.37 35.19 34.14 35.08 39.72 40.49 41.04 39.16 38.80 38.92 39.01 38.81 39.15 39.13 40.01 41.07 41.59 43.17 45.06 47.50 49.34 50.48 51.41 51.79 52.29 53.08 53.52 53.91 54.17 54.15
41.70 41.28 40.81 40.35 39.74 39.25 38.61 38.20 37.91 37.81 38.14 35.62 38.04 37.09 37.36 36.61 32.86 32.17 37.77 37.97 38.06 36.63 37.17 37.61 37.61 37.95 38.57 39.08 40.02 40.90 42.57 44.34 46.61 48.42 49.95 50.62 51.07 51.69 52.46 52.67 52.89 53.12 53.10
40.60 39.98 39.75 39.27 38.69 38.27 37.54 37.52 36.98 36.83 36.85 36.29 35.64 35.60 35.65 35.52 35.83 32.95 29.99 33.43 35.47 36.75 36.81 36.57 36.56 37.26 37.81 38.54 38.91 39.94 41.85 43.36 45.72 47.35 48.87 49.68 50.50 51.24 51.56 51.84 51.97 52.16 52.20
38.89 38.63 38.10 38.00 37.67 37.42 37.18 36.89 36.63 36.33 35.85 35.44 35.58 35.04 34.45 33.15 32.69 31.56 30.19 31.39 31.38 33.90 35.07 35.69 36.25 36.77 37.53 37.84 38.33 39.58 40.48 42.15 44.00 45.75 47.53 48.32 48.66 49.17 49.69 50.10 50.25 50.46 50.56
37.58 37.16 37.26 36.91 36.64 36.74 36.44 36.70 36.30 35.77 35.38 35.20 34.51 34.66 34.66 33.95 34.03 32.81 31.47 30.49 29.56 31.94 33.06 35.08 35.68 36.21 36.65 37.34 37.07 38.25 39.43 40.72 41.63 43.44 45.46 46.60 46.11 45.93 46.20 47.11 48.16 48.26 48.61
37.49 36.77 36.17 36.22 35.93 35.99 35.90 35.78 35.98 35.78 35.27 35.13 33.69 33.96 33.90 34.17 33.92 33.32 31.74 29.67 27.78 29.98 32.03 32.15 35.09 35.55 36.27 35.75 37.22 37.98 36.77 38.41 39.55 41.14 42.79 43.27 42.57 42.34 43.21 44.04 44.76 45.31 45.32
36.18 35.75 35.91 35.48 35.37 35.36 35.08 34.82 35.17 34.70 34.50 34.59 34.27 33.96 33.14 33.75 33.80 33.72 33.29 32.11 28.84 24.86 26.63 30.87 31.29 34.62 34.82 35.30 36.14 36.09 35.67 37.35 38.68 39.29 39.79 40.10 40.04 40.80 41.47 41.63 41.62 41.87 42.23
35.48 35.20 35.02 35.00 34.76 34.59 34.32 34.17 34.09 34.03 33.81 34.31 34.26 33.11 32.95 33.11 33.12 33.46 33.06 32.51 31.43 28.49 25.84 30.61 31.63 33.35 34.15 34.29 35.92 35.12 34.99 36.52 37.47 38.44 38.83 38.66 38.94 39.12 39.44 39.77 39.82 40.23 40.68
34.87 34.66 34.49 34.16 33.98 33.73 33.58 33.50 33.16 33.44 32.83 32.91 33.11 32.32 31.67 32.25 31.95 32.29 32.61 32.18 30.90 30.26 27.48 30.12 32.63 33.77 32.73 33.01 33.54 34.68 34.97 34.47 35.39 36.95 37.55 37.75 37.83 37.40 37.83 38.23 38.61 38.98 39.39
34.35 33.97 33.75 33.45 33.13 32.81 32.63 32.29 32.32 32.82 32.26 31.55 31.36 31.05 30.66 31.19 30.59 31.14 31.03 30.32 30.33 30.98 29.53 27.30 29.99 31.55 31.57 32.94 32.99 33.05 33.66 33.81 33.81 34.70 35.66 36.00 36.52 36.71 36.86 37.15 37.26 37.95 38.18
33.12 33.15 33.17 32.59 31.99 31.79 31.75 31.88 32.33 32.77 32.05 31.36 30.80 30.09 29.62 29.52 29.01 29.81 30.30 30.11 30.48 30.48 30.57 29.44 28.69 31.55 32.12 32.84 32.12 32.01 31.12 30.94 31.63 32.99 34.36 34.67 35.30 35.77 36.14 36.53 36.69 36.91 36.83
32.61 32.45 32.06 31.49 31.07 30.92 31.16 31.69 32.85 32.94 32.04 31.32 30.65 30.26 29.76 29.29 28.92 29.84 30.25 30.31 30.50 30.00 30.21 29.77 29.47 29.57 29.98 30.76 30.36 28.32 27.41 29.82 29.61 31.02 32.71 33.24 34.28 34.41 34.83 35.09 35.02 34.66 34.62
31.84 31.64 31.03 30.36 30.24 30.69 31.67 33.68 34.23 33.21 31.82 30.63 30.48 30.24 30.48 31.15 32.85 32.98 31.76 31.20 30.68 30.45 30.87 29.73 28.45 27.86 27.42 26.98 25.79 27.56 26.83 28.31 29.29 30.08 30.12 30.59 31.10 31.22 31.67 32.86 32.57 32.92 33.09
30.74 30.45 29.58 29.19 29.04 29.89 32.61 35.09 34.91 33.27 31.69 30.18 29.43 30.26 30.44 30.98 31.06 33.10 33.25 33.71 33.53 31.85 30.04 28.24 27.24 25.51 25.09 26.03 27.53 27.09 26.91 24.84 23.09 30.14 27.77 27.41 30.64 29.55 30.61 31.04 31.86 32.56 33.34
29.55 28.80 28.59 28.30 27.88 28.17 32.81 34.36 34.45 32.80 30.90 30.31 30.18 30.10 29.88 30.51 31.71 30.18 31.87 33.51 34.51 33.27 32.18 29.66 25.84 25.20 25.36 27.16 28.59 26.69 26.40 25.80 24.97 28.37 27.33 24.70 28.89 27.40 30.02 30.00 31.65 32.13 32.96
28.26 28.01 27.58 27.17 27.08 28.00 32.16 33.08 33.52 31.87 30.83 30.52 30.46 30.14 29.44 29.57 30.41 30.95 31.49 32.22 30.31 29.73 29.15 28.76 28.18 28.93 30.11 29.99 28.89 28.01 27.45 27.36 27.52 28.20 28.18 22.63 27.42 26.21 28.63 29.37 31.47 32.14 32.61
27.24 26.71 27.09 26.72 26.35 27.78 30.88 32.00 32.26 30.84 30.09 30.04 30.42 30.36 29.90 30.10 31.88 33.50 31.34 28.87 27.73 27.47 29.70 30.82 31.99 31.57 30.77 30.77 30.00 27.90 25.63 23.58 21.78 23.61 27.23 24.74 25.21 25.40 26.89 27.89 30.24 31.58 32.38
26.81 27.10 26.77 26.79 27.22 26.62 29.29 31.47 31.77 30.35 29.14 29.16 30.21 30.38 31.10 31.04 32.59 33.43 29.72 27.66 24.79 25.32 27.42 28.61 26.42 26.63 27.43 27.35 29.25 27.10 25.77 21.74 21.50 20.69 26.00 23.70 24.63 24.99 22.27 27.57 29.14 29.47 30.07

GFSMA_sfc_wetblb_015.txt.gz
Wetbulb
65.27 65.70 65.25 63.48 62.22 60.75 59.13 57.86 55.82 53.41 52.32 51.57 51.18 50.47 50.89 50.99 51.85 53.54 54.98 56.80 57.49 57.76 58.06 58.26 58.10 58.05 57.96 58.30 58.57 58.42 58.62 59.13 59.11 58.95 59.50 60.85 61.79 61.66 61.82 62.45 62.64 63.83 64.37
66.02 63.90 61.59 60.18 59.37 57.61 55.27 53.36 52.05 51.90 51.32 50.62 49.81 49.65 49.91 50.66 50.93 52.22 53.73 52.10 53.73 53.84 54.28 54.37 54.14 54.30 54.55 55.12 55.83 56.15 56.21 56.47 56.67 57.03 56.96 57.57 58.36 58.91 60.34 60.53 61.43 62.06 62.06
65.21 61.60 57.86 56.77 56.38 54.10 52.60 52.30 51.35 51.15 50.39 49.67 49.37 49.41 49.34 49.69 50.22 51.16 51.71 52.51 50.77 50.71 50.66 51.22 51.40 51.69 52.22 53.08 53.69 54.42 54.64 54.50 54.52 54.95 55.48 55.73 56.12 56.88 58.12 58.83 59.38 59.83 60.29
63.04 59.20 56.65 55.61 53.95 52.80 52.21 50.59 49.10 49.43 49.11 48.58 48.21 48.56 49.19 49.40 49.01 49.55 50.06 49.64 50.08 49.14 49.40 47.95 48.10 48.53 49.27 51.01 52.58 53.34 53.82 53.25 53.09 53.79 54.14 54.46 54.96 55.53 56.78 57.94 57.79 57.89 58.45
57.24 53.72 53.94 53.55 52.52 51.43 50.24 48.92 48.19 47.64 47.02 47.29 47.01 47.79 49.42 49.32 49.11 48.16 48.38 48.54 48.39 48.55 48.12 48.84 47.74 47.39 46.84 47.81 49.87 51.35 52.05 51.85 52.07 52.52 52.97 53.29 54.01 54.68 56.21 56.86 56.87 57.37 57.78
52.81 54.18 53.77 52.16 51.48 50.01 48.95 48.46 47.56 47.50 46.10 45.65 45.26 46.89 49.47 50.08 49.68 48.84 48.53 48.07 47.28 46.81 47.09 46.87 45.96 46.22 47.23 46.46 48.00 48.41 49.76 50.84 50.75 51.32 51.81 52.41 53.16 54.02 55.34 56.17 56.18 56.61 57.05
53.68 53.83 52.59 51.08 50.73 49.12 47.76 47.51 47.14 46.05 45.22 45.28 46.61 46.98 48.36 47.41 48.98 49.37 49.13 46.61 46.67 45.81 45.58 45.43 44.69 44.52 44.23 46.28 46.09 46.56 48.08 48.95 50.08 50.37 51.25 52.11 52.74 53.27 54.09 54.69 55.26 55.76 56.31
51.18 51.73 51.89 50.42 49.29 48.16 47.19 46.81 46.74 45.83 44.99 44.35 41.79 44.73 43.45 45.06 46.24 46.46 47.02 45.92 44.83 45.54 44.66 44.06 43.65 43.31 43.44 43.15 44.19 45.25 45.89 46.92 48.64 49.61 50.29 51.00 51.76 52.66 53.66 54.27 54.88 55.10 55.44
49.46 50.27 50.79 49.26 48.78 48.58 46.60 46.07 45.64 44.43 43.56 43.99 42.91 41.33 40.17 40.34 40.05 45.65 45.41 44.78 44.52 43.96 43.51 43.77 43.14 42.82 42.48 42.32 42.94 42.95 43.75 44.32 46.62 48.68 49.66 50.31 50.97 51.80 52.78 53.53 54.08 54.51 54.63
47.60 48.88 49.07 48.42 47.66 46.81 45.81 44.61 44.30 43.91 44.37 41.69 43.39 41.57 41.31 40.24 36.78 36.54 43.78 43.77 43.93 41.55 42.82 42.78 42.10 41.70 41.66 41.80 42.39 42.86 43.07 42.98 45.64 47.47 48.89 49.55 50.15 50.99 51.84 52.38 52.89 53.35 53.43
46.78 47.29 47.73 47.32 46.36 46.01 45.01 44.20 43.72 42.86 42.56 41.72 40.86 40.28 40.30 40.63 40.19 37.06 35.06 38.87 41.25 42.36 42.41 41.97 41.47 41.05 41.28 40.97 40.72 41.23 42.32 43.08 44.85 46.25 47.68 48.51 49.13 49.76 50.36 50.69 51.00 51.27 51.32
45.40 46.82 46.48 46.28 45.60 44.56 43.84 43.38 43.17 42.46 41.77 41.12 40.71 40.11 38.79 37.52 37.26 36.90 35.52 36.07 36.12 38.97 40.88 40.91 40.64 40.18 40.50 39.92 40.34 41.67 41.46 42.22 43.56 44.99 46.51 47.56 47.91 48.25 48.52 48.69 48.84 48.85 49.07
43.96 45.05 45.52 44.47 44.19 43.93 43.31 43.04 42.45 41.76 41.26 40.45 40.02 39.36 39.46 38.64 38.71 37.54 36.10 34.95 34.28 36.90 37.80 40.02 40.34 40.43 40.01 39.56 39.21 40.49 40.46 41.37 42.16 43.75 45.60 46.61 45.79 45.30 45.35 46.15 46.85 46.99 47.13
45.65 45.11 44.71 44.23 43.17 42.48 42.15 42.08 41.83 41.49 40.93 40.47 39.84 39.64 39.03 38.95 39.13 38.13 36.03 34.09 31.39 33.18 35.53 35.67 38.98 39.07 38.95 38.58 39.09 40.51 37.81 40.20 40.93 42.34 43.62 43.71 43.05 42.74 43.10 43.64 44.32 44.61 44.86
45.17 44.24 43.62 42.55 42.09 41.69 41.46 41.05 40.90 40.08 39.81 40.00 39.50 39.62 38.79 38.97 38.88 38.27 37.38 36.05 32.68 28.30 29.60 34.09 34.43 38.37 37.98 37.68 38.25 37.32 36.63 39.20 40.61 41.11 41.27 41.15 40.91 41.03 41.55 41.95 42.31 42.54 42.82
43.77 42.87 42.21 41.73 41.10 40.79 40.51 40.03 40.02 39.76 38.68 39.46 39.26 37.96 37.72 37.86 37.45 37.28 36.46 35.85 34.71 31.77 28.17 33.40 34.33 35.69 36.55 36.92 37.49 36.68 36.89 38.98 39.40 40.07 39.95 39.65 39.77 39.84 39.95 40.21 40.56 40.99 41.37
42.69 41.75 41.22 40.77 40.24 39.97 39.68 39.11 38.96 38.66 38.00 38.17 38.37 37.66 36.36 36.62 35.69 35.28 35.07 34.54 33.40 32.89 29.22 31.68 34.09 35.42 34.54 34.32 35.24 36.28 36.61 35.57 35.77 38.50 38.80 38.69 38.71 38.83 39.27 39.57 39.80 40.20 40.64
41.86 40.95 40.48 39.96 39.56 38.91 38.50 37.97 37.60 38.02 37.30 36.73 36.82 36.95 35.78 35.76 34.34 34.29 33.82 32.99 32.58 32.95 31.13 28.87 32.16 32.59 33.27 34.05 34.64 34.22 34.88 35.48 34.02 36.36 37.88 38.22 38.48 38.60 38.75 38.91 39.05 39.26 39.60
40.16 39.79 39.68 39.08 38.24 37.54 37.21 37.31 36.94 36.79 37.01 37.03 36.65 35.62 34.85 34.22 32.88 33.02 32.86 32.35 32.86 33.60 32.84 30.90 29.94 32.43 32.70 34.23 33.67 33.42 32.76 33.13 33.90 35.77 36.85 37.23 37.69 37.84 38.10 38.52 38.70 38.85 38.80
39.12 39.10 38.73 37.77 37.00 36.48 36.25 36.20 36.66 36.91 37.25 37.25 36.72 36.04 34.86 33.87 32.67 32.33 31.83 31.93 32.53 31.37 31.35 29.90 29.47 29.91 31.56 33.24 31.94 29.90 28.79 30.77 30.33 32.92 34.66 35.28 36.48 36.91 37.46 37.73 37.42 37.04 37.03
38.63 38.15 37.04 36.46 36.05 35.74 35.61 34.78 36.01 36.21 35.85 35.64 35.68 35.30 34.99 35.22 34.76 34.43 32.75 32.15 31.55 30.20 29.71 29.17 28.73 30.02 28.82 28.27 27.45 28.65 27.56 28.53 29.15 31.12 29.84 30.46 31.59 31.21 31.88 34.90 34.94 35.57 36.05
36.95 36.39 35.80 35.04 34.70 34.77 33.15 34.63 35.11 34.16 34.28 34.08 33.44 33.70 34.07 34.62 34.42 35.10 35.31 34.98 33.52 30.26 29.58 29.50 29.97 27.21 27.35 27.84 27.93 27.36 26.45 26.23 24.17 30.29 28.59 27.73 30.17 29.39 30.78 31.51 35.18 35.98 36.30
36.13 35.22 34.41 34.15 33.85 34.17 32.73 33.80 34.55 33.33 33.03 33.49 33.13 32.85 32.72 33.51 33.85 32.66 33.40 34.18 33.84 34.82 34.97 30.77 28.11 27.54 26.52 27.42 27.53 26.67 27.59 26.25 24.81 27.65 27.51 25.33 29.24 27.71 30.33 31.56 34.71 35.60 35.83
34.80 34.09 33.57 33.43 33.20 33.61 31.53 32.82 33.70 32.67 32.96 33.26 33.26 32.99 32.21 32.08 32.48 32.39 31.47 30.93 31.70 31.52 31.27 31.28 29.78 28.96 29.22 30.21 31.01 30.49 27.74 26.81 27.27 28.17 29.33 23.47 27.36 25.90 29.17 30.24 33.77 34.68 35.64
33.39 33.07 33.02 32.76 32.25 32.43 31.46 31.89 32.51 31.60 31.65 31.89 33.00 32.88 32.65 32.03 33.54 34.28 31.30 29.54 29.22 29.08 32.35 33.00 32.80 33.50 34.23 34.03 32.46 28.97 25.49 24.75 23.48 24.79 27.71 24.90 25.51 25.83 26.56 26.93 29.52 34.38 35.68
32.32 32.38 32.05 32.48 31.79 30.86 32.18 31.55 32.02 30.90 30.01 30.61 31.48 31.92 33.69 32.62 33.90 33.85 30.80 28.51 26.17 26.73 27.51 28.27 29.15 29.71 30.41 29.87 32.26 29.67 28.10 24.82 23.62 22.11 26.14 24.48 24.46 24.64 22.06 26.55 28.04 28.72 29.57

GFSMA_sfc_wetblb_018.txt.gz
Wetbulb
61.17 60.96 61.24 59.53 57.55 55.11 53.50 51.56 48.69 47.70 46.70 46.50 45.58 44.89 44.95 44.84 45.08 50.54 50.96 57.83 57.68 57.75 58.09 57.75 57.20 56.79 56.59 56.81 57.07 57.11 57.15 57.49 57.57 57.67 57.79 57.89 58.45 59.26 59.98 61.26 61.55 62.64 62.75
61.75 59.62 57.32 56.50 53.65 51.51 49.07 47.41 45.96 45.76 45.05 44.45 44.59 44.01 43.76 44.61 45.14 47.14 48.63 51.17 54.61 53.91 54.06 54.21 54.13 54.24 54.53 54.95 55.17 55.39 55.50 55.70 55.78 55.84 56.11 56.36 56.53 56.88 57.47 58.62 59.65 60.44 60.77
61.68 57.41 54.49 53.36 50.44 48.49 47.93 46.57 45.30 45.25 44.28 44.91 43.12 44.03 43.83 43.61 43.99 46.00 46.93 46.83 48.66 52.29 51.41 51.06 51.36 51.62 52.08 53.28 54.40 54.65 54.75 54.78 54.32 54.43 55.08 55.16 55.32 55.84 56.24 57.06 58.45 58.57 58.56
58.53 54.00 52.31 50.68 48.74 48.01 46.54 44.45 43.22 43.36 42.58 42.05 41.19 41.33 42.29 43.64 43.73 44.09 44.48 44.06 43.93 45.79 48.38 48.91 49.07 49.67 49.56 50.94 52.42 53.28 53.49 53.43 53.25 53.44 53.87 54.25 54.26 54.87 55.41 56.14 57.29 57.75 57.85
56.51 53.36 51.29 48.65 47.81 46.18 44.42 43.93 42.41 41.69 40.17 40.61 41.44 40.62 43.43 42.76 42.99 45.01 42.87 43.69 43.25 42.87 42.39 47.53 48.41 48.55 48.40 48.97 50.76 51.66 51.92 52.29 52.15 52.25 52.80 53.39 53.70 54.31 54.81 55.56 56.61 57.24 57.13
51.37 49.98 51.13 47.57 46.84 44.68 43.15 42.76 41.67 41.56 40.13 39.88 42.95 43.11 42.82 43.47 42.75 42.22 42.50 44.46 41.60 41.67 40.89 40.74 39.69 41.06 47.18 48.00 49.11 48.98 50.11 50.56 51.09 51.64 51.94 52.70 53.24 54.03 54.64 55.04 55.57 56.16 56.67
50.41 49.98 49.56 46.72 45.73 43.44 41.96 42.31 41.44 40.61 39.27 39.13 39.32 40.00 40.87 41.99 43.07 42.84 42.92 40.62 40.90 40.38 39.81 39.19 39.05 38.72 39.16 45.74 46.08 47.27 48.63 49.29 49.84 50.62 51.02 51.35 51.83 52.70 53.29 54.09 54.87 55.35 55.87
50.30 50.57 48.82 45.29 43.73 42.58 41.99 41.30 40.81 40.29 39.21 38.50 36.03 37.14 35.61 38.49 40.15 40.81 40.00 40.59 38.45 39.21 39.59 39.63 38.55 38.23 37.22 37.24 40.37 45.64 46.29 47.36 48.36 49.64 50.27 50.74 51.42 51.96 52.66 53.28 53.94 54.49 54.97
48.13 49.66 48.12 45.14 43.46 42.86 41.04 40.25 39.59 39.05 37.98 37.81 37.46 35.66 33.04 32.46 33.31 37.57 38.50 38.13 38.33 36.85 37.08 38.36 38.77 38.32 37.37 36.63 39.63 40.05 43.83 45.29 46.11 48.60 49.75 50.15 50.62 51.07 51.72 52.34 52.94 53.36 53.69
46.65 48.27 47.41 45.63 42.72 42.06 40.14 39.30 40.39 38.30 38.29 36.06 37.40 39.01 35.55 34.40 30.88 30.15 35.57 36.45 37.00 37.58 36.30 36.45 36.87 37.02 37.01 36.46 40.00 41.96 43.16 44.21 45.95 47.95 49.08 49.60 50.24 50.69 51.32 51.64 51.94 52.17 52.25
46.64 46.98 46.52 44.72 41.64 40.97 38.93 38.92 38.32 37.40 37.18 36.32 35.53 34.93 34.47 34.32 33.67 31.06 28.83 31.73 34.79 36.14 36.35 36.36 35.53 35.79 36.66 36.36 35.68 38.38 42.60 43.91 45.54 46.78 48.18 48.98 49.74 50.34 50.77 50.84 50.73 50.54 50.29
45.17 43.64 45.49 43.91 40.45 39.63 39.01 38.40 37.93 37.33 36.54 36.09 35.78 35.24 34.31 32.68 31.68 30.69 28.95 29.16 29.92 33.00 34.25 35.35 35.53 34.73 35.20 35.14 38.83 41.42 41.87 42.72 44.26 45.63 47.05 48.10 48.72 49.04 48.87 48.89 48.68 48.75 48.68
43.60 44.05 43.80 42.64 39.19 39.39 39.31 38.84 37.73 36.97 36.21 35.03 34.39 34.34 34.69 34.12 34.27 32.94 30.97 29.54 28.49 31.14 31.74 33.47 33.71 33.86 36.60 33.73 34.37 40.55 41.14 42.09 42.72 44.32 46.23 47.36 46.77 46.06 45.98 46.62 47.18 47.37 47.12
43.32 43.72 42.55 39.92 38.77 38.85 38.38 37.94 37.10 36.63 35.75 34.84 34.07 34.07 34.30 34.22 34.53 33.63 31.61 29.05 27.72 27.49 30.27 29.09 33.08 32.64 32.53 33.11 36.91 40.67 34.24 40.11 41.18 42.64 44.36 44.75 43.80 43.30 43.38 44.03 44.72 44.98 45.36
43.43 42.73 41.40 37.87 37.53 37.59 37.42 36.85 36.08 35.32 34.78 34.45 33.88 33.58 33.37 33.87 33.60 32.91 32.29 30.98 27.47 25.02 26.05 27.18 28.03 32.89 32.39 32.75 34.51 35.31 33.90 38.32 40.54 41.47 41.89 41.66 41.30 41.38 41.71 42.31 42.71 42.88 43.05
42.88 41.18 38.79 37.06 36.77 36.63 36.39 36.00 35.26 35.36 34.26 33.85 34.62 32.91 32.44 32.64 32.03 31.76 31.06 30.63 29.30 26.51 24.63 28.54 29.81 29.56 31.21 34.38 35.81 35.20 33.67 38.32 39.14 40.33 40.20 40.03 39.92 40.14 40.55 41.12 41.41 41.73 42.15
41.40 40.12 37.27 36.48 36.10 35.85 35.93 34.97 34.56 34.93 33.99 33.71 33.24 32.99 32.49 32.33 31.00 30.26 29.67 29.33 28.25 27.48 25.68 28.29 30.13 30.99 29.63 30.12 32.15 32.14 34.02 33.19 34.24 38.69 39.03 39.28 39.25 39.65 40.00 40.31 40.47 40.97 41.29
40.20 39.50 36.74 36.56 36.05 35.89 34.61 34.30 33.31 33.75 33.55 32.45 32.41 32.14 32.02 34.43 29.53 29.24 28.33 27.56 27.16 27.34 26.98 25.95 29.01 29.41 28.43 29.79 31.17 30.61 33.93 35.01 33.06 36.27 38.10 38.28 38.55 38.65 38.99 39.30 39.60 39.82 40.11
38.47 36.16 36.00 35.98 35.44 35.35 34.66 33.77 33.02 32.90 32.96 32.35 32.14 31.17 30.83 30.24 28.24 27.75 27.30 26.82 27.71 30.66 28.25 27.31 26.79 29.15 29.30 30.21 30.38 32.29 30.74 30.49 32.04 35.15 36.38 36.86 37.39 38.08 38.22 38.65 39.07 39.25 39.00
37.32 35.29 35.07 34.88 34.91 35.16 34.75 33.77 33.45 33.00 32.25 32.87 33.16 32.16 30.93 30.03 28.79 27.37 28.27 27.43 29.29 27.44 27.73 26.81 26.62 27.24 28.33 30.29 29.81 26.94 26.54 27.39 27.82 31.10 32.87 34.69 36.36 36.18 36.99 37.29 37.07 36.77 36.81
35.12 34.48 34.10 34.02 34.22 33.97 34.74 32.61 33.32 32.52 30.99 30.51 30.73 31.22 31.14 33.01 35.73 34.38 31.98 28.27 28.46 27.44 26.15 25.50 27.47 27.33 28.62 26.25 25.54 26.31 24.96 26.03 26.74 28.19 28.50 28.49 28.90 29.31 29.82 33.32 33.83 35.07 35.85
32.95 34.47 33.84 32.78 32.33 34.15 35.10 34.97 34.26 31.21 30.47 28.90 28.21 29.01 29.99 33.30 32.65 35.51 35.42 35.45 33.77 29.51 26.98 26.91 28.62 25.32 25.37 25.61 23.60 24.68 24.53 23.41 22.79 29.14 24.52 25.90 27.94 26.95 28.46 29.63 34.00 35.55 36.15
33.48 32.40 31.82 31.60 32.00 31.78 34.31 33.58 34.15 30.59 29.03 28.01 27.90 28.48 29.44 32.26 32.20 29.29 32.35 34.12 33.19 34.42 34.13 30.08 26.04 25.75 24.74 25.21 24.66 24.52 25.89 27.13 25.43 26.66 25.97 23.76 27.31 26.19 28.30 29.78 33.42 34.78 35.78
31.40 30.79 30.99 31.84 31.53 32.45 33.20 32.79 33.48 28.85 27.56 27.63 27.74 28.05 27.29 27.24 28.46 30.73 29.13 26.79 27.82 28.56 29.26 29.51 27.92 27.11 27.01 29.14 30.02 30.22 28.16 26.04 26.23 26.87 26.69 22.91 26.50 25.06 27.02 27.90 33.12 33.81 34.60
30.86 31.21 31.39 30.48 28.56 27.80 32.23 32.07 31.49 27.31 26.40 25.89 28.17 27.95 28.39 27.65 32.86 34.61 30.18 24.64 26.79 26.53 31.12 32.43 32.56 33.29 33.78 33.45 32.36 28.51 24.82 22.98 22.55 24.16 26.66 24.72 24.25 24.11 25.26 25.54 27.31 32.59 33.78
30.42 30.31 29.07 27.96 30.97 26.40 32.04 32.11 31.01 27.70 24.68 25.07 26.24 27.31 32.38 31.23 33.72 34.20 29.76 27.75 24.46 24.72 25.22 26.19 27.30 27.38 28.54 26.85 31.30 27.06 25.56 22.33 21.91 21.07 24.67 23.79 23.40 24.00 20.78 24.84 25.15 26.80 26.88

GFSMA_sfc_wetblb_021.txt.gz
Wetbulb
57.84 59.20 60.40 61.07 58.03 53.68 51.01 46.92 45.82 45.28 44.18 43.94 43.20 43.03 42.98 42.69 48.70 50.62 52.51 58.92 58.70 58.08 57.73 57.06 56.74 56.40 56.30 56.28 56.37 56.50 56.45 56.51 56.63 56.49 56.60 56.79 57.01 57.42 57.87 58.56 59.58 60.83 61.37
59.68 58.15 56.51 54.23 51.16 48.46 46.33 45.39 44.34 43.74 42.63 42.29 42.63 41.87 41.60 43.18 45.55 47.76 49.23 52.19 55.54 54.24 54.12 54.00 53.96 53.82 54.32 55.13 55.72 55.71 55.60 55.74 55.62 55.36 55.55 55.78 55.78 56.07 56.70 56.82 57.52 58.89 59.15
59.14 55.64 53.43 50.23 47.64 46.16 45.81 44.05 43.34 42.68 42.15 42.69 40.72 41.18 41.68 41.66 42.60 46.45 46.00 46.40 48.23 53.85 52.03 51.67 51.83 51.95 52.29 53.17 54.09 54.34 54.26 54.56 54.42 54.66 54.81 55.05 54.98 55.16 55.83 56.26 56.60 57.55 58.11
57.30 53.96 51.71 47.99 46.89 45.96 44.15 42.42 41.77 41.18 40.08 39.56 38.69 39.24 40.84 41.80 41.63 41.90 43.93 44.23 43.81 45.56 48.06 49.10 49.49 50.02 50.63 51.07 52.61 53.17 53.15 53.16 52.99 53.36 53.84 53.98 54.29 54.74 55.26 55.55 56.02 56.72 57.70
56.06 53.20 49.94 46.88 45.88 44.15 42.80 42.86 40.63 39.99 38.39 38.51 39.97 39.35 41.79 41.38 41.22 43.28 40.78 41.32 41.89 41.21 40.56 47.94 48.36 47.89 48.41 49.86 51.15 51.56 51.52 52.10 51.88 52.55 52.83 53.19 53.42 53.70 54.42 55.19 55.78 55.99 56.83
54.24 51.27 47.38 46.00 44.98 42.94 41.72 41.38 40.08 39.36 38.08 37.42 41.43 41.99 41.16 42.15 41.10 40.25 40.54 42.56 40.46 40.19 39.25 38.98 38.53 39.80 46.37 47.02 48.14 49.19 50.22 50.30 50.56 51.09 51.76 52.00 52.24 52.87 53.48 53.99 54.51 54.97 55.89
51.31 49.24 46.59 44.69 43.84 42.35 40.83 40.77 40.01 38.57 37.68 36.97 37.19 38.27 39.78 40.38 41.05 41.43 40.91 38.88 39.50 39.27 38.31 37.62 37.45 37.06 37.89 44.56 45.04 46.59 48.22 49.01 49.34 49.75 50.65 51.27 51.71 52.18 52.72 53.33 53.77 54.20 54.76
50.09 48.11 46.68 44.69 42.77 41.23 40.43 39.99 40.19 38.68 37.53 36.49 35.29 35.90 34.41 37.19 37.82 38.69 38.33 39.13 36.77 37.54 38.14 38.42 37.30 36.81 35.81 35.75 38.85 44.80 44.85 46.63 48.43 48.77 50.08 50.68 51.17 51.50 52.11 52.64 53.10 53.38 53.71
49.35 46.91 45.57 44.22 43.96 41.33 39.72 38.70 38.45 38.74 36.67 36.45 35.24 35.48 32.68 32.38 31.82 35.83 36.51 36.23 35.96 35.20 35.19 36.49 37.34 37.16 36.22 35.50 38.40 39.28 43.10 44.69 46.91 48.20 49.85 50.26 50.57 51.04 51.73 52.35 52.68 52.97 53.01
47.65 46.21 44.97 44.14 44.33 41.25 38.93 38.28 39.13 37.19 37.46 35.20 36.25 37.48 34.21 33.45 30.48 29.93 33.87 34.44 34.89 35.59 34.22 34.56 35.10 35.45 35.76 35.44 38.86 41.65 42.80 43.92 46.19 47.94 48.95 49.73 50.23 50.79 51.46 51.87 52.15 52.16 52.15
47.01 45.42 44.67 43.34 43.40 41.97 37.86 37.87 36.80 36.29 36.20 35.31 34.79 34.13 33.51 33.15 31.89 30.16 28.23 30.84 32.89 34.16 34.49 33.86 33.97 33.96 34.85 34.50 34.16 37.03 42.71 43.99 45.79 46.66 48.31 49.11 49.62 50.30 50.85 51.15 51.04 50.61 50.35
46.07 46.30 44.91 43.13 42.30 40.22 38.81 37.15 36.42 35.96 35.49 35.18 34.88 34.38 33.63 32.13 31.00 29.78 28.00 27.69 28.36 31.08 32.62 33.68 33.19 32.73 32.99 33.29 37.95 41.91 41.99 42.88 44.41 45.74 47.15 47.95 48.44 48.93 49.36 49.34 48.95 48.90 48.93
45.15 44.33 44.15 41.83 39.42 40.46 37.88 37.34 36.45 35.55 34.95 34.23 33.64 33.47 33.73 33.17 33.21 31.90 29.96 28.24 27.21 28.91 30.11 31.21 31.55 31.88 34.65 31.90 33.11 39.94 40.84 41.59 42.66 44.32 46.13 47.04 46.51 46.37 46.39 46.65 47.19 47.19 47.26
44.85 44.56 42.83 41.77 40.98 40.27 37.39 36.67 35.85 35.25 34.49 33.92 33.20 33.27 33.50 33.38 33.52 32.71 30.87 28.28 25.42 26.07 27.35 27.75 30.56 29.70 30.99 30.85 36.46 39.93 33.12 39.84 40.93 42.42 43.71 44.13 43.61 43.08 43.32 44.18 44.77 45.01 45.50
44.83 43.80 42.10 40.98 39.95 39.24 36.58 35.90 35.04 33.95 33.51 33.33 32.89 32.88 32.61 32.88 32.42 31.57 31.00 29.91 26.59 22.85 24.34 25.41 26.40 29.74 30.32 31.00 33.33 34.62 33.21 37.58 40.03 40.57 41.10 41.44 41.38 41.12 41.55 42.07 42.68 43.05 43.22
43.73 42.12 40.64 39.46 38.42 37.86 35.54 34.97 33.66 33.60 33.21 32.81 33.42 32.07 31.42 31.62 31.06 30.71 29.92 29.26 27.91 25.17 22.46 25.71 26.99 27.42 29.27 32.65 34.29 33.82 32.08 37.20 37.96 39.63 40.40 40.05 39.76 40.19 40.73 41.03 41.43 41.91 42.33
42.27 40.63 40.14 39.11 38.07 35.61 34.36 33.90 33.47 33.46 33.00 32.69 32.29 32.09 31.78 31.46 30.44 29.66 28.51 27.91 26.80 25.59 23.42 25.78 27.07 28.24 27.25 28.18 29.91 30.85 32.45 32.00 33.18 38.27 38.62 38.77 39.14 39.29 39.65 39.92 40.33 40.91 41.23
41.38 40.26 39.49 38.19 36.90 34.75 33.66 32.83 32.64 32.70 32.25 32.14 31.97 31.38 31.24 33.63 28.92 28.36 27.42 26.34 25.53 25.80 24.39 24.53 26.66 27.56 27.26 27.72 29.27 29.12 31.37 33.98 33.00 35.28 37.13 37.63 37.87 38.07 38.33 38.79 39.57 39.70 40.05
39.49 39.47 37.90 36.44 35.58 33.75 33.02 32.22 32.27 32.26 32.75 31.89 31.29 30.33 30.19 29.40 27.82 27.07 26.43 25.74 26.45 29.25 26.64 25.85 26.13 28.37 27.94 29.10 28.78 29.72 30.61 29.57 31.14 34.33 35.57 35.99 36.79 37.23 37.94 38.30 38.38 38.52 38.52
38.43 37.13 36.67 35.65 34.14 33.56 33.40 33.03 33.58 33.04 31.84 31.72 31.29 30.85 29.93 28.91 27.65 26.71 26.84 26.65 27.81 26.07 25.76 25.92 25.83 25.92 27.27 28.89 29.20 26.47 25.95 27.12 26.78 29.95 31.95 33.61 35.47 36.23 36.25 36.50 36.57 36.10 36.03
37.34 36.12 34.78 34.10 32.61 32.78 34.22 33.48 33.75 32.07 30.73 30.25 30.30 29.79 29.80 32.05 35.28 33.93 31.29 27.66 26.77 26.12 25.58 24.19 24.90 25.95 27.08 25.49 24.51 26.05 24.47 25.58 26.42 27.61 27.35 27.65 28.15 28.47 28.90 32.34 32.85 34.01 34.99
34.71 34.12 33.50 31.82 31.30 34.67 37.05 36.61 33.99 31.27 30.80 28.68 27.28 27.92 28.40 32.78 32.16 35.32 35.25 35.14 33.58 27.56 23.24 26.37 26.19 25.48 24.51 24.59 22.82 24.68 24.12 23.36 22.83 28.88 24.61 26.26 27.80 26.62 27.53 28.32 33.08 34.94 35.59
33.05 32.46 31.94 31.71 30.95 33.12 36.09 35.30 34.70 30.59 28.00 26.58 26.90 27.14 28.20 31.11 31.43 27.69 31.65 34.26 33.62 34.45 33.88 29.67 25.59 24.68 24.06 25.18 24.56 23.66 25.77 26.58 25.74 27.05 26.14 24.09 26.82 25.39 27.69 29.25 33.17 34.01 34.88
31.71 31.08 30.46 30.52 30.69 33.40 34.96 34.11 33.92 26.71 26.47 26.44 26.64 26.25 25.55 25.44 27.12 30.00 28.09 27.44 28.20 27.79 28.05 28.83 26.71 26.20 26.35 28.56 29.81 28.79 26.68 25.55 25.71 26.31 26.31 22.16 25.93 24.82 26.91 27.17 32.17 33.31 34.06
30.04 29.39 29.66 30.23 29.19 29.38 33.43 33.02 30.53 26.60 26.30 25.47 26.67 26.69 27.46 26.60 32.15 34.04 29.75 24.45 25.36 25.81 30.43 32.40 32.75 33.30 33.54 32.93 31.50 27.53 22.96 21.49 20.67 22.53 25.25 22.82 23.53 23.53 24.90 25.11 26.83 32.03 33.16
30.06 31.08 28.20 26.72 30.79 25.10 33.01 32.45 30.37 27.26 24.78 25.04 25.68 26.72 31.26 30.56 33.26 33.84 29.55 26.06 23.70 23.75 24.83 25.39 26.08 26.83 27.67 26.16 30.40 25.95 23.73 20.98 20.77 19.90 23.54 22.68 23.02 23.52 21.09 24.43 24.79 26.07 26.04

GFSMA_sfc_wetblb_024.txt.gz
Wetbulb
60.87 59.96 60.02 60.38 60.30 59.00 51.30 45.91 44.53 44.11 42.63 42.10 41.85 41.96 41.57 47.36 49.73 51.76 53.81 59.73 59.56 58.59 57.90 57.19 56.38 56.02 55.89 56.18 56.49 56.29 56.07 56.36 56.23 56.08 56.42 56.67 56.52 56.77 57.29 57.57 58.02 59.03 59.89
59.62 59.33 59.16 59.53 53.26 49.85 45.59 44.29 43.67 42.63 41.28 41.26 41.15 40.61 40.80 44.85 47.91 49.14 50.23 52.74 56.76 55.27 54.52 54.14 53.84 53.82 54.25 54.95 55.35 55.25 55.28 55.38 55.17 55.38 55.46 55.96 55.95 55.85 56.29 56.67 56.91 57.42 58.45
58.69 57.65 55.99 52.17 47.86 45.15 44.23 43.31 42.48 41.45 40.96 41.22 39.31 39.67 40.38 40.46 46.12 46.47 46.56 45.69 49.02 54.66 52.43 52.15 52.00 52.05 52.77 53.35 54.47 54.48 54.35 54.17 54.11 54.33 54.71 54.85 55.16 55.50 55.87 56.20 56.29 56.63 57.46
57.74 54.39 51.67 47.78 45.63 44.54 43.16 42.25 41.38 39.80 39.04 38.35 37.62 38.20 39.79 40.38 43.25 43.62 44.21 43.09 43.81 44.61 48.55 49.82 49.90 49.88 50.52 52.11 53.05 53.08 52.59 52.88 52.72 53.39 53.52 54.14 54.05 53.97 54.40 55.01 55.54 56.29 56.64
56.76 53.73 50.07 46.41 45.20 43.46 42.37 42.25 39.60 39.06 37.56 37.41 38.97 38.77 40.47 39.60 39.99 42.87 41.71 40.73 41.62 40.44 39.43 48.41 48.02 47.70 48.16 49.10 50.31 51.13 51.45 51.62 51.22 51.78 52.32 52.71 53.10 53.36 53.77 54.09 54.51 54.91 55.42
55.24 52.89 47.48 45.57 44.09 42.53 41.27 40.57 39.02 37.85 37.01 36.47 40.97 40.65 39.12 40.15 39.03 38.71 38.92 41.24 39.13 39.01 37.88 37.74 37.19 39.89 46.23 46.54 47.41 48.63 49.46 50.00 50.21 50.11 50.76 51.46 52.17 52.61 52.77 53.26 53.65 54.04 54.70
55.61 51.18 46.88 44.77 42.92 42.17 40.83 40.06 39.03 37.69 36.53 35.74 36.91 37.75 38.65 38.72 39.19 39.27 38.75 38.04 38.33 37.60 36.91 36.98 36.41 36.04 37.22 44.24 44.86 46.67 47.36 48.06 48.81 49.44 49.59 50.79 51.50 51.88 52.28 52.83 53.20 53.51 53.90
53.11 50.01 47.71 44.24 42.67 41.06 39.96 39.49 39.35 37.67 36.40 35.02 35.19 35.39 34.17 36.57 37.10 36.88 36.77 37.50 35.24 36.31 36.46 37.05 36.12 35.79 34.92 34.87 38.18 44.98 44.62 46.04 47.54 48.93 49.20 50.51 51.02 51.32 51.94 52.40 52.91 53.33 53.53
51.60 49.90 47.44 44.40 41.71 41.11 40.08 38.95 38.90 38.55 36.01 35.13 34.43 35.54 32.10 32.72 31.56 34.42 35.04 34.73 34.42 34.05 34.33 35.01 35.52 35.43 35.06 34.31 37.64 39.02 43.81 44.13 46.05 48.28 49.26 50.30 50.51 51.02 51.58 52.21 52.51 53.04 52.91
49.99 48.29 46.45 44.45 42.31 41.50 41.35 38.32 39.07 37.72 37.13 34.83 35.09 36.27 33.44 33.09 30.49 30.54 33.09 33.42 33.69 34.29 32.61 33.12 33.60 34.05 33.87 33.66 37.33 40.75 43.88 44.29 46.07 47.96 49.34 49.59 50.25 50.52 51.38 51.67 52.10 52.37 52.15
48.31 46.98 45.96 44.49 42.87 41.08 41.05 40.46 36.68 36.88 36.12 35.27 34.65 33.59 32.75 32.27 31.07 29.90 28.78 30.48 32.55 32.77 33.18 32.91 32.68 32.11 32.65 32.54 33.19 37.13 43.31 44.36 46.00 47.00 48.45 49.31 49.81 50.16 50.78 50.87 51.01 51.33 50.34
46.38 46.26 45.48 44.86 44.07 41.61 40.68 39.42 37.34 36.23 35.25 34.80 34.35 33.91 33.33 32.01 30.76 29.60 27.95 27.39 28.10 30.86 31.87 32.38 31.88 30.86 31.04 31.49 36.81 40.44 41.58 42.80 44.06 45.58 47.37 48.43 48.67 48.82 49.14 49.27 49.32 49.47 48.99
45.04 45.25 45.39 43.70 42.73 40.89 38.56 37.53 37.64 36.19 34.30 33.68 33.17 33.07 33.22 32.71 32.59 31.27 29.61 27.83 27.10 28.80 29.69 30.61 30.92 30.38 33.56 30.40 31.67 38.87 40.04 40.92 42.19 43.94 45.84 46.90 46.24 45.84 46.03 46.65 47.04 47.26 47.71
45.50 45.79 45.03 43.15 42.34 41.40 39.47 38.71 37.16 36.83 33.81 32.97 32.38 32.61 32.80 32.75 32.89 32.14 30.50 28.06 25.02 25.44 26.63 27.82 29.25 28.52 29.20 30.24 35.03 38.81 32.66 39.35 40.26 41.81 43.23 43.75 43.06 43.18 43.71 44.24 44.48 45.04 45.36
45.94 44.81 43.36 42.24 42.34 41.18 39.90 38.17 37.00 35.33 33.17 32.49 32.10 32.17 32.28 32.27 31.92 31.23 30.71 29.56 26.31 22.72 22.60 24.98 25.71 27.91 29.00 29.35 32.10 33.25 31.30 36.66 39.03 39.67 40.16 40.78 41.20 41.59 41.66 42.06 42.81 43.34 43.48
44.77 43.02 42.21 41.76 41.38 40.10 38.48 37.67 35.79 35.00 32.75 32.02 32.44 31.45 31.01 31.15 30.87 30.69 29.53 28.85 27.65 25.14 21.87 24.58 25.27 26.28 27.89 31.38 32.71 32.40 31.19 36.10 36.74 38.51 39.28 39.35 39.49 39.78 40.43 40.98 41.34 41.81 42.15
43.18 42.15 41.71 41.16 40.26 38.63 37.16 36.39 35.18 34.53 32.12 31.55 31.60 32.07 31.62 31.53 30.58 29.58 28.47 27.58 26.35 24.91 22.48 24.43 25.47 27.02 26.43 26.91 29.09 29.48 30.89 30.31 31.18 36.86 38.11 38.41 38.54 38.95 39.12 39.54 40.00 40.48 41.04
42.34 41.60 40.70 40.03 39.50 37.39 36.28 35.61 34.31 34.21 31.75 31.26 31.37 31.64 31.35 33.34 29.23 28.21 27.23 26.21 25.29 24.88 23.89 23.25 24.97 25.50 25.97 27.21 27.23 27.22 30.18 32.29 31.40 35.13 36.86 37.49 37.68 37.76 38.19 38.56 39.14 39.68 39.70
41.05 40.75 39.86 38.85 36.75 35.77 34.76 33.94 33.46 31.68 31.10 31.39 31.69 31.83 31.67 29.84 28.25 27.40 26.15 25.15 25.11 28.14 25.68 24.91 25.29 25.97 26.03 26.67 27.41 27.57 28.30 29.34 30.52 33.91 35.30 35.56 36.43 37.01 37.49 38.15 38.39 38.28 38.20
40.29 39.68 38.83 37.01 35.75 34.69 34.07 33.62 32.09 30.98 31.00 31.60 32.39 31.27 30.10 29.46 27.60 26.51 26.36 25.73 26.89 25.37 25.14 24.74 24.82 24.10 24.38 27.21 26.97 25.94 24.81 26.92 26.53 29.34 31.72 33.28 35.31 35.93 36.42 36.52 36.40 36.21 36.01
38.19 37.05 35.91 34.84 34.35 34.07 34.39 33.73 32.00 31.00 31.40 31.01 31.08 30.48 30.03 30.66 34.90 33.40 30.51 27.35 26.67 25.90 24.82 22.36 24.97 23.07 25.92 25.47 24.22 25.11 23.94 25.05 25.93 27.41 27.12 26.90 27.54 27.44 29.11 32.34 32.74 33.96 34.44
34.85 34.53 33.64 33.32 33.51 35.92 38.27 37.12 33.83 31.74 30.83 29.43 28.65 27.67 27.43 31.75 31.50 35.20 35.49 35.08 33.06 27.20 22.05 22.06 19.72 24.93 24.78 24.33 24.81 24.00 23.66 22.73 22.19 28.04 24.67 25.98 27.65 26.52 27.55 27.75 32.42 34.31 35.49
33.47 32.45 32.04 32.14 33.19 34.62 37.13 36.46 34.28 30.27 28.70 26.89 26.56 26.36 27.13 29.62 29.24 27.10 30.98 33.97 33.19 34.55 34.12 30.46 25.68 24.83 24.13 24.91 24.71 22.89 24.39 25.80 24.32 26.27 25.55 22.99 26.03 24.71 27.12 28.64 33.19 34.19 34.99
32.37 32.12 31.80 32.14 33.05 34.41 35.86 35.29 33.03 27.27 25.79 25.14 25.78 24.74 24.55 25.53 27.07 29.88 28.29 26.72 27.73 27.91 27.92 28.09 26.66 26.45 26.17 27.36 29.12 28.54 25.89 24.85 25.13 25.48 25.36 20.33 24.54 23.53 25.82 26.67 32.18 33.35 34.11
32.36 31.58 31.83 30.86 31.61 31.85 34.52 33.95 29.79 25.69 25.64 24.94 25.74 25.62 26.87 26.21 31.44 33.68 28.94 25.22 25.82 25.89 30.51 32.75 32.95 33.38 33.64 33.51 31.73 27.03 22.63 21.57 20.05 21.70 24.57 22.10 22.11 22.84 24.32 24.64 26.54 31.89 33.24
30.22 30.63 29.27 29.04 31.09 26.37 33.72 32.78 29.89 26.13 24.08 24.71 24.96 25.96 30.37 29.70 32.69 33.52 29.33 26.24 23.40 23.34 24.55 24.82 24.67 25.21 27.02 25.60 30.30 25.89 22.46 19.83 19.85 19.23 22.53 20.32 22.19 22.41 20.27 23.43 24.65 24.11 25.75

GFSMA_sfc_wetblb_027.txt.gz
Wetbulb
60.44 60.64 60.51 60.33 59.93 58.50 53.54 47.96 43.54 42.93 41.48 41.17 40.67 40.86 44.61 48.88 50.52 52.54 53.92 60.00 60.40 59.19 58.52 57.19 56.48 56.35 56.37 56.63 56.66 56.53 56.70 56.55 56.33 56.38 56.54 56.86 56.76 56.83 57.22 57.50 57.60 57.94 58.84
59.54 60.35 59.11 59.16 58.96 56.57 47.04 43.95 42.87 41.85 40.65 40.39 39.92 39.72 42.14 47.70 49.07 49.92 50.27 52.44 57.95 56.21 55.14 54.67 54.50 54.53 54.84 55.16 55.44 55.23 55.30 55.18 55.20 55.35 55.69 55.77 56.07 56.33 56.84 57.04 57.04 57.19 57.63
58.95 59.84 58.51 57.67 54.03 47.88 43.94 42.39 41.42 40.82 40.26 40.27 38.17 38.88 39.74 44.71 47.01 47.74 46.21 46.03 49.25 55.01 53.66 52.62 53.12 52.77 52.99 54.26 54.42 54.04 53.75 53.82 53.78 54.44 54.39 54.91 54.69 54.72 55.18 55.58 55.89 56.50 57.02
58.51 57.52 56.60 54.61 46.50 43.77 42.88 42.09 40.98 39.48 38.33 37.72 37.14 37.44 38.63 41.07 44.27 44.08 43.89 42.79 43.60 43.72 48.91 50.71 50.15 49.91 50.85 51.40 52.41 52.89 52.62 52.49 52.32 52.79 53.30 53.41 53.56 53.85 54.27 54.67 54.95 55.23 55.53
57.73 55.45 53.63 48.51 44.63 42.97 42.12 42.09 39.52 38.76 36.99 36.81 38.16 38.37 39.09 38.11 42.34 44.01 41.53 40.99 41.79 39.57 40.53 48.47 48.30 47.81 48.12 48.96 49.97 50.57 50.84 51.11 51.03 51.08 51.46 52.08 52.57 52.98 53.29 53.80 54.02 54.36 54.53
56.36 54.01 48.75 45.91 44.28 42.42 41.04 40.35 38.76 36.85 36.42 36.46 40.72 39.90 37.84 38.52 38.01 39.14 39.25 40.15 39.48 38.18 37.24 37.01 36.35 38.19 46.82 46.71 47.77 49.02 49.66 49.68 49.89 50.21 50.31 51.09 51.91 52.33 52.91 53.17 53.42 53.79 54.06
57.28 53.74 50.09 47.00 45.81 44.67 41.09 40.02 38.29 36.84 35.63 35.51 37.07 37.52 37.56 37.87 37.48 37.67 37.41 37.28 37.21 36.42 35.84 35.83 35.50 35.20 35.86 44.53 45.44 47.26 48.01 48.17 48.74 49.20 49.84 50.13 51.42 51.84 52.40 52.81 53.09 53.50 53.91
56.89 52.99 49.99 47.43 45.53 43.23 40.05 39.44 39.12 36.94 35.51 34.31 35.15 35.21 34.33 36.22 36.06 35.88 35.71 36.65 34.64 35.46 35.83 35.97 34.94 34.68 34.00 34.00 37.48 45.88 46.65 46.52 47.61 48.63 49.64 50.16 51.27 51.74 51.95 52.56 52.94 53.34 53.52
56.30 53.98 50.36 48.16 45.56 43.79 41.09 39.69 39.01 38.58 35.60 33.93 34.01 35.82 31.93 32.41 32.04 33.58 33.76 33.87 33.63 33.62 33.67 34.48 34.63 34.28 33.51 33.02 35.68 37.65 43.67 45.48 46.66 48.47 49.83 50.51 50.87 51.22 51.95 52.13 52.80 53.08 53.21
54.87 53.24 50.16 47.24 45.20 44.13 41.26 40.33 39.95 38.21 37.12 34.67 34.14 35.26 32.74 33.25 31.18 30.15 32.33 32.76 32.94 33.46 31.89 32.73 32.70 33.16 32.72 32.87 37.72 41.92 43.96 44.62 46.67 48.52 49.83 50.29 50.82 51.47 51.88 52.06 52.28 52.57 52.39
52.68 50.84 49.78 46.91 44.63 44.06 42.76 40.36 38.08 37.19 36.76 35.57 34.80 33.15 32.13 31.64 30.64 30.06 29.02 30.07 31.95 32.20 32.27 32.00 31.46 30.93 31.67 31.79 33.02 37.79 42.27 43.88 45.89 47.35 48.51 49.34 50.13 50.80 51.27 51.34 51.37 51.39 50.80
47.89 47.31 47.63 46.71 44.94 43.62 43.11 41.81 39.31 38.60 37.25 35.22 34.34 33.70 33.26 32.29 30.87 29.80 28.19 27.52 27.74 30.13 31.03 31.16 30.61 29.96 30.26 30.48 35.45 39.72 40.87 42.30 43.81 45.30 47.00 48.14 48.65 49.04 49.37 49.49 49.47 49.52 49.50
46.22 45.05 45.77 45.29 44.69 43.86 43.56 41.49 39.52 38.08 36.97 35.04 34.97 32.79 33.08 32.40 32.14 30.89 29.57 27.48 27.06 28.19 29.07 30.02 29.92 29.40 32.58 29.34 30.81 38.59 39.32 40.39 41.70 43.60 45.58 46.89 46.46 45.89 45.97 46.60 47.70 48.02 48.15
49.47 46.58 46.13 45.10 43.77 42.85 41.09 40.74 39.18 36.23 36.63 35.86 34.83 34.72 32.24 32.43 32.36 31.72 30.40 28.20 25.08 25.08 25.95 28.39 28.70 28.10 28.16 28.89 34.06 37.94 31.90 38.09 39.13 41.00 42.83 43.39 42.79 42.84 43.36 44.41 45.36 45.53 45.42
47.03 45.98 44.97 42.43 43.12 42.51 40.63 40.31 39.14 36.01 36.41 34.07 34.44 34.39 31.80 31.78 31.71 31.20 30.73 29.59 27.08 23.28 23.02 24.92 25.45 27.06 27.81 28.51 31.05 32.01 29.92 35.77 38.56 39.30 39.86 40.37 40.62 40.83 41.42 42.03 42.52 43.20 43.85
46.14 44.00 43.14 42.47 42.33 41.36 40.35 39.57 37.28 35.53 34.42 34.67 34.33 33.47 31.95 30.89 30.35 30.05 29.48 28.93 27.86 25.95 22.54 24.55 25.05 25.42 27.13 30.59 31.47 31.97 30.41 35.75 36.30 37.83 38.34 38.64 39.27 39.86 40.30 40.82 41.49 41.75 42.09
45.24 43.77 43.08 42.69 41.33 39.90 39.09 37.80 37.42 35.70 34.81 34.11 33.69 32.29 32.49 30.66 29.77 29.37 28.77 28.58 26.74 25.27 22.84 23.94 24.66 25.90 25.57 26.71 28.54 28.78 29.83 28.60 29.62 35.98 37.27 38.11 38.56 39.04 39.52 39.72 40.06 40.67 40.96
43.90 43.11 42.74 41.61 40.37 39.21 38.49 36.91 36.17 35.23 34.13 33.45 33.04 32.91 32.48 32.55 29.24 29.56 28.81 26.49 25.81 24.96 23.88 21.92 23.51 24.90 25.15 26.42 26.73 26.17 29.23 31.33 30.25 33.98 36.51 37.28 37.83 37.90 38.28 38.77 39.08 39.46 39.88
43.31 42.49 41.49 39.68 37.93 37.17 36.31 35.92 35.51 34.24 33.78 33.09 32.45 31.54 31.04 29.66 28.57 27.81 26.76 25.73 25.20 27.38 24.43 23.86 24.20 25.17 25.41 25.58 25.67 26.51 26.53 27.80 29.57 33.16 34.93 35.40 36.14 36.85 37.51 38.17 38.45 38.53 38.41
41.44 40.12 38.09 36.88 36.10 35.53 34.99 34.44 33.93 32.84 32.52 32.41 32.14 31.57 31.07 30.66 28.50 27.46 26.30 25.36 25.90 24.76 24.54 24.33 24.43 23.17 23.93 25.82 25.42 24.84 24.71 26.23 26.08 28.77 31.33 33.10 35.01 35.73 36.11 36.62 36.58 36.37 36.26
37.94 36.48 35.99 35.73 35.32 35.39 35.42 34.03 33.65 32.65 31.57 30.98 31.09 30.77 30.20 30.44 33.80 32.41 29.37 26.85 26.14 25.46 24.69 21.72 23.50 21.60 23.36 25.08 24.40 25.26 23.70 24.79 25.26 26.66 26.60 26.44 26.43 27.53 28.38 32.21 32.76 33.98 34.46
36.23 36.27 35.71 34.93 34.57 36.12 37.87 36.82 33.88 31.39 30.75 29.95 29.03 28.43 27.68 30.30 30.35 33.98 34.73 35.17 32.51 25.10 20.46 19.50 17.44 22.96 24.23 24.03 24.37 24.04 23.71 22.84 22.24 26.84 24.25 25.36 27.04 26.00 26.93 27.35 32.22 34.18 35.46
34.88 33.70 33.79 34.43 35.06 36.38 38.13 36.68 34.38 30.58 28.96 28.18 28.19 27.30 27.50 29.07 29.02 26.78 30.72 33.39 32.83 34.40 34.06 28.81 25.05 24.27 23.94 25.19 25.18 24.06 24.66 24.26 24.62 25.91 25.20 22.70 25.41 24.03 26.23 27.65 32.67 33.98 35.03
33.04 32.70 32.41 32.54 32.51 34.51 36.37 35.48 32.35 28.97 27.62 26.43 26.82 24.85 24.66 25.46 26.66 28.92 27.83 26.34 27.05 27.33 27.54 27.53 25.96 26.43 26.54 27.47 27.75 28.10 27.07 24.55 24.96 25.37 24.36 19.70 24.23 23.16 25.42 25.99 31.55 33.22 34.17
32.80 32.72 32.90 32.61 32.76 33.34 35.89 35.36 30.40 27.00 26.12 25.71 26.12 25.49 26.32 25.78 30.72 33.32 28.55 24.21 25.80 26.03 30.18 32.69 32.90 33.28 33.61 33.40 31.80 26.85 22.13 21.01 19.65 21.59 24.24 21.82 21.73 22.13 24.09 24.55 26.22 31.72 33.24
32.22 32.99 31.65 31.28 33.14 30.11 34.72 34.11 30.47 26.38 23.89 24.89 24.94 25.89 29.76 29.06 32.27 33.32 27.97 25.18 22.62 22.88 24.16 24.32 24.36 24.62 26.60 25.03 29.97 25.41 20.56 18.29 20.00 19.33 22.10 20.20 21.90 22.62 19.56 22.89 23.67 24.22 25.81

GFSMA_sfc_wetblb_030.txt.gz
Wetbulb
61.55 61.38 61.07 60.76 60.09 58.11 54.28 48.22 42.92 41.96 40.73 40.54 40.28 42.25 48.12 50.02 50.80 52.47 54.00 60.52 61.57 59.99 59.08 57.86 57.35 56.80 56.86 56.84 56.61 56.70 56.71 56.48 56.49 56.57 56.66 56.78 57.04 57.44 57.88 58.11 58.18 58.24 58.62
60.56 60.93 59.84 59.60 59.00 57.40 49.72 45.00 42.30 41.09 40.29 39.85 39.14 40.42 46.83 49.02 49.49 49.70 49.69 53.26 58.84 57.36 56.19 55.87 55.47 55.50 55.64 56.10 55.82 55.91 55.34 55.21 55.35 55.85 55.87 56.27 55.99 55.83 56.23 56.49 56.81 57.46 57.89
59.10 60.12 59.54 58.57 58.04 54.03 44.71 42.25 40.96 40.24 39.93 39.58 37.73 38.60 43.42 46.17 47.85 47.50 45.69 46.34 48.96 55.75 54.67 54.69 53.68 53.37 54.18 53.97 54.61 54.17 53.60 53.60 53.88 54.31 54.80 54.54 54.60 54.74 55.15 55.48 55.73 56.09 56.39
59.34 58.66 58.91 58.40 53.47 46.74 43.24 41.83 40.67 39.30 38.19 37.91 36.59 37.53 38.39 44.36 45.43 44.48 43.38 42.77 42.88 43.26 49.49 51.67 50.93 51.23 51.07 51.94 52.38 52.32 52.06 52.06 51.98 52.56 52.94 53.34 53.54 53.69 54.00 54.39 54.73 54.92 55.28
59.17 58.66 58.41 56.26 47.16 43.60 42.39 41.97 39.33 39.03 37.17 36.49 37.28 38.15 37.80 38.82 42.72 43.92 40.75 40.79 41.51 39.14 40.78 49.12 49.04 48.61 48.54 49.19 50.19 50.90 51.04 51.13 51.04 50.95 51.33 51.92 52.58 52.98 53.31 53.82 54.19 54.49 54.74
58.26 57.80 55.83 51.50 45.49 42.59 41.21 40.41 38.79 36.83 36.59 36.62 40.35 38.74 37.50 37.12 39.17 39.99 39.63 39.89 39.11 37.17 36.50 36.06 35.88 37.71 47.20 47.51 47.85 48.97 49.70 49.67 49.74 50.04 50.71 50.96 51.43 52.61 52.85 53.41 53.79 54.02 54.29
57.70 56.06 53.36 50.10 45.50 43.85 43.35 42.37 38.56 36.81 35.50 36.08 37.50 36.91 36.45 36.70 36.39 36.59 36.63 36.69 36.56 35.63 35.17 35.12 34.90 34.69 35.71 43.71 44.76 46.67 48.79 49.04 48.78 49.22 49.85 50.67 51.16 52.34 52.77 53.20 53.47 53.76 54.25
58.30 56.20 53.63 50.71 47.90 45.27 42.97 41.82 38.86 36.67 35.13 34.93 35.33 35.21 34.04 35.65 35.30 35.14 35.09 36.33 34.28 34.76 35.17 35.01 34.10 33.84 33.33 33.40 37.99 44.59 45.89 47.75 48.01 48.71 49.56 50.66 51.38 52.08 52.79 53.05 53.35 53.49 53.95
58.09 55.99 52.93 50.83 48.30 47.44 44.50 42.60 39.85 38.71 35.30 33.49 34.06 36.26 31.85 32.98 32.72 32.81 32.97 33.23 32.98 32.90 32.66 33.79 33.56 33.46 32.51 32.49 36.39 39.13 44.58 45.34 47.08 48.94 50.37 51.14 51.46 51.96 52.61 53.23 53.46 53.70 53.62
57.78 55.48 53.31 52.28 49.35 47.13 45.18 43.02 41.97 39.45 37.12 34.30 33.42 34.77 32.39 33.71 32.23 30.19 31.77 31.99 32.03 32.69 31.45 32.22 31.89 31.89 32.01 32.44 37.10 41.45 43.37 44.38 46.58 48.40 49.86 50.79 51.15 51.64 52.24 52.70 53.04 53.11 53.00
56.91 55.82 53.38 52.06 48.68 48.05 46.30 44.47 41.49 40.73 38.37 35.66 34.71 32.60 31.91 31.08 30.29 30.52 29.05 30.06 31.42 31.94 31.69 31.55 31.08 30.50 30.95 31.18 32.13 37.20 41.77 43.27 45.50 47.06 48.24 49.27 50.15 50.92 51.53 51.77 51.95 51.90 51.55
54.57 53.92 52.36 49.57 48.74 47.05 45.33 44.01 42.65 41.58 40.16 38.75 35.24 34.29 34.53 32.97 30.95 29.87 28.60 27.77 28.60 29.99 30.47 30.79 30.18 29.58 29.69 29.82 35.05 39.48 40.52 41.84 43.27 44.68 46.72 48.30 48.90 49.41 49.81 49.92 49.91 49.83 49.59
50.37 49.59 50.15 48.06 46.25 46.09 45.21 44.18 43.03 41.21 39.41 38.47 36.94 36.18 34.47 33.59 32.53 31.37 29.93 27.32 27.47 28.04 28.63 29.46 29.56 29.16 31.91 28.82 30.62 38.14 38.79 39.70 40.89 42.72 45.05 46.58 46.34 45.95 45.99 46.65 47.44 47.99 48.50
53.26 51.90 48.43 48.28 46.52 45.10 43.91 43.84 43.32 41.08 39.65 38.66 36.62 36.15 34.72 34.86 33.75 32.61 31.16 28.40 25.28 25.23 25.58 28.40 29.47 28.51 27.95 28.40 33.58 37.65 31.57 37.54 38.98 40.99 42.62 43.16 42.76 42.76 43.27 44.06 44.77 45.26 45.70
52.98 47.99 48.41 47.56 45.58 44.38 43.20 42.83 40.53 38.98 38.13 37.14 36.07 35.28 34.89 34.48 32.96 34.09 32.74 30.35 27.95 23.84 23.72 26.91 26.47 27.35 27.45 28.11 30.76 31.60 29.97 35.42 38.33 38.77 39.45 39.95 39.95 40.32 41.10 42.01 42.68 43.18 43.46
48.20 47.61 46.31 45.17 44.69 42.90 41.42 41.09 38.60 37.91 37.06 35.35 35.77 34.48 34.15 33.06 33.30 33.07 32.17 30.36 28.64 26.61 23.95 25.37 25.92 25.61 26.81 30.01 30.86 31.53 29.98 35.88 36.11 37.38 38.02 38.31 38.71 39.45 40.25 40.89 41.54 41.94 42.42
46.04 45.02 44.70 44.02 42.96 42.16 41.00 39.36 37.43 36.69 35.70 35.41 34.85 34.51 33.51 33.22 32.35 30.55 30.13 28.76 27.92 26.82 23.86 24.47 24.82 25.26 25.06 26.12 28.09 28.05 29.35 27.81 28.43 35.59 37.03 37.70 38.22 38.88 39.56 40.01 40.27 40.65 41.25
43.58 44.11 43.22 42.48 41.02 40.26 39.02 37.55 36.64 36.42 35.66 34.73 34.12 33.93 33.23 33.51 31.74 31.33 30.42 27.41 26.31 25.07 24.56 22.18 23.23 24.10 24.74 26.12 26.18 25.79 28.89 30.82 29.16 33.48 36.20 37.19 37.72 37.87 38.17 38.67 39.14 39.59 39.95
43.97 43.74 43.33 41.31 39.73 38.91 37.68 36.96 36.40 36.08 35.65 35.45 34.73 33.70 32.71 32.04 30.41 29.76 29.41 27.68 25.98 27.73 24.06 23.57 23.26 24.69 24.88 25.24 25.03 25.39 25.67 26.39 29.07 32.82 34.83 35.17 35.80 36.59 37.43 38.11 38.66 38.65 38.66
42.29 41.42 40.03 38.91 38.19 37.64 37.06 36.53 35.36 34.24 33.81 33.36 33.06 32.38 31.84 31.51 30.82 30.08 28.99 27.14 26.37 24.96 24.12 23.84 23.81 23.07 23.81 25.42 24.82 24.76 24.14 25.26 25.59 28.46 31.10 32.51 34.67 35.37 36.12 36.80 36.82 36.57 36.63
38.17 37.67 37.26 36.96 37.10 36.85 36.80 35.61 35.08 34.35 33.46 32.00 31.72 31.24 31.06 31.80 33.12 32.27 30.17 27.93 26.83 25.31 24.89 21.26 22.91 22.07 22.18 24.13 24.31 25.24 23.72 24.51 24.94 26.31 26.01 25.92 26.28 26.81 28.23 32.03 32.69 33.87 34.25
37.21 37.31 37.15 37.25 36.92 37.34 38.86 37.77 34.26 31.95 31.40 30.49 29.77 28.92 28.91 30.60 31.29 33.41 34.16 34.77 31.51 25.14 21.15 19.18 17.48 22.48 23.58 23.99 22.57 23.49 23.37 22.54 22.72 25.98 23.38 25.47 26.88 26.11 27.04 27.19 31.88 33.97 35.50
36.14 36.12 36.91 36.47 36.61 37.45 38.68 37.26 34.96 31.16 30.15 29.09 28.70 28.24 28.76 29.61 29.30 26.74 30.09 33.20 32.77 34.28 33.82 27.35 24.73 23.79 23.51 23.99 23.26 22.06 24.08 24.67 23.97 26.11 25.36 22.86 25.41 24.17 26.32 27.32 32.40 33.83 35.06
34.57 34.12 33.88 34.40 34.66 36.90 38.02 37.22 34.91 29.90 28.91 28.68 28.59 26.92 26.41 26.56 27.65 28.43 27.72 27.04 27.42 27.21 27.60 27.81 26.02 26.03 25.60 26.25 26.84 27.76 26.29 24.55 24.62 25.35 24.55 19.84 24.40 23.41 25.41 25.75 31.37 33.02 34.18
32.73 32.57 33.32 32.87 32.30 32.79 36.85 34.49 30.65 28.44 27.72 26.97 27.15 26.48 26.89 26.23 30.03 32.58 28.67 24.28 25.81 25.86 29.82 32.30 32.43 32.76 32.89 32.83 31.37 26.06 21.29 19.95 19.50 21.21 23.79 21.68 21.77 21.77 23.98 24.60 26.20 31.74 33.22
31.95 32.33 32.06 32.30 35.49 32.67 35.86 34.57 29.94 27.37 24.92 25.07 25.02 26.38 29.48 28.43 31.78 32.78 28.47 25.97 22.41 22.59 23.81 23.91 23.54 24.06 25.61 24.15 29.62 24.78 18.57 16.50 19.20 18.15 21.57 19.88 20.99 21.75 18.86 22.87 23.97 23.72 25.29

GFSMA_sfc_wetblb_033.txt.gz
Wetbulb
66.98 67.23 66.97 66.70 66.17 64.70 61.95 56.06 51.71 49.92 48.93 48.46 48.94 52.83 56.13 58.42 59.28 60.37 61.86 61.40 62.20 60.65 59.61 58.68 58.02 57.86 57.60 57.37 57.32 57.27 56.78 56.68 57.15 57.18 57.38 57.62 57.29 57.20 57.62 57.89 58.28 58.71 59.02
66.87 66.53 66.03 65.63 64.97 64.06 60.55 55.11 51.23 49.60 49.02 48.32 47.74 51.72 55.26 56.97 57.45 57.53 58.41 59.16 59.88 58.87 57.37 56.82 56.56 56.47 56.78 56.44 56.43 55.85 55.34 55.37 55.92 55.72 56.28 55.88 55.78 56.01 56.36 56.65 56.92 57.25 57.60
65.81 66.20 65.65 64.75 64.40 62.89 57.09 51.85 48.86 48.39 47.84 46.75 46.95 49.51 53.71 55.41 55.66 54.70 54.69 55.49 55.76 56.79 56.50 55.33 54.31 55.06 54.02 54.71 54.88 54.31 53.60 53.50 53.83 54.18 54.56 54.57 54.61 54.66 54.86 55.14 55.44 55.68 56.05
64.07 64.86 64.88 64.33 63.67 60.23 53.83 50.48 48.55 47.63 47.43 46.99 46.10 46.73 50.70 53.32 53.87 52.55 52.01 51.83 51.64 51.91 53.90 52.55 52.09 51.75 52.15 52.56 52.46 52.48 52.13 52.11 51.69 52.23 52.40 52.95 53.39 53.65 53.86 54.09 54.42 54.74 55.13
63.99 63.33 63.31 63.97 62.02 57.74 52.10 49.27 47.24 47.86 46.30 45.51 44.97 46.18 46.52 50.78 52.00 49.98 49.47 49.22 49.21 49.23 50.33 50.51 49.95 49.38 49.25 49.78 50.53 51.32 51.53 51.09 50.98 51.14 51.45 51.58 52.17 53.10 53.48 53.72 54.13 54.43 54.70
63.32 62.95 62.46 62.35 59.34 55.22 51.23 48.34 47.24 45.27 45.97 45.41 44.20 45.02 46.36 46.25 49.82 49.52 48.14 47.37 46.79 46.94 46.78 44.92 45.42 45.87 47.66 48.11 48.31 49.32 50.50 50.75 50.02 50.24 50.57 51.27 51.72 52.17 53.47 53.50 53.89 54.44 54.69
62.48 62.18 62.16 60.70 56.93 54.48 51.63 48.83 46.23 43.78 43.47 45.14 45.09 44.64 45.07 44.66 45.98 47.07 47.28 46.16 45.30 44.17 43.88 44.02 44.41 44.54 44.20 43.89 44.62 46.72 48.72 49.82 49.63 49.68 50.11 50.62 51.56 52.27 53.12 53.83 54.22 54.30 54.20
61.87 61.38 60.74 58.56 55.36 53.42 49.82 47.13 44.42 41.37 43.71 44.66 45.05 44.59 42.74 43.54 43.41 43.38 44.48 44.35 44.06 43.12 42.52 42.24 42.34 42.43 42.91 42.94 43.83 44.14 45.57 47.11 48.75 49.48 49.92 50.90 51.70 52.51 53.28 53.53 54.04 54.62 54.62
61.61 61.32 60.15 59.15 56.73 54.15 49.51 46.30 44.61 43.25 42.92 42.36 43.51 46.16 40.67 42.72 42.23 41.63 41.80 42.32 42.19 41.90 42.02 41.61 40.93 40.66 40.85 42.30 43.13 44.43 45.50 46.07 47.64 49.24 50.54 51.43 52.04 52.28 52.98 53.54 53.91 54.20 54.29
61.60 61.15 60.04 58.50 56.58 54.62 52.55 49.29 47.21 45.94 45.40 41.83 39.85 39.96 40.98 43.44 42.53 39.37 40.13 40.42 40.42 40.45 40.97 40.93 40.57 39.53 39.96 40.63 40.33 41.70 42.69 43.74 45.88 47.63 49.19 50.40 51.01 51.66 52.37 52.88 53.27 53.59 53.47
61.99 60.81 59.24 57.66 55.78 54.62 53.42 50.74 46.73 45.95 45.01 43.02 43.00 38.41 38.47 39.18 39.70 41.34 38.99 38.54 38.33 39.73 40.27 40.19 40.02 39.15 38.39 39.07 40.43 40.70 41.33 42.76 44.79 46.33 48.10 49.50 50.24 51.04 51.74 52.08 52.37 52.45 52.18
60.71 60.05 58.23 57.20 56.36 54.09 51.41 50.01 48.39 47.50 45.39 44.29 41.01 40.72 39.06 40.65 39.22 39.12 38.12 36.98 39.29 38.30 39.02 39.24 38.74 38.28 37.89 38.12 37.78 38.98 39.83 41.26 42.88 44.47 46.69 48.22 48.74 49.20 49.66 49.93 50.09 50.12 50.14
58.16 58.39 57.60 56.17 55.72 53.66 52.64 50.66 48.80 47.52 46.40 44.58 42.39 39.87 40.47 38.99 38.63 37.04 38.15 35.88 36.87 37.08 37.19 38.26 38.47 37.84 36.97 37.30 38.01 38.41 38.15 39.68 40.88 42.98 45.57 46.79 46.31 45.95 46.06 46.71 47.59 48.11 48.57
58.98 59.31 57.16 56.52 55.10 52.82 51.44 49.89 48.62 48.00 46.36 44.14 42.58 40.64 39.79 38.10 37.30 37.42 37.15 35.80 34.02 35.14 34.58 36.35 36.10 36.67 36.76 36.63 37.09 37.60 37.61 37.82 39.23 41.33 42.66 42.88 42.52 42.59 42.98 43.80 44.50 45.21 45.92
58.49 57.81 55.52 54.78 53.12 51.24 50.19 48.72 47.69 45.36 44.27 42.36 41.54 39.84 39.36 36.82 37.06 35.95 35.90 36.52 36.34 33.36 32.48 32.18 34.20 34.95 36.02 36.24 36.11 37.50 37.05 36.27 38.77 39.23 39.51 39.80 39.94 40.31 41.06 41.76 42.57 43.31 43.85
56.17 53.21 52.58 51.86 50.62 49.70 48.34 47.35 45.48 42.95 41.24 40.57 38.67 36.63 35.94 35.94 35.53 35.36 35.73 34.03 34.30 33.32 31.92 33.87 33.82 33.97 34.56 34.78 35.63 36.95 36.17 36.38 37.15 37.90 38.20 38.37 38.74 39.34 40.08 40.88 41.61 42.32 42.85
51.91 50.86 50.19 48.84 47.98 46.61 46.18 45.46 43.89 41.09 37.99 37.57 36.75 35.65 35.02 34.52 34.54 33.79 33.50 32.22 32.17 32.40 31.47 32.98 32.93 33.46 32.97 34.09 34.88 35.84 35.54 35.34 35.34 36.33 37.23 37.66 38.32 39.07 39.71 40.22 40.61 41.04 41.58
47.80 47.75 46.66 46.01 45.41 44.54 43.82 42.41 40.25 38.92 37.32 35.74 36.03 35.45 34.47 35.38 33.91 33.55 32.95 31.66 31.32 30.60 30.33 30.34 31.29 31.94 31.57 33.37 33.66 33.10 33.72 34.42 34.39 34.82 36.10 37.19 37.98 38.12 38.34 38.83 39.31 39.87 40.28
45.90 45.51 44.93 43.27 42.67 41.27 40.12 39.26 37.79 37.67 37.18 36.53 35.87 35.27 34.07 33.72 32.55 32.13 31.56 31.30 30.47 30.67 29.51 29.61 30.10 30.82 31.68 32.50 32.60 32.96 32.58 33.04 32.64 33.76 34.97 35.64 36.17 36.77 37.60 38.36 38.78 39.09 39.21
44.98 44.87 43.58 41.03 39.68 38.77 38.16 37.84 37.68 36.93 35.52 35.07 34.57 34.07 33.59 33.27 32.74 32.13 31.68 31.24 30.94 29.54 29.74 29.16 29.42 30.49 30.90 32.33 31.58 30.15 29.55 31.64 30.89 32.23 33.32 33.96 35.22 35.73 36.55 36.99 37.06 36.83 36.75
40.23 39.94 39.07 38.31 38.10 37.78 37.67 36.52 36.22 35.32 33.95 33.58 33.26 32.91 32.27 32.38 33.34 32.87 32.08 30.88 30.54 29.87 29.85 30.55 29.72 29.58 29.60 29.96 29.39 30.32 28.33 29.25 30.21 31.56 31.12 31.71 31.96 32.27 32.89 34.14 34.04 34.45 34.81
38.17 38.29 37.59 37.88 37.96 38.91 40.38 39.13 35.44 32.93 32.14 31.32 30.43 30.92 31.38 32.92 33.28 34.81 35.32 35.19 33.59 31.31 30.72 29.54 29.81 28.41 29.23 29.39 29.65 28.40 27.94 26.86 24.70 32.54 29.73 29.42 31.73 30.64 31.71 32.49 33.66 34.42 35.52
37.57 37.43 37.85 38.30 37.65 38.04 39.61 38.61 36.47 32.84 31.81 31.29 30.92 30.27 30.28 31.72 31.51 30.06 30.83 32.37 33.05 34.00 34.28 32.51 29.49 29.07 28.38 29.62 29.71 27.79 28.33 27.78 25.98 29.88 29.83 26.83 30.33 28.93 31.51 31.56 33.34 34.07 35.09
35.47 35.38 35.66 35.93 36.18 37.87 39.31 38.18 35.78 31.51 30.67 30.46 29.95 29.54 29.85 29.77 29.95 30.51 31.16 31.09 31.32 31.04 31.01 30.75 31.16 30.93 31.13 31.29 30.56 30.10 29.40 28.85 28.86 29.41 29.68 23.81 29.70 28.70 30.83 31.28 32.90 33.54 34.25
33.20 32.54 32.84 32.62 32.77 33.56 37.14 35.94 31.70 29.83 28.99 28.48 29.10 29.34 29.23 29.22 30.08 31.77 31.46 30.11 29.56 29.68 30.70 31.90 32.07 32.54 32.84 32.73 32.11 29.60 27.13 25.45 23.36 25.51 28.72 25.72 27.06 27.37 28.48 28.95 30.92 32.62 33.45
32.21 33.09 32.05 32.01 35.15 33.13 34.48 33.20 30.18 29.07 27.92 28.10 28.71 28.82 29.75 30.37 31.17 32.34 31.68 29.94 26.52 27.04 27.94 28.24 28.27 28.15 28.42 27.70 29.47 28.39 26.87 23.41 22.69 22.40 27.63 24.69 26.05 25.77 23.46 29.12 30.09 30.66 30.15

GFSMA_sfc_wetblb_036.txt.gz
Wetbulb
68.26 68.60 68.03 67.81 67.41 67.22 65.89 64.05 60.95 57.60 55.66 54.35 54.58 55.77 56.94 58.33 59.50 62.07 63.11 62.03 62.75 61.18 60.10 59.35 58.97 58.61 58.18 57.95 57.95 57.08 56.76 57.20 57.42 57.38 57.60 57.03 57.11 57.46 57.78 57.97 58.14 58.27 58.72
68.05 68.04 67.40 67.03 67.18 67.42 65.83 64.00 60.57 57.61 55.90 54.63 53.59 55.02 56.55 58.12 58.83 60.07 61.44 61.02 60.90 60.15 58.57 57.70 57.55 57.40 57.27 57.08 56.81 55.56 55.32 55.49 55.87 56.24 55.97 55.95 55.96 56.18 56.44 56.58 56.69 56.80 57.12
67.64 67.95 67.60 66.89 67.35 67.45 65.60 63.13 59.42 56.90 55.06 53.68 53.17 54.14 56.07 57.43 57.71 57.84 58.70 58.97 57.53 57.58 57.94 56.55 55.85 56.23 54.95 55.33 55.10 54.14 53.29 53.31 53.53 53.98 54.32 54.49 54.59 54.68 54.91 55.12 55.36 55.69 56.07
67.12 67.40 67.37 67.00 67.87 66.95 64.83 61.48 58.40 55.93 54.92 53.53 52.53 52.49 54.71 56.30 56.69 56.51 56.61 56.66 56.22 55.03 55.73 53.84 54.10 53.14 53.31 53.00 52.62 52.44 52.08 52.21 51.72 52.09 52.20 52.69 53.25 53.77 54.05 54.32 54.61 54.97 55.23
66.91 66.24 66.61 66.93 67.29 66.12 63.18 60.50 57.75 56.52 54.11 52.85 51.68 51.22 52.48 54.29 55.34 54.56 54.34 53.96 53.99 53.68 53.68 51.46 51.23 50.46 50.39 50.50 50.73 51.29 51.25 50.92 50.63 51.23 51.36 51.81 52.04 52.50 53.61 53.95 54.12 54.42 54.84
67.17 66.19 65.55 65.94 66.37 65.17 62.38 59.58 57.12 54.92 54.57 53.09 48.49 49.08 50.44 51.93 54.11 53.92 52.79 52.00 51.80 51.82 52.25 50.95 49.58 49.34 48.71 48.56 48.31 48.89 50.04 50.87 50.83 50.41 50.77 51.32 51.90 52.50 53.10 54.22 54.43 54.69 54.96
67.46 66.54 65.49 65.10 65.40 64.01 62.58 59.61 57.21 52.69 50.81 51.62 49.71 49.15 49.14 49.49 50.82 52.63 52.51 51.21 50.50 50.12 50.18 48.63 48.43 48.07 47.14 45.48 44.85 46.74 48.16 49.17 50.46 49.96 50.35 50.98 51.52 52.45 53.29 54.00 54.56 54.68 55.06
67.57 66.43 65.64 65.05 64.55 63.11 62.36 59.68 55.66 51.73 50.65 49.79 50.36 50.34 46.61 46.75 48.01 50.19 51.31 50.26 49.84 49.13 48.06 47.50 47.24 46.99 47.02 47.29 46.56 44.19 45.46 47.09 48.31 49.63 50.22 51.03 52.06 52.95 53.63 54.14 54.42 54.96 55.27
67.25 66.82 65.92 65.38 64.46 62.91 61.84 59.78 55.59 53.11 48.96 48.11 51.20 51.28 46.80 46.62 46.63 47.25 47.96 48.83 48.53 47.70 47.55 47.02 46.25 45.69 45.57 45.93 44.77 45.61 44.94 45.26 47.12 48.87 50.05 50.77 51.68 52.48 53.21 53.65 54.06 54.33 54.48
66.84 66.81 65.75 65.05 63.88 61.96 60.72 59.11 56.54 54.29 53.67 48.05 47.59 47.99 47.54 49.80 46.07 42.86 45.03 46.29 47.17 46.20 46.65 45.89 45.28 44.83 44.58 45.24 42.65 42.65 42.47 43.29 45.28 47.23 48.80 49.92 50.77 51.72 52.43 53.02 53.45 53.83 53.93
65.03 65.69 65.07 64.58 63.26 61.25 61.11 59.26 56.45 54.69 54.28 52.25 48.73 44.73 44.53 43.32 44.42 46.34 44.32 42.42 44.32 45.07 45.90 45.61 44.91 44.53 43.81 43.70 43.61 42.51 41.09 42.14 44.33 45.87 47.71 49.04 50.28 51.04 51.53 52.03 52.36 52.48 52.46
63.54 63.85 63.83 64.05 63.32 61.65 60.75 60.09 57.89 55.14 53.30 53.16 49.50 44.77 43.78 43.93 42.43 43.00 44.44 44.59 43.12 43.51 43.94 44.07 43.81 43.65 43.07 42.56 41.12 40.03 39.54 40.63 42.51 44.71 46.75 48.33 49.30 49.43 49.72 50.07 50.36 50.37 50.35
62.25 61.81 62.61 62.41 62.56 62.10 61.14 60.52 57.25 53.11 51.27 49.27 48.81 47.23 46.19 46.32 44.54 44.10 46.04 42.09 41.67 40.49 41.17 42.70 43.10 42.95 42.02 41.54 41.28 38.78 39.10 39.77 40.96 43.03 45.54 47.24 46.48 45.74 45.91 46.77 47.73 48.23 48.54
63.37 63.11 61.90 61.98 61.90 61.46 60.72 59.48 57.32 54.84 53.18 51.37 49.86 47.89 45.23 44.20 43.15 39.62 42.35 37.14 35.97 37.43 39.63 40.42 42.01 41.85 41.23 40.59 40.06 37.52 40.13 38.77 39.70 41.49 43.34 43.66 42.93 42.57 43.04 43.97 44.86 45.41 46.00
62.74 63.10 62.38 61.29 60.95 60.14 59.53 58.02 56.57 55.14 53.62 52.71 50.37 47.23 43.17 41.17 41.16 39.93 39.26 41.37 39.60 35.42 35.39 38.30 38.43 39.84 39.57 39.22 38.94 39.36 39.83 39.67 39.42 40.27 40.78 40.54 40.33 40.62 41.30 42.00 42.62 43.40 44.03
61.05 60.55 60.89 60.41 59.14 57.64 55.78 54.57 53.50 53.34 51.46 48.82 47.45 42.84 39.89 38.44 38.00 37.88 36.68 35.63 36.76 35.33 32.27 33.80 35.38 34.99 36.92 37.19 38.75 38.05 39.17 38.12 38.63 39.35 39.57 39.26 39.26 39.64 40.28 40.97 41.72 42.47 43.04
57.10 57.30 57.22 56.89 56.41 53.77 52.16 51.08 50.24 48.53 46.99 43.44 41.35 39.24 36.82 37.30 35.76 35.57 35.14 34.40 33.61 34.25 32.46 31.84 32.91 33.27 33.28 33.97 36.55 37.91 38.49 37.86 38.03 38.53 38.73 38.64 38.61 39.05 39.91 40.56 40.95 41.41 41.84
54.03 53.17 52.42 52.29 52.23 51.04 49.84 48.53 47.27 45.79 43.19 41.39 40.78 39.21 37.88 36.56 35.06 34.99 34.96 33.69 33.16 32.41 31.91 30.32 31.54 31.68 31.83 33.81 34.64 34.84 35.69 36.50 36.75 37.43 37.83 37.78 38.35 38.85 39.10 39.43 39.65 40.11 40.53
49.45 48.50 48.44 48.28 48.16 48.17 47.06 46.09 43.81 42.63 39.18 38.65 37.08 37.47 36.19 35.07 33.69 33.72 32.92 32.45 32.03 32.80 31.51 30.93 31.54 32.65 32.37 33.19 32.52 34.31 35.45 35.94 35.99 36.25 36.93 36.96 37.42 37.87 38.34 38.68 39.12 39.52 39.62
47.35 46.48 46.15 45.22 43.97 43.78 42.34 39.89 39.45 38.55 37.71 37.48 36.71 36.56 36.83 34.67 33.47 33.09 33.08 32.40 32.67 32.77 32.33 31.20 31.18 31.81 32.47 33.18 33.20 31.89 32.15 34.72 33.62 34.61 35.70 36.57 36.59 36.80 37.40 37.69 37.86 37.69 37.72
42.71 41.77 40.48 39.57 39.50 39.18 38.64 38.02 37.50 36.47 36.10 35.59 34.82 34.31 34.14 34.96 36.23 34.56 34.15 32.60 32.46 31.36 31.82 31.97 31.11 31.38 31.01 31.22 31.52 33.33 30.99 31.79 32.66 34.06 33.64 34.64 34.84 35.12 35.68 36.79 36.59 36.54 36.68
41.07 39.42 38.90 38.88 39.04 39.08 40.09 39.44 37.27 36.01 34.76 33.78 31.97 32.26 32.89 34.14 34.84 36.08 36.63 35.76 34.28 33.37 32.38 31.22 31.06 30.11 31.16 32.21 32.65 31.43 30.26 28.83 26.84 34.23 32.44 31.88 34.54 33.56 34.81 35.57 36.64 36.67 36.73
38.54 38.48 38.66 39.02 38.88 39.64 41.02 39.60 37.45 34.31 32.87 32.10 31.78 31.50 32.42 33.61 32.78 31.75 32.79 33.73 34.55 35.77 36.04 33.90 31.24 31.48 31.32 32.10 31.89 29.92 29.48 28.78 27.97 31.54 32.21 29.36 33.06 31.80 34.61 35.39 36.50 36.36 36.49
35.73 35.90 35.65 37.29 37.68 38.78 39.81 38.54 36.23 32.24 31.67 31.56 31.73 32.08 31.67 31.12 31.68 31.22 31.37 31.57 32.03 32.72 33.51 33.43 33.07 33.00 33.10 33.20 32.54 32.12 31.02 30.31 31.34 32.41 33.25 27.78 31.86 31.05 33.81 34.74 36.00 35.99 35.93
33.11 32.71 33.37 33.41 32.69 33.39 37.07 36.09 32.59 31.19 29.85 29.73 31.36 31.77 31.37 30.85 30.73 32.09 32.10 31.75 31.59 32.33 33.74 32.80 32.75 32.74 33.11 33.41 33.15 31.37 28.61 28.19 26.71 28.55 31.97 29.09 30.15 30.37 31.91 32.93 34.08 35.14 34.92
32.52 33.42 32.23 32.18 34.70 32.58 33.71 33.30 32.09 31.31 30.15 30.35 30.89 31.08 30.23 30.94 30.95 32.15 32.67 31.92 29.83 30.23 30.77 30.53 31.20 31.35 31.38 30.83 30.71 30.47 29.95 26.44 25.61 24.58 31.57 27.45 28.34 28.44 25.88 31.56 32.67 33.32 33.29

GFSMA_sfc_wetblb_039.txt.gz
Wetbulb
68.25 67.87 67.12 66.83 66.70 66.62 66.24 65.20 63.36 60.27 58.56 57.08 56.64 57.06 57.13 58.01 59.07 61.76 63.06 62.46 63.35 62.11 61.05 60.46 60.11 59.47 58.92 58.98 57.99 57.58 57.77 58.01 57.77 58.05 57.55 57.42 57.63 57.97 58.15 58.10 58.20 58.32 58.72
68.12 68.44 67.72 66.50 66.19 67.14 66.36 65.04 63.04 60.43 58.47 56.81 55.97 56.42 56.71 57.92 58.65 60.10 62.06 60.63 61.79 61.56 59.86 59.18 59.08 58.78 58.32 58.49 56.96 56.11 55.82 56.15 56.26 56.50 56.41 56.42 56.33 56.34 56.48 56.63 56.69 56.92 57.31
67.50 67.28 67.43 66.94 66.64 66.53 66.63 65.06 63.12 60.55 58.38 56.72 55.79 55.92 56.50 57.31 57.71 58.39 60.13 60.06 57.82 58.84 59.56 58.08 57.87 57.75 56.89 56.87 56.19 54.57 53.81 53.78 53.96 54.13 54.16 54.51 54.73 54.85 55.15 55.46 55.73 56.02 56.23
67.46 67.04 67.11 67.09 66.64 66.45 66.87 64.97 62.30 58.80 57.62 56.23 55.48 54.82 55.50 56.60 56.78 56.80 57.68 58.19 57.50 56.14 57.25 56.98 56.94 55.30 55.14 54.58 53.92 53.22 52.85 52.21 52.09 52.15 52.10 52.41 52.71 53.37 54.16 54.37 54.68 55.06 55.56
67.41 66.73 66.90 67.48 66.67 66.22 65.70 64.88 61.84 58.97 57.54 56.42 55.59 54.55 54.39 55.26 55.71 55.70 55.49 56.04 56.22 55.41 55.09 54.34 54.97 54.30 53.42 52.54 52.27 52.17 51.62 50.97 50.78 51.12 51.22 51.87 52.17 52.47 52.92 54.15 54.22 54.60 55.02
68.41 67.46 66.67 66.58 67.10 66.36 64.72 64.07 61.45 59.57 58.51 56.60 53.71 52.19 52.76 53.77 55.10 54.99 53.90 53.79 53.74 53.47 53.92 51.87 50.70 49.70 51.09 50.80 50.03 49.55 49.85 50.74 51.10 50.65 50.85 51.36 51.92 52.55 53.15 53.81 54.48 54.89 55.26
68.83 67.94 66.88 66.19 66.26 65.60 64.97 63.84 61.28 58.19 56.77 56.70 51.89 50.99 51.69 51.41 51.67 53.68 53.47 52.44 51.94 51.47 52.01 51.67 49.49 49.49 48.12 48.97 47.45 47.09 47.97 49.03 50.17 50.87 50.45 51.07 51.84 52.57 53.45 54.16 54.81 55.09 55.36
69.31 68.45 67.28 66.20 65.66 64.97 64.80 63.40 60.68 57.30 55.28 54.47 51.40 51.73 47.86 48.13 48.71 50.33 52.18 51.24 50.63 50.11 49.84 49.30 48.15 48.10 48.30 46.70 47.88 45.61 45.83 47.19 48.24 49.39 50.23 51.04 52.05 53.10 53.89 54.49 54.75 55.12 55.36
69.28 68.01 67.70 66.91 66.06 65.20 63.95 63.37 61.04 57.69 53.77 52.85 54.38 53.22 50.13 48.23 46.56 48.12 49.56 50.43 49.62 49.08 48.26 47.97 47.27 47.11 47.21 46.88 45.79 45.81 46.61 45.63 46.72 48.26 49.46 50.30 51.38 52.14 53.14 53.80 54.06 54.52 54.85
67.39 67.85 66.55 66.22 65.90 65.13 63.96 63.17 61.71 57.80 55.64 50.66 50.75 51.94 52.73 51.64 46.90 42.50 46.24 47.40 48.67 47.85 47.47 47.05 46.16 45.91 45.60 45.55 45.60 45.36 44.77 43.60 44.96 46.83 48.46 49.55 50.35 51.53 52.85 52.99 53.48 53.82 54.01
65.96 66.15 66.28 65.94 64.48 64.71 64.11 62.62 61.14 56.87 56.73 54.53 51.28 49.41 49.03 47.32 47.71 46.62 41.75 42.15 45.83 46.53 47.06 46.80 45.65 45.09 44.60 44.91 44.32 44.21 42.96 42.43 44.15 45.64 47.42 48.78 49.83 51.01 52.13 52.39 52.64 52.78 52.69
66.20 64.64 64.14 64.55 64.53 63.60 62.97 61.90 61.10 58.25 56.63 56.43 52.49 49.43 47.82 45.46 43.15 43.22 44.16 42.53 41.41 43.38 44.75 45.58 44.50 43.92 43.96 43.39 43.89 44.22 41.84 41.20 42.43 44.17 46.34 48.13 49.25 49.72 49.97 50.18 50.17 50.38 50.66
64.77 63.50 63.17 63.17 62.92 62.90 62.70 61.74 60.84 58.86 57.17 55.70 54.13 50.85 48.50 48.73 46.08 45.71 44.89 42.40 42.62 42.10 42.23 44.04 43.93 43.69 42.96 42.16 41.59 41.33 41.01 40.73 41.68 43.58 45.29 46.70 46.92 46.40 46.40 46.96 47.69 48.25 48.82
63.31 64.75 63.48 62.16 62.29 62.35 61.77 61.26 60.14 59.81 58.10 55.94 54.79 52.15 48.94 48.09 45.68 45.79 45.32 40.74 37.65 37.75 38.11 38.53 41.27 41.94 41.10 41.05 42.16 40.69 39.06 41.52 40.86 42.21 43.77 44.15 43.94 43.27 43.41 44.22 44.93 45.49 46.22
61.49 62.47 63.39 62.25 61.17 61.58 60.95 60.05 58.98 57.74 55.54 54.50 53.26 51.84 50.64 49.04 46.02 42.20 42.79 42.48 42.13 34.27 36.27 37.52 35.81 38.98 39.46 39.04 39.73 38.87 38.80 40.64 41.55 41.68 41.91 41.93 41.71 41.73 41.82 42.41 42.95 43.61 44.05
59.37 60.57 60.78 60.02 59.41 59.67 59.63 58.57 57.14 56.13 54.53 53.45 52.56 51.59 48.09 42.73 40.99 39.38 38.38 38.17 38.56 37.88 34.28 35.15 34.76 35.02 37.10 37.76 38.25 37.62 37.01 39.18 40.16 41.02 41.27 40.95 40.73 40.87 41.01 41.24 41.64 42.46 43.24
55.42 56.17 56.43 56.62 56.86 57.20 56.05 54.37 53.76 53.04 52.71 51.10 47.61 45.49 41.23 40.17 38.76 38.29 36.96 36.76 35.50 36.20 33.61 32.13 33.50 33.82 34.06 34.77 35.71 36.40 36.88 36.29 36.69 39.53 40.20 40.38 40.42 40.36 40.12 40.50 41.17 41.82 42.35
53.17 52.55 52.44 52.49 52.68 52.90 52.43 51.47 50.04 48.35 48.43 44.61 43.50 41.40 39.09 39.30 36.18 36.76 36.53 34.37 34.13 34.37 34.23 31.90 32.73 32.53 32.67 32.87 33.36 33.77 35.12 36.26 35.72 37.66 39.15 39.60 39.52 39.60 39.65 40.12 40.34 40.70 41.00
51.13 50.38 49.73 48.52 48.34 48.10 48.08 47.94 46.18 45.09 44.09 42.46 41.17 39.44 36.75 36.36 35.46 34.80 34.49 33.57 33.48 34.03 33.14 32.93 32.02 32.77 32.92 34.06 33.61 34.36 34.28 34.95 36.24 37.87 38.94 38.72 38.69 38.90 39.36 39.61 39.94 40.20 40.46
47.76 46.49 45.39 43.37 43.79 42.08 41.20 41.13 40.19 39.48 38.44 38.14 38.06 37.50 37.16 36.44 35.12 34.12 33.90 33.05 32.73 32.12 32.01 31.65 31.98 32.49 32.89 34.24 33.70 31.80 31.50 34.00 33.20 35.24 36.29 36.86 38.19 38.63 38.75 38.99 39.10 38.90 38.86
43.57 43.61 42.00 41.11 40.44 39.78 39.77 38.82 38.04 37.16 36.29 35.71 35.99 35.88 35.60 36.24 37.03 35.95 34.11 32.86 32.83 32.43 32.36 31.95 31.75 31.72 31.66 31.57 30.78 32.42 30.90 31.20 31.64 32.77 32.01 32.69 33.12 33.25 34.25 36.87 37.08 37.79 38.14
41.36 41.45 40.72 40.15 39.71 39.74 40.44 39.84 38.03 36.75 35.89 34.33 33.33 33.62 34.90 36.12 37.09 37.71 37.13 36.53 35.41 33.27 32.84 32.75 31.89 29.68 30.44 31.20 31.82 30.64 29.97 28.37 25.87 32.29 29.89 29.86 32.70 31.68 32.74 33.53 37.23 37.94 38.20
38.88 38.65 39.34 39.66 39.38 39.79 40.96 39.87 37.96 34.61 33.77 32.47 32.31 32.13 32.37 34.36 33.62 32.98 34.83 35.09 36.18 36.38 35.55 33.41 31.23 30.91 30.28 31.27 30.92 29.39 28.57 28.06 27.12 29.87 29.76 27.54 31.26 30.13 32.60 34.15 37.22 37.80 37.97
35.29 35.02 34.35 34.69 35.91 38.15 39.39 38.23 36.30 32.05 31.62 31.45 32.00 31.95 31.84 31.55 31.68 31.24 31.14 31.71 32.13 32.43 32.80 33.31 32.15 31.74 31.77 32.22 31.39 30.85 29.91 29.54 30.09 30.57 31.26 26.48 30.35 29.41 31.77 32.51 36.86 37.44 37.58
33.18 32.75 33.33 32.89 32.47 33.69 37.13 36.56 33.43 31.74 30.87 30.89 31.49 31.64 31.33 30.94 31.89 32.26 31.62 31.84 30.73 30.92 34.53 33.72 33.48 33.61 33.59 33.83 33.48 30.37 27.49 25.95 25.09 26.91 29.87 27.39 27.53 27.81 29.65 30.02 31.66 36.14 36.97
32.94 33.55 31.47 32.18 34.00 32.40 34.77 34.11 32.71 31.51 30.09 30.27 31.04 31.22 30.76 31.01 31.31 32.09 31.61 31.34 29.45 29.36 29.68 29.19 29.05 30.40 31.45 30.54 32.48 29.35 27.59 24.50 26.06 24.83 28.01 25.63 25.55 26.28 25.15 28.59 29.59 30.34 30.48

GFSMA_sfc_wetblb_042.txt.gz
Wetbulb
63.88 63.68 63.02 63.44 62.20 64.42 63.39 62.44 59.98 56.26 53.98 52.98 51.61 52.05 51.98 52.86 52.92 60.57 59.72 62.94 64.16 63.34 62.27 61.82 61.37 60.58 60.26 59.48 58.65 58.54 58.53 58.24 58.52 58.10 57.94 57.95 58.06 58.06 58.10 58.13 58.27 58.51 58.86
64.88 63.99 63.38 64.16 62.73 62.99 61.99 61.27 59.62 55.56 53.48 51.59 50.73 51.33 51.34 52.46 52.77 58.39 58.22 59.02 62.43 62.72 61.61 61.07 60.83 60.26 60.04 59.25 57.82 57.07 56.95 56.82 57.17 56.80 56.65 56.56 56.51 56.57 56.79 56.92 56.99 57.22 57.54
64.04 64.63 64.10 63.41 63.65 64.35 63.26 61.07 59.23 56.27 53.34 51.84 50.38 50.59 51.30 51.79 52.67 54.66 57.51 55.80 57.37 60.06 61.06 60.01 59.89 59.65 59.25 59.07 57.41 55.91 55.16 54.89 54.83 54.44 54.58 54.76 54.85 55.15 55.40 55.65 55.99 56.35 56.60
64.16 63.30 63.01 63.72 64.16 63.91 64.42 61.34 58.60 54.62 52.30 50.46 49.42 49.38 50.42 51.28 52.03 52.33 54.32 55.33 53.50 53.86 58.28 60.10 59.40 58.63 57.91 57.50 56.14 54.89 54.22 53.27 53.30 52.58 52.42 52.75 52.92 53.31 54.02 54.80 54.84 55.29 55.82
64.62 63.72 62.72 63.54 64.40 63.63 63.87 63.96 59.02 53.84 51.53 50.49 50.27 48.74 48.88 49.76 50.76 52.56 51.50 52.25 52.58 51.94 50.86 56.34 58.35 57.53 56.97 55.69 55.20 54.84 53.69 52.09 51.88 51.65 51.46 51.72 52.06 52.51 52.98 53.62 54.59 54.85 55.32
65.07 63.61 62.59 62.54 64.79 63.70 63.25 63.47 59.14 54.88 52.91 51.37 51.80 49.23 47.29 48.23 49.65 49.81 49.64 51.32 49.82 50.29 48.94 47.77 47.79 48.69 55.45 54.34 53.90 53.43 52.61 51.90 51.62 51.31 51.09 51.10 51.59 51.74 52.69 53.47 54.00 54.61 55.03
65.51 64.23 63.69 62.65 62.91 63.52 63.54 62.52 58.53 54.92 52.71 51.17 46.79 44.81 45.52 46.04 46.07 48.61 48.66 47.83 48.04 48.07 47.33 47.02 46.24 45.09 47.46 52.91 52.32 51.22 50.58 50.62 50.82 51.61 51.03 50.86 51.28 52.23 53.13 53.96 54.48 54.85 55.18
66.14 64.95 64.31 63.23 62.42 61.81 61.60 61.35 59.02 53.99 51.84 50.28 44.99 44.37 41.70 43.42 44.23 45.37 47.56 47.60 46.00 46.75 46.56 47.32 45.60 44.33 44.75 44.74 44.46 49.25 48.91 49.25 49.71 50.19 50.57 50.69 51.54 52.52 53.30 53.76 54.39 54.96 55.40
65.75 65.69 65.72 63.55 62.68 61.36 61.17 61.13 59.56 56.33 52.33 49.04 49.10 46.96 43.95 42.44 40.89 43.16 44.81 46.54 45.49 44.44 44.96 45.42 44.78 44.38 43.91 42.51 46.42 46.31 47.63 48.61 49.17 49.66 49.98 50.06 50.64 51.68 52.32 53.33 53.82 54.25 54.64
65.46 66.17 65.71 65.09 64.78 62.05 60.77 60.71 60.51 57.70 52.94 49.72 47.43 50.82 48.12 46.16 41.69 38.59 43.57 45.33 45.97 45.16 45.04 44.25 44.00 43.58 43.15 42.16 44.52 46.23 48.27 46.49 46.97 47.87 48.59 49.27 49.93 50.96 52.20 52.93 53.47 53.67 53.88
65.25 64.84 65.08 64.89 64.44 63.94 62.76 59.94 59.47 57.89 54.79 51.66 49.82 47.41 47.08 43.79 43.14 41.60 36.90 40.35 43.57 44.44 43.84 44.26 43.74 43.12 42.52 42.20 41.67 45.96 47.30 46.21 46.44 47.04 47.51 48.45 49.37 50.53 51.62 52.37 52.64 52.58 52.21
62.10 63.17 63.52 64.03 63.64 63.44 63.22 62.70 60.48 59.08 55.67 53.56 50.44 49.75 47.53 45.67 42.61 41.45 41.14 37.96 39.62 40.81 42.43 42.63 43.17 42.79 41.50 41.71 44.15 46.04 45.88 45.26 45.27 45.40 46.60 47.67 48.55 49.39 49.93 49.96 50.02 50.29 50.53
59.90 61.01 61.56 61.59 62.25 62.88 62.82 62.21 60.27 59.27 56.06 54.58 53.13 51.07 48.80 49.60 47.21 45.85 44.81 40.06 38.44 38.81 40.56 42.00 41.94 40.76 41.57 40.04 41.98 44.24 44.48 43.78 43.32 44.24 46.04 47.13 47.00 47.11 47.15 47.10 47.82 48.36 48.95
58.06 60.14 60.66 60.13 60.04 60.68 61.99 61.55 60.65 59.82 58.27 55.90 55.12 52.25 49.58 48.22 48.54 47.27 47.89 44.73 39.66 37.03 35.94 37.66 39.64 39.93 38.90 39.77 41.34 43.23 40.65 42.67 42.56 42.63 44.27 45.25 44.61 44.48 44.54 45.23 45.57 46.18 46.41
57.01 56.65 56.94 59.22 59.03 60.94 60.86 60.33 59.94 58.86 58.59 56.60 55.60 53.78 49.94 49.26 48.71 47.53 46.93 47.25 45.71 36.32 35.38 36.78 37.09 38.80 39.22 38.80 41.47 38.42 36.78 40.18 42.38 42.40 42.71 43.14 43.08 42.92 43.06 43.41 43.73 44.04 44.33
53.22 53.34 54.41 54.90 56.18 58.28 59.11 58.59 57.58 57.15 55.47 53.70 52.61 51.41 50.20 45.35 44.30 44.27 42.81 42.18 43.42 41.41 35.56 36.32 35.14 36.27 38.04 38.48 39.82 37.82 37.45 38.86 39.97 41.70 42.30 42.48 42.55 42.30 42.19 42.56 42.76 42.73 43.15
52.83 52.65 52.53 52.03 53.81 54.22 54.95 54.06 53.43 52.76 52.24 50.97 49.06 48.61 43.14 42.15 40.91 39.83 39.28 38.89 38.45 39.42 36.44 32.48 33.68 34.49 34.36 35.22 36.58 37.02 37.47 37.05 37.26 40.24 41.05 41.36 41.53 41.54 41.57 41.75 41.78 42.03 42.57
51.11 49.75 50.00 49.74 49.72 49.94 50.63 50.06 49.43 48.41 48.78 45.78 43.74 42.17 40.42 40.10 38.99 38.49 37.21 36.16 36.52 37.43 37.02 32.66 32.88 32.76 33.67 34.64 34.82 34.25 35.57 36.68 35.96 37.83 39.56 40.24 40.69 41.05 41.01 40.85 40.67 41.28 41.59
45.21 43.94 43.13 43.55 43.76 44.23 45.22 43.65 43.41 43.60 43.46 42.89 41.72 40.15 39.27 37.89 36.28 36.06 36.18 35.67 35.90 35.83 35.06 35.09 32.51 32.71 32.48 33.48 33.67 34.24 34.07 34.23 35.40 37.63 39.36 39.88 39.33 39.27 39.64 40.15 40.71 40.80 40.82
41.25 40.34 39.80 39.05 39.08 39.03 39.76 39.40 39.66 38.75 38.30 38.17 38.15 37.91 37.44 36.88 35.87 35.61 35.76 33.84 33.65 33.24 33.22 33.13 32.54 32.43 32.99 33.83 33.42 32.04 30.61 32.83 31.72 35.08 35.61 36.40 37.72 38.19 39.11 39.40 39.37 39.24 39.06
40.62 39.70 38.65 38.53 38.97 39.65 39.31 38.09 37.56 37.21 36.43 35.91 36.15 36.51 36.49 37.58 37.63 36.60 34.78 33.35 33.37 32.47 32.40 31.87 31.66 31.66 31.57 30.24 29.17 30.43 29.35 29.20 29.00 30.14 28.20 28.37 29.13 29.88 31.40 35.63 36.38 37.22 37.61
39.73 40.41 40.15 39.90 39.50 40.12 40.77 39.97 37.04 35.32 34.98 34.27 32.82 32.91 34.21 36.61 38.69 39.14 38.12 37.04 35.13 33.03 32.14 31.68 31.06 27.78 27.84 28.15 28.51 27.05 25.63 23.71 21.89 28.33 25.97 27.43 28.46 28.95 29.18 29.87 35.88 37.50 38.30
36.59 36.43 37.70 38.60 38.52 39.15 40.32 39.24 37.26 33.58 32.55 32.24 32.19 32.19 32.80 34.49 33.71 33.08 36.89 37.05 36.76 36.89 35.50 32.07 28.81 28.11 27.08 27.11 27.19 25.33 25.51 23.29 23.32 26.65 25.82 25.81 26.94 27.13 28.71 32.20 36.17 37.15 37.88
34.52 34.26 33.91 34.59 35.73 37.70 39.39 38.16 35.95 31.75 31.62 31.64 31.76 31.70 31.34 31.34 31.84 31.52 31.43 31.64 31.42 30.93 31.21 31.98 28.82 28.51 28.55 29.19 28.25 26.38 26.17 25.44 26.49 26.72 26.75 22.60 25.08 26.15 27.99 27.66 35.19 36.38 36.91
32.81 32.42 32.68 32.60 33.07 34.30 36.98 36.13 31.61 28.09 28.95 30.09 31.58 31.97 31.55 31.33 32.95 33.10 30.09 28.33 28.01 28.10 33.94 34.57 33.64 33.98 34.10 33.88 33.03 26.77 21.20 18.70 20.83 23.53 25.99 24.04 24.21 24.23 25.47 27.32 27.69 34.68 36.01
32.09 32.33 31.71 32.34 33.43 28.09 34.84 34.33 31.90 29.93 28.10 28.77 29.14 29.26 31.52 30.00 31.99 32.52 29.48 27.29 26.15 25.27 26.23 26.40 26.06 27.37 28.99 27.48 32.61 27.11 22.35 13.60 14.63 17.19 24.71 20.52 22.84 23.63 19.93 25.83 25.72 27.82 27.77

GFSMA_sfc_wetblb_045.txt.gz
Wetbulb
62.04 62.86 62.37 61.44 62.60 63.88 63.51 61.38 59.96 57.88 55.16 52.19 51.23 50.21 50.27 51.07 59.39 60.73 61.05 63.76 65.36 64.92 63.55 62.93 62.22 61.85 61.13 60.11 59.60 59.69 59.15 59.43 58.70 58.50 58.53 58.50 58.28 58.36 58.37 58.51 58.62 58.81 58.95
63.05 62.75 61.90 61.41 60.28 62.68 63.14 62.97 60.80 56.50 52.68 51.44 49.83 49.57 49.80 50.90 54.82 58.35 59.02 60.95 63.69 64.03 63.10 62.60 61.96 61.45 61.21 59.94 59.31 58.97 58.36 58.49 58.01 57.51 57.29 57.14 57.03 57.08 57.27 57.26 57.45 57.69 57.93
63.38 63.64 62.38 61.67 61.81 61.87 62.21 59.94 59.02 55.44 52.00 50.60 48.64 48.85 49.45 49.76 53.21 56.97 56.93 57.54 59.87 61.64 62.85 62.24 61.68 61.16 61.10 60.12 58.89 57.90 57.51 56.87 56.31 55.98 55.80 55.53 55.37 55.49 55.73 55.87 56.15 56.43 56.74
62.90 63.11 62.87 62.28 62.62 61.92 61.56 60.99 58.09 54.93 51.89 49.25 48.11 47.99 48.54 49.64 50.16 55.61 55.57 54.97 54.85 55.85 60.26 62.06 61.31 60.81 60.54 60.44 59.27 57.59 56.58 55.82 55.07 54.27 54.17 53.84 53.67 53.78 54.35 54.79 54.73 55.01 55.49
63.50 62.59 62.38 62.49 63.24 62.99 62.30 61.85 59.36 55.80 51.00 48.93 48.35 47.88 47.65 48.59 49.95 51.72 54.28 53.64 52.55 52.52 52.46 59.35 60.36 60.32 59.83 59.25 58.53 57.53 56.57 54.96 54.70 53.64 53.18 53.27 52.94 53.11 53.32 53.59 54.08 54.25 54.61
63.84 63.05 62.00 61.62 63.70 63.04 62.63 61.20 59.50 54.53 53.39 50.38 50.83 49.22 46.74 47.38 48.58 48.80 49.24 54.05 52.04 51.06 50.16 50.39 52.61 53.05 58.25 58.14 57.39 57.13 56.54 54.58 53.63 53.20 53.12 52.83 52.95 52.64 52.98 53.28 53.67 54.09 54.43
64.55 62.87 62.95 61.53 63.52 63.01 62.86 62.44 60.44 55.57 51.65 50.11 47.00 44.37 44.38 44.44 45.45 47.46 47.83 47.91 49.58 50.52 48.29 47.95 47.08 46.28 51.43 57.54 56.14 55.89 55.60 54.73 54.05 53.67 53.32 52.82 52.88 52.78 53.01 53.70 54.12 54.20 54.52
64.99 64.61 64.01 61.84 61.25 62.84 62.01 61.66 59.69 54.13 53.06 49.94 46.86 42.43 40.82 42.75 43.99 44.72 46.47 47.57 47.15 47.95 48.63 47.60 46.08 44.80 45.51 47.06 48.74 54.33 53.61 53.73 53.40 53.71 53.75 53.25 52.88 52.91 53.31 53.39 53.88 54.26 54.38
64.91 64.76 63.71 62.31 61.22 60.24 61.31 61.98 60.56 57.66 54.47 51.23 48.70 46.47 41.61 41.28 40.68 42.32 44.05 46.00 46.11 45.52 46.47 47.62 46.50 45.32 44.58 45.11 49.24 50.17 51.24 51.21 52.51 53.24 53.37 53.21 53.10 52.65 52.66 52.77 53.48 53.75 53.98
64.70 64.82 64.40 63.58 62.63 62.29 60.92 59.67 60.68 59.14 55.36 51.82 49.64 49.30 48.45 45.27 41.44 40.32 42.31 43.45 45.48 45.45 45.84 45.00 46.32 44.91 44.78 43.88 46.21 47.61 49.73 50.05 51.68 52.59 52.92 52.47 52.05 52.00 52.29 52.56 53.17 53.43 53.51
64.12 64.17 64.19 63.66 61.74 62.30 62.20 61.11 59.69 57.38 55.66 54.90 51.80 48.41 46.53 45.41 42.56 40.50 39.55 41.93 45.26 45.59 46.07 45.81 44.20 43.33 42.98 43.05 43.31 46.36 49.67 49.56 50.21 50.85 51.85 51.39 51.29 51.64 52.06 52.30 52.39 52.36 52.14
60.53 63.19 64.08 63.95 62.61 61.61 61.99 61.61 60.67 59.17 57.97 55.10 51.55 50.01 48.35 47.39 46.79 42.74 42.97 43.01 44.33 45.06 44.28 42.73 42.05 42.64 41.21 41.67 44.78 48.05 49.86 49.04 49.36 49.36 49.98 49.87 49.98 50.45 50.81 50.96 50.77 50.39 50.50
55.46 58.70 61.31 60.86 60.46 60.49 60.64 60.53 60.21 59.96 59.04 56.47 53.45 51.89 51.35 50.83 49.52 47.39 46.01 42.89 42.40 43.52 43.51 42.89 42.27 42.79 42.59 41.76 43.20 47.65 48.70 47.78 47.11 46.95 47.84 48.87 48.58 48.72 48.64 48.66 48.83 48.82 49.00
53.82 55.63 56.52 59.60 59.14 59.01 59.72 60.97 58.65 58.34 56.75 56.14 55.60 53.12 52.24 51.83 50.50 48.46 48.43 45.44 41.13 39.94 39.35 39.39 39.70 40.11 40.03 40.47 44.02 46.48 43.96 45.65 44.75 43.49 45.18 47.13 47.08 46.09 46.16 46.64 46.86 47.04 46.86
53.29 52.46 53.66 54.54 57.43 58.67 57.78 58.07 59.38 58.66 57.25 55.45 54.96 54.85 52.79 51.21 50.12 48.65 48.93 48.55 46.69 42.99 38.02 38.05 38.72 39.98 40.06 41.50 43.52 40.08 40.22 42.15 42.71 43.72 44.25 45.18 44.51 44.44 44.66 44.84 44.96 45.07 45.15
50.56 50.55 50.58 51.10 52.36 53.59 55.14 56.40 56.75 55.56 55.85 54.64 53.76 53.20 50.34 48.52 48.47 47.12 46.17 45.70 46.11 44.69 39.96 38.23 37.15 38.16 40.51 41.53 42.70 39.32 38.94 40.72 41.98 42.99 43.47 43.97 44.18 44.00 44.20 43.98 43.86 44.00 44.06
48.35 48.03 48.46 48.48 48.59 49.55 50.36 50.83 50.86 52.13 51.96 50.94 50.00 50.30 46.12 45.05 42.74 41.61 41.37 41.68 42.22 42.93 41.17 33.83 34.87 35.74 35.69 37.84 39.29 38.07 38.50 38.12 38.17 41.12 42.77 44.13 43.91 42.95 42.67 42.81 42.72 43.02 43.06
42.51 41.83 42.16 43.01 44.12 45.79 46.51 47.96 47.54 47.26 47.39 45.30 45.11 43.24 41.15 41.27 39.42 39.25 38.94 38.10 38.62 38.81 37.54 33.99 33.49 33.36 34.48 35.71 36.22 35.69 36.95 38.42 37.87 39.40 41.01 41.22 41.27 41.47 42.04 42.06 41.63 41.50 41.41
39.61 39.26 38.99 38.62 38.92 41.03 41.77 42.11 42.13 41.87 42.25 42.06 41.70 41.07 39.62 38.72 37.36 37.12 37.16 37.03 37.11 37.62 35.99 35.44 32.67 32.72 32.06 33.36 33.59 34.93 34.92 35.03 35.88 37.63 39.53 40.22 40.74 40.10 40.06 40.09 40.55 41.06 41.24
38.67 38.20 38.05 38.02 38.35 38.18 37.95 38.22 38.32 38.32 38.30 38.01 38.14 38.05 37.78 37.58 36.72 36.22 35.60 34.50 34.15 34.25 34.14 34.13 32.73 32.41 33.21 33.94 34.07 32.72 32.19 33.35 32.58 35.24 36.48 36.19 37.46 38.00 38.40 38.85 39.40 38.78 38.74
40.20 40.40 39.28 39.70 39.76 39.88 38.96 35.53 35.27 34.81 34.84 35.82 36.26 36.90 37.24 38.11 38.38 37.32 35.31 33.87 33.79 33.15 33.30 32.73 32.14 32.08 31.98 31.88 31.11 31.79 30.63 29.76 28.72 29.46 27.97 28.10 28.23 28.97 30.02 34.26 35.41 36.51 36.87
38.95 38.61 38.57 39.06 37.73 38.98 40.22 39.30 35.91 34.59 34.35 34.19 33.31 33.80 34.97 36.00 38.42 39.69 38.47 37.27 35.78 33.48 32.43 32.03 31.48 30.30 30.43 29.82 29.21 28.80 26.63 23.12 21.69 27.14 26.01 26.58 27.42 26.92 27.75 28.25 35.01 36.66 37.67
36.28 35.77 36.67 37.79 37.91 38.32 39.51 38.73 37.17 33.51 32.81 32.12 32.33 32.33 32.53 33.86 33.23 32.17 35.97 36.92 36.68 37.34 35.59 33.10 29.61 29.06 27.54 26.80 25.21 24.19 25.90 23.11 23.06 26.02 26.01 25.02 26.64 26.34 27.87 30.79 35.49 36.40 37.20
34.26 34.12 34.22 35.04 36.64 38.14 38.96 37.67 35.68 28.11 29.40 30.30 30.63 28.90 30.56 30.31 31.79 31.80 31.43 31.29 31.03 30.65 30.61 31.68 30.62 28.34 27.12 27.79 27.81 26.26 25.85 25.06 26.06 26.41 26.46 20.04 24.37 24.88 27.00 26.73 34.36 35.48 35.97
31.87 32.00 32.77 33.14 33.15 34.49 36.45 35.64 30.04 24.63 24.97 26.03 27.84 29.19 29.36 29.34 32.80 32.79 29.88 28.54 28.13 27.98 32.47 35.26 33.76 34.00 34.13 34.43 32.76 26.08 20.63 17.77 19.98 22.94 25.22 23.50 23.41 23.53 24.66 24.55 26.28 33.31 34.19
32.02 32.24 31.34 25.95 32.29 23.17 35.29 34.61 30.52 27.78 25.23 26.06 26.30 26.52 32.24 29.53 33.04 33.35 27.30 24.97 24.26 23.93 25.34 25.43 24.62 25.87 27.47 26.19 31.99 26.42 21.68 13.06 12.59 13.74 23.93 20.11 22.21 23.10 19.11 24.37 25.16 25.95 25.84

GFSMA_sfc_wetblb_048.txt.gz
Wetbulb
60.81 61.63 61.89 61.79 62.48 63.31 62.37 60.73 59.60 58.42 54.96 53.68 51.20 49.94 49.22 49.21 56.22 60.81 61.22 63.96 66.05 66.14 64.55 63.68 62.79 62.57 61.38 60.79 60.64 60.16 60.26 59.55 59.25 59.32 59.31 59.10 58.80 58.65 58.68 58.83 59.01 59.16 59.27
61.66 61.98 61.93 61.38 61.59 63.27 63.60 62.14 60.79 59.24 56.78 53.32 50.42 48.83 48.96 49.07 57.10 59.23 59.91 61.53 64.72 65.38 64.80 63.76 63.01 62.52 61.91 61.06 60.63 60.01 60.03 59.26 58.84 58.61 58.39 58.07 57.98 57.94 57.73 57.74 57.89 58.21 58.33
62.18 62.04 61.95 61.56 61.04 61.33 62.77 61.81 61.11 59.17 55.72 53.21 50.68 49.96 49.23 48.21 51.19 58.00 58.52 58.81 61.25 62.72 64.16 63.85 63.20 62.44 62.05 61.21 60.66 59.96 59.25 58.98 58.35 57.80 57.44 56.98 56.82 56.68 56.67 56.75 56.67 56.85 57.20
62.95 62.12 62.18 61.71 62.02 60.69 61.28 60.66 59.67 57.09 53.36 50.25 49.49 48.53 47.86 48.12 48.91 56.26 56.76 56.84 57.09 57.97 61.69 63.71 63.23 62.41 62.08 61.49 60.55 59.72 58.93 57.84 57.10 56.69 56.31 55.79 55.55 55.77 55.86 55.55 55.51 55.69 55.83
62.76 63.08 62.92 62.75 61.79 61.15 60.46 60.77 59.16 56.11 53.07 50.32 48.82 47.82 46.89 47.21 48.22 53.09 55.14 54.95 54.60 54.85 54.96 59.99 61.93 61.83 62.00 61.73 60.99 59.91 58.58 57.32 56.31 55.62 55.36 54.86 54.68 54.60 54.82 55.18 54.96 54.87 55.01
62.46 61.77 62.19 62.61 62.26 61.78 61.58 60.19 59.65 56.03 53.44 52.24 50.64 48.76 46.61 46.64 47.18 47.73 52.93 55.25 53.17 52.76 52.50 52.56 55.68 56.83 60.57 60.98 60.82 59.86 58.70 57.25 56.43 55.36 55.05 54.79 54.56 54.48 54.44 54.74 54.68 54.90 54.85
64.54 61.81 61.38 60.64 61.34 62.06 62.29 61.68 60.40 57.98 53.76 50.33 49.62 48.06 46.13 45.65 45.09 46.67 47.29 51.86 52.78 52.18 50.72 50.55 51.54 51.52 54.84 59.89 60.15 58.99 58.85 57.64 56.16 55.25 54.90 54.78 54.74 54.29 54.22 54.65 54.89 55.15 55.10
64.33 64.36 62.07 61.18 60.48 62.14 61.07 60.57 60.01 57.05 56.22 51.50 49.55 44.78 45.92 45.27 44.23 45.44 45.35 47.49 48.99 51.58 50.40 49.58 48.55 47.67 48.50 51.26 52.41 58.65 58.03 57.83 56.82 55.90 55.30 54.77 54.52 54.46 54.45 54.89 55.02 54.91 55.22
64.27 63.26 63.50 62.22 60.43 61.20 61.61 61.25 60.57 58.18 58.15 51.96 50.64 49.40 41.00 42.91 41.52 42.35 43.09 45.17 46.34 45.94 49.39 50.59 48.33 47.69 46.83 48.12 52.01 54.56 56.77 55.92 55.53 55.44 55.54 55.35 54.94 54.45 54.46 54.20 54.37 54.55 54.61
63.20 63.73 63.58 62.93 62.65 60.91 60.21 60.62 61.35 60.51 56.80 53.81 50.52 50.82 49.31 45.33 42.53 43.27 41.90 41.67 43.99 44.55 44.25 46.50 48.17 48.27 48.00 46.96 48.85 50.78 53.87 53.32 53.53 54.43 55.39 55.11 54.66 54.46 53.77 53.75 53.97 54.45 54.44
61.14 62.86 63.52 63.28 61.71 61.53 61.19 60.17 58.27 58.63 58.51 58.97 50.66 49.68 48.33 46.30 43.79 42.95 42.05 42.41 46.41 45.46 46.38 45.83 47.28 47.73 46.16 45.30 45.52 47.93 51.84 51.83 52.42 53.60 54.38 54.53 53.90 53.75 53.07 53.23 53.55 53.77 53.51
54.15 57.58 60.87 62.10 62.00 60.70 59.91 59.80 59.01 57.73 58.49 57.34 56.17 53.40 50.82 48.49 48.81 44.19 40.95 42.28 42.85 46.71 46.90 46.83 46.95 45.83 44.64 44.38 45.98 48.54 51.72 51.19 52.11 52.31 52.54 52.55 51.66 52.23 51.70 51.83 52.12 52.20 51.98
51.98 53.31 55.11 57.70 59.27 59.56 59.81 59.24 58.47 58.16 57.38 56.92 56.11 54.29 53.75 51.98 51.30 49.79 48.94 47.16 43.57 44.90 43.65 43.91 43.48 43.90 43.22 43.15 44.16 47.64 50.98 50.94 49.81 50.01 51.41 51.37 50.61 49.51 48.99 49.29 50.17 50.37 50.67
51.37 52.08 53.01 54.24 55.86 57.33 57.73 57.96 57.66 57.34 57.66 56.83 56.78 54.47 54.10 53.22 51.93 51.11 49.58 47.27 43.13 41.51 41.26 42.73 41.00 41.04 41.73 42.62 45.27 48.57 48.14 49.02 48.42 48.36 48.52 48.05 47.33 47.73 47.30 47.28 48.34 48.46 48.85
51.52 50.34 50.69 51.47 52.55 53.73 55.55 56.44 57.91 57.22 55.17 54.56 54.16 55.50 53.07 52.94 51.77 51.27 50.55 49.68 48.53 43.97 40.67 40.46 39.44 40.72 41.66 43.86 45.96 44.03 44.65 47.20 47.18 46.61 46.33 45.83 46.03 46.70 46.57 46.55 46.89 47.08 47.16
47.59 47.52 47.81 48.16 48.79 50.19 51.25 52.23 54.01 54.03 53.29 53.72 53.98 53.74 52.94 49.89 49.23 48.61 47.87 47.56 47.22 47.00 42.76 39.56 38.62 39.06 41.09 42.74 45.24 42.00 42.21 45.21 45.64 45.69 46.03 45.89 45.74 45.57 45.50 46.06 46.57 46.26 45.59
42.16 41.93 43.29 44.22 44.89 45.45 46.45 47.45 47.27 47.45 48.57 49.25 47.99 49.11 47.04 46.10 44.87 44.15 43.68 43.36 43.16 43.31 42.48 37.22 36.32 36.64 37.28 39.84 41.60 39.28 40.85 40.37 40.61 44.70 45.24 44.82 44.40 44.72 45.64 45.64 44.43 44.31 44.31
39.66 39.22 39.35 39.64 40.43 41.25 41.44 42.35 43.46 43.83 45.06 44.17 43.78 43.00 41.21 41.83 40.03 39.87 39.77 39.49 39.78 40.23 39.30 35.95 34.22 34.26 35.01 36.99 36.97 36.80 38.01 39.01 38.26 40.00 42.30 42.87 43.72 44.03 43.28 43.05 43.10 43.29 42.68
38.27 38.13 38.22 37.98 38.02 38.41 38.34 38.53 39.95 40.08 40.00 39.94 40.27 40.19 39.53 39.34 38.32 37.94 37.73 37.49 37.14 37.98 36.14 35.97 33.05 33.30 32.82 34.09 33.02 34.86 35.11 36.36 37.69 39.13 41.06 41.79 41.96 42.20 42.65 41.91 41.14 41.00 41.26
37.71 37.59 37.80 37.97 37.97 36.90 36.43 36.23 36.02 35.28 36.15 37.51 37.72 37.62 37.48 37.24 36.77 36.33 35.51 34.56 34.53 34.73 34.58 34.55 33.61 33.02 33.17 33.24 33.89 33.40 32.92 34.75 34.33 36.18 37.07 38.03 38.21 38.22 38.94 39.19 39.07 39.42 39.41
37.89 38.18 37.68 37.73 37.86 38.99 38.04 34.20 34.34 34.02 34.61 35.29 35.81 37.05 38.40 39.30 39.77 38.44 35.81 34.16 33.96 33.36 32.98 32.88 32.71 32.58 32.48 32.21 31.48 33.20 31.83 31.55 31.11 31.55 29.74 28.57 28.58 28.95 29.55 34.02 34.88 36.51 37.39
37.91 38.41 38.15 37.85 38.21 38.64 39.63 38.60 35.86 34.60 34.57 34.17 33.36 33.41 34.83 36.01 37.29 40.42 39.46 38.60 37.00 33.89 32.60 32.17 31.55 30.50 30.79 31.15 30.96 30.06 28.26 25.21 22.51 27.05 25.67 25.59 27.38 27.38 28.04 28.01 33.86 36.12 37.13
36.06 35.87 36.27 37.69 38.01 38.46 39.31 38.27 36.28 33.40 32.52 31.86 31.02 29.06 31.08 33.05 32.63 32.52 35.26 36.23 36.33 37.89 36.65 32.52 29.87 28.18 27.05 26.67 26.15 22.88 24.30 20.67 21.97 24.98 25.33 24.68 26.04 26.21 27.27 29.74 34.88 35.85 36.83
34.11 34.27 34.31 34.94 36.12 37.72 38.65 37.33 34.84 26.05 24.09 22.51 23.05 21.80 22.59 26.50 31.49 31.83 27.83 28.06 28.43 28.32 29.00 30.73 29.50 27.69 27.30 27.08 26.63 24.34 24.53 23.52 25.52 25.98 26.17 19.34 23.45 23.85 25.68 26.01 33.35 35.09 36.16
32.49 32.49 33.18 33.37 32.87 28.56 35.64 34.60 27.69 19.56 21.86 22.29 25.77 26.66 26.87 26.77 32.58 33.69 27.41 25.71 25.61 25.74 31.21 34.54 33.06 33.26 33.65 33.73 32.00 25.61 19.97 16.44 19.34 22.57 24.61 23.10 22.95 23.22 24.39 24.13 25.92 33.76 34.45
32.01 28.91 23.67 21.00 31.22 20.45 35.46 34.05 29.27 26.38 24.01 24.43 24.12 24.98 32.69 30.36 33.61 33.77 26.23 24.53 23.36 23.89 25.04 25.43 24.48 25.30 26.55 25.51 30.91 25.99 21.16 11.64 11.88 14.02 23.14 19.76 21.94 22.75 17.64 23.47 25.03 25.45 25.42

GFSMA_sfc_wetblb_051.txt.gz
Wetbulb
60.09 60.58 60.64 61.27 61.77 62.52 62.25 60.63 59.39 58.26 55.78 52.60 51.99 51.78 50.83 48.13 50.55 59.18 60.96 63.56 66.54 67.36 66.24 64.67 63.48 63.20 61.90 61.17 60.86 60.48 60.09 59.46 59.33 59.51 59.50 59.36 59.19 59.28 59.55 59.66 59.65 59.85 60.03
60.83 60.57 60.73 60.90 60.99 61.79 62.41 61.46 60.11 59.25 58.43 55.87 53.49 51.43 49.90 49.28 50.18 57.15 60.25 60.86 64.82 66.27 66.29 64.76 64.06 63.64 62.66 61.72 61.17 60.63 60.31 59.51 59.21 59.13 58.67 58.51 58.30 58.31 58.35 58.60 58.82 58.97 59.22
61.87 61.25 61.10 60.55 61.16 61.09 61.88 61.57 60.69 59.84 58.48 56.41 52.41 50.75 49.07 48.19 48.88 57.05 59.06 59.21 60.95 63.50 65.26 65.00 64.49 63.70 63.15 62.26 61.63 61.03 60.40 59.71 58.96 58.50 58.13 57.77 57.43 57.39 57.40 57.42 57.57 57.76 58.01
62.88 61.54 61.32 61.11 61.22 59.87 60.68 60.68 60.79 59.53 57.94 56.20 53.15 50.57 48.33 47.58 47.61 51.49 56.96 57.79 58.20 59.53 62.15 64.90 65.15 64.12 63.31 62.66 61.95 61.52 60.29 59.65 58.92 58.13 57.64 56.92 56.59 56.41 56.39 56.30 56.35 56.50 56.62
63.78 62.73 61.90 61.65 60.93 60.48 59.71 60.14 59.24 58.32 56.56 55.11 52.20 50.01 47.81 46.82 47.33 49.60 54.30 56.14 56.32 57.19 56.46 60.33 63.02 63.33 63.53 62.76 62.38 61.66 60.58 59.32 58.19 57.53 57.25 56.52 55.99 55.87 56.16 55.91 55.52 55.50 55.61
62.19 61.74 62.19 61.74 61.11 60.77 60.10 58.86 59.16 56.72 55.56 54.83 54.43 51.22 48.96 47.02 46.54 46.78 49.76 55.54 55.22 55.45 54.69 54.84 56.11 58.49 61.70 63.02 62.41 62.05 61.17 59.82 58.41 57.13 56.56 56.24 55.66 55.57 55.49 55.51 55.44 55.47 55.40
62.87 61.22 61.38 60.82 61.13 61.20 61.26 60.62 59.27 58.55 56.97 51.04 49.32 48.00 47.00 47.75 45.71 46.35 46.91 50.59 53.83 54.15 53.22 53.45 53.21 53.86 55.71 62.00 62.27 62.00 61.56 60.48 59.04 57.75 56.55 56.02 55.76 55.56 55.41 55.53 55.46 55.74 55.77
64.51 63.53 61.45 60.80 60.25 60.76 60.24 60.00 59.58 57.47 56.10 52.35 51.46 46.86 48.27 48.66 45.03 45.91 45.08 47.36 49.10 53.27 52.74 52.55 51.16 51.42 52.38 53.88 55.69 61.03 61.16 60.48 59.93 58.17 56.92 56.36 56.02 55.80 55.61 55.58 55.82 55.97 55.69
63.86 63.34 63.66 62.40 60.80 59.88 60.13 60.08 59.42 58.54 58.81 51.79 51.47 54.51 46.15 45.22 43.40 44.37 42.61 43.93 46.11 47.07 50.61 50.78 50.48 51.12 50.96 51.93 54.32 56.88 59.31 59.74 59.63 59.06 57.89 56.97 56.36 55.80 55.86 55.66 55.71 55.34 55.31
61.63 62.39 62.46 62.10 61.92 60.36 59.49 60.07 60.54 60.09 57.07 56.42 49.52 51.57 51.11 48.12 47.18 46.26 44.66 42.56 42.23 44.70 45.07 48.68 50.08 49.54 50.00 50.37 52.20 53.98 56.30 57.36 57.76 57.85 57.18 56.81 56.87 56.38 56.07 55.55 55.16 54.76 55.39
52.76 57.84 60.23 61.10 60.94 60.50 60.34 59.29 57.95 57.97 58.14 59.03 54.58 48.81 50.82 48.62 46.63 46.26 50.01 48.41 44.91 46.32 46.51 45.30 48.84 49.57 49.62 49.42 49.04 50.92 55.02 55.97 56.44 56.06 55.68 56.34 56.73 56.59 56.12 55.04 54.40 54.48 54.13
52.61 53.94 55.19 57.72 60.43 60.10 59.33 59.25 58.08 57.30 58.05 57.87 58.00 54.87 52.18 49.94 49.22 46.81 45.73 49.01 46.52 47.34 46.52 45.71 45.81 47.09 48.58 47.79 48.25 50.77 53.24 53.84 53.74 53.76 54.34 55.74 56.03 55.53 53.86 53.30 52.85 53.03 52.79
50.96 50.97 52.42 53.56 55.86 59.72 60.35 59.50 57.35 57.33 56.68 57.13 56.57 56.03 54.73 54.85 53.54 51.03 49.55 48.93 46.22 46.26 44.54 43.82 46.76 46.54 46.12 45.23 46.29 49.46 51.31 52.55 53.43 54.23 55.12 54.35 52.23 51.84 50.60 50.50 50.59 50.38 51.57
49.76 50.13 50.47 51.33 52.22 54.16 55.94 56.02 55.98 56.12 56.25 57.32 56.30 54.38 52.94 54.13 52.82 51.68 50.31 47.82 45.45 43.44 42.70 41.18 41.20 40.10 42.52 43.07 45.35 48.67 48.12 51.32 51.46 52.36 52.96 52.91 51.96 49.65 49.38 49.72 49.74 49.78 50.87
49.73 48.39 48.43 48.82 49.45 51.18 52.41 55.84 57.72 56.85 56.41 55.40 55.89 55.23 53.28 51.33 50.61 51.40 51.23 50.57 48.71 44.24 42.66 43.23 41.09 40.92 41.46 41.46 44.98 46.77 46.63 49.45 50.85 50.93 50.45 49.97 48.82 48.88 48.73 48.83 48.80 48.93 49.08
43.71 44.13 45.33 45.45 45.92 46.40 47.87 49.49 50.38 50.74 51.90 51.43 51.44 52.16 52.02 49.63 49.55 49.09 48.45 48.24 47.95 47.51 43.24 42.45 39.69 39.09 40.92 42.91 45.29 44.36 45.22 48.62 49.85 49.53 48.86 47.98 47.42 47.12 47.34 47.78 47.46 47.34 48.00
40.06 39.96 40.49 41.23 41.58 41.58 42.67 44.31 44.62 44.80 46.20 46.47 45.72 45.63 43.53 44.00 43.33 42.74 42.88 42.72 42.84 43.14 41.56 39.46 37.67 37.54 38.27 40.52 40.99 40.54 42.96 41.56 44.21 47.53 47.55 47.08 47.14 46.59 46.17 45.95 46.43 47.39 47.17
38.69 38.52 38.77 38.74 38.77 39.01 39.02 39.43 40.28 40.64 40.76 40.27 42.34 42.42 40.97 41.99 40.33 40.03 39.98 39.39 39.40 40.09 38.99 37.48 35.08 35.20 35.47 37.25 37.68 38.23 39.74 40.46 39.68 41.06 44.18 44.66 44.90 44.57 44.69 45.54 45.25 44.76 44.43
37.59 37.75 37.93 37.31 36.76 36.92 36.70 36.76 36.86 37.25 38.80 38.62 38.06 37.35 37.60 38.41 37.86 37.87 37.65 37.09 36.85 37.48 36.28 36.26 34.22 34.04 33.62 34.96 34.00 35.18 36.15 36.80 38.61 39.35 41.17 42.96 43.63 43.75 43.64 44.16 44.30 44.12 42.75
37.33 37.16 37.02 36.98 37.20 35.86 35.17 34.93 34.72 34.30 35.41 36.80 36.98 36.77 36.57 36.91 36.57 35.86 34.91 34.75 34.72 34.75 34.83 34.83 34.03 33.38 33.87 33.48 34.14 33.77 33.19 34.82 35.07 37.75 38.61 39.46 39.20 39.32 40.43 40.32 40.17 39.91 39.83
37.09 36.83 37.06 38.51 38.69 38.50 38.06 34.96 35.36 35.56 35.64 35.66 35.73 36.32 37.85 40.12 40.72 39.05 35.83 34.31 34.33 33.74 33.76 33.44 33.33 33.42 33.12 32.70 31.87 33.33 32.16 32.80 32.80 33.38 30.99 30.22 29.61 29.44 29.33 33.42 34.72 36.31 37.23
37.84 38.20 38.29 37.74 37.97 38.06 39.55 38.41 36.26 34.69 34.48 33.85 32.79 32.69 34.65 35.82 36.26 40.06 40.03 39.69 37.54 32.66 32.48 32.18 31.59 30.52 30.66 31.13 31.62 30.97 29.49 26.70 23.36 27.03 25.42 25.92 27.29 27.08 27.21 27.75 33.53 35.61 36.65
36.38 36.16 36.77 37.85 37.44 37.51 38.76 37.73 35.99 32.98 31.69 28.42 25.78 25.35 30.58 31.94 31.66 28.27 32.92 34.26 34.07 35.62 35.47 29.82 26.71 25.95 25.51 25.26 23.64 21.52 23.69 20.23 21.69 24.67 24.90 23.50 25.34 25.11 25.98 28.54 34.09 35.83 36.84
34.37 34.60 34.64 34.22 33.11 36.08 37.65 36.77 33.70 23.37 23.51 25.35 23.93 18.78 19.32 21.40 26.46 27.87 26.07 26.45 26.73 26.49 29.14 29.67 27.33 26.59 26.26 26.32 25.89 23.15 23.76 22.45 25.10 25.79 25.60 18.14 22.59 23.27 24.89 25.37 32.83 35.01 36.25
32.94 32.65 32.61 30.35 25.21 25.43 35.29 34.07 26.92 18.98 21.57 21.62 24.64 24.63 25.60 26.20 33.73 33.87 27.04 25.37 24.92 25.37 30.60 33.25 32.79 32.93 33.22 33.40 31.41 25.09 23.00 16.40 18.94 22.46 24.12 22.50 22.41 22.97 24.27 24.04 25.70 33.01 35.56
31.25 27.15 23.47 20.13 30.68 20.23 34.94 33.41 28.04 25.36 22.59 23.03 23.47 24.82 31.72 30.88 33.46 33.24 26.04 24.28 23.07 23.81 24.87 24.97 24.04 24.68 25.67 24.67 29.40 25.42 20.87 11.13 11.15 12.88 22.45 19.42 21.40 22.24 17.58 23.03 24.54 25.11 25.27

GFSMA_sfc_wetblb_054.txt.gz
Wetbulb
59.74 59.71 59.47 59.93 60.83 61.82 62.15 61.08 59.40 58.31 56.60 54.00 51.25 50.71 51.03 49.12 48.26 51.70 58.95 62.75 66.57 68.11 67.12 66.32 64.42 63.67 62.66 61.53 61.20 60.42 60.15 59.35 59.45 59.55 59.40 59.24 59.09 59.17 59.48 59.85 60.03 60.19 60.40
60.19 59.69 59.78 59.81 60.11 61.15 61.70 61.38 60.12 59.01 58.25 57.28 56.41 53.69 50.94 48.59 47.78 50.53 57.59 60.20 64.35 66.30 67.35 66.31 65.09 64.41 63.80 62.37 61.66 60.85 60.45 59.61 59.24 59.31 59.13 58.80 58.48 58.52 58.55 58.80 59.07 59.26 59.44
60.91 60.55 60.05 59.68 60.17 60.48 60.95 60.86 60.32 59.36 58.41 58.13 56.25 54.64 51.47 48.83 47.73 49.09 55.86 58.63 60.33 63.30 65.69 66.27 65.59 64.97 64.18 63.59 62.49 61.67 60.75 60.17 59.41 59.15 58.66 58.44 58.10 57.88 57.96 58.00 58.15 58.34 58.59
62.57 60.92 60.37 60.12 60.59 60.04 60.09 59.83 59.68 58.95 58.20 57.68 56.87 56.08 52.93 49.43 47.92 47.47 53.13 56.96 58.12 59.75 62.49 65.66 66.17 65.53 64.80 64.05 63.35 62.65 61.65 60.51 59.89 59.04 58.58 57.98 57.53 57.31 57.09 56.93 57.07 57.30 57.39
63.91 62.66 61.68 61.61 60.47 59.79 59.03 59.48 58.93 58.71 57.45 57.38 57.10 56.36 53.19 50.36 48.18 48.25 48.87 54.10 56.46 58.14 58.26 61.08 63.51 64.17 64.85 64.37 63.88 63.30 62.32 60.98 60.03 59.32 58.63 58.03 57.34 57.10 57.09 56.61 56.31 56.21 56.32
62.89 62.83 62.67 61.75 60.50 59.84 59.40 58.33 58.76 57.19 58.55 57.61 56.86 55.61 51.70 50.82 50.53 47.06 47.14 51.21 54.76 56.46 56.69 56.44 57.06 59.77 62.43 64.37 63.69 63.59 62.89 61.85 60.53 59.20 58.23 57.77 57.18 56.68 56.57 56.95 56.60 56.33 56.19
61.52 60.84 61.22 60.59 60.66 60.40 60.62 59.76 58.63 58.32 56.52 53.09 52.41 51.79 49.06 48.76 48.12 48.31 46.48 48.60 51.18 54.08 54.46 55.30 56.00 55.28 57.05 62.81 63.68 63.04 63.12 62.70 61.73 60.07 58.70 57.59 57.15 56.75 56.73 56.61 56.63 56.39 56.62
63.97 62.85 60.75 60.36 59.99 60.39 59.75 59.45 58.47 56.14 56.21 52.63 54.39 48.53 51.93 51.78 46.50 46.99 45.54 46.18 46.36 51.49 53.03 53.48 53.18 52.79 53.51 54.32 57.55 62.50 62.74 62.68 62.53 61.43 59.65 58.34 57.42 57.02 56.89 56.80 56.90 56.82 56.93
63.48 63.28 63.27 62.50 60.69 59.58 59.49 59.18 58.61 58.21 58.09 52.36 51.59 56.34 49.13 48.77 47.03 47.48 44.12 43.40 44.23 45.75 49.71 51.18 51.31 51.29 51.39 52.01 55.23 58.41 60.77 61.91 61.67 61.58 60.77 59.05 57.87 57.44 57.15 57.14 56.91 57.16 56.44
56.14 60.13 61.51 61.88 61.63 60.50 59.26 59.54 59.38 59.13 56.99 58.55 51.51 52.66 52.80 50.05 50.16 49.33 48.52 45.56 42.93 43.04 44.56 47.81 50.20 50.56 51.60 52.24 53.73 55.11 57.29 59.81 60.47 60.21 60.51 59.66 58.34 58.23 57.88 57.50 57.14 56.66 55.98
51.29 54.45 55.39 56.83 59.33 60.58 61.15 59.24 58.03 57.01 57.43 58.60 55.99 51.90 51.78 49.63 47.64 48.12 50.53 51.25 48.09 47.08 46.07 45.37 47.99 50.16 50.59 49.82 50.82 52.14 56.01 57.46 59.28 59.27 58.79 59.00 58.84 58.94 58.66 57.98 57.42 56.34 55.81
52.14 52.03 53.03 53.62 57.30 59.03 59.71 60.39 59.53 57.79 57.14 58.17 58.36 54.76 52.44 51.13 49.27 47.66 46.86 47.78 49.13 48.44 47.72 46.81 45.47 46.95 48.28 48.40 49.21 51.27 53.68 55.78 57.57 58.55 58.85 58.52 57.36 56.98 58.28 57.80 55.81 54.82 53.49
50.30 50.24 50.74 50.98 51.96 54.26 58.21 59.97 59.51 58.76 57.55 57.46 57.08 56.77 55.56 54.89 53.83 51.13 50.02 49.63 47.96 47.51 46.65 46.52 46.91 45.70 45.95 44.65 45.33 49.89 51.94 54.20 55.97 57.68 58.68 58.42 56.50 56.33 55.12 54.91 54.57 53.30 52.39
48.70 49.09 48.80 49.13 49.72 51.38 52.99 57.52 57.82 57.76 57.45 57.19 57.11 56.01 55.24 52.40 53.01 50.10 50.20 46.66 46.59 45.15 42.93 45.86 42.51 40.48 41.26 42.03 45.14 49.06 47.72 51.85 53.92 55.86 57.21 57.08 55.54 54.70 53.61 53.01 52.09 51.37 51.32
47.43 45.77 46.11 46.31 46.92 47.85 49.66 54.60 55.37 54.75 55.80 54.89 54.62 54.88 54.13 52.99 51.52 51.43 50.97 50.50 49.05 44.20 43.96 43.97 42.43 39.21 40.19 41.88 43.70 44.38 44.78 48.40 50.87 52.94 54.39 53.88 52.51 51.75 50.91 50.97 50.91 51.02 50.99
41.28 41.44 42.08 42.56 42.73 43.48 45.52 47.40 49.59 50.76 50.42 49.21 49.83 48.01 47.04 47.64 47.13 46.63 46.95 47.19 47.24 46.39 43.65 42.42 40.59 39.70 40.75 42.80 44.81 43.31 45.04 47.33 48.63 50.74 52.76 51.93 50.18 49.47 48.91 48.92 49.20 49.46 49.24
39.13 39.28 39.70 39.83 39.82 39.68 40.62 42.32 42.60 43.76 45.64 44.26 43.61 43.07 43.04 43.52 42.70 42.48 42.96 43.04 42.73 43.07 41.52 40.65 38.57 37.93 38.60 40.05 40.57 41.69 42.56 42.81 44.21 49.49 50.08 48.37 47.76 47.88 48.03 48.55 47.72 47.22 47.23
37.96 37.97 38.04 37.71 37.58 37.70 37.45 38.02 38.56 38.78 38.81 38.43 39.05 40.66 39.73 41.53 40.00 40.09 40.14 39.45 39.45 39.94 39.33 37.48 35.25 35.70 35.57 37.12 38.19 38.67 40.27 40.87 40.42 42.93 44.97 45.10 45.05 45.19 45.67 46.00 45.65 46.29 46.14
37.11 37.52 37.16 36.24 35.72 35.77 35.41 35.29 35.30 35.76 36.35 36.00 35.59 35.06 34.95 35.20 34.45 36.06 37.11 36.64 36.66 37.20 36.44 36.44 34.83 34.68 34.24 35.27 34.73 35.66 36.64 36.97 38.78 39.88 40.95 42.12 43.11 44.30 44.97 45.26 45.13 45.13 45.11
36.33 36.17 36.68 38.18 36.81 34.69 34.97 35.55 35.90 36.20 36.64 37.04 37.84 38.51 37.63 34.94 33.54 32.91 34.49 34.59 33.77 34.66 34.82 34.94 34.23 33.78 34.22 34.31 34.82 34.13 33.51 35.49 35.37 38.00 39.19 40.16 40.88 41.37 41.10 41.49 41.29 40.45 40.06
36.33 38.11 38.30 38.52 38.51 38.55 37.17 35.98 36.35 36.32 36.17 35.31 35.32 36.46 37.48 39.45 40.81 39.05 36.27 34.85 34.79 34.21 34.19 33.87 33.25 33.37 32.94 32.50 31.98 33.06 32.08 32.54 33.10 33.99 31.80 30.88 29.65 29.78 30.53 33.55 34.34 35.82 36.69
38.15 38.60 38.12 37.80 37.78 38.22 39.24 38.49 36.29 34.33 33.39 31.94 31.70 31.60 33.91 33.83 34.58 39.11 38.70 38.94 37.43 32.50 30.08 25.03 25.04 26.96 26.83 27.23 27.63 26.77 25.33 22.00 21.26 25.85 24.79 25.25 26.76 26.50 27.39 27.51 33.47 35.35 36.13
36.71 36.55 37.03 37.34 36.30 37.16 38.33 37.37 35.67 31.20 25.78 23.78 24.05 24.21 28.61 30.49 28.79 25.99 32.00 33.28 33.02 35.00 34.69 28.68 25.31 24.69 24.29 24.56 22.39 20.41 22.88 19.47 21.13 24.67 24.73 23.30 25.19 24.82 25.96 27.70 32.93 34.90 36.30
34.88 34.78 33.61 31.06 32.02 35.48 37.15 35.79 32.53 20.57 24.39 24.91 19.29 16.50 18.13 20.29 25.77 27.01 25.70 25.92 25.98 25.95 29.23 28.75 26.33 26.00 25.88 26.12 25.62 22.36 23.41 22.01 24.81 25.54 25.02 16.74 22.37 22.92 24.41 25.19 31.86 33.91 35.55
33.21 32.33 30.18 25.99 24.25 24.63 34.99 33.65 26.04 18.17 21.35 21.09 23.62 25.00 26.04 26.86 34.31 33.44 26.86 24.99 24.19 25.21 30.24 32.72 32.19 32.34 32.36 32.35 30.94 24.77 19.66 15.82 18.68 22.06 23.56 22.18 22.01 22.71 24.01 23.76 25.56 34.13 35.04
31.54 28.71 23.96 21.67 29.90 19.76 34.21 32.68 27.45 24.70 21.88 23.06 23.48 25.41 31.68 30.70 33.34 32.97 25.63 23.90 22.19 23.27 24.71 24.09 23.32 23.84 24.53 23.76 28.53 24.77 19.94 10.60 11.15 12.54 21.78 18.83 20.69 21.63 17.19 22.90 24.37 25.15 26.28

GFSMA_sfc_wetblb_057.txt.gz
Wetbulb
64.56 64.59 64.73 64.80 65.66 66.65 66.71 66.72 66.07 64.93 64.01 62.58 60.50 58.09 57.58 58.07 57.54 57.07 58.90 61.47 64.76 68.30 68.46 66.93 66.29 64.44 63.26 62.11 61.61 60.60 60.52 59.39 59.46 59.57 59.39 59.26 59.12 59.34 59.80 60.33 60.49 60.60 60.64
64.99 64.12 63.76 63.56 63.96 65.21 66.07 66.48 66.11 65.32 64.55 63.86 63.49 63.24 61.73 59.13 57.38 56.35 57.33 60.55 63.20 66.24 67.54 67.47 66.69 65.41 64.79 63.55 62.36 61.57 60.94 60.05 59.49 59.55 59.28 58.84 58.43 58.52 58.62 58.83 59.02 59.51 59.88
65.33 64.78 64.09 63.60 63.99 64.46 64.65 65.19 65.22 64.97 64.32 63.99 63.38 63.55 62.52 60.98 58.06 56.45 56.49 58.83 61.61 62.78 65.44 67.19 66.96 66.16 65.38 64.59 63.97 62.59 61.65 60.66 60.00 59.64 59.35 58.79 58.42 58.08 57.92 58.13 58.29 58.50 58.84
66.13 65.32 64.62 64.29 64.89 64.49 64.34 64.22 64.26 63.89 63.69 63.60 63.38 63.50 63.13 62.39 61.44 59.07 56.35 57.24 59.89 61.97 63.52 65.46 66.64 66.66 66.11 65.52 64.50 63.98 62.62 61.47 60.77 59.91 59.47 58.93 58.49 58.06 57.77 57.54 57.49 57.67 57.72
66.73 66.12 65.64 65.64 65.30 64.68 64.24 63.97 63.57 63.36 63.17 63.04 62.59 62.96 62.71 62.42 62.42 60.24 58.89 56.52 57.55 60.07 62.02 62.94 63.95 64.80 65.77 65.61 65.28 64.31 63.89 62.65 61.28 60.56 59.67 59.05 58.25 57.91 57.78 57.52 57.28 57.14 57.19
66.26 66.33 66.12 65.80 65.46 64.70 64.34 63.67 63.21 62.91 62.45 62.55 61.02 60.71 62.08 61.99 61.20 60.51 60.02 57.65 56.36 57.29 59.55 61.56 62.99 63.65 62.74 64.91 64.93 64.82 64.41 63.41 62.46 61.12 60.11 59.20 58.59 58.04 57.79 57.94 57.58 57.21 57.22
65.06 65.06 65.30 65.27 64.91 64.18 64.40 64.05 63.15 61.75 61.57 60.62 59.54 60.94 60.23 59.59 59.68 59.96 59.37 56.83 56.66 56.53 57.31 58.57 60.34 61.90 62.59 62.94 64.42 64.41 64.17 64.11 63.43 62.28 60.75 59.40 58.66 57.94 57.58 57.68 57.75 57.59 57.60
66.49 65.75 64.66 64.12 63.82 63.43 63.30 63.24 62.48 61.53 61.27 59.48 60.69 57.05 56.78 58.52 56.47 55.89 55.61 54.43 54.31 54.16 55.03 56.21 57.50 58.88 60.27 61.41 61.68 63.28 63.91 63.82 63.74 63.46 62.25 60.55 59.23 58.44 58.06 57.76 57.58 57.67 57.51
65.01 65.50 65.93 65.54 64.68 63.15 62.88 63.18 62.67 61.56 60.98 59.30 59.18 60.07 53.58 53.56 53.52 55.24 53.29 51.81 52.15 52.18 53.76 54.71 55.44 56.26 57.46 58.43 58.93 59.20 60.80 62.65 62.91 62.96 62.93 62.18 60.33 59.13 58.71 58.33 57.97 57.64 57.89
54.81 58.01 62.35 63.60 64.02 63.60 62.32 62.45 62.52 61.94 61.14 59.82 56.07 55.95 57.08 53.78 53.05 51.49 53.79 53.29 48.70 50.07 49.07 51.37 52.63 54.03 54.15 54.37 55.31 56.01 57.23 59.57 61.92 62.57 62.08 61.69 61.10 59.66 58.61 58.25 58.06 58.19 57.80
56.00 56.48 56.98 57.90 59.15 59.42 60.22 60.65 60.67 60.69 60.63 60.69 58.42 56.69 56.40 53.66 51.44 51.43 51.29 55.38 53.29 53.37 52.14 51.44 51.99 50.83 52.00 54.02 54.66 54.60 55.39 57.19 59.82 61.57 62.05 61.58 61.37 60.28 58.42 58.84 59.08 58.35 58.05
55.01 54.09 54.41 55.13 56.39 58.30 58.86 59.49 59.89 60.58 59.96 59.71 60.58 59.06 55.67 53.81 53.80 49.53 49.07 49.65 50.75 53.29 53.45 53.23 52.04 50.80 51.49 51.64 51.67 52.16 53.34 54.97 57.17 59.80 61.39 61.48 60.69 59.99 60.05 59.85 59.64 58.86 57.73
53.07 52.72 52.37 52.46 53.40 54.43 56.50 58.84 60.12 60.36 59.88 58.68 58.92 58.28 57.18 56.80 55.58 53.60 53.48 52.59 50.40 51.34 53.10 53.16 49.74 48.99 47.40 49.22 49.53 48.65 50.91 52.53 54.41 56.90 59.51 60.59 60.15 58.97 58.39 58.06 57.95 58.75 57.88
51.20 50.35 50.48 50.85 51.21 51.90 53.83 57.26 58.78 59.04 58.61 58.06 57.98 57.76 57.17 56.13 54.78 53.93 54.71 51.62 48.04 47.63 49.28 50.96 45.00 46.10 46.74 47.46 47.33 47.44 50.05 50.08 51.45 53.86 56.33 57.93 58.31 57.64 57.10 56.24 56.54 55.60 54.48
47.69 47.20 47.44 47.86 47.93 49.15 51.14 54.82 55.25 55.22 53.90 53.62 54.32 54.64 54.26 52.19 52.93 52.31 52.65 52.43 50.22 46.73 45.89 47.32 46.45 44.86 43.70 44.66 45.95 46.74 47.45 47.28 48.92 50.07 51.32 52.40 54.03 53.45 54.22 54.93 53.32 51.57 51.25
43.85 44.29 44.79 44.77 44.89 45.83 47.78 50.42 51.27 51.49 50.22 49.92 50.34 50.26 49.68 49.04 47.44 47.29 48.30 48.64 48.90 48.38 44.75 45.99 42.38 41.75 41.88 43.55 44.91 45.41 46.53 46.69 47.93 49.25 50.02 50.39 52.80 51.64 51.02 49.90 49.63 49.36 49.83
42.13 42.07 42.18 42.19 42.20 42.64 44.15 45.97 46.15 46.34 45.73 45.29 45.39 45.92 44.61 44.43 43.70 44.40 45.37 45.53 45.74 45.91 44.79 43.12 41.21 40.31 41.58 40.94 41.75 43.20 44.36 43.94 43.97 47.30 49.58 49.66 48.87 48.37 47.94 47.64 48.06 47.79 47.08
41.00 40.69 40.37 40.28 40.26 40.40 41.06 42.28 41.93 41.94 41.99 41.41 41.78 41.99 41.13 41.98 41.68 42.14 43.07 42.12 41.55 41.30 42.05 40.50 38.37 38.80 38.46 38.87 38.98 40.21 40.49 40.79 41.11 43.29 45.04 45.60 45.71 45.73 45.71 45.60 45.55 45.88 45.99
40.10 39.98 39.54 38.73 38.30 38.37 38.56 38.87 39.20 39.24 39.16 39.28 39.23 39.21 38.80 39.42 38.97 39.55 39.63 39.53 38.93 39.25 39.99 39.72 37.79 37.85 37.74 36.98 38.11 37.74 37.57 38.15 39.41 40.88 42.01 42.70 43.53 44.11 44.68 44.98 45.67 45.95 45.62
39.07 39.32 39.93 39.27 37.76 37.10 37.66 37.79 38.01 38.12 38.37 38.79 39.36 40.00 39.16 38.32 38.11 38.30 37.98 37.81 37.69 38.01 38.00 37.90 36.53 36.33 35.90 35.39 36.03 35.36 35.57 36.77 36.37 37.86 38.52 39.56 40.84 40.80 41.43 41.38 41.42 40.65 39.72
39.26 39.44 39.08 39.01 39.34 38.49 37.69 37.54 37.77 37.42 36.95 36.41 36.57 37.50 37.90 40.25 40.44 39.70 38.04 36.99 36.86 36.43 36.56 36.37 35.53 35.58 35.15 35.00 32.57 34.86 34.35 35.00 35.70 33.34 33.44 34.46 34.63 35.50 36.89 36.04 35.38 35.60 36.49
38.81 38.93 38.37 38.43 38.26 38.73 39.50 39.47 37.01 35.50 34.70 34.33 34.25 34.03 34.50 33.67 35.51 38.27 38.24 38.72 37.56 35.16 32.56 32.62 33.05 32.31 31.49 31.72 32.10 31.52 31.49 30.91 30.51 32.42 31.63 32.41 33.66 33.31 34.25 34.52 34.27 35.50 36.34
37.89 37.63 37.40 37.33 37.54 38.12 38.65 37.77 35.22 31.52 30.09 30.15 30.96 32.13 31.91 31.86 31.00 30.58 33.32 33.10 34.22 35.15 34.83 33.24 31.21 30.94 30.53 30.85 30.28 30.15 30.02 29.94 29.55 31.64 30.66 29.13 31.99 30.30 32.47 32.11 32.96 34.72 35.82
35.98 35.48 34.36 34.66 36.21 37.10 37.46 35.65 32.11 28.46 27.90 27.65 27.92 27.34 30.55 30.63 32.60 30.63 30.28 30.02 30.06 32.20 32.43 31.82 32.05 31.79 32.01 32.06 31.66 30.95 30.62 30.14 30.48 31.17 30.91 26.61 30.03 29.27 31.86 32.33 31.45 34.21 35.19
34.26 32.89 31.43 31.17 31.08 33.21 35.13 33.68 29.29 27.97 27.72 27.78 29.09 30.52 31.90 32.24 34.33 32.56 29.83 28.04 27.89 29.20 31.47 32.21 31.78 31.69 31.64 31.54 32.47 31.49 29.40 27.82 25.96 27.63 29.44 27.62 28.66 28.14 29.82 30.54 31.96 32.86 33.99
32.79 31.13 28.97 27.51 32.08 29.37 34.47 33.11 29.73 28.53 27.20 27.57 28.52 29.41 32.21 32.85 32.95 32.85 29.64 27.98 26.67 27.92 28.88 27.87 27.46 27.15 26.80 27.45 29.07 28.75 28.74 26.30 26.02 25.58 28.02 27.01 27.20 27.41 26.85 30.24 30.83 31.85 32.06

GFSMA_sfc_wetblb_060.txt.gz
Wetbulb
68.19 67.97 66.59 65.43 65.74 66.69 66.95 67.12 67.35 66.97 66.50 65.92 65.68 64.29 63.67 63.13 62.66 62.16 61.53 60.69 62.23 66.06 69.10 68.69 66.98 65.70 64.17 62.99 62.02 61.16 60.68 59.47 59.53 59.67 59.53 59.33 59.19 59.49 59.83 60.33 60.49 60.64 60.86
68.79 68.15 67.60 66.36 65.35 66.12 66.75 67.40 67.82 67.72 67.39 67.13 66.22 65.93 65.90 65.85 64.56 62.84 62.05 62.29 62.24 64.14 67.37 68.58 67.82 67.05 65.63 64.61 63.32 62.42 61.26 60.60 59.75 59.70 59.46 59.06 58.67 58.74 58.88 58.99 59.11 59.39 59.84
68.83 68.10 67.78 67.41 67.37 67.20 66.79 67.14 67.36 67.52 67.15 67.19 66.86 66.98 66.71 66.64 65.98 64.19 63.02 62.81 62.86 61.64 64.22 67.57 67.90 67.32 66.27 65.61 65.21 64.04 62.70 61.60 60.49 59.94 59.87 59.22 58.77 58.29 58.16 58.42 58.65 58.80 58.83
69.08 68.56 67.84 67.80 68.36 68.17 67.84 67.34 67.16 66.71 66.65 66.68 66.63 67.01 66.84 66.74 66.50 66.23 65.79 64.39 63.87 63.09 63.44 64.93 66.86 67.31 66.91 66.63 66.08 65.24 64.12 62.86 61.52 60.84 60.12 59.59 59.11 58.59 58.20 58.08 57.97 58.07 58.04
68.78 68.68 68.51 68.51 68.77 68.24 68.00 67.64 67.35 67.13 66.53 66.71 66.48 66.51 66.57 66.39 66.60 66.27 66.11 65.94 64.65 62.77 63.15 62.81 63.85 64.88 66.14 66.55 66.40 66.06 65.07 64.22 62.74 61.79 60.75 59.86 59.41 58.85 58.44 58.08 57.72 57.73 57.74
68.81 68.83 68.81 68.76 68.82 68.17 67.87 67.80 66.96 67.56 66.91 66.57 65.51 64.77 65.70 66.35 66.45 66.06 65.78 65.65 65.67 63.69 62.53 62.45 62.80 62.95 62.93 65.24 65.97 66.00 65.57 64.89 64.01 62.74 61.91 60.79 59.95 59.08 58.63 58.46 57.97 57.57 57.51
68.71 68.46 68.49 68.59 68.74 67.95 67.68 67.67 67.35 66.38 65.94 66.60 64.24 64.11 65.09 65.44 64.81 64.90 65.15 65.12 63.72 62.72 62.54 62.06 61.73 61.88 62.30 63.83 64.74 65.23 65.45 65.13 64.52 63.98 62.70 61.66 60.67 59.88 59.04 58.52 58.27 58.36 57.77
68.80 68.54 68.42 68.29 68.34 67.67 67.48 67.22 66.84 65.27 64.99 65.81 62.92 62.00 59.18 60.94 62.56 62.79 63.33 62.19 61.83 61.51 60.22 60.33 60.42 60.34 60.90 61.56 62.01 63.48 64.53 65.11 64.72 64.32 63.88 62.81 61.38 60.49 59.63 58.95 58.51 58.17 58.03
67.38 67.17 67.40 67.39 67.38 67.07 65.64 66.38 66.07 64.61 62.69 64.48 63.86 61.96 58.01 55.87 58.94 61.09 60.84 59.79 59.35 59.36 59.11 58.27 58.91 59.27 59.39 59.88 60.08 60.14 60.91 62.46 63.84 64.23 63.96 63.59 62.93 61.14 60.43 59.66 58.97 58.49 58.34
57.50 58.57 62.33 64.57 65.12 64.89 63.45 63.86 64.17 63.60 62.98 60.88 60.36 60.74 61.37 58.96 55.63 54.47 59.38 59.64 57.65 56.84 57.48 56.35 55.63 57.29 56.84 56.18 55.77 55.96 57.24 58.27 60.43 62.79 63.73 63.44 62.83 63.17 61.41 60.30 59.59 59.24 58.57
58.56 58.52 58.86 59.41 59.93 61.02 61.40 61.17 61.31 61.00 61.99 61.48 60.91 58.51 58.57 58.89 57.79 55.31 53.15 56.57 58.59 55.28 55.91 56.58 57.81 56.67 57.25 56.64 56.54 54.91 54.32 55.36 57.49 59.30 61.85 63.13 63.08 61.83 62.26 61.32 60.47 59.14 58.62
58.24 57.56 57.09 58.14 58.68 59.63 60.25 60.45 60.26 59.62 59.64 59.68 61.22 60.52 57.99 56.35 56.53 54.95 53.24 54.38 53.80 58.04 58.70 58.60 57.39 56.33 55.19 54.08 52.09 51.06 51.78 53.01 54.79 56.83 59.22 61.26 61.96 62.02 61.94 61.16 60.41 59.82 59.38
56.44 56.72 55.72 56.07 56.48 56.93 57.85 59.31 59.34 59.28 59.89 59.92 59.84 60.08 59.12 58.50 57.01 54.33 53.37 53.01 52.94 55.77 55.54 56.56 54.10 53.32 52.01 53.65 52.76 48.88 50.57 51.36 52.49 54.60 57.44 59.36 59.92 59.42 59.83 61.22 60.63 60.58 59.63
55.20 54.12 53.93 54.09 54.33 54.59 55.53 57.26 58.33 59.46 60.01 60.25 59.38 59.51 58.69 58.14 56.79 55.41 54.52 53.23 51.22 52.48 53.65 53.66 52.17 50.77 50.45 49.40 48.69 48.22 51.84 49.19 49.82 51.48 53.00 53.88 54.10 54.20 55.89 58.27 58.93 57.74 57.05
51.40 51.31 51.46 51.49 51.61 52.30 53.65 55.69 57.11 57.34 56.50 55.49 54.53 54.09 52.77 51.45 53.07 53.86 54.98 54.06 52.29 48.61 50.09 51.82 51.49 47.64 48.18 48.43 47.12 49.07 50.25 47.73 48.81 49.62 50.58 50.50 50.58 51.67 53.81 54.98 55.40 54.08 53.01
49.32 49.41 49.55 49.52 49.54 50.19 51.60 53.24 53.37 52.60 52.94 52.51 52.76 51.17 50.27 50.13 50.32 50.66 51.87 52.61 50.91 50.50 47.49 48.91 47.21 44.98 44.95 46.21 45.31 46.79 46.66 46.90 47.87 49.11 51.10 50.97 50.89 52.47 52.18 51.55 50.78 50.34 50.09
47.63 47.32 47.14 47.40 47.34 47.88 49.49 51.19 49.18 48.80 48.53 48.12 48.23 47.98 47.33 48.98 49.05 48.85 49.77 48.26 48.17 49.21 46.70 43.07 43.36 43.95 45.30 45.18 44.86 45.05 44.98 45.07 45.28 46.73 47.55 48.12 48.42 48.85 49.10 48.97 48.75 48.78 48.29
46.22 45.77 45.56 45.44 45.68 45.91 47.20 48.12 47.21 47.38 47.49 46.68 46.43 46.67 45.41 45.94 46.44 47.00 47.42 46.79 46.45 46.27 46.82 44.80 42.34 43.09 42.01 42.24 42.34 42.09 42.07 42.40 43.47 43.39 44.86 45.29 45.73 45.92 45.96 45.88 45.69 45.76 45.58
45.32 44.70 44.33 43.82 43.44 43.65 44.45 44.62 44.75 44.35 44.28 43.90 43.91 43.68 42.94 44.05 43.94 44.30 44.27 43.90 43.87 43.12 43.44 42.31 40.40 40.77 40.20 39.21 38.87 40.68 40.77 40.85 41.29 40.58 41.77 42.22 43.24 43.34 43.43 43.73 44.24 44.20 44.98
44.27 44.16 43.61 42.41 41.32 40.93 41.05 41.04 41.47 41.67 41.43 41.49 41.78 41.79 41.74 41.88 41.52 41.30 41.02 40.92 40.92 41.64 41.14 41.00 39.07 38.87 37.74 37.38 37.42 36.44 39.49 40.34 39.31 39.77 39.02 38.52 38.85 38.90 40.23 40.65 40.58 39.27 39.25
42.90 42.12 41.04 40.89 40.64 40.22 39.90 39.97 39.99 39.80 39.53 38.90 39.34 39.41 39.77 40.98 40.68 40.57 40.31 39.73 39.92 39.93 38.89 39.22 38.49 38.54 37.59 36.56 35.28 37.12 37.22 37.61 38.56 36.77 37.12 38.09 37.76 38.63 39.17 38.00 36.92 35.94 36.45
40.30 40.28 40.15 39.94 39.52 39.98 40.49 40.04 39.49 38.95 38.87 38.43 37.58 37.25 37.60 36.79 38.61 38.77 38.68 38.29 37.99 37.82 35.42 36.60 37.69 36.91 35.75 35.68 36.01 34.79 33.96 33.05 32.76 36.32 33.90 34.34 36.37 35.38 36.68 37.22 35.56 35.36 36.32
39.44 38.77 38.75 39.38 38.76 39.14 39.41 38.46 37.11 36.78 35.56 34.53 35.11 35.40 34.39 34.16 33.73 33.91 34.29 34.07 35.19 35.74 35.31 35.89 34.28 34.34 33.78 33.87 33.35 32.74 32.67 32.38 31.93 33.73 32.22 31.26 34.48 32.65 35.11 34.87 33.79 34.59 35.73
37.75 37.36 37.38 38.57 38.11 37.82 37.76 35.60 33.86 33.22 32.71 32.54 32.81 33.55 34.72 34.50 34.48 32.92 32.82 32.78 33.43 34.65 34.57 34.49 35.10 34.84 35.09 35.28 34.60 33.51 32.76 32.26 33.05 33.51 32.63 28.75 33.35 32.40 34.92 35.51 32.28 34.67 35.79
35.71 35.62 35.82 35.86 36.21 36.49 35.68 33.79 32.96 33.80 32.25 32.07 32.79 33.91 34.63 35.10 34.63 32.47 32.20 30.21 30.98 32.17 32.91 32.08 31.80 31.75 31.78 31.74 32.91 33.50 31.44 29.46 28.56 30.18 32.29 29.97 31.83 30.99 33.09 33.62 34.83 32.62 33.63
34.19 34.51 33.39 34.07 34.71 35.98 34.93 33.54 32.48 32.02 30.38 30.86 31.58 32.65 32.95 34.07 33.29 33.45 32.54 30.99 29.12 30.80 31.55 30.94 30.82 29.90 29.30 29.96 29.67 30.68 30.89 28.28 28.36 28.79 31.02 28.99 29.74 29.77 29.52 34.16 33.85 34.66 34.61

GFSMA_sfc_wetblb_063.txt.gz
Wetbulb
68.06 67.71 66.09 64.90 65.19 65.71 65.90 66.19 66.38 66.19 66.16 65.95 65.57 64.81 63.85 63.80 63.50 63.51 62.98 61.94 62.13 63.30 67.14 69.34 68.08 66.68 64.91 63.48 62.25 61.64 60.77 60.00 59.62 59.79 59.66 59.49 59.44 59.82 60.28 60.86 61.03 61.12 61.38
68.53 67.96 67.38 66.36 65.10 65.20 65.80 65.99 66.84 67.28 67.13 67.14 66.67 66.35 65.80 66.00 65.81 65.05 64.04 63.59 61.85 63.07 64.85 68.15 68.91 67.74 67.00 65.86 64.75 63.34 62.22 61.28 60.26 59.97 59.77 59.26 58.81 58.83 59.01 59.16 59.32 59.74 60.27
68.43 67.91 67.45 67.31 67.30 66.88 66.16 66.52 66.88 67.24 66.98 67.08 66.75 67.13 67.16 66.94 66.73 66.24 65.35 64.69 64.13 61.59 63.46 64.82 67.38 67.68 67.34 66.80 66.23 65.46 63.98 62.91 61.98 60.45 60.31 59.81 59.13 58.47 58.28 58.55 58.80 58.97 58.78
68.92 68.60 67.70 67.66 68.37 68.21 67.84 67.29 66.96 66.54 66.51 66.48 66.28 66.60 66.87 67.05 66.95 66.87 66.99 66.58 65.62 64.58 63.11 64.16 65.48 66.82 67.03 67.03 66.90 66.33 65.63 64.06 63.02 62.13 61.12 60.38 59.69 59.14 58.50 58.28 58.05 58.19 58.08
69.16 68.71 68.63 68.61 68.88 68.49 68.13 67.72 67.31 67.10 66.24 66.22 65.39 66.72 67.01 66.93 66.92 66.87 66.61 66.85 66.87 65.89 64.22 63.82 63.47 64.63 66.25 66.96 66.73 66.77 66.36 65.67 64.13 62.90 62.18 61.28 60.53 59.75 59.24 58.76 58.32 58.24 58.11
69.04 68.76 68.69 68.65 68.85 68.00 67.16 66.92 66.34 66.76 66.20 65.80 65.06 65.29 66.36 66.58 66.81 66.71 66.19 65.66 65.69 66.18 65.50 63.88 63.78 62.48 62.69 64.80 65.91 66.40 66.21 65.90 65.22 64.19 63.10 62.16 61.13 60.39 59.71 59.19 58.77 58.38 58.26
69.17 68.89 68.63 68.25 67.78 66.98 66.88 66.89 66.47 65.15 64.93 66.96 64.77 64.47 64.87 65.66 65.64 65.29 65.14 64.26 64.55 64.70 63.64 63.26 62.95 62.65 62.69 63.78 65.01 65.31 65.90 65.96 65.38 64.89 64.38 63.34 62.26 61.39 60.65 59.96 59.42 58.84 58.40
68.98 68.51 68.22 67.58 67.46 66.98 66.66 66.58 65.68 64.78 64.97 66.01 62.81 62.74 59.30 61.05 62.41 63.74 63.53 62.93 62.82 63.01 62.25 61.61 61.50 61.33 61.61 61.39 61.97 63.79 64.31 65.31 65.40 65.03 64.59 64.34 63.60 62.68 61.90 60.97 60.03 59.42 59.21
68.56 68.21 67.72 67.15 67.23 67.16 66.21 66.13 65.53 64.45 62.75 63.32 63.54 61.10 57.93 56.15 58.88 61.03 61.25 61.60 61.00 60.72 60.99 59.99 59.76 60.22 59.80 59.58 60.10 59.32 59.43 60.05 62.16 64.37 64.59 64.12 63.96 63.66 62.88 61.96 60.84 59.95 59.26
60.86 61.43 63.16 65.13 65.81 65.39 64.22 64.10 64.35 63.95 63.40 61.56 61.89 61.66 62.00 59.46 56.09 54.64 59.64 60.43 60.47 58.19 59.43 59.08 57.61 57.62 56.64 56.90 56.41 55.63 56.22 56.23 58.08 60.03 62.10 63.55 63.60 63.50 63.39 62.83 62.04 60.81 59.93
58.42 58.71 58.66 59.32 59.72 60.33 61.29 61.48 61.62 61.24 61.17 60.64 60.93 60.09 59.86 59.97 59.46 56.22 53.84 55.56 59.74 58.90 58.07 58.01 57.76 57.63 57.15 56.87 55.99 53.56 53.17 54.34 56.13 57.76 59.60 60.74 61.90 63.15 62.86 63.38 63.54 61.31 60.42
57.93 58.09 57.56 58.05 58.49 58.95 59.50 60.42 60.73 60.31 58.96 58.30 58.59 58.98 58.54 57.48 55.40 54.43 53.65 54.88 55.69 56.20 56.81 58.92 56.78 55.91 54.79 54.24 51.07 51.30 51.65 53.06 54.41 56.14 58.18 59.72 60.43 61.21 61.05 61.93 62.61 62.00 61.12
56.50 57.21 56.56 56.50 56.60 57.18 57.23 58.09 58.96 59.23 57.77 57.48 58.07 58.10 58.66 58.63 58.73 55.44 53.69 52.59 52.99 54.54 54.08 56.09 53.91 53.42 52.52 52.67 49.71 49.50 51.12 50.98 52.27 54.19 55.86 57.18 56.92 56.21 56.38 58.28 59.75 61.24 61.95
55.84 55.70 54.70 54.73 54.76 54.72 54.96 55.92 57.00 58.26 58.58 59.62 59.44 59.58 59.33 58.69 57.98 55.48 54.31 53.05 50.44 51.60 52.09 52.40 52.05 50.98 50.56 48.90 48.08 50.36 50.94 49.49 50.54 52.23 53.48 53.69 52.78 52.33 53.08 55.58 57.30 58.35 56.85
53.35 52.40 52.56 52.28 52.65 52.58 53.19 53.96 55.67 56.09 56.97 56.10 54.38 53.79 52.52 51.40 51.71 52.77 54.06 54.09 52.74 48.58 50.09 51.31 49.84 48.71 48.02 48.45 46.07 48.41 47.86 47.95 49.14 50.17 51.04 51.76 51.24 50.82 52.88 54.85 56.37 55.06 54.10
51.08 50.78 50.73 50.69 50.73 50.96 51.75 53.02 53.33 53.41 53.35 52.99 52.93 51.78 50.52 50.40 50.63 51.40 51.18 51.56 51.35 50.82 48.43 49.42 46.58 46.24 46.66 46.89 46.05 46.41 45.54 46.60 46.89 48.98 49.22 49.60 51.02 52.55 52.95 53.13 52.62 52.39 52.15
49.46 48.93 48.54 48.65 48.65 48.86 50.03 51.25 50.59 50.33 49.79 49.02 49.08 48.72 48.16 50.03 50.05 49.94 50.51 50.31 50.10 50.18 48.10 44.26 44.61 44.92 45.65 44.15 44.13 44.34 44.51 43.76 44.99 45.79 47.23 47.67 47.83 48.00 48.88 49.48 49.83 49.89 49.59
48.20 47.53 47.05 46.79 46.92 47.05 47.89 48.76 48.37 48.92 48.95 48.13 48.03 48.18 47.04 47.58 47.44 48.00 48.37 47.59 47.25 46.56 46.39 44.60 42.83 43.04 41.75 41.80 42.33 41.76 41.93 42.67 42.99 42.95 44.47 45.08 45.67 46.19 46.78 46.74 46.56 46.24 45.96
47.13 46.51 45.78 45.31 44.88 44.71 45.48 45.91 46.25 45.97 45.78 45.32 45.21 44.54 44.31 45.37 44.30 44.63 44.69 44.42 43.84 43.27 43.25 41.98 39.54 41.41 40.60 39.05 38.46 39.95 40.53 40.41 41.75 40.78 41.20 41.99 42.40 43.50 44.08 44.22 44.18 43.65 44.70
46.02 45.69 45.13 44.09 43.15 42.81 42.77 42.83 43.44 43.54 42.81 42.42 42.38 42.56 42.08 42.01 41.74 41.64 41.33 41.20 41.40 41.21 41.26 41.17 39.80 39.09 38.05 38.01 38.08 36.77 38.40 39.89 38.55 39.21 39.50 38.42 38.94 39.10 40.27 40.69 40.31 39.21 39.65
44.58 43.96 42.69 42.11 41.98 41.49 41.17 41.16 41.43 41.42 40.86 40.13 40.10 39.55 40.40 41.06 41.01 40.98 40.08 39.51 39.43 38.68 38.17 38.90 38.79 38.59 37.02 36.48 35.03 36.29 34.45 35.15 36.65 35.15 33.97 35.50 34.97 35.93 36.74 37.72 37.45 36.83 37.55
41.78 41.52 41.08 40.93 40.59 40.62 40.64 40.83 40.62 39.78 39.61 39.01 37.76 37.85 37.80 38.36 38.71 38.81 38.62 37.96 36.68 36.58 34.87 35.19 35.81 35.36 35.39 34.05 34.10 32.00 31.22 30.28 29.88 33.37 30.36 30.22 32.73 31.26 32.71 32.79 35.43 35.33 35.98
40.11 39.61 39.63 39.87 39.56 39.53 40.51 39.61 39.66 38.48 36.42 35.98 34.97 35.56 34.53 33.98 34.07 33.38 34.54 34.62 36.16 35.82 35.52 34.70 32.12 31.91 31.33 31.91 31.42 31.10 30.62 29.95 29.14 31.12 29.39 27.48 30.72 29.00 31.42 33.89 35.06 34.95 36.14
38.77 38.29 38.51 39.36 38.85 38.54 38.38 37.11 36.20 34.41 33.21 32.98 33.16 33.06 34.09 34.13 33.47 32.88 32.47 32.07 32.48 33.81 34.07 34.35 33.65 33.11 33.01 33.49 32.56 31.78 30.35 29.80 30.68 30.70 29.47 25.49 29.54 28.71 31.12 31.82 33.90 34.66 35.53
36.76 36.37 37.20 37.79 37.03 36.93 36.58 34.68 33.46 33.41 32.45 32.08 32.98 33.87 34.56 34.94 34.70 33.23 32.05 29.74 29.91 31.30 33.26 32.42 31.77 31.65 31.73 31.94 32.11 30.60 29.56 27.73 26.37 26.45 28.68 26.56 28.18 27.49 29.27 29.56 31.03 34.05 34.38
34.46 35.07 34.10 34.97 36.24 36.19 35.23 34.09 33.31 31.95 30.66 30.35 31.30 32.67 33.54 34.02 33.73 33.74 31.67 29.77 27.61 28.87 29.91 29.80 29.24 28.99 29.15 29.02 30.01 28.29 28.51 24.99 26.52 26.36 27.46 25.99 27.15 27.03 25.47 30.09 29.68 30.71 30.40

GFSMA_sfc_wetblb_066.txt.gz
Wetbulb
63.74 63.42 61.06 60.67 61.24 61.82 61.23 61.59 62.03 61.48 61.48 61.52 61.17 60.54 59.47 58.88 58.33 58.17 57.13 61.34 62.91 63.68 65.12 68.98 68.84 67.52 65.69 64.07 62.63 61.91 61.00 60.34 59.67 59.82 59.64 59.55 59.51 59.97 60.48 60.90 61.15 61.26 61.43
64.71 64.33 62.83 61.29 59.83 60.20 60.82 60.94 61.08 62.54 62.89 62.74 62.59 62.30 61.08 61.18 61.37 61.11 59.72 58.34 62.15 62.78 64.16 65.43 68.96 69.03 67.92 66.50 65.43 64.06 63.14 62.13 61.03 59.89 59.78 59.39 58.90 58.79 59.02 59.31 59.61 60.34 60.37
64.73 63.94 63.34 62.72 62.61 61.53 61.26 61.23 62.07 62.71 62.67 63.54 62.56 63.20 63.16 62.38 62.24 62.15 61.12 60.40 59.90 61.75 63.39 64.24 65.50 67.33 67.60 67.81 66.94 66.26 64.84 63.82 62.90 61.62 61.03 60.45 59.57 58.72 58.39 58.63 59.03 59.30 58.95
65.53 64.38 63.57 63.32 64.31 63.73 63.26 62.66 62.40 62.18 62.16 62.18 61.90 62.31 62.37 63.01 62.83 62.73 63.05 62.36 61.30 60.98 61.53 64.16 65.40 65.99 66.83 67.15 67.44 67.15 66.67 65.18 63.91 62.74 62.00 61.10 60.59 59.73 58.88 58.65 58.53 58.65 58.81
66.15 65.11 64.94 64.72 64.97 64.49 63.97 63.95 63.38 62.93 62.05 62.25 63.40 63.43 63.79 63.80 63.03 64.12 62.93 63.04 63.27 63.57 61.90 62.49 62.80 63.64 65.71 66.32 66.58 67.00 66.81 66.25 65.23 64.07 62.99 62.12 61.26 60.51 59.86 59.11 58.78 58.69 58.61
66.45 65.26 65.13 65.19 65.13 65.66 64.95 64.90 64.28 64.41 63.89 63.54 64.01 63.40 63.77 63.07 62.98 62.94 62.92 63.18 61.54 61.76 62.63 60.62 59.94 60.16 62.65 64.88 65.24 65.82 66.04 66.33 65.66 65.32 64.20 63.26 62.11 61.37 60.68 60.10 59.51 59.14 59.25
66.12 65.49 65.34 66.16 65.69 65.11 64.76 64.81 63.96 63.38 62.85 63.61 62.91 60.83 61.44 62.34 62.31 62.37 62.18 60.80 59.98 60.15 59.43 59.14 58.72 58.33 58.91 63.22 64.50 64.81 65.03 65.56 65.87 65.07 64.94 64.44 63.47 62.60 61.99 61.48 60.62 59.81 59.44
66.83 66.02 65.43 65.41 65.78 65.43 65.23 64.83 64.52 63.22 63.06 63.71 61.16 60.27 57.34 57.68 59.36 59.83 60.15 58.98 57.69 57.46 57.91 57.61 56.81 56.29 55.88 56.06 58.41 63.16 63.83 64.38 64.77 65.12 64.59 64.28 64.40 64.00 63.36 62.80 61.81 60.93 60.05
66.63 66.79 66.45 65.99 65.87 65.90 65.25 65.10 64.22 63.26 62.00 62.40 62.78 60.10 56.22 53.77 54.94 56.71 56.92 57.24 56.57 55.67 54.60 54.54 54.63 54.76 55.71 55.35 55.86 55.95 57.25 57.65 59.22 61.22 62.97 63.87 63.93 63.84 64.28 63.97 63.11 61.84 60.82
57.88 58.18 58.97 62.24 65.02 64.70 63.76 62.13 62.69 62.16 62.22 60.75 61.25 61.59 60.50 59.51 55.72 53.26 55.14 56.10 55.74 54.39 54.19 52.93 52.83 53.87 53.98 53.92 53.65 54.35 54.65 55.55 57.57 58.92 60.25 61.05 61.72 62.78 63.31 63.38 63.85 63.07 61.69
55.52 56.36 56.03 55.96 55.97 56.36 56.89 57.72 57.70 58.03 58.30 57.24 57.55 57.72 56.65 58.14 58.13 56.00 52.87 52.52 55.73 55.69 54.49 54.24 53.45 52.02 51.77 49.68 48.43 51.22 53.41 55.21 57.07 58.15 59.52 60.24 60.90 62.28 62.37 62.61 62.96 63.33 62.59
55.15 55.54 55.66 55.04 55.22 55.67 56.06 56.72 57.24 56.82 56.61 55.62 55.88 56.41 55.92 55.70 54.79 54.35 53.00 52.23 51.80 54.48 55.71 54.03 51.63 51.51 51.15 47.98 49.47 51.63 52.23 53.16 55.03 56.43 57.75 58.85 59.73 59.06 58.76 59.54 60.89 61.50 61.79
52.59 54.00 54.07 53.36 53.36 53.88 54.31 54.53 54.74 55.55 55.95 54.49 55.88 56.24 56.78 56.00 56.27 55.77 54.19 52.54 50.93 53.76 53.54 51.47 50.96 50.07 48.81 46.77 46.70 50.13 50.91 51.42 53.04 54.94 56.35 56.72 55.54 54.92 55.00 56.35 58.36 59.35 60.38
51.62 51.60 51.34 51.36 51.37 51.59 51.63 52.36 52.97 54.03 55.25 55.09 54.31 54.62 55.74 56.02 55.45 54.42 53.49 52.50 50.32 49.80 50.88 49.40 47.97 46.56 45.93 45.41 46.73 49.20 47.09 49.89 50.49 51.99 53.09 53.94 53.26 52.35 52.48 54.84 56.09 56.59 57.21
50.04 48.16 49.07 48.92 49.11 49.33 49.99 50.71 51.66 52.29 53.46 52.91 53.49 52.92 52.41 51.36 51.94 53.14 54.13 53.79 52.40 48.10 48.16 48.66 44.05 43.66 44.51 44.22 45.87 44.92 45.04 47.59 48.95 49.46 49.74 51.16 52.70 51.30 53.33 54.65 55.80 55.36 55.99
47.94 47.29 47.13 47.17 47.39 47.76 48.42 48.93 49.89 51.19 51.62 51.21 51.47 50.95 50.12 50.29 50.27 50.90 51.11 51.51 51.34 50.50 47.67 46.82 43.44 42.84 44.12 45.09 45.10 44.14 44.62 45.82 46.71 48.20 48.86 49.29 50.03 51.20 52.22 52.95 53.56 53.74 53.42
46.35 45.99 45.72 45.52 45.37 45.24 45.84 46.67 49.43 49.28 49.25 48.50 48.29 47.98 47.48 49.03 48.65 47.96 47.43 47.48 46.23 47.90 46.70 43.18 43.79 43.56 42.61 41.64 41.56 42.86 43.34 42.93 44.02 45.35 46.64 47.47 47.85 48.36 48.60 48.84 49.61 50.20 50.50
45.52 44.61 44.33 44.14 44.14 43.98 44.06 44.10 45.15 45.38 47.89 47.22 47.30 46.84 45.76 47.29 45.43 45.06 44.43 42.62 42.72 40.88 41.19 42.90 41.34 40.95 40.09 38.12 37.20 40.48 41.38 42.21 41.75 42.11 43.82 45.12 45.53 45.83 46.50 47.14 47.30 47.19 46.87
44.09 43.72 43.17 42.51 42.04 41.94 41.74 41.70 42.38 42.56 41.88 41.30 41.50 41.14 40.82 41.43 39.72 39.86 40.86 41.37 39.63 41.34 39.99 39.73 37.54 39.26 38.43 36.63 37.50 39.10 39.41 36.23 40.08 41.10 41.17 41.98 42.00 42.48 44.64 45.09 44.54 43.75 44.08
43.48 43.01 42.27 41.45 40.84 40.24 40.39 40.55 41.21 40.39 40.08 40.47 40.45 39.26 39.01 39.03 40.82 40.57 40.47 39.98 40.36 39.32 39.15 39.15 37.94 36.63 36.80 36.15 36.98 34.42 32.63 35.16 33.36 36.20 37.66 38.29 39.33 39.68 40.41 40.43 40.31 39.49 39.75
42.03 41.64 40.70 41.09 41.72 41.17 41.20 40.86 41.36 41.19 40.35 39.54 39.05 39.59 39.71 40.24 41.62 41.08 39.02 38.32 38.24 36.59 36.27 36.30 35.87 36.22 35.72 34.61 31.82 31.67 28.99 29.07 30.42 30.30 28.44 29.12 30.21 30.86 32.93 36.86 37.55 37.39 37.36
39.95 39.94 40.78 40.70 40.26 40.59 41.11 41.67 40.94 39.71 39.54 38.10 36.51 35.18 35.87 36.97 38.06 39.35 38.76 38.00 36.68 34.85 33.73 33.91 34.52 33.08 31.09 29.03 28.45 26.82 26.20 22.69 23.01 27.83 25.57 25.53 27.65 26.58 28.02 28.24 35.36 35.92 36.13
39.62 39.40 39.46 39.62 39.28 39.71 41.59 40.93 41.18 37.65 35.85 34.38 34.02 31.63 32.40 33.81 32.62 30.49 34.39 36.36 35.76 36.17 35.43 30.47 27.08 26.39 26.58 27.47 26.80 25.95 25.85 23.48 24.73 26.86 25.46 23.35 25.93 25.76 27.56 31.98 35.67 35.08 36.17
38.65 38.25 38.28 38.65 38.16 38.52 39.75 38.83 38.13 33.76 32.72 31.51 31.43 31.09 29.21 28.88 30.39 30.90 29.72 29.25 29.56 30.55 31.47 31.90 28.94 28.21 28.31 28.76 28.36 27.90 26.74 26.07 26.77 26.61 25.70 19.40 24.75 25.26 26.96 27.80 35.26 34.99 35.04
37.20 36.72 37.36 37.17 36.13 36.10 37.42 36.66 32.17 29.11 29.74 29.39 29.65 31.16 32.57 31.93 34.68 33.79 29.72 27.42 26.57 28.77 33.61 33.04 32.16 32.08 32.08 32.07 30.96 26.48 22.95 20.37 21.52 22.82 25.23 24.07 24.60 24.77 25.88 26.82 28.72 34.86 35.33
34.85 35.15 33.80 33.84 36.93 33.25 36.79 35.20 32.57 29.59 28.44 28.14 28.58 30.65 34.09 33.05 34.59 34.20 28.95 25.65 24.50 25.35 26.87 26.77 26.04 27.26 28.04 27.10 30.33 25.44 22.37 15.13 18.27 19.00 24.57 21.62 24.18 24.54 20.01 26.94 27.45 28.02 28.14

GFSMA_sfc_wetblb_069.txt.gz
Wetbulb
60.32 60.47 60.30 61.33 61.49 62.71 61.71 61.76 61.40 60.97 60.59 60.30 60.01 58.99 58.08 57.25 56.61 56.47 55.46 61.47 63.41 64.98 64.77 67.62 68.67 67.96 66.34 64.67 63.68 62.69 61.80 60.72 60.03 60.04 59.77 59.61 59.70 60.17 60.67 60.97 61.12 61.25 61.14
62.81 62.89 60.83 58.56 58.18 59.39 59.49 59.40 59.74 60.06 60.76 60.94 60.82 60.81 59.80 58.99 59.22 59.62 58.27 57.28 62.86 63.50 64.89 64.64 66.63 68.64 68.27 67.02 65.48 64.39 63.53 62.85 61.79 60.82 60.40 59.91 59.22 59.07 59.22 59.45 59.95 60.58 60.51
63.65 63.49 62.21 60.68 60.35 59.10 59.34 59.15 59.82 60.91 61.12 61.96 61.36 61.89 62.00 61.42 60.63 60.73 60.32 58.87 59.08 61.72 63.55 64.82 65.16 66.34 67.59 67.98 67.61 67.23 65.70 64.33 63.38 62.32 61.41 60.96 59.93 58.98 58.70 58.97 59.52 59.74 59.79
64.37 63.02 62.38 61.93 62.22 61.46 60.28 60.57 60.81 60.60 60.69 60.87 60.81 61.44 61.60 61.99 63.09 62.71 61.70 61.10 59.76 59.71 61.37 64.59 65.87 66.07 66.42 66.98 67.47 67.18 66.67 66.06 64.60 63.61 62.51 61.89 61.09 60.12 59.15 58.86 58.99 59.15 59.61
65.11 63.87 63.43 63.04 63.42 62.94 62.32 62.29 62.07 61.55 60.95 61.38 62.74 63.08 63.29 63.19 63.55 63.97 62.44 62.27 61.98 62.63 61.09 62.09 63.16 63.61 64.99 65.51 66.04 66.56 66.84 66.27 65.65 64.99 63.88 62.97 61.82 61.12 60.46 59.67 59.36 59.33 59.22
65.31 64.28 64.34 64.11 63.81 64.57 64.60 64.26 63.82 63.81 63.33 63.40 63.58 63.47 63.01 63.05 62.75 61.96 61.98 62.73 61.49 60.70 61.38 59.76 59.48 59.71 62.25 64.51 64.87 65.45 65.75 66.00 66.04 65.11 64.99 64.15 63.18 62.32 61.66 61.04 60.15 59.60 59.73
65.72 64.36 64.11 64.05 65.08 64.44 64.09 64.12 63.73 62.94 62.58 62.82 62.10 59.91 60.46 61.41 61.55 61.79 62.04 61.24 60.11 59.53 58.58 58.29 57.78 57.78 58.10 62.30 63.53 64.19 64.74 64.97 65.23 65.11 64.48 64.52 64.47 63.55 63.01 62.56 61.70 60.83 60.27
66.22 65.16 64.45 64.47 65.02 64.72 64.48 64.36 63.88 63.44 63.16 63.19 60.95 60.00 56.57 56.96 59.00 59.07 58.48 58.99 57.66 56.56 56.83 55.82 54.85 54.74 54.28 55.67 58.21 59.61 61.18 62.15 62.69 62.95 63.58 64.04 64.06 64.62 64.29 63.75 63.12 61.93 61.04
66.26 66.25 66.11 65.87 65.71 65.61 64.80 64.92 64.20 63.41 61.74 61.30 61.72 58.95 54.88 53.00 54.72 56.88 56.72 56.53 56.42 55.74 54.12 53.88 53.54 53.76 53.47 54.59 54.80 54.16 56.03 57.29 59.24 60.36 60.93 61.32 62.13 63.01 63.41 64.17 64.70 63.50 62.05
58.88 58.03 58.68 61.33 63.87 63.88 62.03 61.12 61.55 60.60 59.27 59.06 58.55 60.00 59.46 57.57 55.19 52.69 54.51 55.18 54.76 53.22 52.43 52.03 52.63 52.20 51.96 50.43 51.96 54.24 55.31 56.86 58.50 59.58 60.48 60.84 61.19 61.65 62.54 62.98 62.81 63.88 63.36
55.69 56.21 56.03 55.81 55.66 56.04 56.05 56.70 56.66 56.61 57.13 56.58 55.25 54.34 54.45 55.10 55.35 53.15 50.35 52.16 53.90 54.13 53.15 52.95 51.14 50.11 49.31 48.41 49.44 52.88 54.34 55.78 57.21 58.15 59.21 59.69 60.22 61.04 60.30 60.80 61.17 62.38 62.61
54.78 55.02 55.08 54.25 54.47 54.67 55.01 55.33 55.44 55.30 55.45 55.32 54.68 53.80 52.90 52.03 52.18 52.43 52.07 51.78 51.27 54.06 54.92 52.90 50.31 49.43 48.01 48.75 50.80 52.08 52.49 53.76 55.34 56.66 57.81 58.11 57.70 57.78 57.83 58.34 59.20 60.09 60.77
52.59 53.04 53.40 52.48 51.97 52.30 52.70 52.83 52.69 53.08 53.80 53.85 53.43 53.40 54.27 55.29 55.24 53.32 52.52 51.52 52.14 52.96 52.01 50.22 49.38 47.97 48.01 46.31 48.71 49.31 51.20 51.70 53.03 54.37 55.80 56.46 55.40 55.14 54.68 55.21 56.78 58.11 59.28
51.70 52.22 51.74 51.07 50.22 50.23 50.04 50.42 50.62 51.51 52.53 52.94 52.76 52.89 54.53 54.55 55.77 55.25 54.03 51.37 49.27 50.22 50.77 48.10 47.26 46.54 46.03 44.58 47.59 47.72 46.68 49.27 49.78 50.71 51.64 52.79 53.66 52.13 52.37 54.53 55.76 56.47 57.65
50.22 49.23 49.15 49.19 48.32 48.30 48.62 48.95 49.24 50.29 50.83 51.51 52.63 50.76 52.43 51.77 51.19 52.91 54.49 54.37 52.76 47.83 49.30 46.77 44.66 44.47 44.60 44.83 46.10 45.12 45.40 47.47 49.20 49.42 49.47 50.62 51.67 53.58 55.07 55.56 55.74 56.02 56.32
48.33 47.41 47.24 46.97 46.45 46.51 46.99 47.28 47.95 49.07 48.77 49.04 49.68 50.40 49.92 50.31 50.42 50.53 50.94 51.56 51.65 51.23 48.25 46.40 43.30 44.19 45.01 44.31 45.02 43.93 44.62 45.16 46.70 47.49 48.32 48.87 49.63 50.34 51.72 52.88 53.83 54.32 54.73
46.90 46.37 45.73 45.18 44.75 44.40 44.54 44.77 46.26 46.88 46.99 46.65 46.31 47.66 48.17 49.00 48.54 47.95 47.68 47.72 46.93 47.13 46.72 42.92 43.45 43.30 41.10 41.27 41.57 42.59 43.11 42.66 43.52 44.64 45.98 46.95 47.31 48.71 49.06 49.15 49.36 49.78 50.33
45.36 44.92 44.23 43.83 43.62 43.37 42.82 42.83 44.42 44.15 45.92 46.77 46.75 47.00 45.92 47.07 44.94 44.83 45.24 43.49 42.14 39.86 42.89 42.25 41.63 40.68 39.53 38.77 37.04 40.16 41.37 42.20 40.97 41.69 43.32 44.63 44.70 45.46 46.04 46.67 47.02 47.69 47.65
43.31 43.16 43.24 42.69 42.01 41.54 41.16 41.08 41.65 41.54 40.80 40.79 42.22 42.23 42.53 42.78 40.59 39.95 40.27 41.64 41.16 40.05 37.41 36.47 37.49 39.14 37.81 37.32 37.56 38.43 39.18 35.61 38.96 40.39 40.68 41.17 41.66 42.70 43.68 44.56 43.94 43.56 43.89
42.80 42.05 41.48 40.97 40.49 40.17 40.34 40.39 40.48 39.23 39.09 39.17 38.93 38.71 38.59 38.99 38.87 39.53 40.27 40.16 40.51 39.47 39.53 38.41 37.91 36.52 36.70 36.38 36.45 31.71 31.85 32.47 31.46 34.03 35.57 38.12 39.22 40.20 40.24 41.06 40.02 39.75 39.90
41.10 40.54 39.93 40.18 40.37 40.15 40.71 39.64 41.28 41.18 40.47 39.53 39.64 39.72 39.29 40.42 41.98 41.17 39.15 38.41 38.38 36.91 36.40 36.26 35.76 36.33 35.78 34.69 30.22 30.17 27.94 27.56 28.54 27.78 26.87 27.28 28.20 28.75 31.49 37.89 37.36 36.89 37.01
38.78 38.87 38.91 40.34 40.26 40.69 41.74 42.09 41.67 40.30 39.64 38.26 36.95 36.49 36.93 37.84 39.15 40.06 39.40 39.11 37.48 36.38 35.09 34.42 32.00 31.88 29.75 28.62 27.84 26.60 25.75 22.40 22.90 27.09 24.94 24.66 26.12 25.42 26.46 26.78 35.62 35.99 36.32
36.85 36.88 38.05 39.79 39.36 40.14 42.10 42.15 41.94 38.31 36.63 35.15 33.63 31.88 32.26 34.19 32.31 30.44 35.83 36.25 36.03 37.64 35.66 31.89 27.62 26.80 26.90 27.56 26.83 25.76 25.52 22.62 24.20 26.17 24.64 22.26 24.77 25.14 26.91 30.47 35.81 35.47 36.18
35.62 35.52 37.21 38.85 38.08 39.14 41.24 40.83 39.35 34.64 33.48 33.08 31.36 28.43 27.19 27.82 29.31 29.83 29.22 29.34 29.69 30.07 30.95 31.58 28.85 28.36 28.60 28.48 28.61 27.95 26.56 25.28 25.85 25.84 24.64 19.19 23.72 24.82 25.89 26.80 35.86 35.28 35.18
35.50 36.96 37.90 37.56 36.40 37.12 39.15 39.01 34.30 30.82 28.47 27.28 29.26 31.17 32.10 30.62 34.30 34.29 29.12 27.58 27.40 29.38 33.54 33.94 33.07 33.11 33.09 32.86 30.89 26.58 23.56 20.50 20.83 22.38 24.60 23.55 23.74 24.49 25.24 26.50 27.46 35.42 35.79
35.73 36.12 34.20 34.77 37.23 34.79 38.04 36.63 32.06 28.88 27.07 27.54 28.32 29.66 35.42 33.33 36.21 34.42 28.23 26.19 24.59 25.32 27.04 26.40 25.81 27.19 27.84 27.55 30.85 25.77 23.45 14.33 17.00 18.08 24.12 21.09 23.56 23.62 19.45 25.61 27.03 27.21 27.31

GFSMA_sfc_wetblb_075.txt.gz
Wetbulb
61.99 62.09 61.62 61.01 60.77 60.79 60.66 59.52 59.64 59.63 59.60 59.68 59.00 56.85 56.47 55.03 54.53 54.44 54.15 58.67 63.51 65.52 65.28 65.54 68.11 68.09 67.50 66.32 65.24 63.99 62.87 61.55 60.92 60.53 59.88 59.42 59.59 60.26 60.61 60.66 60.75 60.61 60.71
61.94 61.81 61.03 60.58 59.94 60.16 60.86 60.21 60.23 60.24 59.86 58.53 59.13 58.71 58.24 57.89 57.47 56.68 57.17 57.26 61.05 64.22 65.82 65.34 66.30 67.69 68.33 67.93 67.53 66.10 64.68 63.97 62.94 61.93 61.16 60.32 59.58 59.43 59.59 59.57 60.01 60.22 60.13
60.50 60.47 58.92 57.91 59.91 59.56 60.11 59.94 57.78 58.12 58.44 59.95 59.86 60.42 60.52 60.29 60.31 59.95 59.02 58.52 58.34 61.35 63.91 65.33 66.17 66.49 66.82 67.32 67.54 67.04 66.36 65.70 64.81 63.92 62.82 62.03 61.05 59.80 59.57 59.51 60.01 60.09 60.20
60.95 60.85 60.74 58.94 57.90 57.36 57.12 57.10 57.23 57.90 58.82 59.11 59.31 60.30 60.70 60.89 61.18 61.80 62.20 61.55 60.71 59.95 60.92 63.51 65.80 67.43 67.68 66.91 66.84 66.88 66.74 66.18 65.53 65.46 64.58 63.27 62.54 61.45 60.50 59.95 60.15 60.34 60.20
62.95 62.47 61.72 61.25 60.35 59.26 58.25 57.88 58.51 59.42 59.18 59.81 61.01 61.30 62.31 62.44 62.94 62.96 62.43 62.02 62.11 61.61 60.40 60.85 62.54 63.85 65.56 65.72 65.52 65.85 65.64 65.70 65.17 65.10 65.24 64.91 63.70 62.97 62.07 61.02 60.23 60.26 60.32
63.67 62.72 62.14 61.66 61.33 61.10 60.83 60.47 60.30 61.26 61.68 62.34 62.29 62.48 62.25 61.16 60.71 60.64 60.89 61.18 60.61 61.18 61.03 60.62 59.49 60.00 62.32 63.76 64.22 64.65 65.13 65.00 64.80 64.08 64.27 64.57 64.75 64.35 63.43 62.77 61.60 60.84 60.56
64.05 62.77 62.41 62.30 62.08 61.61 61.81 62.23 62.84 62.28 62.23 62.64 61.59 60.44 58.65 59.30 59.66 60.04 59.57 59.47 59.60 60.22 59.55 58.82 57.93 58.54 58.53 62.41 62.69 62.88 63.50 63.88 62.70 62.34 62.24 62.81 63.67 64.30 64.62 64.24 63.45 62.27 61.36
64.62 63.59 62.65 62.39 62.63 62.40 63.01 63.05 62.91 62.34 62.36 62.30 59.87 56.37 53.97 55.39 56.44 56.15 55.74 56.70 56.56 55.96 56.85 56.85 56.59 56.85 56.23 56.49 57.06 59.38 60.10 60.34 60.90 61.24 61.30 61.50 61.80 62.35 63.28 64.53 64.42 63.86 62.75
64.69 64.50 64.11 63.19 62.97 64.06 63.41 63.67 63.50 62.65 61.05 59.79 61.13 59.02 54.83 50.93 53.38 56.21 55.37 55.57 54.40 53.82 53.24 53.27 53.56 54.08 53.70 52.74 53.30 55.12 58.32 59.35 60.21 60.86 60.83 60.68 60.95 61.49 61.95 62.59 63.02 63.46 64.22
64.25 64.86 64.30 64.36 64.64 64.30 63.51 62.94 62.50 62.02 59.80 57.38 56.30 57.63 56.64 57.44 55.18 51.61 53.67 54.00 53.89 52.45 51.71 51.73 51.43 52.41 51.13 51.14 54.21 55.96 57.45 58.63 59.24 59.73 59.74 59.37 60.04 61.20 61.44 61.57 61.51 61.53 61.93
60.96 60.98 60.98 60.65 60.31 59.94 59.63 59.69 59.19 58.29 56.90 56.00 54.63 53.64 52.41 51.67 53.17 53.49 50.30 50.72 52.33 53.00 52.15 50.80 50.03 48.60 49.90 51.00 51.57 54.00 56.34 57.08 57.98 58.26 58.52 58.19 58.20 58.42 59.39 59.96 60.26 60.17 60.25
58.77 59.11 58.38 57.53 57.21 56.71 56.68 56.70 55.75 53.92 52.92 52.62 52.90 52.19 51.86 50.20 48.59 48.33 48.44 48.43 48.85 49.96 50.07 48.98 47.52 47.15 49.23 50.65 52.13 53.56 54.29 54.91 55.68 56.21 56.89 56.61 56.75 56.88 56.91 57.57 57.79 58.10 58.59
55.96 56.71 56.61 55.95 54.55 54.07 54.14 53.73 52.57 51.40 51.47 51.36 51.44 51.81 51.90 51.53 51.28 50.03 48.86 47.96 48.11 48.97 46.72 46.20 46.42 46.14 47.72 49.05 49.60 50.35 51.54 52.39 53.03 53.91 54.84 54.68 54.29 54.90 56.18 54.75 55.88 57.02 57.57
55.33 55.30 54.11 52.60 52.01 51.99 51.76 50.95 50.54 49.79 49.26 49.25 49.07 49.76 50.71 51.30 51.39 51.82 52.33 49.73 49.23 49.59 48.88 44.42 44.45 45.55 47.22 47.52 48.39 48.08 48.46 50.40 50.56 51.29 51.49 51.45 52.60 53.58 55.99 53.64 55.29 55.88 56.04
54.10 53.02 51.70 50.86 49.99 49.44 48.71 48.43 48.12 47.79 47.99 48.59 49.57 49.52 50.17 49.84 50.29 50.63 51.48 52.22 51.29 47.37 48.66 45.68 43.31 44.85 45.49 45.75 46.19 46.00 46.18 48.24 48.74 49.40 49.42 50.33 50.79 51.50 53.02 54.65 55.55 56.06 56.58
51.96 50.75 49.34 48.71 48.11 47.68 46.71 46.35 46.12 47.06 47.91 47.78 48.45 47.51 46.61 46.70 46.83 48.90 49.27 51.20 51.78 51.24 47.82 46.33 44.14 44.15 44.66 44.79 45.45 44.30 44.02 45.19 46.55 47.32 47.89 48.08 48.62 50.17 50.87 51.43 51.97 52.73 53.27
47.46 47.78 47.49 46.83 45.94 45.30 44.36 43.69 44.00 44.63 45.64 45.40 45.18 45.02 45.47 46.18 45.80 46.40 47.35 48.28 48.13 47.24 48.20 42.30 43.13 43.10 42.08 42.35 42.44 42.89 42.85 42.64 42.56 44.97 45.79 46.43 46.30 46.92 48.54 49.23 49.94 49.99 50.38
46.13 46.00 45.64 44.42 43.67 43.25 42.66 42.18 42.34 43.65 44.41 44.07 44.63 44.61 44.82 45.87 44.18 43.83 45.40 45.05 44.10 43.29 45.17 41.91 41.24 40.50 39.59 39.61 39.72 40.43 41.51 40.99 39.43 41.67 43.78 43.96 44.41 45.90 46.95 46.62 46.45 47.20 47.76
44.17 43.04 42.91 42.47 42.09 41.73 41.34 40.78 40.93 41.43 40.90 40.66 40.93 42.62 42.23 42.76 42.61 42.40 42.94 42.74 42.20 41.79 41.21 41.17 37.91 39.16 37.94 38.18 38.28 38.30 38.59 35.36 36.21 38.41 40.34 41.04 42.31 42.53 43.75 43.63 43.14 43.54 43.66
41.67 41.14 41.03 40.75 40.30 39.56 39.16 38.75 38.98 38.30 37.64 37.84 38.01 38.12 40.54 41.30 41.46 41.02 41.26 41.09 41.07 40.33 40.50 39.75 38.28 37.17 37.00 36.97 37.08 34.04 35.18 32.00 31.01 32.22 34.10 36.06 37.81 39.88 40.98 40.84 39.72 39.20 39.42
40.71 40.23 39.18 38.71 38.60 38.69 39.14 37.92 38.27 37.90 38.52 39.74 39.61 39.54 39.74 40.73 42.05 41.59 40.42 39.68 39.84 38.71 37.42 36.93 36.22 36.39 36.00 34.99 33.03 31.37 31.16 28.88 28.67 27.62 27.43 26.92 27.20 27.20 31.13 34.44 34.87 36.99 37.50
38.48 38.19 37.76 37.98 37.50 39.55 42.20 43.52 42.11 40.53 40.82 39.97 38.56 38.24 38.98 40.34 40.88 41.32 40.40 39.94 39.21 37.60 36.34 36.03 35.29 35.10 33.52 31.72 29.48 28.71 27.61 24.87 25.24 27.16 25.21 24.79 25.63 25.21 26.29 26.85 35.31 36.48 37.27
36.30 36.22 36.15 36.71 36.60 36.98 42.09 43.12 43.14 40.56 39.19 37.88 36.58 35.25 35.26 36.10 33.90 32.08 36.82 36.96 37.92 38.80 37.70 35.43 34.02 30.30 28.98 29.38 27.81 26.22 26.31 25.82 24.55 26.22 25.38 22.59 25.02 25.15 26.58 28.91 35.17 35.97 36.49
35.15 34.69 34.79 35.38 35.51 37.08 41.83 43.18 42.60 36.08 34.59 34.03 34.19 33.40 33.06 31.06 29.10 29.81 28.80 28.97 28.50 29.23 29.73 30.50 29.19 28.03 28.61 28.47 28.66 28.53 27.67 25.98 26.26 25.92 24.73 20.41 23.96 24.89 26.11 26.86 34.59 35.64 35.73
33.66 33.70 34.41 34.32 34.03 34.36 40.88 42.19 37.94 33.76 33.67 33.44 32.57 31.94 30.90 27.79 31.76 34.83 29.19 28.86 28.38 29.94 34.52 35.21 35.02 35.61 35.17 34.57 31.82 28.09 25.29 23.57 23.27 23.55 25.04 23.86 24.00 24.78 25.69 26.62 27.24 35.78 35.57
34.23 33.09 33.99 33.34 36.32 35.20 40.68 41.17 38.26 33.93 32.83 32.38 31.54 31.06 34.80 30.25 34.63 35.68 28.29 27.39 26.56 27.15 28.03 27.37 26.78 28.00 27.05 29.37 33.47 26.55 25.85 19.25 21.59 20.71 24.92 23.00 24.32 23.91 20.99 25.38 26.60 26.12 26.35

GFSMA_sfc_wetblb_078.txt.gz
Wetbulb
61.55 61.69 61.43 61.02 60.40 60.04 59.81 58.11 58.57 58.77 58.47 58.87 59.01 57.59 56.87 56.23 54.53 54.55 54.30 58.62 60.71 64.50 65.16 65.45 67.20 68.34 67.75 67.15 66.02 64.78 63.63 62.46 61.65 61.10 60.36 59.61 59.61 60.28 60.65 60.70 60.74 60.67 60.71
61.75 61.66 61.21 60.43 59.72 59.68 60.13 59.22 59.36 59.54 59.24 58.53 58.39 58.87 58.40 58.08 57.65 57.40 56.98 57.18 61.07 62.75 65.10 65.34 65.97 67.16 68.34 68.02 67.64 67.16 65.94 65.09 64.10 62.98 62.21 61.10 60.21 59.72 59.75 59.93 60.10 60.36 60.23
61.24 61.92 61.31 60.18 59.96 59.51 59.77 59.47 58.40 57.77 58.20 58.55 58.79 60.04 60.14 59.99 60.12 60.22 59.79 58.93 59.07 60.88 62.96 64.86 65.62 66.40 67.27 67.49 67.48 66.98 66.65 66.17 65.77 65.14 63.93 63.02 62.09 60.88 60.01 59.90 59.96 60.37 60.06
60.65 60.57 60.15 58.77 58.25 59.30 58.77 58.36 58.21 56.47 57.29 58.42 58.66 59.61 60.11 60.50 60.84 60.73 61.53 61.31 60.11 59.92 61.39 63.77 65.21 66.18 67.28 67.28 67.15 66.90 66.46 66.53 65.79 65.92 65.80 64.62 63.49 62.51 61.37 60.68 60.15 60.69 60.26
60.50 60.27 60.22 60.33 58.88 57.45 56.54 56.55 56.49 57.65 57.85 58.50 59.36 60.23 60.71 61.27 61.46 61.90 60.74 60.78 60.89 60.80 60.55 61.47 62.40 63.27 65.08 66.88 66.15 65.87 65.46 65.45 64.80 64.94 65.31 64.98 64.97 64.06 63.22 62.14 61.06 60.58 60.69
61.73 61.16 61.57 61.15 60.48 59.08 58.57 58.13 57.58 58.84 59.67 60.61 61.58 61.52 61.80 60.75 60.36 59.87 59.96 60.60 60.03 60.45 60.72 60.55 59.98 60.03 62.11 65.12 64.35 64.48 64.42 64.50 64.56 64.23 64.03 63.92 64.26 64.76 64.87 63.95 62.84 61.67 60.99
64.16 62.93 62.25 61.44 60.77 60.63 60.76 60.43 60.12 60.48 61.65 62.39 61.57 59.70 57.46 58.16 58.43 58.85 57.95 57.93 58.43 59.32 59.01 58.75 58.01 57.57 59.49 62.71 62.87 62.97 63.74 62.91 62.52 62.12 62.09 62.42 62.60 63.45 63.94 64.74 64.59 63.46 62.29
65.00 63.90 63.18 62.44 61.74 61.32 61.13 61.50 62.04 61.78 61.98 62.23 60.44 56.46 53.25 55.07 55.36 55.75 55.31 55.60 54.93 55.12 56.34 56.31 56.27 55.71 55.72 56.35 58.29 60.28 60.72 60.80 61.16 61.15 60.99 61.19 61.53 62.05 62.52 62.92 63.80 64.36 63.68
64.76 64.50 63.73 62.80 62.27 62.79 62.60 62.41 62.60 62.29 61.11 60.51 60.14 57.14 52.34 50.06 51.69 55.48 54.49 54.53 53.76 53.05 52.84 53.13 54.22 54.40 53.54 53.03 53.92 56.62 59.57 60.07 60.45 60.54 60.46 60.24 60.63 61.62 62.10 62.21 62.78 62.61 62.26
63.28 63.61 63.51 63.10 63.10 63.90 63.43 62.59 62.09 62.07 61.38 59.50 57.00 57.28 57.70 57.47 54.06 50.58 53.27 53.79 53.82 52.09 50.90 51.04 51.20 51.21 51.10 52.21 55.08 56.29 58.01 59.40 59.42 59.56 59.49 59.36 59.41 60.00 60.35 60.79 61.01 61.31 60.61
60.67 61.40 62.06 61.99 61.83 61.33 60.51 60.00 59.19 58.51 57.91 57.42 56.02 53.72 51.88 50.94 53.21 53.05 48.20 48.75 51.16 51.39 50.98 49.99 49.55 48.17 49.64 50.74 51.18 55.01 57.16 58.18 58.38 58.31 58.19 58.09 57.93 57.86 58.24 58.88 59.34 59.65 59.33
60.06 59.88 59.99 60.71 60.60 59.38 58.44 58.05 57.22 56.32 55.71 54.56 53.26 52.37 51.75 49.55 47.65 47.28 48.90 48.47 47.32 49.32 48.84 48.74 47.80 47.01 48.34 49.47 52.71 54.36 55.22 55.81 56.17 56.25 56.63 56.26 55.86 56.02 56.80 57.47 57.61 57.49 57.81
56.94 57.71 57.78 57.88 56.87 54.99 54.79 54.48 53.91 53.15 52.90 52.40 52.09 51.59 51.45 51.14 50.90 49.69 49.05 47.78 46.92 48.14 46.81 45.51 45.84 45.75 47.99 48.93 49.95 50.81 52.50 53.09 53.63 54.25 54.80 54.46 53.86 54.30 56.20 55.50 55.17 55.96 56.75
58.43 57.65 56.21 54.37 52.90 53.02 52.66 52.01 51.30 50.43 50.18 49.62 49.17 49.14 50.05 50.47 50.35 50.22 51.93 50.06 47.94 49.43 48.92 47.12 46.03 45.69 47.92 47.95 48.94 49.30 49.58 50.84 51.15 51.77 52.10 51.91 51.74 52.41 54.76 55.55 55.44 55.90 56.08
56.58 55.82 53.97 52.19 51.48 50.93 50.14 49.51 48.64 47.78 47.81 47.49 47.87 48.32 48.87 49.73 50.46 49.37 50.41 51.17 49.08 45.13 46.81 45.24 45.00 44.79 46.17 45.22 46.46 46.39 46.88 48.86 49.11 49.42 49.13 50.25 50.45 50.47 52.30 53.73 54.65 54.83 55.27
52.68 51.08 50.17 49.82 48.96 48.60 47.99 47.30 46.37 46.49 46.56 46.87 47.80 47.60 47.21 47.04 46.99 47.19 49.33 49.71 50.06 48.39 45.35 46.25 44.32 44.10 45.12 45.29 45.88 44.72 45.20 45.79 46.70 47.22 47.76 47.93 48.16 49.01 50.67 51.51 52.06 52.43 53.42
50.80 49.26 48.71 47.45 46.79 46.06 45.72 45.53 44.84 44.66 45.18 45.06 44.70 44.60 45.18 45.36 45.53 45.58 47.84 47.37 46.56 47.66 47.21 42.82 43.44 43.41 42.94 43.29 42.98 43.12 43.34 42.77 42.81 44.90 45.73 46.31 46.30 46.77 48.05 48.64 49.80 50.43 50.89
47.13 46.97 46.43 45.49 44.54 44.32 43.04 42.54 42.14 42.33 43.15 43.19 43.43 43.40 43.53 45.36 43.25 43.24 43.35 43.38 44.26 44.12 44.91 42.76 41.37 40.64 40.12 40.57 40.69 41.04 41.68 40.87 39.69 41.62 43.98 44.06 44.77 45.99 46.05 45.61 46.18 46.76 47.49
44.08 44.22 43.78 43.11 42.20 41.94 40.91 40.11 40.24 40.19 39.91 39.30 39.57 40.13 41.30 41.14 40.52 40.97 42.73 43.18 42.68 42.23 41.89 41.66 38.43 39.41 38.35 38.71 38.65 38.87 38.69 37.16 35.32 38.31 40.35 42.12 42.91 43.04 44.24 43.73 42.70 43.00 43.52
42.09 41.47 41.30 40.85 40.33 39.47 39.00 38.65 38.56 37.78 37.08 37.27 37.49 37.57 39.22 41.65 42.11 41.75 41.64 41.73 41.57 40.40 40.73 40.35 39.01 37.62 37.39 37.49 37.60 35.26 35.56 33.90 31.19 32.19 34.36 35.91 37.47 39.56 41.46 40.76 39.33 38.89 39.36
40.52 40.09 39.17 38.62 38.36 38.50 38.89 37.80 38.22 37.71 37.33 38.79 39.93 39.71 40.15 41.01 42.30 42.07 40.89 40.35 40.26 39.42 37.88 37.27 36.61 36.75 36.15 35.29 34.58 34.09 32.96 30.16 28.08 28.26 28.36 27.87 28.19 28.16 31.23 33.12 35.22 37.66 38.32
38.34 38.02 37.66 37.72 37.27 39.47 42.54 43.37 40.92 37.94 38.98 40.38 39.49 38.88 39.99 41.06 41.30 41.89 41.11 40.68 39.81 38.12 36.84 36.28 35.94 35.80 35.47 34.30 31.91 31.05 27.11 23.87 24.95 27.57 26.48 26.11 26.40 25.90 26.84 28.87 35.80 36.93 37.76
36.51 36.44 36.27 36.67 36.37 36.68 42.24 43.19 43.22 38.53 37.18 38.39 37.39 36.29 36.17 37.14 35.01 34.49 37.37 37.39 38.33 38.40 38.35 36.41 35.10 34.05 32.96 31.69 28.99 26.05 26.41 26.47 25.75 26.93 25.96 24.38 25.61 25.55 27.19 28.86 35.21 36.32 36.76
35.43 34.89 34.99 35.40 35.39 36.71 41.90 42.70 42.83 36.72 34.03 34.24 34.92 34.43 34.26 32.70 32.25 31.99 28.95 28.44 27.95 29.51 29.19 30.30 30.54 29.87 29.40 29.84 29.47 28.80 27.98 26.68 26.14 26.20 25.67 21.75 24.24 25.18 26.53 27.11 34.55 36.06 36.09
33.72 33.80 34.27 34.22 33.92 34.17 41.23 42.38 38.83 33.76 34.00 33.90 33.78 33.94 33.42 32.10 33.60 35.62 28.76 27.74 27.60 28.67 34.93 36.16 35.95 35.76 35.36 34.57 31.54 28.00 26.51 23.63 23.91 24.35 25.45 24.15 24.10 24.70 25.63 26.89 28.23 36.17 35.88
34.03 32.78 33.97 33.69 35.77 31.96 39.75 42.06 39.02 34.67 33.51 33.73 33.12 32.20 35.78 30.99 33.72 36.48 27.02 26.11 25.42 26.34 27.35 27.57 26.83 27.08 28.44 31.31 34.16 27.66 27.71 24.62 23.58 22.63 25.26 24.03 24.75 24.44 22.77 26.28 27.57 27.57 28.09

GFSMA_sfc_wetblb_081.txt.gz
Wetbulb
64.99 65.00 64.85 65.12 65.06 65.13 64.62 63.54 63.48 63.15 63.11 63.55 64.14 63.66 63.32 63.24 62.85 62.41 62.78 59.22 60.59 63.06 65.41 65.76 65.93 68.08 68.24 67.51 66.75 65.56 64.62 63.68 62.46 61.86 61.22 60.31 59.85 60.29 60.74 60.80 60.96 60.92 61.13
65.63 65.13 65.35 65.07 64.79 64.62 64.40 63.56 63.01 64.06 64.50 64.47 63.65 63.50 64.06 64.15 64.08 63.67 64.22 64.02 61.16 62.65 64.41 65.79 66.15 66.75 67.66 68.34 67.84 67.57 66.88 65.94 65.21 64.11 63.57 62.50 61.24 60.39 60.11 60.06 60.18 60.61 60.45
66.00 65.55 65.44 65.19 64.81 64.17 63.54 63.69 63.35 63.32 63.16 63.25 62.83 63.70 64.79 65.13 64.81 65.00 65.61 65.26 64.65 61.41 62.64 65.19 66.29 66.61 66.97 67.73 68.00 66.91 66.70 66.78 66.55 66.12 65.26 64.29 63.21 62.06 61.15 60.61 60.18 60.49 60.23
65.72 65.40 65.00 65.12 64.71 63.54 63.27 63.65 63.62 62.43 61.52 61.93 63.36 64.26 64.30 64.94 65.46 65.50 65.59 65.34 65.43 64.91 63.93 63.60 65.11 66.42 67.25 67.47 67.84 67.14 65.56 66.20 66.47 65.89 65.93 65.75 64.68 63.74 62.64 61.62 60.92 60.65 60.61
65.38 64.80 64.47 64.69 63.52 62.29 62.51 62.51 61.80 61.77 61.12 61.92 62.72 63.85 64.74 64.84 65.22 64.94 65.57 65.24 64.97 65.27 65.84 63.85 62.58 63.47 64.93 65.80 66.58 66.83 65.07 64.81 64.92 64.81 64.86 65.29 65.34 65.15 64.42 63.43 62.23 61.30 61.14
64.24 63.86 63.50 63.77 63.24 61.88 61.38 60.53 60.29 60.82 62.17 63.21 62.63 63.58 64.94 65.12 65.15 65.14 64.72 64.11 64.46 64.35 64.84 65.14 65.38 64.76 61.60 63.51 65.55 64.58 64.22 64.73 64.39 64.06 63.60 63.32 63.93 64.28 65.07 64.95 64.16 62.91 62.07
64.64 63.48 63.38 62.86 63.19 62.60 61.61 61.27 61.00 61.20 62.14 63.31 63.04 63.67 63.16 63.45 63.45 63.33 63.27 62.64 62.31 62.41 63.08 63.61 63.99 64.12 64.08 63.17 63.68 63.39 64.28 63.76 62.93 62.16 61.88 61.97 62.12 62.30 62.75 63.17 64.15 64.65 63.42
65.55 64.91 64.17 62.78 63.23 63.58 63.14 62.89 63.08 63.19 63.01 63.67 62.83 59.98 58.79 60.32 61.28 61.58 61.61 60.73 60.51 60.69 61.16 60.66 61.87 61.87 62.69 62.47 61.15 62.14 61.96 61.48 61.66 61.70 61.35 60.97 60.84 61.60 62.27 62.91 63.45 63.85 64.49
65.42 65.00 64.85 64.86 64.04 64.04 63.41 64.14 64.31 63.62 62.28 61.93 62.46 60.93 56.36 55.67 57.47 60.78 60.08 60.09 59.59 59.44 59.00 58.74 58.66 58.79 58.46 56.98 56.59 58.30 60.24 60.69 60.70 60.93 60.52 59.67 60.39 60.70 61.05 61.39 61.99 62.31 62.39
64.16 64.38 64.39 64.20 63.99 63.44 63.46 63.49 64.42 63.98 63.51 62.51 61.55 61.48 62.01 61.05 56.89 55.19 57.91 58.41 58.43 57.51 57.02 57.02 57.13 55.69 54.89 55.96 56.25 56.87 58.61 60.04 59.76 59.64 59.75 59.62 59.10 59.00 59.32 59.47 60.43 61.03 60.61
63.20 63.56 63.85 63.48 62.67 61.95 61.43 61.28 62.36 61.09 61.59 61.07 60.83 59.50 59.00 58.37 57.58 54.82 51.58 54.15 56.73 57.15 56.70 55.54 55.72 54.54 54.20 55.41 56.61 56.70 57.72 59.14 58.82 58.63 58.13 57.87 57.70 57.94 58.21 58.92 59.09 59.44 59.56
61.58 62.59 63.07 62.73 61.74 61.18 60.47 59.75 58.89 58.46 58.81 58.42 57.82 56.67 56.10 54.83 53.45 53.43 51.93 52.55 52.16 54.55 54.70 54.63 53.32 53.41 52.58 53.71 54.35 54.76 55.80 56.52 56.38 56.71 56.98 56.74 55.88 55.66 56.43 58.19 58.50 58.32 58.19
60.61 61.17 61.70 61.88 60.81 60.30 59.95 58.76 57.64 56.83 55.96 54.90 54.61 54.36 55.61 55.42 55.42 54.29 52.78 51.47 50.54 52.81 53.58 52.29 52.13 51.99 51.68 53.17 53.62 52.04 53.20 53.96 54.46 55.15 55.63 54.90 53.57 53.94 56.01 57.09 55.39 56.32 56.87
61.06 61.03 60.54 59.37 57.61 57.34 56.83 55.99 54.73 54.22 54.22 54.50 53.73 53.58 53.69 54.09 54.43 54.58 53.12 51.25 49.01 50.15 51.85 52.82 50.84 50.64 50.04 50.71 50.60 50.37 51.20 51.49 52.10 52.34 52.86 52.34 51.69 52.11 54.35 56.43 56.60 56.54 57.26
58.54 59.26 58.86 57.58 55.54 54.57 52.70 51.89 51.38 51.40 51.69 51.70 51.86 52.20 52.14 52.77 53.40 54.14 53.88 53.66 50.80 45.91 46.58 50.92 48.84 48.61 50.17 49.58 48.64 47.97 49.53 49.37 49.89 49.78 49.56 49.69 50.06 50.76 51.78 53.18 53.81 54.60 55.49
56.98 56.09 53.50 52.47 51.34 50.97 50.89 50.12 49.96 49.77 49.97 50.19 50.78 51.16 51.47 52.03 51.97 51.80 52.08 52.26 51.54 49.33 45.64 50.12 47.26 46.90 47.85 46.78 47.24 46.36 46.54 46.65 47.22 48.00 48.10 48.04 48.13 49.00 50.34 51.31 51.91 52.55 53.18
53.98 52.96 52.09 50.71 49.73 49.07 49.18 49.03 48.44 47.57 47.92 48.48 48.88 48.95 48.86 49.49 49.79 50.06 50.81 50.86 49.97 50.16 46.99 45.74 45.53 45.30 45.04 44.85 44.46 44.29 44.31 43.67 43.70 45.34 45.97 46.38 46.52 47.13 47.92 48.78 49.57 50.05 50.59
52.02 52.28 50.91 49.17 47.95 47.35 46.88 46.83 46.02 46.20 46.84 46.79 46.76 46.91 47.06 47.11 48.08 48.52 48.88 48.22 47.41 48.14 47.20 46.18 43.72 42.11 41.95 42.39 42.23 42.19 42.13 41.22 40.61 41.69 44.40 44.41 45.42 45.80 45.65 45.52 46.32 46.86 47.40
48.56 47.86 47.67 46.67 45.45 44.66 43.63 43.50 43.41 43.10 43.38 43.15 43.38 43.88 45.07 45.77 45.81 45.82 46.17 46.23 46.59 45.13 45.08 45.03 42.30 41.97 41.06 40.52 40.00 40.07 39.37 38.22 36.40 39.23 41.08 43.17 43.42 43.93 44.40 43.14 42.33 42.77 43.73
45.13 44.95 44.85 43.87 43.25 42.52 42.32 42.12 42.01 41.96 41.76 41.72 41.82 42.15 42.82 44.04 44.59 44.41 43.68 43.86 43.57 42.83 42.52 42.35 41.46 39.87 39.31 39.00 39.19 36.98 36.70 36.38 34.53 35.81 36.45 37.09 38.03 40.30 42.18 40.06 39.36 39.38 39.85
44.03 43.61 42.81 42.41 42.15 42.02 41.39 41.67 41.69 41.75 41.75 41.65 41.89 42.05 42.13 42.16 42.62 43.12 42.58 42.37 42.05 41.44 41.04 40.16 39.12 38.71 37.58 36.41 36.21 36.29 36.06 33.76 32.73 35.28 35.41 35.15 34.97 34.71 37.26 35.36 36.71 38.31 39.40
42.19 42.02 41.92 41.71 41.42 41.19 43.09 42.99 42.16 41.81 41.63 41.77 41.80 41.39 41.58 42.29 42.44 42.64 42.04 41.56 41.23 39.81 38.79 38.64 38.58 37.59 37.63 37.16 34.85 34.32 32.82 32.14 35.06 33.52 32.98 33.02 32.96 32.81 33.03 35.29 36.53 37.40 37.91
40.93 41.10 40.78 40.82 40.72 41.72 44.19 44.55 43.94 41.79 40.97 40.75 40.40 39.72 38.21 38.64 37.69 38.18 39.52 39.03 38.99 38.23 38.90 38.86 37.33 37.13 35.71 35.41 33.59 31.11 32.29 33.27 30.87 31.01 31.69 30.63 31.02 31.38 32.45 32.85 35.92 36.77 37.23
40.36 39.94 39.67 39.91 40.34 40.16 43.35 43.93 43.85 41.86 39.03 36.36 36.95 36.86 36.80 34.98 34.69 34.39 32.94 33.01 32.76 34.16 33.62 34.23 36.48 35.52 35.37 35.31 35.51 35.06 34.16 31.82 30.51 30.38 30.43 28.83 30.18 30.51 32.20 33.35 34.66 36.53 36.55
38.74 38.50 38.42 38.40 38.45 38.98 42.56 43.28 40.85 36.46 36.55 36.36 37.42 37.30 36.44 34.97 36.18 36.69 32.48 31.38 31.67 33.06 36.14 36.51 35.51 35.43 35.40 34.93 33.99 32.96 30.97 29.18 27.46 28.75 29.59 29.27 28.94 29.54 30.72 31.83 33.63 36.58 36.28
37.50 37.58 36.35 36.53 38.08 37.83 40.89 42.74 40.77 37.31 35.70 35.56 35.63 35.02 37.42 34.59 36.91 37.80 32.13 31.44 30.07 30.79 31.61 31.77 31.98 31.12 32.83 35.69 34.02 32.42 31.90 30.13 28.99 27.56 28.97 28.90 28.25 28.63 28.27 30.43 31.55 32.16 32.49

GFSMA_sfc_wetblb_084.txt.gz
Wetbulb
66.43 66.54 66.03 66.21 65.79 65.97 65.24 64.65 64.56 64.09 63.96 64.69 65.77 65.69 65.55 66.07 66.23 66.40 66.77 60.47 60.83 62.86 65.11 66.30 66.65 67.29 68.85 67.84 67.20 66.44 65.39 64.61 63.63 63.13 62.39 61.39 60.30 60.39 60.85 60.75 60.87 61.06 61.12
66.04 65.27 64.50 65.04 65.66 65.94 65.39 64.39 63.82 64.09 64.72 66.07 66.28 66.50 66.60 66.81 67.10 67.11 67.66 67.49 62.05 62.77 64.51 66.14 66.79 67.01 67.61 68.65 68.43 68.03 67.23 66.43 65.91 65.08 64.46 63.71 62.38 61.39 60.96 60.54 60.13 60.51 60.39
67.27 66.62 66.35 67.06 67.04 66.84 65.49 64.79 63.86 65.97 66.24 66.14 65.80 66.21 66.89 67.41 67.31 67.41 67.70 67.91 67.30 61.78 63.10 65.60 66.66 67.17 67.27 67.79 68.44 67.72 67.61 67.24 66.99 66.72 66.12 65.38 64.38 63.23 62.25 61.57 60.62 60.48 60.56
67.58 67.50 67.76 67.66 67.76 66.64 65.95 65.51 65.15 65.17 64.94 64.79 64.84 66.03 66.42 66.97 67.23 67.16 67.37 67.41 67.24 67.24 65.46 64.41 65.49 66.53 67.21 67.55 68.40 67.68 66.60 66.72 66.17 66.23 66.18 66.29 65.91 64.90 64.03 62.91 61.90 61.18 61.34
68.20 67.58 67.07 67.28 67.84 66.20 65.53 65.25 65.27 64.96 63.92 63.88 64.25 65.77 66.65 66.68 66.71 66.49 66.38 66.77 67.10 66.98 67.09 65.24 63.43 63.38 64.72 65.95 66.89 67.20 65.82 65.74 65.68 65.10 64.71 64.55 65.16 65.55 65.40 64.78 63.64 62.50 61.95
68.84 67.87 66.44 66.84 67.02 65.87 64.83 64.99 64.12 64.55 64.05 64.38 64.53 64.75 66.21 66.47 66.51 66.46 66.19 66.01 66.10 66.10 65.89 65.92 66.59 66.00 62.33 63.49 65.41 66.35 65.03 64.89 64.90 64.36 63.71 62.96 63.12 63.50 63.97 65.02 64.81 64.46 63.27
66.66 66.95 66.08 66.56 66.43 65.57 65.48 65.15 64.43 63.48 63.53 65.55 64.91 63.44 64.55 65.64 65.38 65.23 65.40 64.79 64.50 64.28 64.88 65.46 66.19 66.36 65.87 63.04 64.54 64.59 64.61 65.31 63.70 62.58 62.03 61.86 61.76 61.96 62.40 62.74 63.18 64.06 64.74
67.08 66.68 66.28 66.24 66.16 64.80 66.35 65.29 64.26 63.93 64.72 65.74 62.82 63.43 59.14 61.57 63.47 63.37 64.36 63.68 63.38 63.82 64.02 63.30 63.86 64.17 65.34 66.10 63.64 63.88 64.11 63.19 62.71 62.19 61.44 61.10 60.78 61.54 61.94 62.30 62.67 63.22 63.37
66.34 66.92 66.84 65.93 65.33 64.91 66.04 65.92 65.67 65.14 64.28 64.47 64.57 62.44 58.44 56.59 60.12 62.46 62.43 62.73 62.05 62.68 62.82 62.34 62.15 62.25 62.79 62.34 60.72 59.90 60.51 61.48 61.34 61.67 61.01 59.80 60.11 60.11 60.58 61.14 61.25 61.93 62.39
66.30 65.87 65.46 64.92 64.24 63.98 63.38 63.62 64.03 64.14 64.70 62.77 63.50 64.04 64.42 62.50 57.60 55.62 59.93 60.52 61.09 59.29 60.55 61.74 61.16 60.21 60.08 60.62 57.23 57.27 58.67 60.31 60.23 60.32 60.07 59.59 58.92 58.78 59.01 59.28 59.92 60.21 61.19
65.08 64.30 64.07 63.81 63.70 63.84 62.99 61.99 62.07 61.39 61.40 60.44 59.78 60.51 62.71 62.44 61.35 58.59 52.50 54.39 57.78 58.88 59.52 59.21 59.49 59.73 58.70 59.19 60.03 57.76 58.20 58.96 59.40 59.33 58.59 57.90 57.51 57.55 57.69 58.13 58.90 59.32 59.54
63.10 63.32 63.75 63.82 63.28 62.11 61.23 60.42 59.87 59.08 59.86 59.57 59.83 59.94 59.73 57.38 55.79 54.89 53.89 54.15 54.23 56.23 57.80 58.15 57.97 58.26 57.86 57.80 55.26 54.99 56.38 57.26 57.37 57.29 57.07 56.61 55.93 55.84 56.65 58.42 58.65 58.38 58.49
62.35 62.39 63.39 62.91 62.70 62.27 61.95 60.92 59.96 58.95 59.37 59.08 59.56 58.67 57.91 57.19 57.39 55.46 54.64 53.81 52.66 54.65 55.23 56.61 56.68 56.71 55.76 56.75 55.80 52.98 53.85 54.74 55.24 55.44 55.67 55.00 53.81 54.07 55.52 57.71 56.95 56.05 56.79
62.68 63.19 62.82 62.74 63.12 62.98 61.49 60.57 59.88 59.67 58.91 58.37 57.33 56.77 56.76 56.72 56.87 56.25 54.40 52.81 50.67 51.76 52.91 52.91 55.80 55.52 55.56 54.92 52.48 51.21 52.04 52.12 52.87 53.25 53.21 52.41 51.41 51.46 52.72 54.99 56.56 57.15 57.20
63.16 62.75 62.36 62.95 61.97 60.49 59.36 58.91 57.01 54.58 54.82 54.60 55.26 54.87 53.78 54.20 54.61 55.16 55.02 54.45 51.83 48.58 49.42 52.20 52.50 53.28 53.73 52.62 51.03 50.42 51.02 50.18 50.30 49.87 50.00 49.57 49.68 50.83 52.02 52.78 53.53 54.28 54.93
62.30 62.16 61.13 61.33 59.45 58.21 57.83 56.63 53.92 52.66 52.62 53.28 53.22 53.15 53.55 54.29 54.26 54.81 54.57 54.04 53.66 51.94 47.97 51.74 52.58 51.61 50.51 49.09 49.10 48.87 48.30 47.40 47.55 48.24 48.15 47.99 48.07 48.88 49.54 51.13 51.61 52.50 53.40
59.23 59.38 58.64 56.55 55.92 55.23 54.81 53.88 52.57 51.36 51.18 51.79 51.69 52.44 52.37 52.80 53.01 53.43 53.18 51.73 51.43 52.12 48.64 49.31 48.38 47.84 48.56 47.61 45.87 45.70 45.63 44.74 44.59 45.87 46.15 46.46 46.49 47.72 47.85 48.22 48.88 49.42 50.37
57.24 56.65 55.66 54.35 53.52 52.94 52.28 51.13 49.70 49.79 50.05 49.60 50.06 50.44 50.53 50.15 50.87 51.85 51.64 50.16 50.54 51.07 49.43 46.74 46.20 44.82 44.76 44.71 43.92 43.06 42.66 41.52 41.10 42.21 44.73 44.53 45.78 46.04 45.69 45.28 45.32 46.45 47.36
54.18 54.56 54.11 52.78 51.28 49.93 49.97 49.61 48.63 48.26 48.58 49.19 48.89 48.34 48.85 49.07 49.27 49.57 49.77 49.49 49.36 48.02 48.54 47.40 46.59 45.80 44.05 42.82 41.93 41.50 40.25 38.76 37.16 39.92 42.35 43.56 43.95 44.69 44.51 42.72 41.59 42.04 43.39
51.25 51.53 51.47 49.81 48.99 48.84 48.13 47.74 47.64 47.09 46.89 46.90 46.22 46.85 47.39 47.81 48.81 49.00 48.05 47.83 47.59 46.83 46.62 45.66 45.37 43.05 42.04 41.21 41.02 38.99 37.84 37.78 35.41 36.42 37.70 39.16 39.67 41.38 42.32 39.98 39.18 39.45 40.20
49.56 49.61 48.69 48.27 46.92 46.52 46.01 46.30 46.06 46.12 45.89 45.46 45.26 45.79 46.36 45.78 44.21 46.36 46.19 46.40 45.35 44.47 43.89 42.98 41.64 40.65 39.76 38.36 37.87 38.25 37.47 35.84 34.59 35.81 37.04 39.69 39.34 39.27 41.01 37.27 37.64 38.42 39.41
48.07 47.95 47.28 46.89 46.36 44.95 44.45 45.30 46.08 45.92 45.66 45.31 44.45 44.60 44.59 42.41 43.45 44.16 43.72 42.64 43.87 43.21 41.57 40.53 40.47 39.56 39.82 39.24 37.80 36.19 35.22 33.93 34.44 36.73 38.38 38.50 36.67 36.64 36.60 37.82 36.79 37.44 37.74
47.27 46.46 46.62 46.49 45.21 45.59 44.58 44.76 44.59 45.03 44.57 44.42 44.10 43.63 43.18 42.75 42.06 43.10 41.86 41.58 41.14 40.10 40.43 41.33 39.32 39.42 39.10 38.82 37.00 34.69 34.03 34.85 36.35 34.93 35.90 34.43 33.65 33.33 35.10 34.61 36.30 37.01 37.34
46.00 45.70 45.47 45.48 45.42 45.13 45.15 45.24 44.45 44.80 43.42 40.04 39.85 40.43 42.22 40.58 39.31 39.14 37.25 36.18 37.71 38.12 37.87 38.75 40.63 40.48 39.15 38.02 37.84 37.50 37.37 38.03 35.80 34.40 33.83 31.58 32.02 32.67 33.97 35.37 34.82 36.88 36.86
45.26 44.90 45.34 44.45 44.27 44.13 44.34 44.90 44.48 42.47 40.12 38.94 38.86 41.57 42.15 40.47 38.96 38.70 35.64 34.64 35.21 35.73 36.84 36.31 36.00 36.33 36.54 36.86 38.53 37.59 35.48 34.42 32.92 32.23 32.42 31.12 30.47 31.66 32.71 33.92 36.48 37.05 36.49
44.21 44.41 42.22 43.67 43.26 43.55 43.20 44.09 43.11 40.65 38.11 37.90 40.50 40.94 39.81 39.45 39.21 39.24 35.67 36.21 33.81 34.45 35.24 36.13 35.73 36.17 37.09 36.34 34.53 36.32 36.54 34.80 33.23 30.93 32.10 30.47 30.40 31.25 29.85 33.26 34.31 35.40 36.00

GFSMA_sfc_wetblb_087.txt.gz
Wetbulb
66.76 66.62 66.38 66.47 66.38 65.81 65.65 65.16 64.63 63.92 63.21 63.26 63.78 63.94 63.40 64.36 65.37 65.68 66.01 61.50 62.80 63.69 64.94 66.35 66.94 67.13 68.17 68.63 67.56 66.91 65.83 65.08 64.27 63.73 62.99 62.23 61.16 60.65 60.64 60.55 60.81 61.20 61.30
66.63 66.17 65.72 65.75 65.30 65.35 65.00 64.34 63.76 63.45 63.09 63.39 64.34 65.20 65.54 66.29 66.51 66.54 67.04 64.55 63.06 63.92 65.04 66.21 67.17 67.45 67.68 68.29 68.70 68.33 67.58 66.87 66.31 65.62 65.03 64.56 63.49 62.33 61.42 61.01 60.49 60.46 60.82
65.24 64.72 64.31 64.41 64.76 65.23 64.49 64.31 63.36 63.36 63.83 64.59 64.94 65.22 65.64 66.45 66.58 66.49 67.12 67.67 65.62 62.77 64.63 66.25 67.25 67.67 67.87 67.95 68.51 68.54 67.94 67.80 67.34 67.15 66.56 66.09 65.45 64.40 63.45 62.49 61.69 60.82 60.96
66.88 65.93 65.39 65.88 66.70 66.50 65.80 64.12 63.35 62.61 64.35 64.58 64.25 64.72 65.55 66.44 66.42 66.66 66.96 66.90 67.14 66.68 64.81 66.09 66.64 66.78 67.43 68.02 68.37 68.31 67.60 68.11 67.23 66.67 66.34 66.30 66.45 66.01 65.13 64.33 63.13 62.22 61.65
67.98 67.11 67.14 67.31 67.27 66.12 65.16 64.81 64.53 64.08 63.61 63.79 63.78 64.52 65.71 66.00 66.19 66.01 65.62 65.86 66.56 67.04 66.75 65.40 64.65 64.41 65.03 65.98 67.15 67.96 66.98 66.88 66.32 65.94 64.83 64.44 64.59 65.07 65.51 65.15 64.67 63.96 62.97
68.58 68.01 67.02 66.15 66.61 65.99 65.17 64.94 64.10 64.78 64.11 63.72 62.71 63.48 65.66 66.18 66.35 65.72 65.30 65.40 65.73 65.88 65.42 65.29 65.82 65.26 63.21 64.30 65.35 66.79 66.42 66.12 65.43 64.83 64.12 63.19 63.11 63.24 63.24 63.98 64.52 64.37 64.48
68.26 68.38 67.29 65.60 66.12 65.94 65.71 65.15 64.55 63.66 63.39 64.33 63.41 63.13 64.45 65.27 64.98 65.19 65.35 64.74 64.22 64.13 63.65 64.74 65.19 65.39 64.51 63.49 64.13 65.51 65.22 65.72 64.84 63.60 62.81 62.29 61.78 61.69 62.45 62.93 63.44 63.77 63.62
66.86 66.72 66.83 65.82 65.89 65.79 65.74 65.47 65.04 63.38 63.39 64.45 63.26 62.40 59.82 61.01 63.08 63.47 63.56 63.41 62.90 63.25 63.18 63.43 63.02 63.51 64.43 64.49 61.82 63.34 65.01 64.47 63.84 62.97 62.04 61.60 61.03 61.32 61.23 61.68 61.95 62.22 62.66
66.86 67.14 67.01 66.50 66.05 65.55 65.11 65.91 64.73 63.79 62.58 64.95 65.39 62.58 58.34 56.52 59.49 61.96 62.61 62.49 61.68 61.41 62.30 62.54 61.84 62.04 62.44 62.12 60.69 59.68 60.38 62.49 62.23 62.60 62.16 60.75 60.12 59.84 60.07 60.39 60.81 60.88 61.29
66.16 66.48 66.07 66.69 65.94 65.29 63.65 63.13 63.89 64.68 64.25 62.68 64.04 63.75 62.85 62.12 57.62 56.15 60.47 59.95 60.46 58.87 59.87 60.82 60.53 60.37 60.33 60.77 56.17 57.04 58.58 60.45 60.70 61.41 61.09 60.56 59.18 59.23 59.40 59.58 59.76 59.99 60.23
64.27 64.92 65.46 65.11 64.33 64.27 63.39 63.33 62.75 62.11 61.53 60.18 59.47 58.72 58.36 59.19 59.61 57.57 54.17 55.52 57.94 58.56 59.41 59.04 58.78 59.14 59.11 59.22 59.73 56.72 58.09 58.78 59.55 59.94 60.20 58.73 58.02 57.93 58.10 58.78 59.97 59.94 59.47
63.00 63.27 63.87 63.93 63.93 62.99 62.69 61.77 60.56 59.87 59.72 59.83 59.54 58.64 57.17 55.57 56.00 55.74 54.10 53.69 54.04 56.31 57.87 57.97 57.81 57.45 57.68 57.37 54.67 55.10 56.53 58.06 58.37 58.19 57.84 57.51 56.59 56.13 57.08 58.13 59.70 58.07 58.02
61.29 61.74 62.94 63.05 63.13 63.06 62.21 61.10 60.01 59.91 59.73 58.51 58.43 58.23 58.79 58.71 58.29 55.75 54.25 53.65 52.52 54.39 54.62 56.35 56.63 56.35 55.76 56.49 54.87 53.16 54.23 55.51 56.05 56.25 56.55 56.36 54.71 54.02 54.77 56.53 58.31 57.46 57.67
61.66 62.62 62.87 62.60 63.17 62.47 61.81 61.34 60.41 59.82 59.63 59.27 59.44 59.61 58.40 57.40 57.16 56.52 54.95 52.85 50.87 51.79 53.03 53.14 55.04 54.81 55.10 54.25 51.07 51.85 51.89 53.02 53.86 54.60 54.43 53.17 51.89 52.36 53.16 54.53 55.81 56.79 56.72
63.36 63.29 63.22 62.83 62.95 62.31 61.44 60.97 59.34 59.12 59.19 59.00 58.41 56.79 55.57 55.45 55.80 55.60 55.45 54.68 51.76 47.81 48.75 51.24 51.20 52.88 53.35 52.41 50.59 51.63 50.87 50.85 50.95 50.70 50.44 49.63 49.49 50.09 51.44 52.47 53.26 53.79 54.68
63.41 62.40 62.19 62.30 62.35 61.49 60.22 59.90 57.67 57.13 56.45 55.65 55.19 53.98 53.33 53.89 53.84 54.58 54.69 54.17 53.57 51.21 48.64 51.05 51.97 51.48 50.87 49.84 48.69 49.80 48.63 48.18 48.47 48.94 48.48 48.09 47.93 48.53 49.25 50.16 50.90 51.27 51.99
61.79 60.86 60.90 61.03 59.57 58.50 58.57 57.99 56.74 55.36 54.70 53.29 53.11 53.04 52.73 53.25 53.17 53.53 53.58 53.15 52.51 52.36 49.32 50.42 50.13 49.24 49.15 48.94 46.73 46.62 46.26 45.24 45.25 46.10 46.33 46.55 46.68 47.72 47.35 47.40 48.02 48.65 48.91
58.50 59.39 59.38 58.44 57.22 56.46 56.80 56.33 54.94 53.06 52.42 51.39 51.24 51.88 51.92 51.72 51.76 52.35 52.08 51.18 50.65 50.65 49.34 47.81 48.04 46.05 46.40 46.22 44.87 43.70 42.97 42.00 41.45 43.34 45.00 44.99 45.85 46.28 45.72 45.10 44.87 44.81 46.20
55.77 56.55 56.39 55.12 54.19 53.94 53.91 53.51 51.60 50.72 50.84 50.71 50.67 50.04 50.19 50.00 49.29 50.15 50.11 50.13 49.54 49.11 49.57 47.92 45.53 46.23 45.15 43.79 42.54 42.31 41.16 39.79 38.42 41.27 43.18 44.01 44.35 45.31 44.67 42.72 41.82 41.44 42.42
52.66 53.82 54.44 53.94 52.15 50.67 50.69 49.42 49.06 49.09 49.32 48.93 48.51 48.59 48.53 48.48 48.63 49.16 48.64 48.94 48.56 47.80 47.67 46.26 45.52 43.74 43.45 42.61 42.22 39.66 38.45 39.02 36.72 37.21 38.83 39.40 41.04 42.24 42.26 40.39 39.64 39.71 40.77
50.98 51.60 51.21 50.29 49.20 48.17 47.39 47.41 47.86 47.46 46.90 46.61 46.43 46.65 47.00 46.73 45.45 47.19 48.15 47.70 46.88 45.49 44.89 44.11 43.11 41.92 40.81 38.95 38.46 39.33 37.76 36.48 35.98 35.97 35.55 37.16 37.33 39.13 39.28 37.66 37.70 38.71 39.33
49.62 49.29 48.92 48.77 47.59 46.70 46.45 47.30 47.25 46.29 46.42 45.84 44.94 45.26 45.15 43.21 43.45 44.38 44.27 43.74 45.74 44.38 42.99 41.63 40.73 39.84 40.06 39.70 38.63 36.56 35.67 33.62 33.64 36.03 34.72 35.64 34.46 34.58 34.52 35.24 37.23 37.65 37.92
49.59 48.38 48.34 47.87 47.27 46.93 45.61 46.37 46.31 46.52 45.70 45.07 43.97 43.88 43.55 43.63 43.78 43.46 43.30 42.74 42.19 41.90 41.22 42.57 39.90 39.61 38.82 39.28 37.33 35.25 34.63 34.54 34.51 32.73 34.05 33.39 32.00 30.88 31.95 33.84 36.79 37.30 37.44
48.90 48.26 47.61 47.43 46.92 46.46 45.42 45.78 45.40 45.14 44.36 42.51 41.98 42.02 42.44 40.95 40.82 41.75 40.15 38.31 37.83 38.11 38.32 39.23 40.61 40.90 40.41 39.22 38.17 37.20 35.72 35.21 34.10 33.06 32.21 29.06 29.42 29.11 30.89 32.07 35.42 37.28 37.03
47.38 47.24 47.22 46.70 45.96 45.93 45.25 45.48 44.36 42.66 39.98 38.93 39.53 40.37 42.02 41.66 41.87 41.89 38.06 35.79 36.28 36.32 36.48 36.36 36.89 38.01 38.23 39.95 39.67 36.77 35.33 33.23 31.28 29.95 30.20 28.42 27.79 28.15 29.05 30.07 33.44 37.53 36.77
45.37 46.10 44.79 45.32 45.50 44.96 44.58 45.33 44.68 42.72 39.61 38.83 40.00 40.64 42.16 42.07 41.96 41.23 37.05 35.55 33.29 33.10 33.89 34.51 34.82 35.55 36.68 35.99 36.27 34.16 34.50 31.85 31.58 28.59 29.62 28.00 27.18 27.66 25.62 29.56 31.54 33.12 33.83

GFSMA_sfc_wetblb_090.txt.gz
Wetbulb
63.07 63.50 63.80 64.33 63.91 63.18 62.48 62.40 61.49 60.58 59.14 59.02 59.87 59.13 58.51 58.30 59.41 60.59 57.33 61.82 63.69 65.42 65.55 66.47 67.00 67.26 67.46 68.74 68.35 67.26 66.41 65.62 64.58 64.01 63.40 62.76 61.57 60.96 60.86 60.66 60.45 60.66 61.08
63.64 62.93 63.07 62.97 62.32 62.16 61.35 61.34 60.39 59.29 58.99 58.98 59.47 60.47 60.46 61.02 61.92 61.66 61.26 59.49 63.47 64.80 66.22 66.47 67.14 67.64 67.83 67.97 68.52 68.35 67.88 67.21 66.55 66.12 65.50 65.03 64.33 63.22 62.25 61.81 61.26 60.55 60.78
63.24 62.53 61.64 61.44 61.02 60.85 60.92 60.03 59.62 59.38 59.12 59.93 59.64 61.08 61.51 61.45 62.34 62.82 62.63 61.99 61.98 62.89 65.34 67.48 67.85 67.99 68.12 68.26 68.35 68.78 68.22 68.04 67.62 67.14 66.98 66.50 65.97 65.33 64.48 63.62 62.94 61.96 61.28
62.64 61.59 60.59 60.55 61.33 61.61 61.17 60.11 59.49 57.89 58.96 60.71 60.22 60.54 60.43 62.21 62.63 62.35 64.27 63.21 63.11 64.08 63.62 66.19 67.53 67.85 67.73 67.70 68.24 68.53 68.02 68.09 67.72 67.47 66.64 66.20 65.75 65.94 65.88 65.17 64.59 63.46 62.71
63.96 62.77 62.33 62.52 63.18 62.89 61.64 61.24 59.68 59.11 59.13 60.17 60.13 60.05 60.75 61.67 62.23 63.63 62.03 61.98 61.94 62.57 62.42 64.22 64.45 64.93 65.83 66.35 66.80 67.29 67.58 68.45 67.34 66.75 65.32 64.51 64.05 64.11 64.31 64.76 65.03 64.69 64.20
65.63 64.50 64.09 63.85 63.67 63.22 61.79 61.58 60.86 60.99 60.89 59.79 60.91 60.20 60.78 61.85 62.40 61.74 61.46 62.99 62.32 60.79 60.14 60.60 61.21 61.65 62.86 65.23 65.56 66.08 66.77 67.31 66.17 65.47 64.77 63.88 63.07 62.65 62.52 62.99 63.99 64.04 63.90
67.45 67.00 65.79 63.19 62.27 63.49 62.61 61.87 61.45 60.52 60.37 60.13 58.36 59.02 60.33 62.58 62.81 61.56 60.93 59.49 59.46 59.23 59.36 60.21 60.28 60.35 62.08 63.67 64.54 65.34 66.00 65.86 65.72 64.85 63.56 62.84 62.11 62.17 62.63 62.84 62.74 62.83 63.26
66.19 65.96 65.32 64.16 62.65 63.60 62.96 63.12 61.65 60.24 60.41 60.47 58.84 59.08 56.32 57.87 59.51 60.19 58.86 58.98 57.37 57.69 58.95 59.32 58.65 59.28 59.58 59.33 59.89 62.86 64.55 65.84 64.83 63.71 62.81 62.18 61.67 61.43 61.34 61.49 61.63 61.78 61.61
65.50 64.95 64.77 64.36 63.70 63.50 63.10 63.08 63.05 62.23 60.32 60.70 61.13 59.09 55.29 53.15 55.37 58.37 57.31 57.22 56.89 55.49 56.34 57.75 58.16 58.12 57.98 57.53 58.50 57.87 60.16 61.82 62.73 63.32 62.61 61.76 60.91 60.37 60.21 60.31 60.65 60.77 60.73
64.69 64.55 64.41 64.36 63.93 63.42 62.22 61.93 62.44 61.86 61.45 60.79 61.60 62.34 60.03 58.19 54.26 52.94 56.09 55.09 55.85 54.83 53.64 55.23 55.81 56.42 56.58 55.98 55.85 56.88 58.20 59.87 60.90 61.82 62.23 61.52 59.81 59.38 59.37 59.54 60.25 60.91 60.87
63.34 63.87 63.75 63.64 63.16 63.05 62.45 61.94 62.13 62.21 61.79 60.28 59.96 58.46 57.81 57.39 57.12 54.84 51.39 51.27 53.78 54.12 55.45 54.35 54.02 54.14 55.37 55.05 55.13 55.98 57.96 58.92 59.85 60.28 61.17 60.04 58.84 58.31 58.37 58.90 59.58 60.31 59.24
61.70 62.38 62.98 63.27 63.79 63.36 62.43 62.04 61.75 61.26 60.87 60.27 59.56 58.91 56.90 55.36 54.93 54.01 53.35 53.83 51.95 52.50 53.48 53.71 53.38 53.07 53.28 52.74 54.41 54.99 56.48 58.63 59.25 59.25 58.96 58.97 57.66 56.83 56.89 57.59 58.44 59.16 58.66
60.33 61.07 61.57 62.49 62.95 62.52 61.93 61.86 60.55 59.73 59.83 59.30 59.13 58.23 57.88 56.95 57.15 56.08 54.27 51.77 50.40 51.40 51.67 52.92 52.57 52.18 53.10 52.47 51.55 52.40 54.27 55.70 56.79 57.10 57.80 57.57 54.98 54.27 54.53 55.64 56.76 57.62 58.20
59.83 60.08 61.43 61.60 62.34 61.74 62.03 61.27 60.23 59.54 59.55 58.64 57.79 58.13 57.78 57.80 58.24 55.78 53.43 51.60 48.61 49.46 50.11 49.99 51.87 51.92 51.08 49.56 51.04 51.98 50.98 53.91 55.02 55.53 55.33 53.52 52.19 52.19 53.36 53.87 54.52 55.40 56.03
61.21 60.70 61.02 60.87 60.59 60.66 61.35 61.15 60.21 59.49 59.02 58.25 58.10 58.26 56.87 55.68 55.33 55.01 54.60 52.91 49.94 45.82 46.91 48.84 48.83 49.86 49.93 49.46 50.38 50.83 48.73 51.78 51.61 51.42 50.81 50.02 49.68 49.95 50.50 51.90 52.59 52.94 53.46
61.08 61.47 60.64 61.40 60.95 60.98 61.40 60.71 60.22 59.34 58.43 57.46 56.66 55.44 53.75 53.66 53.79 53.59 53.17 52.55 51.72 49.43 46.01 48.05 48.12 48.45 48.40 48.84 49.26 48.98 47.91 48.51 49.50 49.55 48.98 48.44 48.16 48.63 49.27 49.69 50.35 50.57 50.95
58.88 60.01 60.41 59.82 60.31 61.18 61.06 59.77 58.37 56.81 56.65 55.00 53.33 53.66 52.46 51.87 51.36 51.47 51.86 51.15 50.16 49.82 47.22 46.41 47.04 46.14 46.61 46.18 46.01 45.88 46.22 45.32 45.62 46.67 46.86 46.94 46.93 47.77 47.51 47.54 47.59 47.87 48.29
55.18 56.65 58.20 59.25 59.22 58.85 58.83 58.24 56.58 55.77 55.21 53.48 52.37 50.91 50.77 51.74 50.61 51.00 50.53 49.32 48.96 49.03 48.43 46.41 46.66 44.91 44.79 44.63 44.23 43.48 43.24 42.68 42.25 43.84 45.54 45.64 45.73 46.68 46.06 45.04 44.63 44.13 44.42
51.53 53.71 55.06 55.81 55.69 55.50 55.98 56.36 55.61 53.53 53.10 50.91 50.07 49.98 49.70 49.28 48.34 48.04 48.36 48.05 47.33 47.87 48.21 46.30 42.98 45.30 42.41 42.94 42.14 42.21 41.34 39.97 39.06 42.50 44.08 44.54 44.85 45.39 45.58 43.00 42.01 41.65 41.86
49.22 50.29 51.95 53.42 52.90 51.72 51.59 51.50 50.18 49.46 48.83 48.11 48.30 48.41 48.35 47.79 47.09 47.11 46.99 46.29 46.31 45.12 46.23 45.74 44.71 42.82 42.31 42.10 41.78 39.29 38.49 39.19 37.73 37.85 40.09 40.45 42.82 43.03 43.59 41.12 39.96 39.94 40.59
47.83 48.46 49.28 48.88 48.88 48.79 48.36 48.20 48.15 47.87 47.44 47.13 47.82 47.53 47.45 47.10 46.90 47.20 46.47 45.52 44.99 45.18 44.01 42.31 42.17 41.05 40.10 38.27 37.99 39.06 37.88 36.89 36.91 36.50 35.17 36.63 36.97 37.88 40.09 39.42 37.80 39.06 39.11
46.76 46.46 46.24 46.52 45.73 46.29 47.52 48.10 47.54 46.70 46.36 45.92 45.12 45.08 44.11 43.84 44.73 46.16 45.64 46.12 45.53 44.10 42.51 41.13 39.97 39.89 39.91 39.58 38.91 36.85 35.81 33.73 34.15 35.78 33.91 34.28 35.46 34.57 32.95 32.26 37.77 37.83 38.11
45.62 45.15 44.85 45.08 44.64 44.30 46.98 47.82 47.49 45.43 44.98 44.40 43.20 43.17 42.62 42.92 42.26 41.24 44.06 43.90 43.38 43.79 43.69 42.02 37.93 37.83 38.14 38.25 37.38 35.11 34.61 34.14 34.61 33.43 33.72 32.81 32.16 28.67 28.60 33.21 37.16 37.44 37.49
43.26 44.17 44.02 44.10 43.54 44.30 46.48 46.76 46.78 42.27 41.63 39.79 39.02 39.45 39.25 38.31 39.14 40.40 39.13 35.90 35.85 36.60 37.59 38.90 39.42 38.36 38.82 38.91 38.13 37.02 35.51 34.63 32.57 31.87 32.58 30.03 26.16 26.34 27.87 28.16 36.28 37.34 37.23
43.37 44.39 44.55 43.87 42.35 42.21 45.64 45.83 44.40 38.65 37.87 38.36 39.34 39.95 39.91 38.75 41.99 43.56 38.45 33.96 34.50 34.31 37.16 37.27 38.18 40.08 41.49 41.14 39.46 36.40 33.82 32.95 31.23 28.52 27.77 26.45 25.00 25.47 26.20 26.79 29.58 37.45 37.03
42.17 43.50 43.61 43.61 43.66 42.53 44.98 45.67 43.54 40.02 38.59 38.80 39.44 39.61 42.16 40.25 42.76 43.05 35.35 34.03 31.93 32.33 32.36 31.79 31.79 34.40 36.52 36.54 40.23 32.47 31.02 32.27 29.47 22.11 26.97 24.53 24.57 25.00 21.22 26.47 29.58 30.34 32.02

GFSMA_sfc_wetblb_093.txt.gz
Wetbulb
64.78 64.91 64.07 63.98 63.82 63.61 62.29 61.84 61.10 59.91 59.03 58.72 57.68 57.92 56.87 57.09 56.84 57.58 57.19 62.43 64.56 66.60 66.64 67.07 67.42 67.47 67.77 68.57 68.91 67.66 66.80 66.01 65.02 64.29 63.73 63.14 62.10 61.44 61.19 61.02 60.72 60.66 60.85
64.73 64.46 63.86 63.70 63.38 62.95 62.23 61.60 60.30 59.41 58.56 57.82 57.78 57.97 58.41 57.61 57.84 58.99 56.84 58.93 63.62 65.04 67.01 66.98 67.52 67.89 68.05 68.23 68.38 69.00 68.33 67.75 66.94 66.24 65.61 65.19 64.65 63.92 62.97 62.30 61.68 61.05 60.72
63.93 63.34 63.07 62.90 62.98 62.13 60.65 60.00 59.48 58.44 57.63 57.70 57.01 58.97 59.90 59.96 60.99 61.06 60.72 58.38 60.74 62.90 65.47 67.43 68.08 68.17 68.32 68.51 68.57 68.56 68.94 68.15 68.03 67.45 67.05 66.67 66.18 65.73 65.02 64.34 63.52 62.51 61.94
63.48 61.63 61.08 61.80 61.56 60.62 59.41 58.23 57.75 56.71 56.59 57.59 58.45 59.76 59.87 60.16 60.69 61.20 61.76 61.88 60.63 62.23 63.18 66.12 68.00 68.64 68.48 68.19 68.15 68.29 68.91 68.85 68.34 68.15 67.42 66.62 66.14 65.48 65.93 65.44 65.07 64.50 63.65
63.23 61.62 59.88 60.15 60.36 60.26 59.95 59.68 57.72 57.40 56.55 58.68 59.97 60.26 59.69 60.40 61.09 62.29 61.14 62.29 61.61 62.16 61.61 63.04 64.39 65.11 66.18 67.01 67.07 67.27 67.63 68.57 68.47 67.62 66.08 65.27 64.14 63.94 64.21 63.82 64.07 64.63 64.46
62.62 61.67 60.98 60.65 61.35 61.10 60.25 60.29 58.70 58.72 58.19 58.84 60.60 59.90 58.98 60.72 60.58 61.27 60.83 61.50 61.92 61.68 59.87 60.80 60.95 61.08 62.44 64.98 65.84 66.23 66.72 67.61 67.43 66.12 65.45 64.44 63.58 62.70 62.48 62.86 63.75 63.85 63.59
63.72 63.20 63.19 62.66 62.62 62.59 61.47 60.91 60.20 59.47 59.19 59.74 58.28 57.89 58.33 60.37 60.49 61.76 60.54 59.54 60.14 58.86 58.98 59.61 59.22 59.77 61.39 63.40 64.21 65.06 66.12 66.68 66.41 65.66 64.58 63.42 62.62 62.50 62.58 62.33 62.36 62.33 62.53
65.12 65.45 64.16 62.93 61.56 62.58 61.78 60.98 60.24 59.44 59.62 59.67 57.68 57.79 55.24 57.60 59.10 60.01 60.49 58.96 57.49 57.46 58.76 58.24 58.04 58.34 59.40 58.81 59.45 62.38 64.55 65.47 65.94 64.55 63.41 62.60 62.45 61.43 61.19 60.99 60.84 60.94 61.15
65.04 65.29 64.39 64.31 62.90 62.82 62.25 61.78 62.52 60.65 58.69 59.59 59.41 59.10 55.28 54.04 55.98 56.76 57.18 56.82 55.69 55.01 55.96 56.94 57.36 57.22 57.30 56.45 57.05 56.94 60.00 62.09 64.17 64.08 63.30 62.71 61.52 60.31 60.14 59.88 60.12 60.77 61.12
64.27 63.72 63.74 63.20 63.21 62.99 62.35 62.17 62.15 61.58 61.26 59.43 61.21 61.85 60.04 58.63 54.80 52.62 56.22 56.28 54.82 53.69 53.51 54.53 55.25 55.53 55.86 54.87 55.70 56.72 58.11 59.77 61.14 62.76 63.02 62.65 60.88 59.52 59.34 59.18 59.69 60.51 60.25
62.87 63.98 63.67 62.95 62.38 62.57 62.37 61.94 61.24 60.95 60.77 59.86 59.68 58.63 57.93 57.45 56.84 54.53 52.39 51.79 54.30 54.11 53.12 53.25 53.42 54.39 54.20 54.59 54.07 56.02 58.11 58.78 60.16 60.94 62.23 61.78 60.05 58.54 58.51 58.58 58.95 59.85 59.10
61.15 61.22 62.28 62.35 62.61 62.36 61.62 61.30 61.19 61.35 61.63 60.80 59.33 58.35 56.82 55.79 55.53 53.95 52.63 53.37 53.11 54.80 54.32 53.44 52.15 52.45 52.67 52.67 54.42 55.26 56.83 58.99 59.75 60.48 60.93 60.38 58.63 57.10 56.51 56.91 57.53 58.57 59.05
59.69 60.66 60.39 60.60 62.17 62.45 61.40 60.93 60.78 60.59 60.61 60.47 59.31 58.73 58.36 57.24 57.52 56.47 54.95 53.35 51.99 51.82 52.18 52.61 52.28 51.99 52.81 51.53 51.66 52.29 54.39 56.03 57.19 57.94 59.41 58.63 55.82 54.81 54.71 55.34 56.41 56.26 56.84
60.30 60.79 60.92 60.74 61.36 62.31 61.66 60.87 60.39 60.06 60.01 59.80 59.41 58.82 58.32 57.87 57.57 56.74 55.26 53.30 49.78 49.41 49.69 49.74 50.81 51.28 51.05 50.11 51.25 51.84 51.22 54.86 55.64 56.75 56.43 54.18 52.42 52.27 52.72 53.58 54.16 54.72 55.09
60.19 60.20 59.99 60.36 60.72 61.56 60.76 60.76 59.78 59.59 59.53 59.37 58.81 58.24 57.93 57.69 57.65 57.31 55.68 53.41 52.27 46.62 47.51 48.59 48.26 48.86 48.63 48.29 49.93 48.59 48.11 52.12 52.13 51.99 51.32 50.36 49.81 49.93 50.62 51.56 51.72 51.91 52.19
60.55 60.55 59.84 60.10 60.23 60.56 60.50 60.37 59.84 59.62 58.96 58.76 58.20 57.53 57.29 56.81 56.77 55.49 54.39 53.16 52.01 49.13 45.70 47.58 47.44 47.28 48.09 48.29 49.75 48.25 47.46 49.21 50.33 50.10 49.21 48.57 48.21 48.66 49.05 49.27 49.36 49.67 49.82
58.01 58.45 59.68 60.10 60.19 59.97 60.07 59.96 59.37 59.27 58.45 58.36 57.53 57.05 56.34 54.94 53.99 53.76 53.34 52.28 51.18 50.27 46.90 45.69 46.38 45.97 45.32 45.03 44.90 46.69 45.72 44.46 46.51 47.51 47.42 47.46 47.25 47.78 47.53 47.19 46.72 46.68 47.21
51.72 54.16 55.58 57.07 58.86 59.49 59.79 59.89 59.30 58.76 57.95 56.58 55.53 55.38 54.64 53.77 52.65 52.72 51.39 50.25 50.03 49.91 48.07 45.59 44.47 43.48 44.54 46.01 45.08 44.41 44.03 43.52 43.36 44.21 46.43 46.83 46.28 47.44 46.62 45.07 44.31 43.98 43.58
49.02 50.45 52.60 53.46 55.26 56.41 56.83 58.08 58.48 57.07 56.77 56.41 55.56 54.89 54.09 52.74 51.59 50.23 50.26 50.04 49.28 48.54 46.24 44.53 42.70 43.68 43.40 43.12 42.53 42.68 41.80 40.71 40.04 43.21 45.18 45.51 45.63 46.20 46.58 43.64 42.41 41.87 41.84
47.29 47.69 49.10 50.74 51.63 52.45 53.47 54.69 54.36 53.18 53.63 52.83 52.32 52.84 52.11 51.45 49.97 48.53 48.56 48.29 46.51 45.42 44.38 44.29 43.70 42.99 42.49 42.06 41.84 40.00 39.19 39.84 38.82 38.32 41.67 41.53 44.24 43.75 45.60 42.30 40.33 39.71 40.14
46.60 46.93 46.95 47.93 47.73 48.08 49.00 49.19 49.79 49.79 49.41 48.91 50.00 50.44 50.19 49.60 48.16 49.31 47.90 46.94 46.04 44.56 41.93 39.90 40.78 41.56 40.52 39.05 39.15 39.35 38.69 37.25 37.91 37.31 35.53 36.82 38.30 38.47 41.19 40.71 38.36 39.13 39.06
44.07 45.19 45.36 45.38 45.55 46.33 47.38 48.35 48.32 47.75 47.92 47.60 47.04 47.10 47.69 46.74 47.47 48.92 49.08 48.56 47.81 44.61 42.02 39.76 40.43 40.52 40.27 39.52 37.13 36.44 36.46 34.62 34.84 36.40 34.33 34.46 35.96 34.79 36.66 34.65 38.27 38.05 38.21
41.83 42.20 43.10 43.82 43.83 44.27 46.77 47.84 48.01 46.56 46.09 45.89 44.85 44.68 44.03 44.65 45.12 45.19 47.01 47.13 46.97 47.18 45.54 41.89 40.61 41.05 39.53 38.43 38.29 35.68 35.33 34.59 35.20 34.14 34.11 33.05 32.12 31.94 31.21 33.84 37.79 37.61 37.62
41.52 42.02 42.26 44.23 44.43 43.64 46.37 47.04 47.16 42.61 42.88 42.93 42.12 42.63 42.14 41.02 40.90 41.85 40.49 38.42 38.85 39.75 41.02 41.33 40.04 39.41 38.45 38.41 37.50 38.04 36.67 34.86 32.05 32.30 33.36 31.42 29.22 27.09 27.63 27.59 36.58 36.99 37.26
40.78 41.57 42.72 43.26 43.92 44.25 45.10 46.14 44.98 39.10 38.34 38.20 38.64 40.96 41.65 40.85 42.69 43.69 38.81 34.91 34.63 34.99 39.61 40.02 40.34 41.58 42.80 42.61 40.24 36.51 33.06 33.07 31.22 30.90 29.52 29.27 24.77 25.19 25.75 26.21 28.30 36.77 37.40
39.23 40.93 41.57 42.54 43.50 43.46 44.95 45.55 45.08 40.68 38.45 39.10 40.20 39.39 42.46 39.60 43.32 44.18 37.45 35.23 33.50 32.17 31.98 32.10 33.46 36.93 39.82 39.69 41.75 34.64 32.90 31.36 31.54 27.13 26.97 24.97 24.28 24.80 20.93 25.59 28.68 29.48 30.61

GFSMA_sfc_wetblb_096.txt.gz
Wetbulb
64.75 65.20 64.81 65.61 65.05 65.39 64.11 62.19 61.48 60.08 58.37 57.93 57.81 57.48 57.22 56.16 55.41 56.09 56.34 62.58 65.20 67.49 68.11 67.85 67.79 67.78 68.27 68.73 68.86 68.05 67.07 66.27 65.25 64.54 63.97 63.43 62.57 61.81 61.43 61.29 61.00 60.78 60.68
65.15 64.76 64.35 64.16 63.66 64.90 63.70 62.39 60.73 59.23 57.90 57.69 57.29 56.55 57.05 56.49 55.91 56.67 56.34 58.03 63.75 65.25 67.47 67.64 67.97 68.21 68.25 68.30 68.36 68.75 68.70 68.04 67.27 66.30 65.62 65.21 64.87 64.26 63.62 62.92 62.48 62.12 61.52
65.20 64.98 64.07 63.92 64.14 64.15 63.36 60.66 59.83 59.38 57.97 57.71 56.21 56.37 57.25 57.27 57.72 58.90 57.20 56.63 59.63 62.76 65.18 67.59 68.24 68.18 68.33 68.45 68.53 68.68 69.50 68.64 68.17 67.73 67.01 66.57 66.16 65.81 65.62 64.91 64.31 63.87 63.25
64.12 64.73 64.03 63.63 64.12 63.39 62.12 60.17 59.36 57.21 56.27 55.86 55.49 56.24 57.69 59.15 59.29 60.10 60.51 58.69 58.74 60.33 62.42 65.91 67.80 68.70 68.72 68.48 68.08 67.87 68.52 68.90 68.70 68.65 67.42 66.96 66.58 66.00 65.60 65.47 65.03 64.98 64.43
64.11 64.23 63.49 63.01 62.66 61.32 60.39 59.50 57.25 56.84 55.23 56.33 57.55 58.07 58.58 58.82 59.43 61.38 60.75 60.63 60.80 60.20 60.44 62.32 64.12 65.11 66.37 67.26 67.05 67.25 67.37 68.15 68.89 68.21 67.08 65.81 64.51 63.92 63.95 63.48 63.53 64.09 63.96
64.01 63.33 62.41 62.24 61.27 60.42 59.78 58.91 57.34 57.03 56.06 56.53 59.39 59.60 59.17 59.37 59.91 60.46 60.55 61.25 60.82 60.92 60.84 60.75 61.03 61.15 62.25 64.34 65.26 65.60 66.57 67.22 68.14 67.19 65.97 64.89 64.10 63.24 62.48 62.67 62.88 62.72 62.66
63.26 62.83 62.02 60.62 60.95 60.42 60.12 60.02 58.22 57.27 57.63 57.60 57.18 57.06 57.40 58.28 59.80 60.30 61.25 60.15 60.18 59.81 58.88 59.18 59.08 59.50 60.91 63.22 63.61 64.50 66.04 66.62 67.20 66.18 65.43 64.17 63.13 62.64 62.50 61.88 61.59 61.48 61.65
62.87 62.41 61.94 60.77 60.88 60.79 60.43 60.20 59.87 58.26 58.21 58.70 56.52 56.58 54.51 56.86 58.56 59.96 59.44 58.82 58.89 58.53 58.35 58.11 57.95 58.85 58.73 58.37 58.94 61.63 64.18 65.18 66.11 65.67 64.30 63.35 62.93 61.94 61.09 60.41 60.39 60.51 60.97
63.84 62.94 62.50 62.36 61.57 61.97 61.09 60.57 60.03 59.15 58.06 58.83 59.17 57.93 54.65 53.57 55.82 56.65 56.79 57.14 56.73 56.92 57.07 56.87 57.47 58.03 57.06 56.34 56.72 56.69 59.94 62.33 64.89 64.89 64.03 63.19 62.28 61.04 60.08 59.61 59.79 60.45 60.63
63.34 63.44 63.67 63.42 62.58 62.43 62.29 61.58 61.36 60.75 59.90 58.27 59.41 60.28 58.98 56.96 53.32 52.25 55.48 55.27 55.36 54.77 55.75 55.68 55.80 55.60 55.40 54.83 55.66 56.55 58.13 60.01 61.42 63.99 64.02 63.35 62.12 60.41 59.22 59.26 59.63 60.08 59.85
62.73 62.89 63.41 62.78 61.56 61.04 61.28 61.02 60.67 60.71 60.79 59.83 59.09 58.65 58.05 57.77 56.90 54.80 52.01 53.27 55.02 54.55 54.53 54.39 55.08 55.14 54.90 54.17 53.83 55.89 57.95 58.76 60.12 61.12 63.32 63.18 61.56 59.59 58.59 58.53 58.84 59.02 59.52
61.07 62.24 62.67 62.73 62.34 61.70 61.60 61.02 60.54 60.10 60.42 59.58 60.43 59.85 58.42 57.07 56.04 54.38 52.64 53.09 53.95 55.63 55.81 53.84 54.01 53.95 54.05 54.13 54.62 55.82 57.23 59.53 60.04 60.70 61.43 61.86 59.95 57.97 56.66 56.87 57.45 57.62 58.26
59.49 60.08 61.03 61.26 61.19 61.54 61.34 61.47 60.37 60.31 60.61 60.60 60.02 59.76 58.56 57.88 56.77 57.33 55.60 53.11 52.62 53.61 52.76 52.76 52.61 52.89 52.91 51.94 51.97 52.95 55.15 57.12 57.96 58.72 59.62 60.09 56.84 55.63 55.08 55.48 56.20 56.19 56.46
59.57 60.40 60.67 60.63 60.57 61.09 61.14 61.18 60.67 60.63 60.61 60.53 60.23 58.62 58.27 57.64 56.55 56.70 56.29 54.03 50.90 51.23 50.14 50.20 50.81 50.99 51.43 50.88 51.42 52.49 52.42 55.75 57.03 58.12 58.31 55.41 53.26 52.55 52.49 53.45 54.12 54.10 54.52
60.17 59.84 59.91 60.02 60.58 60.68 60.96 61.28 60.53 59.68 59.43 59.69 59.78 59.63 58.24 57.93 57.50 57.08 56.53 56.50 53.89 48.20 48.46 48.51 47.94 48.95 48.67 49.08 49.84 48.25 48.23 53.00 53.33 52.87 52.05 51.04 50.33 50.24 50.57 51.16 51.67 51.71 51.50
59.26 59.61 59.66 59.75 59.75 59.88 60.24 60.44 59.72 59.31 58.98 59.05 58.81 58.28 58.53 58.14 57.32 56.57 55.48 54.37 53.80 50.66 47.83 48.27 47.46 47.68 48.05 48.43 49.52 47.42 47.51 49.69 51.23 50.94 50.20 48.95 48.47 48.84 49.11 49.11 49.14 49.07 49.15
55.22 56.70 57.76 58.73 59.41 59.51 59.72 59.65 59.65 59.27 58.61 58.39 57.94 57.49 57.19 56.86 56.91 56.10 55.03 53.07 51.42 49.73 47.70 45.61 46.66 45.69 46.19 46.03 45.96 45.80 45.81 44.90 45.57 48.48 48.65 48.35 47.80 47.75 47.96 47.38 46.56 46.26 46.32
49.64 50.09 52.60 54.76 57.24 58.91 59.33 59.20 58.96 59.10 58.46 57.83 57.78 57.00 56.52 55.52 55.77 55.18 54.03 53.08 52.58 50.78 49.05 45.66 45.12 44.94 45.16 44.65 44.38 44.87 44.99 44.29 42.44 45.54 47.20 47.57 47.50 47.31 47.45 45.89 44.51 43.79 43.62
47.50 47.99 49.24 50.85 52.24 53.73 56.27 57.95 59.06 58.97 58.55 58.31 58.01 56.66 56.78 55.05 54.83 53.99 53.42 52.39 51.07 49.51 47.55 46.43 43.53 43.79 43.58 43.92 43.10 43.27 42.49 41.14 40.72 43.30 46.07 46.61 46.42 47.28 47.18 45.34 43.04 42.02 41.53
45.05 45.98 46.75 47.81 48.97 49.79 51.13 52.39 54.68 54.95 55.60 56.49 56.44 56.12 56.25 55.00 55.20 53.33 52.35 51.42 48.94 47.80 45.91 45.68 43.46 42.58 41.63 42.31 42.23 40.42 39.82 40.34 40.00 39.66 42.66 43.06 43.40 45.36 46.00 44.69 41.46 39.81 39.85
43.06 43.97 44.75 45.36 45.85 46.49 47.52 48.08 49.93 51.34 52.01 52.13 51.53 52.34 52.72 51.89 50.54 52.37 51.53 49.37 48.00 47.03 43.34 41.46 40.79 41.16 40.45 39.62 40.04 39.77 39.65 38.82 39.13 39.17 35.54 35.98 38.59 38.92 40.31 42.87 39.38 39.51 39.17
40.93 41.63 42.02 42.91 43.32 45.07 47.03 47.86 47.65 48.01 48.66 49.16 49.20 49.49 50.00 47.68 48.92 50.09 50.28 49.02 49.23 47.03 44.67 41.62 40.34 40.93 41.24 38.86 38.15 38.13 37.03 35.20 35.24 35.22 33.24 32.98 35.01 35.09 37.11 37.77 38.98 39.06 38.42
38.66 38.78 39.88 41.05 42.03 42.93 46.46 47.44 47.51 45.63 46.35 46.88 46.45 46.16 45.82 46.58 47.01 47.69 49.17 49.16 48.96 48.91 48.61 46.28 43.30 41.04 38.74 38.54 38.01 35.61 33.37 32.71 34.88 33.90 33.41 33.54 33.00 32.96 32.97 34.32 38.76 38.32 38.04
37.55 38.48 38.93 40.11 41.82 43.62 46.10 46.63 46.78 43.28 41.91 42.27 43.20 43.97 43.90 42.78 43.36 44.24 43.85 43.14 44.24 45.28 45.34 44.65 44.44 41.60 40.31 40.48 40.24 37.29 36.14 34.61 32.26 33.62 34.38 31.74 27.77 30.31 30.05 29.29 35.38 37.39 37.81
35.16 36.64 38.32 38.68 40.08 41.76 44.30 45.41 45.42 42.05 39.79 38.63 38.95 41.43 43.58 42.69 43.93 45.01 41.25 38.86 38.88 38.72 41.41 42.81 42.72 43.09 43.40 43.11 40.04 36.23 32.66 34.35 31.64 30.74 30.62 30.86 26.43 25.72 26.14 26.43 28.36 36.63 38.07
33.85 35.40 36.71 36.27 39.64 39.79 42.60 44.19 44.83 42.80 40.33 39.91 40.23 38.58 43.11 42.79 44.30 45.09 40.25 38.68 36.91 36.30 35.11 35.58 36.24 39.25 41.74 41.48 42.31 36.91 34.65 34.08 31.84 30.43 29.74 28.04 24.79 25.67 22.77 25.83 28.06 29.22 30.62

GFSMA_sfc_wetblb_099.txt.gz
Wetbulb
64.68 65.06 65.28 64.32 64.96 65.41 65.28 63.84 62.20 60.25 58.56 57.47 57.20 56.86 56.37 55.05 54.89 55.04 56.37 61.52 66.03 68.68 68.77 68.06 68.17 68.44 68.52 68.51 68.41 67.96 67.28 66.66 65.50 64.71 64.13 63.59 62.75 62.20 61.88 61.80 61.68 61.67 61.67
64.85 65.04 65.15 64.69 64.12 65.01 64.47 64.09 62.66 60.64 58.22 57.09 56.74 56.54 56.36 56.58 55.29 54.68 55.56 56.91 63.65 65.59 68.04 68.05 68.31 68.38 68.49 68.47 68.52 68.57 68.78 68.56 67.66 66.68 65.79 65.23 64.79 64.38 63.98 63.67 63.36 63.01 62.71
64.89 65.08 64.79 64.60 64.42 64.28 63.79 62.96 62.05 60.66 58.02 56.91 55.95 56.36 55.83 55.85 55.14 55.30 55.85 55.83 58.38 62.56 65.05 67.55 68.24 68.25 68.43 68.51 68.56 68.69 69.44 68.87 68.46 67.91 67.30 66.52 66.02 65.74 65.60 65.49 64.94 64.55 64.26
64.88 64.82 64.32 64.44 64.65 63.89 63.72 62.51 60.93 59.98 57.80 56.41 55.67 55.51 55.58 56.45 56.90 57.67 58.18 56.70 56.70 58.85 61.87 65.61 67.59 68.72 68.62 68.50 68.54 67.96 67.92 68.83 68.67 68.57 68.05 67.33 66.85 66.37 65.67 65.11 65.10 64.83 64.78
65.01 63.74 63.82 64.15 64.00 63.77 62.95 62.35 60.28 59.09 56.77 55.96 55.47 55.57 55.79 56.99 58.10 59.64 59.35 59.15 58.20 58.78 58.78 61.80 64.01 64.92 66.51 67.66 67.54 67.12 67.23 67.88 68.60 68.23 67.77 66.79 65.69 64.02 63.69 63.39 63.51 63.83 63.61
64.01 63.99 63.21 63.29 63.47 62.73 62.16 60.32 60.28 57.71 56.31 57.07 57.20 57.44 57.35 58.13 58.62 58.94 59.70 60.91 60.18 59.90 59.37 59.99 60.05 61.47 63.13 64.86 65.80 65.70 65.85 66.67 67.61 67.84 66.87 65.81 64.40 63.83 62.82 62.76 62.51 62.25 62.31
63.02 63.79 63.79 63.32 63.09 61.81 61.10 60.44 59.42 57.19 56.78 56.20 56.16 56.53 57.06 57.85 57.96 59.07 60.02 60.07 59.60 60.12 60.13 60.38 60.29 59.64 61.13 63.73 64.14 63.96 65.07 66.23 66.87 67.51 66.28 65.17 64.15 63.17 62.72 62.11 61.23 60.96 61.11
62.45 63.12 62.68 61.96 61.89 61.09 60.31 59.92 59.16 57.31 57.42 57.43 55.38 55.50 53.82 55.55 57.85 58.81 59.53 59.40 58.70 58.88 58.95 59.15 58.59 58.80 58.52 58.18 58.70 61.98 63.44 65.12 66.15 66.36 65.78 64.53 63.43 63.11 62.09 60.64 60.12 60.24 60.98
63.47 62.10 62.35 61.94 60.96 61.04 60.09 59.91 59.56 58.84 57.38 57.81 58.04 56.72 53.49 52.57 54.92 56.74 56.93 57.49 57.16 56.83 57.79 57.75 57.83 58.50 57.69 56.74 57.88 58.02 60.53 62.04 65.47 66.34 65.15 63.97 63.37 62.29 60.98 59.84 59.66 60.35 60.45
63.23 63.60 62.57 62.14 61.00 60.70 60.12 60.10 60.21 59.56 59.21 57.42 57.29 59.25 58.25 56.90 54.16 52.65 54.63 54.52 54.83 54.66 56.27 56.62 56.58 57.13 56.38 55.62 55.87 56.18 58.35 60.00 61.97 65.10 65.01 64.12 63.25 62.11 60.52 59.36 59.45 59.63 59.95
62.39 63.02 62.95 62.19 61.57 60.61 60.48 60.42 59.83 59.77 59.81 58.07 58.02 57.60 56.94 56.67 56.08 54.11 52.47 53.04 54.94 54.48 55.36 55.80 55.63 56.04 55.83 55.08 55.07 55.71 57.51 58.99 60.38 61.88 63.40 64.15 63.45 61.91 59.84 58.56 58.44 58.62 58.96
61.11 61.63 62.18 62.24 61.58 60.82 59.65 59.48 59.30 59.38 59.93 58.99 58.94 58.08 57.18 56.26 55.79 54.38 53.66 53.60 53.73 54.90 55.18 54.30 55.31 55.35 55.44 54.73 55.15 56.20 57.91 59.78 60.18 60.53 61.44 62.75 62.43 60.06 58.16 57.21 57.45 57.53 57.57
59.92 60.60 61.64 61.57 61.53 61.33 60.59 60.20 59.71 60.03 59.88 59.78 59.14 59.25 59.16 58.37 57.41 57.53 56.56 54.63 52.51 53.34 53.17 53.05 53.29 53.68 54.10 54.31 54.44 54.35 56.38 58.18 59.34 59.77 60.37 61.52 58.90 56.88 55.98 56.07 55.96 55.77 56.21
59.95 60.61 61.15 61.53 61.37 61.24 61.12 60.29 59.60 59.80 59.58 59.96 59.54 59.53 59.47 59.30 58.05 57.70 57.48 54.74 50.90 49.79 49.01 48.53 50.54 51.82 52.62 52.20 52.37 53.17 53.23 56.49 57.80 58.27 59.67 56.97 54.73 53.51 53.39 53.77 53.76 53.63 53.66
59.88 59.71 59.54 59.42 59.96 60.45 60.45 59.82 59.45 59.46 59.81 59.59 59.68 59.78 59.16 59.19 58.85 58.84 58.28 57.49 55.69 51.81 49.73 49.43 49.11 50.73 50.97 51.04 51.48 49.98 50.13 54.55 55.14 54.69 53.70 52.31 51.36 51.07 51.50 51.55 51.58 50.91 50.88
55.27 58.17 58.60 58.88 59.13 59.47 59.74 59.91 59.58 59.75 59.63 59.59 59.61 59.13 59.20 59.33 58.24 57.90 57.40 56.69 55.53 54.83 51.12 49.34 48.49 48.70 49.37 49.35 49.88 47.62 48.27 50.92 52.73 52.42 51.42 50.24 49.51 49.67 49.77 49.67 49.43 48.83 48.36
50.84 52.14 54.36 56.20 57.39 58.78 59.41 59.30 59.38 59.30 58.65 58.64 58.39 58.26 58.13 58.38 57.95 57.43 57.41 55.85 54.19 52.75 49.28 46.28 47.22 47.08 47.19 48.09 47.13 46.63 46.83 46.07 47.37 50.71 50.27 49.72 49.03 48.43 48.61 48.06 47.15 46.34 45.91
47.69 48.26 49.31 50.97 52.93 54.55 57.33 58.63 58.61 58.71 58.32 57.89 57.87 57.31 57.11 57.05 56.83 56.53 55.43 54.19 53.00 50.55 49.03 45.58 45.21 45.28 45.86 46.24 45.76 44.56 44.82 44.87 43.96 47.51 48.17 48.14 48.15 47.83 48.25 47.09 45.57 44.22 43.69
44.60 45.49 46.52 47.07 48.16 49.66 50.95 52.99 55.18 57.29 58.24 58.32 58.22 57.61 57.46 56.93 56.10 56.48 55.60 54.93 54.22 51.58 50.59 46.75 43.60 44.65 44.14 45.73 44.09 44.04 42.81 41.23 41.96 44.17 46.56 47.78 47.84 47.22 48.04 47.02 44.41 42.69 41.56
42.38 42.66 43.63 44.65 45.50 46.19 47.09 48.28 49.70 51.31 53.39 54.81 56.42 57.41 57.40 56.79 56.06 55.66 54.95 54.69 53.43 51.76 50.38 48.05 44.18 43.22 42.60 42.98 43.76 41.62 40.50 40.71 39.60 39.91 43.51 43.99 45.52 45.64 47.01 47.50 44.06 40.90 40.09
40.55 41.27 41.56 41.77 42.44 44.02 45.65 45.85 46.19 46.63 48.15 50.43 52.62 53.11 53.95 54.00 52.11 54.94 54.45 53.97 52.33 50.74 48.16 46.26 42.60 41.60 40.63 40.78 42.02 40.76 40.94 38.75 38.62 40.07 38.43 39.11 39.78 39.30 39.45 45.90 41.45 40.43 39.64
38.56 39.35 39.53 40.02 40.37 42.57 45.31 47.00 46.81 45.07 45.31 47.04 48.27 50.00 51.04 48.76 49.75 50.80 51.47 51.29 51.73 50.32 47.94 46.21 42.40 43.39 41.33 40.58 40.85 39.79 37.81 36.29 35.85 39.07 37.02 35.59 35.45 34.74 36.93 39.00 40.91 40.36 39.14
35.61 35.94 37.25 38.35 38.93 40.36 44.53 45.21 46.10 45.24 43.59 43.91 45.38 46.14 46.83 47.53 47.62 48.70 49.97 49.88 49.48 50.25 50.56 47.95 44.52 43.59 41.57 40.78 40.00 36.12 35.38 34.83 35.83 34.55 35.26 32.68 33.15 32.96 34.93 37.05 41.19 40.20 38.85
33.20 34.18 34.88 36.51 37.35 38.91 41.95 43.33 44.26 42.86 43.48 42.29 40.73 42.19 44.05 44.62 44.51 45.69 45.99 44.76 46.28 47.56 47.29 46.92 46.61 44.40 44.43 42.94 42.57 39.81 38.09 34.35 33.10 33.46 34.29 31.33 29.17 30.46 29.24 30.13 37.98 38.89 38.47
31.19 32.04 34.23 34.90 34.43 35.51 40.46 40.66 42.03 41.62 40.91 40.70 41.77 41.52 42.36 43.57 45.07 46.38 43.50 41.46 42.12 41.41 44.99 46.36 45.92 45.52 45.36 44.97 42.26 38.61 35.13 35.99 32.45 31.21 31.89 32.55 26.72 26.61 26.93 27.13 28.65 37.46 38.19
31.07 31.84 32.20 32.29 34.44 33.02 38.12 39.96 40.57 40.82 40.90 41.34 42.37 41.32 42.56 42.75 44.42 45.63 43.11 41.38 39.46 39.26 38.30 38.67 40.40 42.45 43.72 43.28 43.14 40.86 37.45 36.51 32.37 31.47 31.60 30.32 25.32 26.14 23.78 26.09 27.38 29.31 31.16

GFSMA_sfc_wetblb_102.txt.gz
Wetbulb
63.44 64.94 65.25 64.99 65.33 65.74 65.28 65.37 64.61 61.87 59.61 56.95 55.67 54.88 54.48 54.05 54.12 54.62 55.82 60.65 65.27 68.34 69.11 68.95 69.01 68.92 68.67 68.49 68.08 67.79 67.40 66.95 65.99 65.08 64.50 63.93 63.18 62.62 62.35 62.40 62.52 62.58 62.58
63.16 63.30 63.69 64.77 64.67 65.51 64.56 64.45 63.72 61.58 59.79 57.23 56.24 56.01 55.92 56.01 54.82 54.35 54.40 56.33 61.93 65.86 68.07 68.52 68.52 68.76 68.80 68.66 68.78 68.86 68.84 68.62 68.12 67.30 66.09 65.42 64.91 64.52 64.26 64.21 64.08 63.92 63.80
63.69 63.52 63.55 63.42 63.36 64.98 64.68 63.64 63.08 61.04 59.15 57.81 55.92 55.80 55.87 55.22 55.49 54.95 54.62 54.82 56.79 62.43 64.68 66.85 68.33 68.61 68.75 68.76 68.73 68.81 69.42 68.88 68.76 68.25 67.79 66.89 66.10 65.73 65.58 65.55 65.46 65.13 65.01
63.59 63.13 63.35 63.53 64.09 64.23 64.38 63.30 62.65 61.30 59.16 58.30 56.28 55.39 55.44 55.25 55.09 54.95 54.97 55.47 55.57 57.30 60.98 64.81 66.95 68.79 69.03 68.59 68.73 68.80 68.45 68.60 68.67 68.64 68.17 67.74 67.01 66.40 65.81 64.49 64.65 64.16 64.34
64.27 63.82 63.69 63.40 64.29 64.16 64.03 63.45 61.94 61.49 58.94 58.54 56.20 55.88 55.38 55.13 55.64 57.66 56.80 57.32 56.37 56.89 57.52 60.73 63.19 64.61 66.59 68.01 68.26 68.27 67.39 67.76 68.41 68.44 68.26 67.86 66.90 65.91 64.03 63.72 63.88 63.48 63.13
64.53 63.89 62.39 62.57 62.73 61.15 62.17 62.74 62.40 60.06 59.91 59.50 57.99 57.14 55.60 56.08 56.36 56.86 57.87 59.41 59.30 57.70 57.66 58.05 58.93 60.74 63.18 65.88 66.76 66.63 66.82 66.85 67.20 67.86 67.85 67.02 65.82 64.25 63.79 63.41 62.60 62.34 62.12
62.39 63.55 63.25 61.60 62.54 60.56 60.40 61.51 61.57 60.38 57.51 57.16 55.26 55.41 56.40 56.78 57.22 57.99 58.90 59.10 59.46 59.92 59.55 58.66 58.94 59.60 60.67 63.84 65.31 65.64 65.88 66.56 66.98 67.14 67.97 66.43 64.96 64.04 63.34 62.87 61.51 60.96 60.82
61.93 61.93 63.09 62.95 62.68 61.85 61.41 61.09 60.99 59.59 59.42 57.89 55.08 54.79 52.68 54.91 57.03 58.44 58.86 59.38 59.37 59.50 59.22 59.42 59.31 59.30 59.81 60.46 60.11 63.86 64.56 65.49 66.45 66.91 66.79 65.82 64.62 63.66 63.36 61.71 60.62 60.29 60.26
62.81 62.56 62.81 62.74 62.13 62.03 61.16 61.05 60.67 60.05 57.81 57.18 58.01 55.17 52.14 51.20 53.51 56.60 57.29 58.73 58.38 57.62 58.22 58.72 58.66 58.52 58.41 57.99 59.34 59.70 61.16 62.51 65.60 66.75 66.54 65.49 64.18 63.65 62.59 61.09 60.22 60.03 59.97
62.24 62.76 62.26 62.31 62.08 61.44 61.19 60.93 60.54 59.88 58.60 56.24 55.98 57.17 56.67 55.91 53.49 52.45 54.86 54.91 56.11 56.28 56.94 57.06 57.63 57.81 57.26 56.74 56.69 56.46 58.69 60.43 63.01 66.30 65.64 65.17 64.54 63.55 62.48 61.19 60.22 59.09 59.90
60.88 61.64 62.49 62.27 61.64 61.32 60.91 60.91 60.08 59.35 59.41 58.75 57.04 56.31 55.82 55.83 55.65 53.75 52.29 53.11 54.13 54.05 55.20 55.95 56.70 57.60 57.31 57.04 56.02 56.32 58.36 60.42 62.10 63.96 65.58 65.54 64.87 64.09 62.57 60.56 59.36 58.69 58.65
59.99 60.94 61.72 62.12 62.24 61.95 61.31 60.78 60.43 59.80 59.43 59.24 58.21 57.57 56.86 56.46 55.73 54.04 52.33 52.55 52.83 53.80 54.16 55.55 56.13 56.61 56.58 55.07 55.20 55.60 57.28 59.27 61.17 62.51 63.51 63.74 64.53 63.41 61.39 59.34 58.51 57.88 57.33
59.66 60.06 60.81 60.75 60.87 61.29 61.22 60.81 60.03 59.71 59.16 58.73 58.36 57.93 57.80 57.71 57.04 56.68 55.47 53.89 53.11 54.53 53.71 53.55 54.34 54.78 54.92 53.94 53.90 54.75 56.66 59.23 61.07 61.57 62.55 63.61 62.51 59.83 58.48 57.65 57.14 56.81 56.57
59.14 60.52 60.82 61.05 61.09 61.41 61.24 60.73 60.07 59.99 59.95 59.89 59.81 59.58 59.37 58.98 58.39 57.65 56.75 55.53 52.79 51.86 50.65 51.16 51.11 53.35 53.81 53.49 54.25 54.53 55.53 57.12 58.95 60.77 60.95 60.83 57.91 56.42 55.76 55.77 55.14 54.69 54.18
53.77 55.47 58.91 59.32 59.73 60.74 60.93 60.72 60.02 59.09 59.47 59.26 59.27 59.24 59.10 59.08 58.91 59.05 58.53 58.11 56.04 52.71 53.08 49.36 49.54 51.39 51.82 52.87 53.44 53.15 53.27 55.81 57.78 58.65 57.52 55.38 53.72 53.40 53.72 53.56 53.30 52.57 51.31
50.84 51.41 52.57 54.64 56.77 58.29 59.28 59.54 59.30 59.38 58.90 58.81 58.82 58.43 58.82 59.23 59.07 58.97 58.63 58.31 57.92 56.21 53.54 51.73 49.83 49.77 51.50 51.15 51.97 50.94 50.96 52.81 54.71 54.55 53.25 51.88 51.47 51.63 51.79 51.56 51.18 50.35 48.83
47.40 48.27 49.32 50.76 52.09 53.62 55.36 57.63 58.74 58.77 58.48 58.28 58.34 58.25 58.23 58.90 58.71 58.30 58.05 57.76 56.87 56.35 54.02 46.67 47.69 47.96 48.52 49.44 48.55 48.46 49.37 48.82 50.82 52.93 51.99 51.06 50.54 50.25 50.03 49.76 49.02 48.12 46.89
44.38 44.78 45.88 46.77 47.62 48.66 50.05 51.77 52.71 55.34 58.04 57.68 57.88 57.67 57.58 57.88 57.71 58.06 57.44 56.60 56.08 55.49 51.98 45.97 45.24 45.78 46.76 49.02 47.96 47.20 46.69 46.60 46.64 50.60 50.84 50.33 49.81 49.48 49.29 48.54 47.24 46.23 45.06
41.83 42.39 42.99 43.07 44.02 45.05 46.27 47.27 48.27 49.31 51.69 52.93 56.37 57.30 57.45 57.30 56.63 56.74 56.37 55.56 54.37 52.46 51.70 47.11 44.19 45.24 44.70 46.80 45.77 45.51 44.94 43.58 43.90 47.30 49.45 49.36 49.26 48.82 48.91 48.01 46.31 44.94 43.50
39.36 40.21 40.83 40.98 41.62 42.44 44.39 44.95 45.73 45.87 46.34 47.80 50.16 52.49 53.97 56.10 56.76 56.44 56.06 55.79 54.98 53.09 51.81 48.69 44.56 44.61 43.38 44.99 45.63 43.48 41.59 41.65 40.43 41.52 45.15 46.24 48.12 48.33 48.59 48.44 46.16 43.57 41.76
36.84 38.02 38.50 38.88 39.79 40.45 42.23 43.76 44.22 44.63 44.49 44.98 46.24 48.27 50.79 50.88 49.17 51.56 54.88 55.22 54.80 53.79 52.13 50.00 43.74 42.07 42.58 42.53 43.36 43.26 42.94 41.31 41.16 39.03 38.26 40.23 42.20 42.49 44.19 46.23 44.55 42.19 41.39
34.16 35.02 34.98 36.24 37.57 39.50 41.84 42.21 43.40 42.67 43.40 43.65 43.75 45.12 46.45 47.04 48.74 50.17 50.58 50.49 52.93 53.05 50.68 49.58 46.68 44.82 43.72 44.56 44.42 42.31 38.77 37.44 36.90 40.60 38.68 37.39 39.63 38.46 39.45 40.16 42.76 42.24 41.03
32.32 32.17 32.89 34.10 35.48 36.54 40.34 40.99 41.10 41.42 41.60 42.04 41.76 42.22 43.19 44.94 45.57 46.70 48.29 49.23 49.86 50.54 51.24 50.38 48.69 47.70 44.92 44.62 43.62 40.89 37.99 37.24 37.27 35.56 36.80 35.70 35.36 35.77 35.28 38.32 43.13 42.41 40.85
30.33 30.34 31.11 32.54 33.46 34.52 38.53 39.35 40.56 38.74 40.02 40.56 39.60 40.46 41.65 42.69 43.86 44.62 44.82 44.78 46.53 48.62 49.71 49.58 50.27 49.64 48.28 45.40 43.91 43.87 41.83 38.49 33.88 35.25 35.71 34.27 31.03 32.34 31.24 32.39 42.11 42.24 40.45
28.76 28.94 30.66 31.04 30.40 31.27 36.64 37.99 37.73 35.85 37.36 38.14 39.67 40.51 40.62 41.02 43.84 45.42 44.04 42.39 43.41 44.20 45.58 47.70 47.63 47.20 46.44 46.27 45.25 40.79 37.54 37.37 33.12 32.95 34.09 33.26 28.69 28.33 28.70 28.25 30.19 40.08 39.64
28.26 29.00 29.14 29.63 32.19 30.17 34.72 37.05 36.22 33.86 33.72 35.96 39.00 39.40 41.99 42.04 44.25 44.80 43.16 42.94 41.13 41.55 40.52 40.86 42.65 45.14 45.88 45.49 44.40 44.02 39.29 38.04 32.51 31.71 32.59 31.97 27.33 27.70 26.33 26.69 27.79 29.44 32.35

GFSMA_sfc_wetblb_105.txt.gz
Wetbulb
67.76 68.03 67.55 68.26 68.89 68.62 68.61 68.35 67.70 66.14 64.66 62.65 61.37 60.67 60.92 61.28 61.39 61.41 61.82 60.67 64.21 67.61 68.93 69.33 68.98 68.60 68.33 68.02 67.88 67.67 67.39 67.00 66.23 65.39 64.73 64.18 63.49 62.90 62.73 62.67 62.88 63.07 63.36
66.26 67.41 67.30 66.63 67.09 67.47 67.62 67.80 67.34 66.68 64.58 63.62 61.75 60.61 60.29 60.42 60.57 60.73 61.04 61.45 61.89 64.86 67.47 69.11 69.15 69.16 69.37 69.23 69.02 68.89 68.95 68.68 68.30 67.71 66.63 65.79 65.17 64.68 64.40 64.41 64.25 64.09 64.28
66.85 66.25 66.47 66.74 67.02 67.42 66.62 66.01 66.87 65.49 65.13 63.77 62.42 61.53 60.86 61.22 61.04 61.16 61.26 60.87 61.12 60.97 64.77 66.90 68.30 68.68 69.04 69.14 69.12 69.09 69.67 68.89 68.49 68.43 68.05 67.28 66.50 65.78 65.62 65.50 65.53 64.89 64.43
66.72 66.61 66.29 66.44 66.96 66.88 67.08 66.66 63.94 64.00 62.65 63.63 62.25 60.91 61.07 60.83 61.01 60.93 60.97 61.05 60.63 60.55 61.81 64.77 66.58 68.31 69.08 69.06 69.29 69.17 69.30 68.78 68.62 68.98 68.26 67.93 67.54 66.66 66.27 65.38 64.51 63.66 63.80
65.77 65.93 66.16 66.42 66.70 66.40 66.19 65.99 64.38 63.40 61.91 60.93 61.91 61.64 62.21 61.35 60.72 60.57 60.89 60.64 60.82 60.64 61.11 61.18 63.07 64.28 66.54 68.76 68.82 68.87 68.64 68.34 68.30 68.66 68.23 68.39 67.48 66.80 65.95 64.47 64.11 63.44 62.75
65.19 65.61 65.05 65.04 65.81 64.99 64.61 65.12 63.94 62.06 61.61 61.55 60.58 59.77 61.22 61.72 61.44 61.48 61.45 61.21 61.74 61.64 61.40 61.27 61.59 62.04 62.74 66.12 67.59 68.05 68.18 67.30 67.42 67.65 67.77 67.92 67.32 66.33 64.66 64.37 63.42 62.70 61.62
63.94 64.95 64.58 63.94 64.64 63.60 63.13 63.52 63.88 62.27 60.69 60.05 59.23 58.75 59.10 60.05 60.26 61.11 61.20 61.17 61.52 62.60 62.85 61.92 61.57 62.31 62.80 63.82 65.94 67.36 67.30 67.04 67.11 67.09 67.43 67.65 66.65 65.11 64.51 64.01 63.00 61.77 61.38
63.58 64.01 64.37 63.52 63.35 63.72 62.60 62.12 62.28 61.15 60.80 59.06 57.87 56.32 55.13 57.69 59.06 60.47 61.28 60.56 60.98 62.42 62.57 62.67 62.36 62.22 63.20 63.89 64.02 65.25 66.44 66.86 66.89 67.07 67.60 67.59 66.02 65.01 64.41 63.75 62.30 61.45 60.58
63.86 63.64 63.79 64.49 64.38 63.66 63.41 61.81 61.24 60.04 58.81 59.34 59.36 57.02 54.08 53.93 57.21 59.68 60.39 61.22 61.38 61.81 61.63 62.31 61.97 62.52 62.68 63.41 63.06 63.09 62.98 64.73 65.74 66.56 67.39 66.94 65.87 64.91 64.50 63.16 62.01 61.34 60.10
62.95 63.88 63.91 63.81 64.01 63.84 63.04 61.77 61.54 60.73 59.79 57.17 57.17 58.84 59.15 58.03 55.56 54.78 57.90 58.17 60.07 60.58 61.41 61.73 62.00 61.42 61.98 62.51 61.25 60.05 60.06 61.43 64.42 65.91 66.99 66.90 66.07 65.39 64.62 63.01 62.07 61.25 60.84
62.52 63.02 63.60 63.49 63.54 63.68 63.37 62.86 61.12 60.43 60.53 59.33 58.03 57.01 57.27 57.89 59.43 57.58 56.15 57.52 57.03 58.44 60.47 60.79 60.04 60.94 61.54 62.00 62.09 60.14 58.53 61.10 64.12 65.75 66.35 66.83 66.10 65.51 64.61 63.26 61.91 60.53 59.88
61.32 61.66 62.24 63.01 63.38 63.10 62.61 62.19 61.81 61.35 60.48 59.94 59.51 58.33 57.15 56.22 57.18 57.48 55.89 56.75 56.48 58.64 57.76 58.81 59.55 60.25 61.37 60.58 59.12 57.25 57.68 60.34 63.17 64.38 65.76 66.41 65.80 65.36 64.76 63.20 61.31 60.17 59.03
60.13 60.26 60.87 61.27 61.64 62.53 62.49 62.26 61.55 61.20 60.77 59.67 59.07 58.66 58.69 58.38 60.07 58.95 58.12 57.33 56.27 57.62 57.22 57.26 58.29 58.82 59.82 59.74 58.91 55.18 56.17 58.69 60.99 63.19 64.42 64.91 64.48 64.21 63.16 61.55 60.74 59.42 58.09
53.19 54.51 55.40 59.11 60.38 60.83 60.95 61.07 60.86 60.60 60.66 60.09 59.59 59.23 59.18 58.99 58.73 58.09 58.57 57.42 55.31 54.41 56.29 56.82 56.47 57.02 58.35 57.69 56.12 54.09 56.46 57.37 59.40 61.80 63.02 63.45 62.37 60.51 59.78 59.26 58.72 57.96 56.90
51.12 51.81 52.64 53.47 54.57 55.74 57.39 59.86 60.42 59.95 59.97 59.77 59.76 59.75 59.36 59.87 59.70 59.45 59.11 58.64 57.19 53.10 53.95 54.16 53.53 53.62 55.22 55.46 55.33 55.90 56.18 56.09 58.67 59.70 60.07 58.95 57.32 56.91 57.08 56.95 56.20 55.60 54.09
46.94 47.89 48.98 50.43 51.12 51.83 52.18 54.13 57.09 59.21 58.95 59.63 59.74 59.65 59.53 59.58 59.65 59.92 59.43 59.46 58.94 56.21 53.64 56.15 53.97 52.72 54.11 54.06 54.44 55.65 54.31 53.82 56.35 58.09 56.75 54.91 54.44 54.82 55.01 54.79 54.07 53.41 52.27
43.87 44.48 45.64 46.59 47.13 48.01 49.24 50.08 51.28 52.51 53.31 57.14 58.40 58.28 58.28 58.83 58.55 58.97 59.33 58.92 57.91 57.23 54.82 55.74 50.58 50.25 51.56 52.49 51.70 53.60 53.40 54.40 55.25 55.24 54.44 53.44 53.18 53.09 53.19 52.95 52.38 51.43 50.37
41.60 42.15 42.55 42.84 43.53 44.60 46.66 46.88 47.46 48.43 48.64 50.11 51.54 55.07 57.45 57.54 57.88 58.29 58.10 57.40 57.06 57.60 56.25 54.50 47.65 47.20 49.02 51.41 50.64 49.78 49.31 50.34 51.77 53.12 53.18 52.27 51.83 51.64 51.25 51.05 50.22 49.28 48.18
39.22 40.00 40.63 40.58 41.03 41.73 43.63 44.95 45.55 45.83 46.35 47.11 48.23 49.27 50.93 52.46 55.69 57.28 57.26 56.79 56.79 56.15 55.99 52.55 45.08 46.36 45.71 48.77 47.34 47.32 47.27 46.87 47.31 50.74 52.35 51.61 51.13 50.74 50.41 49.80 48.77 47.67 46.48
37.28 37.70 38.05 38.63 39.61 40.38 41.31 42.45 43.06 43.87 44.60 45.28 46.34 47.28 48.44 50.00 50.64 51.22 53.09 56.19 56.17 54.71 53.02 50.59 46.51 45.33 44.75 45.77 47.50 45.14 43.09 44.45 44.00 45.81 48.85 49.54 50.29 49.95 49.97 49.52 48.11 46.31 44.86
36.25 36.20 36.11 36.52 37.73 38.88 39.53 40.42 40.72 41.06 41.63 42.36 44.01 45.15 46.36 46.41 45.91 48.17 49.31 50.43 53.10 53.80 52.35 50.12 45.69 43.81 43.20 43.90 44.94 45.20 44.68 43.06 41.75 41.60 43.85 46.57 47.94 48.16 48.88 49.41 47.21 45.08 43.50
34.42 34.26 34.36 34.68 35.48 36.28 38.81 39.94 39.95 39.45 39.50 39.89 40.14 42.24 43.82 44.46 45.97 47.09 47.73 48.10 49.16 49.17 51.50 50.85 48.21 46.46 46.22 46.57 46.66 44.73 42.83 40.06 38.38 41.66 41.69 42.27 45.57 44.88 45.59 45.81 46.48 44.50 43.60
32.96 32.94 32.98 33.49 33.92 34.84 37.66 38.66 39.07 38.71 38.20 38.60 38.95 39.71 40.80 42.52 43.65 44.20 45.67 46.54 47.44 48.52 49.33 50.99 49.99 48.45 48.60 47.64 46.23 43.55 42.89 43.55 43.86 40.24 41.91 39.66 40.10 40.85 41.32 41.78 45.43 44.44 43.59
31.42 31.75 32.25 32.92 33.28 34.08 36.70 37.46 37.98 37.20 37.00 37.62 38.94 39.42 40.00 40.16 42.06 42.84 43.10 44.28 45.11 46.43 47.98 49.05 50.23 51.67 51.22 48.96 48.51 46.96 45.99 43.53 36.56 38.84 41.60 37.32 36.55 38.19 37.82 39.35 44.19 44.39 43.25
30.29 30.25 31.20 31.70 31.93 32.79 35.79 36.56 36.78 36.02 35.15 35.15 36.34 37.20 38.52 40.01 41.10 41.68 41.41 41.80 42.90 44.12 46.02 46.73 47.50 48.77 49.14 48.49 48.57 45.43 40.67 38.82 34.12 34.18 37.20 35.36 32.55 32.43 33.27 34.95 38.45 44.20 42.99
28.99 30.14 29.71 30.87 31.80 32.31 33.82 35.73 35.99 35.03 33.27 33.48 34.64 35.41 37.40 38.88 40.56 41.31 40.50 40.37 39.70 41.64 43.83 44.01 45.16 46.24 47.47 47.41 46.86 46.02 42.23 41.05 34.36 32.51 35.16 34.17 31.49 31.76 31.89 32.09 34.64 38.00 40.76

GFSMA_sfc_wetblb_111.txt.gz
Wetbulb
69.21 68.95 69.18 70.15 70.03 70.81 70.32 70.11 69.94 68.36 67.74 66.59 65.81 65.21 64.61 64.96 65.04 65.35 65.37 63.96 65.85 67.20 68.36 69.37 69.31 68.75 68.31 68.12 67.86 67.47 67.20 66.84 66.35 65.91 65.35 64.66 64.17 63.78 63.64 63.50 63.52 63.63 63.82
67.93 68.92 69.76 70.27 70.29 70.98 70.74 69.76 69.06 69.22 67.39 66.07 65.20 64.22 63.69 64.44 64.51 64.32 64.64 64.53 64.70 65.97 66.68 67.92 69.26 69.40 69.19 68.95 68.79 68.48 68.17 68.06 67.90 67.63 67.00 66.45 65.80 65.14 64.69 64.45 64.58 64.69 64.68
66.35 67.24 68.17 69.30 69.64 70.57 69.98 70.22 69.24 68.83 67.39 65.99 63.48 61.49 61.74 62.92 63.45 63.12 63.62 64.09 63.62 62.57 64.97 66.63 67.41 68.63 69.59 69.56 69.67 69.22 69.50 69.61 69.16 68.64 68.37 68.08 67.47 66.60 65.95 65.41 65.33 65.58 65.62
66.22 66.17 66.60 67.90 68.47 68.59 68.68 68.20 67.19 65.57 66.29 65.06 64.07 62.10 60.08 60.22 61.57 61.85 62.57 62.84 63.36 63.55 62.43 64.63 66.58 67.44 68.40 69.32 69.66 69.64 69.64 69.15 69.20 69.00 68.65 68.96 68.71 68.04 66.95 66.32 65.92 66.05 64.92
65.55 65.16 64.52 65.24 66.58 67.05 67.13 67.11 67.43 67.16 65.79 66.08 65.69 65.19 64.08 62.72 61.55 61.17 60.70 62.45 63.26 63.62 64.00 63.20 63.20 64.45 66.30 68.40 68.89 69.57 69.88 69.20 68.69 69.03 68.99 69.05 69.02 68.78 67.67 67.12 66.27 65.41 64.27
64.52 64.85 64.96 64.47 64.35 65.43 66.06 66.04 65.96 66.46 65.53 64.84 63.99 64.09 65.41 64.62 63.14 62.99 61.76 61.80 62.52 63.69 64.06 63.85 63.45 62.20 62.70 65.78 67.14 67.99 69.06 69.71 69.18 69.08 68.90 68.76 68.83 68.76 67.98 67.71 66.59 64.94 64.26
65.44 65.39 64.38 64.25 64.86 64.34 64.07 64.85 64.44 63.86 63.84 64.70 63.18 62.61 63.61 64.11 63.47 62.71 62.84 62.67 61.98 61.75 63.82 63.82 63.60 63.71 63.38 63.32 64.81 66.70 67.71 68.49 69.14 69.04 68.94 68.52 68.32 67.95 68.00 67.55 66.49 64.94 64.09
65.04 64.91 64.10 63.88 64.97 64.50 63.84 63.67 63.35 62.53 62.95 63.50 60.47 59.74 57.20 59.10 60.48 62.09 62.83 62.89 61.42 61.08 62.25 62.89 62.19 62.94 63.05 63.65 62.38 63.88 66.27 67.25 68.31 68.82 68.88 68.39 67.97 67.94 67.81 67.46 66.21 65.01 64.03
65.36 65.24 64.77 64.47 63.80 64.49 63.55 63.60 62.96 61.94 60.76 62.80 62.48 60.48 56.20 54.37 58.23 61.65 61.00 61.48 61.35 60.90 61.05 61.35 61.72 62.19 63.29 63.49 63.56 62.80 62.58 64.79 67.70 68.30 68.38 67.95 68.31 67.69 67.95 67.32 66.10 65.14 63.76
63.85 63.88 64.88 64.56 64.05 63.93 63.16 63.30 64.16 63.52 62.71 60.88 62.22 62.68 62.19 60.11 55.20 54.93 59.37 60.52 61.28 60.37 60.67 61.38 62.14 62.55 63.10 63.61 62.15 61.47 61.24 62.46 65.83 67.10 67.94 67.71 67.40 67.45 67.58 67.02 66.39 65.61 63.73
63.11 62.70 63.38 63.69 63.60 63.66 63.24 63.36 63.14 63.41 63.42 62.06 61.21 60.75 60.63 60.52 58.85 55.19 53.46 56.59 60.57 61.02 60.76 61.37 62.62 62.95 63.17 63.48 64.08 62.80 60.93 63.14 65.54 66.73 67.60 67.68 67.03 67.31 67.22 67.28 66.61 65.79 64.04
55.53 55.51 56.85 58.63 61.87 61.87 61.76 62.18 62.68 62.38 62.44 62.33 61.88 61.02 59.03 56.81 55.92 55.10 53.61 54.18 54.57 57.87 59.78 60.64 61.02 62.10 63.28 63.28 62.23 60.21 59.94 62.23 65.38 66.39 67.40 67.23 66.54 67.45 67.36 67.08 66.54 65.83 64.32
52.14 51.88 53.44 54.64 55.47 55.72 55.76 57.12 59.14 61.06 61.71 60.63 60.41 60.25 60.30 58.95 58.58 57.37 55.40 54.11 53.45 56.18 57.22 59.75 60.86 61.14 62.36 63.31 62.77 58.26 58.16 60.67 63.36 65.28 66.38 66.42 65.96 65.42 66.20 66.56 66.59 66.08 64.61
48.94 49.38 50.45 51.32 51.32 51.78 52.43 53.26 55.82 55.48 55.05 59.24 60.39 60.92 60.44 60.23 60.19 59.41 57.54 55.71 53.50 54.14 55.81 56.27 59.13 60.79 61.61 62.41 61.77 56.60 59.60 58.49 60.36 63.04 64.48 64.68 63.65 62.86 63.06 64.47 65.22 65.53 64.74
45.38 46.20 47.18 47.33 47.86 48.63 49.69 50.48 51.29 50.85 51.51 53.22 53.85 53.13 55.97 59.78 60.41 60.12 59.62 58.49 55.78 52.50 53.26 56.10 57.02 59.47 59.87 61.21 60.20 59.78 59.92 56.54 58.50 59.83 60.92 60.87 59.94 60.12 60.83 62.33 62.70 62.92 62.47
43.08 43.72 43.89 44.29 44.78 45.70 47.26 47.75 48.35 48.89 49.00 49.73 50.32 50.29 51.58 52.26 53.38 55.50 58.81 59.05 58.36 56.31 53.71 56.43 56.87 56.91 58.05 57.82 57.93 58.80 58.23 55.01 56.34 58.08 58.34 57.68 57.77 58.42 59.29 60.33 60.88 60.82 60.31
40.59 40.51 41.09 41.51 42.10 42.24 43.65 44.50 44.03 45.34 45.29 46.17 47.40 47.63 48.46 49.77 50.16 51.85 52.14 54.15 57.44 57.26 54.59 55.67 56.64 57.19 54.94 55.56 55.15 56.18 56.57 56.69 57.30 56.09 57.66 57.44 56.89 56.96 58.03 58.81 58.68 58.50 57.94
40.05 39.59 39.66 39.84 39.97 41.00 41.76 41.82 41.27 42.24 42.28 42.28 43.24 44.67 45.54 47.39 48.12 49.24 48.34 48.40 49.82 50.40 53.64 54.16 55.97 52.89 53.77 54.22 55.48 54.64 54.64 55.48 56.39 55.81 55.88 56.30 56.31 56.24 57.22 56.89 56.49 56.10 55.40
38.40 38.40 38.47 38.09 38.33 39.04 39.77 40.07 40.21 40.63 41.40 41.99 42.31 42.70 43.70 44.90 44.66 44.14 45.22 46.92 48.06 49.34 49.12 48.99 53.52 52.70 53.20 50.66 51.19 52.21 52.66 53.63 53.70 53.34 55.68 55.84 56.56 56.48 56.19 55.36 54.91 54.22 53.25
36.60 36.83 36.94 36.96 37.29 37.57 38.21 38.13 38.40 38.71 39.28 40.26 41.05 41.38 41.20 41.98 41.03 42.41 43.55 44.23 45.54 45.46 47.27 47.40 48.23 48.42 47.38 47.15 49.19 47.35 45.81 46.41 49.10 49.65 53.43 54.90 55.66 54.76 54.43 54.06 53.21 51.54 50.38
35.87 36.10 36.12 36.43 36.68 36.64 37.06 36.76 37.25 37.26 37.36 37.77 38.82 39.09 40.05 40.82 41.40 43.05 41.35 42.31 42.32 41.98 43.19 44.09 45.39 45.74 44.94 44.74 45.47 46.91 47.47 45.94 44.56 45.68 48.54 49.76 51.36 51.52 52.17 52.44 50.66 49.23 49.19
35.47 35.47 35.20 35.25 35.24 35.84 38.29 37.76 37.60 36.50 36.65 36.83 36.63 37.47 38.32 39.33 40.09 40.91 42.56 42.94 42.26 40.02 40.31 40.56 42.10 43.33 45.69 46.72 46.97 46.06 45.05 40.98 39.76 44.06 46.28 47.00 49.59 48.65 49.64 50.15 49.96 49.01 48.32
34.79 34.30 34.35 34.57 34.20 35.05 37.21 37.33 37.61 36.27 36.09 36.60 36.83 36.78 36.68 37.45 38.84 37.94 39.60 40.54 41.01 42.10 41.97 40.37 40.19 42.16 44.62 46.76 48.26 44.98 44.58 42.96 44.44 43.55 47.15 45.16 45.43 45.65 47.90 48.59 49.29 48.34 47.70
33.34 33.26 33.62 33.93 33.90 34.44 36.31 36.47 36.97 36.07 35.97 36.32 36.68 36.19 35.91 36.01 36.83 37.20 36.14 35.75 36.57 37.82 39.01 39.75 39.61 40.65 42.64 44.09 44.28 44.76 46.83 46.47 41.86 41.10 47.01 44.24 43.32 44.66 45.65 46.97 49.06 48.20 47.32
32.52 32.80 33.23 33.16 33.13 33.76 35.64 35.75 35.77 35.36 35.40 35.21 36.24 36.51 36.29 35.45 36.94 37.05 34.55 33.54 33.92 34.77 37.68 38.83 39.96 41.24 42.08 43.87 44.37 44.14 42.14 42.58 40.57 36.89 42.78 41.30 36.92 38.97 39.82 40.50 46.84 48.02 47.15
32.23 32.85 32.50 33.59 34.16 33.53 35.77 35.82 35.48 34.54 33.29 33.88 35.00 35.52 37.29 35.76 36.20 36.32 33.96 32.35 30.59 31.66 33.16 34.23 35.04 36.75 39.36 40.59 43.71 43.37 43.35 41.58 42.24 36.22 38.19 39.83 34.06 33.92 33.83 34.90 39.20 45.87 45.62

GFSMA_sfc_wetblb_114.txt.gz
Wetbulb
65.19 65.80 65.12 66.58 68.17 67.91 67.68 67.53 67.31 67.35 66.29 65.21 64.35 61.86 60.83 62.16 61.87 61.51 62.06 64.28 66.88 68.67 68.99 69.57 69.62 69.00 68.47 68.23 67.99 67.58 67.16 66.80 66.42 66.07 65.66 65.04 64.58 64.31 64.10 63.95 63.78 63.81 63.90
65.33 65.75 66.48 66.82 67.16 67.87 67.73 67.37 67.04 66.86 65.81 65.81 63.98 63.73 61.89 61.14 60.15 60.28 60.32 62.47 64.98 66.61 68.28 68.50 69.41 69.93 69.52 68.97 68.72 68.45 68.00 67.77 67.62 67.36 66.96 66.66 66.15 65.53 65.06 64.73 64.64 64.65 64.77
65.59 64.97 66.06 66.53 67.10 67.59 67.60 67.02 66.63 66.67 65.59 64.78 62.28 62.04 61.60 61.38 59.25 60.33 59.63 60.54 63.06 63.75 65.96 67.36 67.90 68.73 69.66 70.11 69.81 69.29 69.34 69.32 69.01 68.83 68.38 68.32 67.97 67.39 66.40 65.86 65.39 65.31 65.54
64.30 64.14 65.70 64.78 66.57 66.39 66.56 66.46 66.04 65.19 65.34 64.39 63.89 62.66 62.20 60.61 58.95 59.23 59.85 59.71 60.26 61.64 63.33 66.03 67.29 68.13 68.63 69.15 69.97 70.00 70.08 69.11 68.96 68.95 68.82 68.67 68.58 68.59 67.51 66.98 66.32 65.80 66.04
63.84 63.52 64.03 63.29 63.60 63.48 64.57 65.10 64.83 64.69 63.21 63.36 63.81 63.90 62.59 60.58 59.03 59.56 57.50 57.75 58.41 59.52 60.90 61.90 63.66 64.76 66.64 68.54 68.49 69.47 69.81 69.74 69.27 68.95 68.83 68.88 68.93 69.07 68.61 67.85 67.15 66.38 66.22
63.54 62.62 62.50 62.75 62.92 62.30 62.08 63.72 63.49 63.45 63.34 63.12 63.58 63.35 62.63 62.50 60.05 59.51 59.94 60.37 59.03 60.54 59.99 60.64 60.92 61.28 63.15 66.18 67.79 68.16 69.04 70.32 69.80 69.14 68.94 69.09 69.01 69.06 68.69 68.25 67.83 66.94 66.10
63.46 62.45 62.82 63.07 61.71 61.46 61.32 62.99 62.76 61.97 62.20 63.30 61.10 61.11 62.31 63.47 62.86 61.63 61.07 61.33 60.96 60.74 60.78 61.68 61.42 59.93 60.85 63.54 65.41 67.21 68.55 69.09 70.13 69.79 69.37 69.20 68.93 68.23 67.92 68.07 68.10 67.60 65.92
64.04 63.22 62.84 61.75 61.83 62.18 61.63 61.95 61.75 61.29 61.74 62.44 59.29 59.26 56.65 58.97 61.90 62.32 62.33 61.77 60.92 60.19 58.65 59.46 60.97 60.94 61.46 60.79 60.90 64.34 66.57 68.26 68.54 69.79 69.74 69.53 68.66 67.86 67.81 67.83 67.98 67.64 65.84
63.20 63.46 62.03 61.72 61.80 61.59 61.19 61.02 61.68 61.56 59.92 60.53 61.53 59.01 55.65 53.96 55.93 58.78 60.37 61.13 60.90 60.88 61.09 60.60 60.19 59.51 60.84 60.41 61.55 61.55 62.85 64.93 67.68 69.02 69.76 69.38 69.17 68.10 67.76 67.50 67.80 67.57 66.05
62.99 63.03 63.18 62.17 61.19 60.83 60.37 60.36 62.06 61.47 60.43 59.22 60.85 61.77 60.45 58.87 53.89 51.60 55.19 58.07 59.90 59.73 59.96 60.30 60.38 60.21 60.49 60.71 60.27 60.20 60.54 62.10 65.98 67.43 68.60 69.12 68.94 68.15 67.93 67.52 67.61 67.35 66.19
58.57 59.10 59.65 61.22 61.15 60.32 59.56 59.82 61.22 60.14 60.90 59.69 59.04 58.41 59.15 59.35 57.79 55.53 53.63 53.79 55.40 58.29 58.40 59.03 59.40 59.50 60.60 60.96 61.36 61.16 60.60 62.58 65.55 66.76 67.86 68.37 68.41 68.42 68.13 67.74 67.51 67.63 66.91
53.83 54.71 56.42 56.71 56.93 56.40 56.52 58.02 59.56 59.74 59.64 59.83 59.75 58.91 58.31 56.75 56.48 56.14 55.17 55.15 54.78 57.05 58.39 58.56 59.57 59.84 60.46 60.80 60.30 59.58 60.10 62.18 65.36 66.97 67.91 68.52 68.34 68.23 68.25 67.84 68.43 67.35 66.36
48.63 49.50 50.97 51.38 51.71 52.50 53.25 53.56 55.89 55.68 54.38 56.35 58.48 59.16 59.45 59.27 59.20 57.90 56.36 55.35 54.60 55.95 55.77 57.68 59.11 60.51 60.45 61.20 61.42 58.07 58.65 60.95 63.66 66.44 67.45 67.91 67.54 66.66 66.84 67.40 67.41 66.50 66.24
45.55 46.67 46.79 47.64 48.33 49.41 50.29 51.48 52.30 51.19 51.57 52.44 52.78 52.71 53.54 56.58 58.76 59.13 57.47 55.97 54.01 54.61 55.78 55.30 57.83 59.08 60.05 61.04 60.89 57.05 60.21 58.82 60.97 63.94 66.11 66.04 65.11 64.00 64.15 65.04 65.67 65.87 64.87
43.28 43.80 44.18 44.71 45.35 46.79 47.59 48.66 49.05 48.53 49.70 49.94 50.63 50.14 50.71 52.05 52.06 52.98 53.19 54.42 55.76 52.54 53.85 56.01 55.30 58.16 58.82 59.76 60.20 60.47 59.91 57.41 59.41 60.80 62.02 62.09 60.77 60.84 61.26 62.16 62.56 63.02 63.20
39.74 40.43 40.89 42.30 42.41 43.54 44.97 45.39 45.39 46.67 46.04 47.45 48.22 47.69 48.18 49.07 49.80 51.16 51.66 50.86 50.76 50.18 52.47 56.87 57.38 58.00 58.52 58.50 58.80 60.17 59.38 55.77 57.01 59.07 59.33 58.79 58.49 58.57 58.94 59.51 60.07 60.87 61.22
39.16 39.32 39.78 40.54 40.59 41.24 42.76 42.83 42.50 42.94 42.69 43.24 44.37 44.37 45.11 47.19 47.29 48.61 47.38 47.80 48.43 48.78 47.42 49.61 53.14 56.94 56.23 57.13 56.59 58.24 57.60 57.70 57.71 56.58 58.19 58.11 57.84 57.50 57.60 57.92 58.28 59.05 60.16
37.28 36.08 35.64 35.97 37.31 38.11 39.27 39.71 39.05 40.00 40.82 40.65 40.90 41.76 42.04 43.97 45.08 44.02 44.58 45.52 46.26 47.72 46.67 45.38 48.35 50.24 54.65 56.06 56.62 56.05 56.11 56.44 56.69 55.87 56.25 56.88 56.56 56.33 56.37 56.53 56.63 57.54 58.31
35.38 35.33 34.87 34.85 34.99 35.81 36.01 37.17 37.26 37.05 37.13 38.54 39.57 39.87 40.33 41.11 40.75 39.84 42.66 41.86 43.93 44.21 45.26 45.23 45.29 48.32 50.93 50.90 52.09 52.62 53.25 54.54 54.40 53.71 56.12 56.14 56.32 56.40 56.18 55.97 56.15 56.84 56.50
33.03 33.18 33.70 34.85 35.48 35.68 36.00 36.45 36.60 36.28 36.34 36.78 37.98 38.16 38.35 38.78 38.31 38.31 40.66 40.40 41.39 40.64 41.12 41.86 42.97 44.94 47.17 47.80 48.38 48.08 48.18 48.02 50.32 49.74 52.23 53.73 55.00 55.11 55.62 55.88 55.43 54.91 53.97
33.57 33.46 33.98 34.15 34.14 34.45 35.89 35.33 35.67 35.33 34.83 34.98 36.28 37.36 37.59 38.62 40.28 39.76 38.14 39.15 39.73 38.57 38.26 38.39 39.19 40.33 42.35 44.38 45.77 47.10 46.65 48.34 45.98 46.95 48.92 50.90 52.42 53.90 54.86 54.91 54.34 52.03 51.98
30.85 31.19 30.97 31.18 30.76 34.07 36.94 37.83 36.80 34.85 34.72 34.23 34.46 35.33 36.31 37.90 38.06 38.89 39.64 39.94 38.55 36.22 36.72 36.59 36.80 37.05 39.15 42.07 43.92 44.07 44.94 42.17 40.42 45.01 45.78 47.68 50.21 49.85 51.58 53.57 52.16 51.33 50.88
29.02 28.82 29.27 30.13 29.95 30.48 36.49 37.30 37.24 34.08 33.48 33.22 33.71 34.12 34.63 35.82 36.34 35.27 36.49 36.75 36.89 37.84 38.23 35.79 35.00 35.47 35.76 37.77 39.91 38.93 40.10 41.27 43.37 45.74 44.94 44.67 44.83 45.96 48.84 49.83 50.64 50.09 50.05
27.88 28.30 28.81 29.41 29.34 31.61 36.12 36.60 36.77 33.28 32.94 32.99 33.37 33.24 32.83 32.52 33.62 34.61 33.18 32.10 32.96 33.72 34.71 35.19 33.67 34.06 35.29 37.26 38.46 39.30 40.13 40.28 42.62 42.52 45.04 41.70 42.14 44.42 44.84 47.19 49.84 49.41 48.95
27.59 27.94 29.47 29.05 28.87 29.58 35.54 36.30 35.06 31.97 32.17 31.30 32.60 32.28 32.81 32.29 35.80 36.81 32.59 30.81 30.57 31.13 35.24 36.54 36.80 37.27 37.65 38.16 38.17 36.91 35.55 35.78 36.86 38.50 40.77 41.35 38.38 39.47 39.17 42.50 47.37 48.90 48.50
29.10 30.28 30.11 30.20 32.24 30.65 34.67 35.92 34.97 32.92 30.92 31.28 31.46 32.34 35.54 34.83 37.07 36.65 33.07 30.28 29.50 29.67 31.12 31.68 32.10 33.03 34.18 34.01 37.62 36.24 36.14 34.93 35.42 36.27 38.34 39.02 35.51 35.42 35.33 36.56 39.08 47.10 47.24

GFSMA_sfc_wetblb_117.txt.gz
Wetbulb
65.83 65.94 64.75 65.50 66.91 67.59 67.26 66.80 66.62 66.47 65.84 64.90 64.09 61.65 63.11 63.00 62.25 61.16 61.77 64.36 67.42 69.29 70.02 69.61 69.61 69.10 68.52 68.31 68.10 67.68 67.23 66.79 66.49 66.14 65.76 65.20 64.74 64.54 64.51 64.42 64.18 64.09 64.04
64.87 64.86 64.50 65.14 65.59 67.21 67.11 67.29 66.75 66.47 66.12 65.52 64.18 63.40 60.92 62.41 62.86 61.95 61.45 63.46 65.53 67.56 69.20 70.21 69.79 69.85 69.61 69.03 68.67 68.32 67.94 67.68 67.41 67.08 66.79 66.56 66.22 65.67 65.38 65.11 64.83 64.67 64.73
63.52 64.31 64.20 64.32 65.38 66.49 66.50 65.98 65.61 66.32 65.58 64.74 64.17 64.05 62.51 60.76 60.48 60.18 58.87 61.38 63.54 64.19 66.88 69.31 69.46 70.07 70.60 70.04 69.64 68.96 69.31 69.08 68.63 68.40 67.97 67.85 67.84 67.55 66.69 66.24 65.74 65.42 65.38
63.41 62.85 63.76 64.71 65.27 65.61 65.74 65.23 66.00 65.35 65.31 64.63 63.97 62.97 61.32 60.77 60.33 59.41 60.16 61.03 62.04 63.13 63.98 66.60 67.82 68.92 69.60 69.62 70.08 70.25 70.27 69.60 69.23 69.17 69.13 68.94 68.54 68.21 67.86 67.35 66.83 66.21 65.85
62.25 62.17 63.31 63.18 63.23 63.30 63.45 63.67 63.51 63.65 63.25 64.08 64.28 64.39 64.16 62.65 61.19 61.11 58.85 58.09 58.68 60.24 60.67 62.97 64.56 65.53 66.96 68.95 68.82 69.55 70.42 70.19 69.50 69.18 69.13 69.03 68.90 68.55 68.48 68.21 67.99 67.19 66.49
62.43 60.92 61.88 61.94 62.03 61.35 61.11 61.78 62.00 62.12 62.82 62.69 63.50 63.57 63.59 63.57 62.41 60.47 60.06 59.55 57.41 57.79 58.92 59.07 60.69 62.20 63.58 66.55 68.38 68.93 69.76 70.33 69.91 69.53 69.34 69.18 68.98 69.00 68.69 68.29 68.60 67.95 67.32
61.29 61.77 61.49 60.98 60.98 60.28 60.29 60.50 60.87 59.67 59.61 62.08 61.07 60.74 61.64 62.87 62.43 62.15 60.76 59.62 59.35 59.57 57.69 59.18 60.44 60.78 61.24 63.61 65.73 67.56 68.87 69.73 70.40 70.09 69.55 69.15 68.96 69.11 68.35 68.03 68.07 68.25 67.97
61.75 62.30 61.91 61.14 60.41 58.97 59.24 60.35 61.43 60.92 61.29 62.36 59.21 58.91 56.65 58.33 61.31 62.51 62.69 62.49 61.03 61.09 58.79 57.85 58.37 59.13 59.59 60.16 61.32 64.47 66.77 68.57 69.54 70.39 70.27 69.62 69.33 69.21 68.49 68.27 67.56 68.48 68.43
60.23 61.59 62.10 62.15 60.79 59.91 60.12 60.17 60.43 60.50 58.41 59.06 60.90 58.22 55.02 53.79 56.29 59.89 61.02 61.60 61.71 61.50 61.15 60.72 58.80 58.86 59.75 60.60 60.66 61.21 62.47 64.79 67.60 69.22 70.17 70.32 69.76 69.52 68.69 68.32 67.75 67.97 68.59
56.20 56.65 60.60 61.83 61.07 61.02 59.02 59.64 59.75 58.71 57.99 56.78 58.30 60.41 60.05 57.44 53.22 52.38 56.31 58.88 60.68 60.44 60.27 60.20 60.41 60.13 58.43 58.44 58.86 59.41 59.94 61.77 65.62 67.47 68.73 70.00 70.08 69.46 68.95 68.33 67.86 67.78 68.34
52.53 52.21 54.11 59.06 60.94 60.69 60.13 59.28 59.22 59.16 59.04 59.64 58.85 56.66 58.17 58.88 59.00 56.53 54.71 55.51 55.39 57.66 59.29 59.52 59.90 60.08 60.69 60.71 59.87 58.95 59.56 62.04 65.37 67.11 68.10 69.11 69.98 69.80 69.17 68.46 67.88 67.79 68.18
49.08 48.84 50.28 52.75 53.59 55.37 55.59 56.52 57.61 56.48 56.37 58.70 58.94 57.62 57.79 56.47 56.06 56.05 55.23 56.08 55.82 57.15 57.47 57.10 57.23 58.46 59.71 59.51 59.01 57.85 58.75 61.13 64.17 66.71 67.91 68.82 69.17 69.42 69.47 69.21 68.70 68.41 68.03
43.53 44.17 46.41 47.75 49.57 50.51 52.30 53.68 53.10 52.02 52.68 52.63 52.96 53.10 54.34 56.27 56.81 57.71 56.57 55.65 55.12 56.70 56.63 57.20 58.02 58.50 58.67 59.09 59.59 56.60 57.39 60.12 62.40 65.68 67.62 68.39 67.80 67.67 67.49 68.73 68.98 68.71 68.12
42.09 43.28 44.19 44.54 46.34 47.37 48.49 50.14 49.29 49.97 50.54 50.29 49.33 49.80 50.91 51.43 51.40 51.95 52.19 51.35 53.00 54.79 56.02 55.87 56.99 56.22 57.46 58.41 58.92 56.81 59.34 58.13 60.55 63.41 65.67 65.91 65.29 64.62 64.69 66.43 67.26 66.97 66.60
40.89 41.42 42.34 42.77 43.20 43.73 44.91 44.93 46.39 45.74 47.67 48.56 48.19 48.01 47.86 48.50 49.50 50.26 51.13 49.46 48.46 47.83 51.11 54.79 55.94 57.42 58.10 56.47 58.54 59.79 59.35 58.04 59.12 60.33 61.59 61.34 60.73 60.62 61.79 63.29 63.62 63.67 63.48
39.44 39.61 39.77 40.11 40.68 41.63 42.93 42.62 41.97 42.16 42.01 44.13 44.95 44.88 46.22 47.18 47.50 48.42 46.17 46.92 47.89 46.66 45.54 50.22 51.13 51.89 53.27 56.62 57.57 58.46 60.29 56.05 57.54 59.17 59.15 58.55 58.71 59.10 59.28 60.06 60.81 61.07 61.37
37.09 36.77 36.73 37.10 37.17 37.65 38.89 39.04 39.30 39.80 40.61 41.67 41.52 42.61 42.30 43.43 45.71 43.19 43.67 45.90 45.21 45.68 43.69 45.39 47.89 49.88 50.32 50.42 53.00 57.06 58.96 59.33 59.94 56.77 58.72 58.54 58.06 57.88 57.71 57.86 58.47 59.17 59.65
35.91 35.88 35.92 34.51 34.68 34.76 34.71 35.08 35.22 36.80 36.31 36.19 38.29 40.22 39.88 40.81 41.31 40.18 41.45 41.98 42.37 43.68 42.30 40.83 43.72 45.34 46.77 50.00 51.13 51.92 55.12 57.38 58.14 56.57 56.63 57.01 56.90 56.63 56.74 57.01 56.66 56.96 57.29
31.46 32.19 33.44 32.91 32.75 33.38 34.16 34.33 34.73 35.26 35.26 35.71 36.62 36.86 37.34 38.12 37.18 37.77 39.70 39.54 40.78 40.80 41.16 40.03 39.78 43.24 45.54 47.67 48.26 50.03 50.41 51.42 53.48 52.41 55.64 56.02 56.40 56.53 56.03 55.98 55.85 55.58 54.95
30.11 30.55 31.13 31.65 32.22 32.58 33.93 34.37 34.44 33.84 34.03 34.80 36.08 37.19 37.21 36.35 35.81 36.59 37.99 38.31 40.05 39.36 39.13 38.16 38.13 38.90 40.66 42.98 45.35 45.50 45.04 48.11 48.79 50.31 51.59 52.73 54.30 54.79 55.34 55.78 55.28 53.97 53.19
29.71 29.94 30.24 30.54 30.82 31.96 34.24 33.68 34.28 34.58 34.33 34.20 34.99 35.70 36.08 37.48 39.16 37.87 37.04 36.82 35.88 34.63 35.77 36.17 35.31 36.07 36.85 38.52 38.11 40.22 40.18 41.61 44.36 47.34 47.65 49.00 50.65 51.98 53.03 53.75 53.05 52.08 52.60
28.07 28.52 28.52 28.94 28.67 32.58 36.03 37.28 35.99 32.86 33.28 32.92 32.88 34.03 35.34 37.15 36.95 37.46 37.77 37.46 35.87 33.46 32.68 32.38 32.94 32.57 33.39 34.87 36.17 36.26 37.10 37.07 37.86 45.67 44.42 45.35 48.93 49.33 51.04 52.73 53.04 52.55 52.54
27.11 26.91 27.31 28.09 27.94 28.86 36.30 37.00 37.14 32.54 31.99 31.96 32.39 32.64 33.10 34.74 35.57 33.79 35.43 35.31 35.14 35.86 35.43 32.62 31.10 30.60 31.29 32.94 33.74 33.43 34.22 34.71 36.05 39.88 40.71 40.28 45.21 46.60 49.66 50.22 51.01 51.64 52.37
28.44 28.27 28.13 28.40 27.95 29.96 35.77 36.54 37.02 31.69 31.47 31.65 31.77 31.29 30.72 31.22 32.45 33.91 32.61 31.32 31.58 32.17 33.01 33.57 31.54 32.06 32.91 34.07 34.11 33.76 33.51 34.18 35.92 36.66 39.78 38.61 43.26 43.70 45.54 47.22 49.54 50.31 50.33
26.70 27.02 28.90 29.42 29.52 30.23 35.30 36.30 34.85 31.17 31.12 30.66 31.55 31.19 32.26 31.55 35.18 37.23 32.00 30.33 30.01 30.69 35.26 36.77 37.12 37.26 36.87 36.72 36.06 33.66 31.83 31.35 30.75 32.73 36.02 38.06 39.46 39.02 39.49 41.93 45.53 49.53 49.67
27.16 28.13 28.26 28.53 31.23 28.28 33.94 35.72 34.82 31.55 30.87 31.30 32.16 32.30 35.10 34.04 36.06 36.77 32.85 31.24 28.63 29.52 30.06 30.24 30.64 31.12 32.72 32.18 35.65 33.14 32.82 31.53 31.53 30.16 34.32 35.42 36.14 36.42 36.84 38.06 39.53 46.08 48.39

GFSMA_sfc_wetblb_120.txt.gz
Wetbulb
65.65 64.78 64.94 65.44 65.52 66.37 67.02 66.60 66.41 66.37 65.90 65.47 64.66 63.77 64.04 63.83 62.87 62.02 60.52 62.54 66.81 69.86 70.85 70.43 69.71 69.11 68.64 68.38 68.15 67.66 67.16 66.81 66.52 66.09 65.77 65.36 64.86 64.70 64.68 64.59 64.33 64.18 64.21
64.71 64.55 64.89 64.76 66.19 66.45 66.82 66.77 66.11 65.83 65.75 65.47 64.59 63.61 62.61 63.44 63.17 62.46 60.79 61.66 65.32 67.65 69.67 70.81 70.48 69.66 69.32 68.84 68.54 68.21 67.86 67.48 67.15 66.89 66.66 66.40 66.05 65.63 65.40 65.29 65.12 64.88 64.78
63.55 63.71 63.79 63.24 64.44 65.41 65.62 66.06 66.02 65.86 65.47 65.32 64.69 64.26 63.31 61.54 61.95 62.42 60.35 61.12 63.72 64.54 67.26 70.18 70.37 70.79 70.39 69.15 68.83 68.44 68.78 68.71 68.33 67.97 67.39 67.21 67.27 67.20 66.56 66.27 65.92 65.61 65.40
63.31 63.16 63.12 63.52 64.39 64.44 64.99 65.31 65.14 64.58 65.23 65.54 65.14 64.83 64.56 62.66 59.59 58.42 60.35 60.35 61.68 63.59 64.66 67.38 68.95 69.62 70.51 70.42 69.79 69.41 69.93 69.27 68.99 68.90 68.72 68.50 68.30 68.19 67.59 67.33 67.07 66.59 66.18
62.55 61.58 62.37 63.06 63.48 63.55 63.83 64.29 63.81 63.74 63.93 63.94 63.75 64.17 63.55 63.02 63.18 63.47 61.29 60.15 60.02 62.33 62.60 63.60 65.24 66.22 67.60 69.60 69.51 69.34 70.50 69.71 69.40 69.35 69.26 68.97 68.86 68.91 68.34 68.14 68.29 67.54 67.10
61.87 61.05 61.57 61.98 62.31 61.18 61.65 61.51 61.81 62.04 61.36 61.34 62.58 63.20 63.82 64.14 64.12 63.67 62.82 62.45 60.97 59.12 60.76 60.96 61.79 62.91 63.86 67.26 68.99 69.25 69.68 70.07 69.63 69.37 69.56 69.32 69.01 69.03 68.73 68.53 68.49 68.21 67.73
59.60 59.99 60.72 61.56 60.98 60.96 60.77 60.75 59.85 59.66 59.96 60.51 58.89 60.08 61.27 63.01 62.98 62.89 62.98 62.26 61.25 60.27 57.60 58.85 59.14 59.53 61.10 64.06 66.26 67.93 69.00 69.62 70.01 69.80 69.38 69.46 69.17 69.22 69.06 68.62 68.74 68.58 68.23
57.40 58.31 58.60 60.14 61.58 60.55 58.50 58.71 59.30 58.67 58.94 60.84 57.35 56.43 53.48 57.37 61.65 62.19 62.16 61.59 60.98 61.43 60.68 58.52 58.31 58.95 59.32 60.03 61.25 64.41 67.09 68.61 69.07 69.67 69.84 69.53 69.54 69.38 69.00 68.99 69.04 68.78 68.64
54.60 55.41 56.77 58.59 60.34 60.41 58.96 58.60 58.91 59.10 58.61 60.67 60.57 55.74 53.44 51.52 54.83 60.30 61.33 61.96 62.17 62.14 61.89 61.27 59.80 58.65 58.77 59.21 59.53 60.74 62.53 64.94 67.79 68.83 69.48 69.76 69.86 69.71 69.48 68.80 68.49 68.62 68.47
50.87 50.74 53.41 54.63 55.87 60.19 59.81 58.63 59.91 59.69 58.36 57.59 57.71 58.99 57.36 55.28 51.88 51.46 55.86 59.28 61.15 60.95 61.23 61.03 60.88 60.13 58.30 58.79 58.58 58.37 59.54 61.47 65.24 67.17 68.46 69.10 69.68 70.40 69.44 69.59 68.80 69.07 68.50
48.11 47.75 48.74 51.81 51.65 53.23 54.74 59.57 59.70 59.32 59.22 57.08 57.14 57.88 56.50 56.70 56.38 56.01 54.26 55.96 56.62 57.96 59.88 60.54 60.70 60.41 59.90 58.88 58.08 58.28 59.02 61.62 64.42 65.95 67.20 67.95 69.00 69.72 70.49 70.07 69.59 68.96 68.59
44.52 44.95 45.39 47.92 48.60 49.52 50.55 53.04 55.52 55.77 56.51 55.94 57.38 57.35 57.38 56.44 55.78 56.03 55.03 55.45 55.89 57.68 57.93 58.60 58.80 59.08 59.37 59.42 58.66 57.44 58.16 60.31 63.37 65.75 66.62 67.48 68.16 68.62 69.51 69.92 69.40 69.10 68.33
41.66 41.66 42.35 43.13 44.59 45.53 48.25 48.62 48.69 51.10 51.88 50.49 51.13 51.59 52.94 51.11 51.67 53.34 55.65 54.46 54.63 56.35 56.55 57.70 58.14 58.50 58.23 57.50 57.95 55.83 56.84 58.78 61.00 64.03 65.36 66.82 66.32 65.97 66.89 68.22 69.29 69.08 68.42
41.61 42.24 42.39 42.35 43.17 43.61 44.18 46.07 45.80 47.57 48.88 47.93 47.69 48.05 49.22 48.65 49.46 50.32 49.77 48.04 48.06 52.41 55.26 55.15 56.43 55.85 54.37 55.05 56.50 55.20 57.28 57.36 58.94 61.58 64.14 65.24 64.09 63.18 63.95 65.12 66.34 66.90 67.03
39.14 39.14 39.88 40.71 41.04 42.48 42.69 43.32 43.22 43.21 44.45 44.90 45.45 46.39 46.92 47.84 48.90 46.72 46.71 47.24 45.71 44.65 46.57 52.64 52.09 51.61 50.99 52.26 52.18 53.57 55.39 57.25 58.30 58.89 59.80 60.35 60.46 60.33 61.14 62.21 62.65 63.80 64.34
36.40 36.27 37.28 37.41 37.67 38.73 40.19 40.39 40.21 40.85 40.83 41.81 42.54 42.23 42.49 44.28 45.27 44.24 45.28 46.34 46.62 43.47 42.02 47.93 47.58 47.33 48.40 48.98 49.48 51.95 52.64 52.75 56.81 58.34 58.56 57.97 58.42 58.48 58.87 59.55 60.20 61.14 61.91
33.58 34.02 35.12 35.68 35.91 36.50 37.54 37.25 37.38 37.57 37.78 38.27 40.34 41.20 40.23 42.21 41.90 41.17 43.41 42.66 43.25 44.31 40.81 42.04 43.43 45.48 45.22 46.18 49.02 50.25 51.30 52.44 54.49 56.55 57.49 58.18 57.92 58.10 58.56 58.15 58.62 59.21 59.61
31.21 31.62 31.81 32.25 32.84 33.64 35.05 35.08 34.92 34.90 34.18 33.85 34.94 36.26 36.79 39.65 37.94 37.90 40.44 39.74 40.94 41.87 39.32 37.25 39.75 41.34 41.70 45.07 46.02 45.20 49.42 50.71 51.54 52.43 53.55 54.32 56.21 57.04 57.17 57.34 57.44 57.82 57.52
29.24 29.81 30.99 30.89 31.14 31.85 33.26 33.01 33.19 33.37 33.28 33.37 34.05 34.28 35.02 34.99 33.98 35.07 37.89 36.97 38.60 39.76 39.68 37.17 36.59 39.68 40.77 42.21 41.98 44.67 43.15 45.11 45.67 47.70 50.51 52.30 53.38 54.67 55.80 56.22 56.17 56.04 55.63
27.89 28.16 28.96 29.54 30.02 30.55 32.27 32.77 33.09 32.44 32.34 33.51 34.66 35.34 35.17 34.43 34.51 35.03 35.73 37.05 36.19 35.22 36.23 35.66 35.47 35.91 37.63 39.09 37.79 36.95 36.36 39.35 39.61 42.81 48.98 50.10 50.89 51.91 53.00 53.80 54.64 53.41 52.67
28.27 28.12 28.18 28.65 28.76 30.50 33.64 32.67 32.20 31.62 31.15 31.09 32.27 33.40 34.33 36.36 38.18 37.00 37.01 35.26 34.88 34.22 33.57 33.17 33.10 33.20 32.98 33.34 32.98 33.89 33.65 35.47 36.91 44.01 41.54 43.33 44.58 46.36 49.72 51.70 51.70 51.30 51.72
26.98 27.42 27.57 28.04 27.79 31.20 36.34 37.23 35.25 31.25 31.23 31.13 30.93 31.77 32.98 35.04 35.22 37.77 37.49 36.57 35.49 32.73 31.80 30.82 30.11 30.26 30.63 31.47 32.59 32.93 32.58 30.81 30.31 38.97 35.75 35.99 39.20 41.55 45.51 48.47 50.80 51.23 51.57
26.09 26.08 26.45 27.15 26.96 27.87 36.07 36.87 36.96 31.45 30.59 30.23 30.39 30.73 31.02 32.91 33.49 32.43 35.70 36.07 34.79 35.61 35.25 32.19 30.40 29.91 29.16 31.33 32.20 31.35 30.70 30.12 30.20 33.84 35.20 33.74 37.78 38.73 44.12 47.31 49.35 49.92 50.29
25.68 25.83 26.24 26.96 26.99 29.18 35.95 36.61 36.84 31.30 31.25 31.09 30.96 29.97 29.09 29.81 30.92 33.19 31.86 31.07 31.21 31.47 32.42 32.80 31.56 31.40 32.00 33.45 32.34 32.13 31.92 31.70 33.01 33.89 35.47 31.26 35.83 35.97 39.47 43.70 46.80 48.23 49.13
24.64 24.93 26.80 26.60 26.26 27.17 34.80 35.75 33.93 29.49 29.49 29.44 30.96 31.09 31.06 30.91 34.84 36.54 31.73 30.93 29.86 30.20 34.65 36.80 36.87 37.45 37.08 35.91 35.40 32.25 29.37 28.79 27.52 30.70 33.70 32.43 34.23 34.30 37.09 38.64 41.75 45.74 47.80
26.16 26.47 26.50 25.90 29.30 25.71 32.61 34.61 33.38 29.04 27.20 28.09 29.01 30.25 34.09 33.26 35.41 35.81 32.26 29.77 28.35 29.65 29.75 30.19 31.13 32.03 31.58 31.13 34.51 31.08 29.46 28.14 27.63 26.29 30.64 28.88 30.66 32.45 33.08 36.06 37.39 40.55 43.69

GFSMA_sfc_wetblb_123.txt.gz
Wetbulb
63.50 64.61 64.66 65.61 65.69 65.23 65.70 66.06 66.32 66.29 66.71 66.25 65.58 65.14 64.57 64.26 63.30 62.38 60.23 61.57 64.44 68.15 70.47 71.41 70.32 69.50 68.73 68.48 68.24 67.79 67.25 66.90 66.59 66.23 65.94 65.51 65.02 64.85 64.87 64.73 64.51 64.38 64.27
61.14 62.48 63.50 64.28 64.76 65.91 66.25 66.32 65.84 65.52 65.46 65.52 65.46 64.53 64.31 64.16 63.94 63.14 61.67 60.15 63.01 65.48 68.60 70.88 71.15 70.28 69.54 68.90 68.53 68.17 68.24 67.47 67.13 66.84 66.52 66.26 65.92 65.44 65.25 65.26 65.23 65.08 64.91
58.92 59.95 61.41 62.92 63.72 64.41 64.97 65.04 65.01 65.22 65.14 65.43 65.10 64.65 64.13 63.06 62.99 63.54 63.53 61.25 60.97 62.97 66.12 70.00 70.71 70.79 70.52 69.45 69.09 68.43 68.78 68.65 68.24 67.86 67.11 67.06 67.01 66.84 66.27 65.98 65.78 65.73 65.61
57.66 58.05 59.51 61.39 63.01 63.56 63.95 64.90 64.98 64.60 64.14 64.26 64.17 64.97 64.66 64.06 61.80 62.43 63.23 61.97 61.47 62.27 64.05 66.87 68.54 69.71 70.27 70.53 69.54 69.26 68.19 68.41 68.64 68.57 68.47 68.22 67.90 67.75 67.06 66.85 66.80 66.57 66.29
55.89 58.17 60.43 61.30 61.97 62.58 62.80 63.15 64.10 64.20 63.00 63.13 63.88 64.72 65.00 63.78 62.53 62.89 61.47 61.48 60.26 61.33 62.09 63.58 64.78 65.87 67.00 69.39 70.18 69.43 69.70 69.38 69.03 69.02 68.67 68.76 68.55 68.40 67.98 67.78 67.90 67.45 67.18
57.63 57.53 57.74 58.63 60.23 60.78 60.45 61.28 61.79 62.96 62.91 62.67 62.98 63.21 63.43 63.35 63.02 62.54 62.55 63.25 63.26 62.75 60.66 61.02 62.25 62.69 63.34 65.97 67.74 69.29 69.50 69.65 69.41 69.34 69.18 68.86 68.89 68.89 68.31 68.30 67.98 67.59 67.44
55.18 55.35 56.40 56.87 58.25 58.44 58.49 60.13 60.62 60.31 61.28 60.59 60.64 60.10 60.19 62.35 62.55 62.71 62.80 63.19 62.85 63.05 62.17 61.29 60.17 60.64 62.00 63.63 65.28 66.46 68.53 69.28 69.31 69.23 69.52 69.44 69.19 69.03 68.72 68.57 68.66 68.19 68.11
52.40 51.55 51.72 53.03 56.45 58.16 57.55 59.03 59.37 58.64 58.28 59.09 57.57 55.89 55.08 57.54 60.86 61.87 62.14 61.68 61.66 62.32 61.21 60.11 59.74 59.38 59.66 60.28 60.81 64.10 65.85 67.52 68.02 68.60 68.72 69.35 69.59 69.50 69.00 69.01 68.92 68.59 68.43
49.26 48.35 48.71 50.03 53.08 55.66 57.42 58.24 58.96 58.79 57.77 58.08 59.64 57.42 53.47 51.10 54.53 59.83 61.04 61.51 61.20 61.10 61.63 61.59 61.30 60.04 59.79 59.77 59.85 60.34 62.07 64.35 67.06 68.17 68.71 68.72 68.78 69.84 69.61 69.70 69.35 69.07 68.84
45.91 46.14 46.88 48.20 49.93 52.98 56.64 57.99 59.30 59.23 59.33 57.32 58.66 60.06 58.33 55.78 52.86 51.10 55.31 58.69 60.95 60.90 61.56 61.90 61.56 60.73 59.49 59.38 58.85 58.40 59.39 61.39 64.23 66.03 66.94 67.96 68.63 69.40 69.87 69.97 69.97 69.29 68.80
43.80 44.41 44.80 45.91 47.36 49.05 50.28 53.36 55.78 57.35 58.73 58.01 57.39 57.27 58.21 57.99 56.37 54.86 53.14 54.52 54.92 57.50 59.79 60.73 60.89 60.77 60.64 59.79 59.07 58.57 58.77 60.76 63.26 64.82 66.26 66.92 67.37 67.59 68.51 69.71 69.79 69.44 68.83
42.41 42.45 43.46 43.93 44.88 46.30 47.38 48.03 49.18 49.90 51.44 52.09 52.48 55.45 57.14 55.75 55.33 55.64 54.95 54.32 53.66 56.41 57.20 59.00 59.55 59.74 59.92 60.12 59.09 56.97 57.89 59.79 62.44 64.00 65.44 66.11 67.03 67.10 67.59 68.35 68.87 68.96 68.88
40.39 41.43 42.22 42.11 43.11 43.65 45.33 45.66 45.85 46.83 47.42 46.81 47.60 49.84 49.02 49.87 51.75 52.28 54.25 53.36 53.81 55.60 56.24 57.06 58.93 57.61 55.39 53.92 55.91 52.11 54.70 57.22 59.10 61.22 63.57 64.98 65.54 65.11 65.48 66.57 67.57 67.63 68.03
38.81 37.78 40.61 40.89 41.07 42.72 43.11 43.55 43.05 43.90 44.09 45.20 46.19 46.96 47.42 48.11 48.64 47.56 48.60 48.19 48.05 49.33 51.99 53.21 50.96 49.72 48.98 50.86 51.14 50.71 52.27 54.03 54.69 57.48 60.48 61.63 62.06 62.30 63.16 64.30 64.87 65.47 66.52
36.02 35.39 36.44 37.62 38.83 40.80 40.73 41.29 41.41 41.90 42.44 42.98 43.71 44.33 45.18 47.26 45.49 45.43 46.37 47.31 46.46 44.77 45.45 49.89 50.38 46.88 47.33 48.51 48.45 50.65 51.16 51.78 54.00 55.65 56.03 57.88 58.22 58.45 59.60 61.07 62.14 62.78 63.15
32.39 33.02 33.78 34.49 35.19 37.17 37.71 38.27 38.11 38.78 39.16 40.46 41.61 41.28 41.73 44.47 41.51 41.28 44.40 44.68 45.20 44.10 42.99 44.17 43.82 43.52 45.25 44.86 47.09 46.82 47.44 50.39 52.50 53.51 53.11 53.88 54.57 56.84 57.79 58.65 59.97 60.76 60.84
30.12 30.75 31.50 32.29 32.53 34.05 35.22 35.24 35.26 35.40 35.69 36.47 37.86 38.95 39.98 41.02 39.93 39.68 41.36 41.56 40.48 41.22 39.28 40.35 41.06 42.07 41.51 41.35 43.39 44.16 46.04 47.46 49.44 48.94 49.14 50.86 53.49 54.35 55.38 57.31 58.08 58.78 59.30
28.71 29.00 29.57 29.93 30.48 31.68 32.90 33.06 32.95 33.27 32.88 33.07 33.86 35.27 35.10 36.16 35.37 36.43 39.06 37.63 37.59 38.68 37.43 34.82 38.19 37.70 38.37 41.11 41.87 41.41 41.61 43.86 43.87 44.53 45.61 50.85 52.32 52.83 53.24 53.78 55.40 57.10 57.51
27.76 28.05 28.46 28.39 28.82 29.89 31.11 31.83 32.00 32.13 31.96 32.12 33.01 33.17 33.54 33.29 32.69 33.75 34.54 35.65 35.38 36.39 36.15 34.71 33.46 35.69 35.86 37.12 35.16 36.88 36.50 38.40 39.86 41.37 42.47 47.83 48.32 48.11 49.20 52.06 53.10 53.71 55.11
26.68 27.04 27.77 28.30 28.65 28.98 30.67 31.65 31.86 31.15 30.62 31.57 32.72 33.00 33.10 33.16 33.57 33.12 34.71 33.42 33.82 32.34 32.41 31.69 31.81 32.26 33.51 34.32 33.26 31.86 31.72 34.99 34.56 37.24 42.69 41.09 41.85 42.35 43.72 48.03 50.08 50.43 50.84
26.75 26.82 27.03 27.52 27.70 29.31 32.56 32.44 31.20 30.43 29.90 30.00 30.96 31.87 32.42 34.83 36.78 36.69 35.36 32.83 31.91 30.83 30.64 30.92 29.45 30.11 29.72 30.12 29.90 31.56 30.99 32.18 32.93 38.29 34.98 35.63 37.64 38.79 40.62 43.36 45.44 48.03 49.50
25.89 26.22 26.06 26.27 26.14 30.05 36.09 37.26 34.12 30.17 30.03 29.83 29.84 30.30 30.87 33.32 33.92 35.99 37.34 37.40 34.54 29.78 29.41 28.04 28.74 28.34 28.40 29.74 31.47 31.74 30.92 29.03 27.48 35.31 32.64 33.04 37.06 36.58 39.00 43.13 45.58 46.46 47.58
24.87 24.86 25.18 25.85 25.93 26.52 36.07 36.71 36.95 30.63 29.52 29.20 29.76 29.66 30.41 32.23 32.78 30.85 34.13 36.23 36.47 36.57 35.87 30.88 28.15 28.15 28.56 29.79 30.21 28.83 28.32 29.46 29.82 32.57 32.20 30.98 34.76 34.63 37.43 40.26 42.57 44.78 45.01
24.25 24.43 24.68 25.68 25.47 28.11 35.29 36.18 35.65 29.13 28.66 28.80 29.44 28.99 28.50 28.75 30.56 33.35 31.61 30.46 30.81 31.50 31.27 31.76 30.63 31.04 30.88 32.18 31.93 31.24 30.99 30.41 30.00 31.42 33.49 27.21 32.23 31.97 34.78 36.36 40.16 43.92 45.26
23.71 23.83 25.72 25.03 24.50 25.70 33.71 35.09 32.77 27.92 27.94 27.22 28.34 28.95 30.28 29.74 33.95 35.83 31.00 29.61 29.83 30.04 34.24 36.65 37.27 37.43 37.59 37.81 34.83 29.96 27.26 25.99 25.03 27.09 29.26 30.06 28.92 27.97 30.37 32.53 38.75 40.23 41.59
25.77 25.84 25.80 25.03 27.67 24.53 31.25 33.90 32.73 27.92 26.41 26.57 27.25 29.32 32.51 31.60 33.96 34.48 30.85 29.04 29.04 30.42 30.05 31.17 31.59 31.62 33.63 30.10 34.13 29.57 27.52 26.36 25.55 23.42 27.80 25.57 26.53 28.31 26.04 31.03 32.64 34.30 36.94

GFSMA_sfc_wetblb_126.txt.gz
Wetbulb
56.02 58.38 59.87 61.48 62.47 63.82 64.41 65.37 65.48 65.64 66.05 66.32 66.26 66.16 65.57 65.07 64.48 64.00 62.50 62.12 64.07 65.71 67.52 69.69 71.14 70.52 69.64 68.79 68.45 68.12 67.67 67.20 66.87 66.55 66.26 65.91 65.40 65.20 65.23 65.09 64.84 64.66 64.55
54.76 56.89 58.01 58.92 60.48 62.66 63.70 64.36 65.24 65.17 64.94 65.35 65.60 66.07 65.60 65.34 64.72 63.72 62.71 61.28 63.00 64.43 66.34 68.19 70.56 70.33 70.17 69.32 68.90 68.62 68.75 67.75 67.39 66.99 66.68 66.40 66.10 65.63 65.36 65.42 65.36 65.18 65.09
52.09 53.95 55.98 56.67 58.52 61.06 62.18 62.86 63.59 64.89 64.97 65.10 64.97 65.49 65.34 65.18 64.37 63.81 63.44 61.97 61.68 62.44 64.23 66.20 68.19 70.16 70.40 69.77 69.43 68.83 68.10 68.74 68.39 68.11 67.57 67.26 67.18 66.91 66.14 65.83 65.71 65.72 65.77
52.60 53.97 55.17 56.72 59.20 60.74 61.57 60.96 60.88 61.51 63.22 64.09 63.59 64.27 64.55 64.83 64.31 63.86 63.82 63.70 63.22 62.41 62.74 64.87 66.67 68.86 70.11 69.94 69.82 69.41 69.42 68.60 68.47 68.44 68.32 68.07 67.79 67.60 66.94 66.72 66.85 66.55 66.28
55.41 55.18 55.74 56.48 57.50 58.26 58.86 59.37 59.32 60.59 61.20 62.39 62.88 63.68 64.18 64.57 64.67 63.91 62.96 63.42 62.69 62.18 62.10 63.33 64.14 65.17 66.28 68.67 69.33 69.12 69.18 68.72 68.42 68.57 68.25 68.13 68.13 68.18 67.91 67.38 67.63 67.38 66.90
52.45 51.93 53.15 53.73 55.04 55.78 56.87 56.78 56.66 58.80 59.73 60.87 61.55 61.88 62.47 63.86 63.76 63.23 62.10 61.29 60.88 60.47 61.35 61.68 61.03 62.00 62.19 63.14 65.39 67.33 67.86 68.95 67.91 67.99 68.73 68.19 67.95 68.64 68.34 68.18 68.28 67.98 67.53
50.58 48.77 48.96 50.30 51.75 53.56 53.79 56.31 56.30 55.80 57.65 60.14 59.78 59.88 60.84 62.49 62.87 62.84 63.06 62.43 62.08 62.18 62.09 61.40 60.51 60.97 61.30 62.01 62.83 64.27 65.69 66.53 66.87 67.65 67.91 68.73 68.12 68.77 68.67 68.40 68.36 68.08 68.04
47.92 46.73 46.22 48.67 50.05 51.04 52.45 53.83 55.71 55.75 56.70 59.22 57.08 55.64 55.15 56.34 60.29 61.70 62.20 62.52 62.02 62.00 61.99 61.91 61.67 61.42 60.67 60.79 60.63 61.74 63.14 64.75 65.70 66.22 66.83 67.17 67.98 69.06 69.07 69.12 69.10 68.54 68.56
45.35 45.15 45.08 46.59 48.53 49.01 50.07 50.62 54.97 54.20 53.81 56.93 59.09 55.65 53.22 52.30 53.54 57.71 60.37 61.41 61.53 61.15 61.55 61.50 60.76 61.10 61.19 60.79 60.49 60.55 61.05 61.99 63.95 64.63 65.45 66.29 66.62 67.22 68.68 68.78 69.20 69.24 68.87
43.44 43.74 43.99 44.47 44.85 47.37 48.11 48.44 51.52 54.70 55.30 54.16 57.13 59.47 56.66 55.95 53.08 51.74 55.37 59.63 60.96 60.47 60.81 61.38 61.33 60.54 60.36 59.95 59.49 59.36 59.96 61.07 63.39 65.37 66.07 66.48 66.40 66.69 68.14 68.28 68.82 69.14 68.89
42.68 43.06 43.09 43.23 43.53 44.58 45.82 46.81 47.81 49.28 51.29 55.65 56.18 55.41 56.63 56.93 55.63 54.63 52.86 54.48 56.50 59.07 60.96 60.76 61.01 60.30 60.30 60.19 59.75 58.96 58.95 60.50 62.85 64.25 65.23 66.05 66.34 66.80 67.18 67.68 68.36 68.68 68.73
41.64 40.72 42.44 42.04 43.03 43.41 43.47 44.45 45.35 46.50 47.77 48.49 51.28 51.43 50.88 49.53 47.14 48.57 52.23 54.47 54.72 55.86 57.79 58.76 60.14 60.36 59.83 59.77 51.33 52.29 55.21 56.70 59.12 60.85 62.92 64.06 64.71 65.48 65.88 66.42 66.89 67.67 67.90
36.29 35.36 37.71 38.77 40.86 42.11 42.53 43.19 43.41 44.31 44.41 45.32 46.43 47.79 47.70 47.88 48.28 48.71 49.12 48.08 54.08 55.63 56.32 53.26 53.23 51.53 51.49 52.67 49.26 50.89 52.83 53.58 54.77 58.23 60.96 62.44 62.62 62.78 62.90 63.88 65.39 66.20 66.76
33.98 34.33 34.97 35.93 37.42 39.79 40.72 40.86 41.20 41.98 43.02 43.14 42.45 42.75 46.01 44.18 43.87 44.63 45.64 45.20 46.77 49.60 51.76 51.27 48.21 46.52 48.20 46.88 47.67 50.04 50.93 50.47 53.41 55.40 56.75 56.54 56.31 57.72 60.00 61.07 62.13 63.09 64.96
33.40 32.10 32.45 32.95 34.02 35.80 36.94 38.53 38.66 38.83 40.00 41.42 42.07 41.51 43.58 41.30 40.69 42.12 45.00 45.12 44.38 44.82 46.82 48.80 48.05 43.70 44.38 43.98 46.85 46.50 45.98 48.48 51.67 52.35 52.17 50.99 52.33 54.32 55.81 58.49 59.64 60.65 61.34
29.90 30.37 30.69 31.12 31.67 33.86 34.60 34.72 34.97 35.87 36.79 37.94 39.12 40.54 40.45 40.12 39.72 40.38 42.99 41.80 42.69 41.88 42.15 43.16 42.39 41.14 41.97 42.14 43.70 42.55 45.12 45.69 48.39 47.01 47.82 47.49 51.89 53.51 54.01 55.01 56.29 58.41 59.40
28.59 29.11 29.72 30.16 30.25 31.70 32.72 32.61 32.73 32.80 33.32 34.35 35.79 36.54 35.99 36.92 37.21 38.45 41.45 39.70 40.06 40.53 37.87 39.74 40.21 39.83 39.23 38.12 39.67 38.15 40.65 40.85 41.35 43.08 44.28 45.25 51.19 50.43 49.99 51.47 53.41 54.64 56.27
27.37 27.60 28.06 28.39 28.56 29.53 30.81 31.29 31.21 31.43 30.77 31.21 32.39 33.58 33.60 34.99 35.08 35.97 37.88 37.18 37.24 37.77 36.85 34.40 36.32 35.74 36.48 37.96 35.40 35.16 36.70 38.42 37.61 39.97 42.00 46.25 45.93 45.25 44.78 45.88 49.75 51.33 52.51
26.46 26.70 27.17 27.25 27.59 28.34 29.36 30.48 30.75 30.44 30.13 30.50 31.24 31.07 31.64 32.46 32.51 32.81 34.65 34.37 33.91 34.13 33.36 32.88 31.87 33.73 34.38 34.26 32.33 33.07 33.28 33.87 36.18 38.17 42.08 41.05 41.45 42.32 43.02 43.95 45.34 46.76 48.54
25.86 26.08 26.59 27.04 27.40 27.64 29.38 31.11 30.64 29.64 29.10 30.01 31.05 31.12 30.88 31.66 31.79 31.70 33.69 32.40 32.66 31.09 30.86 30.58 30.31 30.37 30.70 31.77 31.07 30.10 30.38 32.31 32.04 34.84 37.22 37.52 39.10 40.45 41.45 42.62 44.28 46.22 46.80
26.17 26.06 26.11 26.45 26.53 28.02 31.38 31.79 30.47 29.44 28.73 28.78 29.61 30.39 31.00 33.74 35.88 35.32 33.73 32.08 30.91 29.61 29.10 28.88 28.17 28.18 28.03 27.82 27.98 30.02 29.25 29.86 30.60 33.09 32.26 32.75 34.16 35.94 37.60 40.42 41.91 42.95 44.32
25.03 25.18 25.10 25.33 25.29 29.08 34.12 37.20 34.74 29.59 29.02 28.67 28.46 28.96 29.83 32.74 33.37 35.86 36.66 37.18 35.20 29.12 28.20 27.47 27.11 27.38 27.27 27.59 28.22 28.56 27.81 26.59 25.19 33.17 30.65 30.30 33.40 33.08 34.98 37.43 40.40 40.16 42.19
24.03 23.80 24.04 24.80 24.98 25.63 35.16 36.88 35.96 28.85 28.75 28.25 29.12 29.00 29.39 31.31 31.63 29.97 33.83 35.42 34.54 36.79 36.77 32.24 28.26 27.26 27.17 28.30 28.90 29.43 26.99 26.15 26.61 30.04 29.23 27.09 31.54 31.64 34.39 33.67 36.30 38.75 44.28
23.33 23.38 23.66 24.26 24.43 26.97 33.70 35.69 35.15 28.26 27.53 27.55 27.94 27.61 27.65 28.38 29.59 32.01 30.16 29.09 29.24 30.03 30.86 31.38 30.19 30.08 29.91 31.02 32.61 31.97 28.63 27.54 27.87 28.83 29.17 22.83 30.91 28.08 29.73 31.48 36.42 40.27 39.30
23.20 23.30 25.11 24.03 23.43 24.79 31.94 34.11 32.58 27.78 27.68 26.80 27.39 27.78 28.97 27.79 32.62 34.79 29.71 28.43 27.88 28.93 34.00 36.18 36.49 36.98 37.55 37.92 37.02 29.43 25.83 23.41 22.97 24.68 26.95 25.33 25.21 26.09 28.28 30.23 34.40 35.77 36.75
25.85 26.17 25.74 24.46 26.78 24.57 29.73 33.07 32.24 27.88 26.27 26.40 26.59 28.16 32.22 31.32 33.89 34.36 30.93 28.49 27.86 28.59 29.13 29.68 31.21 32.39 33.22 31.75 35.14 30.41 26.58 24.33 24.85 21.73 26.59 23.79 24.96 25.19 22.58 29.00 28.54 30.97 31.46